<?xml version="1.0" encoding="UTF-8" standalone="no" ?>
<gpx xmlns="http://www.topografix.com/GPX/1/1" xmlns:xsi="http://www.w3.org/2001/XMLSchema-instance" xsi:schemaLocation="http://www.topografix.com/GPX/1/1 http://www.topografix.com/GPX/1/1/gpx.xsd" version="1.1" creator="VisuGPX - https://www.visugpx.com">
  <metadata>
    <name>Vence col de Vence Puy Tourette Pic Courmette</name>
    <desc><![CDATA[Joli tour, qui permet de revenir sur Vence. pratiquement tout monte en vélo. 
Passage un peu difficile à trouver à la montée sur le Pic de Courmette, il faut rester en crête puis on récupère le chemin qui arrive de Tourette qu'on prend pour monter au Pic et ensuite pour redescendre. La descente est assez technique, caillouteuse au début puis virages serrés dans les arbres. après la piste, on prend à droite au niveau de stèle de l'avion, et on regagne Vence par une descente plus soft.]]></desc>
  </metadata>
  <trk>
    <name><![CDATA[Vence Cyclisme]]></name>
    <extensions>
      <line xmlns="http://www.topografix.com/GPX/gpx_style/0/2">
        <color>0000FF</color>
        <width>4</width>
      </line>
    </extensions>
    <trkseg>
      <trkpt lat="43.72692" lon="7.08105">
        <ele>425.79998779297</ele>
        <time>2022-02-11T08:55:35.000Z</time>
      </trkpt>
      <trkpt lat="43.72693" lon="7.08104">
        <ele>425.79998779297</ele>
        <time>2022-02-11T08:55:36.000Z</time>
      </trkpt>
      <trkpt lat="43.72696" lon="7.08097">
        <ele>426.60000610352</ele>
        <time>2022-02-11T08:55:39.000Z</time>
      </trkpt>
      <trkpt lat="43.72697" lon="7.08095">
        <ele>427.60000610352</ele>
        <time>2022-02-11T08:55:40.000Z</time>
      </trkpt>
      <trkpt lat="43.72699" lon="7.08085">
        <ele>428.79998779297</ele>
        <time>2022-02-11T08:55:44.000Z</time>
      </trkpt>
      <trkpt lat="43.727" lon="7.0808">
        <ele>430</ele>
        <time>2022-02-11T08:55:46.000Z</time>
      </trkpt>
      <trkpt lat="43.72703" lon="7.08072">
        <ele>431</ele>
        <time>2022-02-11T08:55:49.000Z</time>
      </trkpt>
      <trkpt lat="43.72708" lon="7.08069">
        <ele>432</ele>
        <time>2022-02-11T08:55:51.000Z</time>
      </trkpt>
      <trkpt lat="43.72711" lon="7.08066">
        <ele>433.20001220703</ele>
        <time>2022-02-11T08:55:53.000Z</time>
      </trkpt>
      <trkpt lat="43.72712" lon="7.08064">
        <ele>433.79998779297</ele>
        <time>2022-02-11T08:55:54.000Z</time>
      </trkpt>
      <trkpt lat="43.72713" lon="7.0806">
        <ele>434.20001220703</ele>
        <time>2022-02-11T08:55:55.000Z</time>
      </trkpt>
      <trkpt lat="43.72716" lon="7.08052">
        <ele>435.39999389648</ele>
        <time>2022-02-11T08:55:58.000Z</time>
      </trkpt>
      <trkpt lat="43.72718" lon="7.08045">
        <ele>436</ele>
        <time>2022-02-11T08:56:00.000Z</time>
      </trkpt>
      <trkpt lat="43.72718" lon="7.08042">
        <ele>436.39999389648</ele>
        <time>2022-02-11T08:56:01.000Z</time>
      </trkpt>
      <trkpt lat="43.72718" lon="7.08035">
        <ele>437.60000610352</ele>
        <time>2022-02-11T08:56:03.000Z</time>
      </trkpt>
      <trkpt lat="43.72718" lon="7.08021">
        <ele>438.79998779297</ele>
        <time>2022-02-11T08:56:07.000Z</time>
      </trkpt>
      <trkpt lat="43.72719" lon="7.08014">
        <ele>440</ele>
        <time>2022-02-11T08:56:09.000Z</time>
      </trkpt>
      <trkpt lat="43.7272" lon="7.08006">
        <ele>441.20001220703</ele>
        <time>2022-02-11T08:56:11.000Z</time>
      </trkpt>
      <trkpt lat="43.7272" lon="7.07999">
        <ele>442.39999389648</ele>
        <time>2022-02-11T08:56:13.000Z</time>
      </trkpt>
      <trkpt lat="43.72721" lon="7.07992">
        <ele>443.39999389648</ele>
        <time>2022-02-11T08:56:15.000Z</time>
      </trkpt>
      <trkpt lat="43.72722" lon="7.07981">
        <ele>444.60000610352</ele>
        <time>2022-02-11T08:56:18.000Z</time>
      </trkpt>
      <trkpt lat="43.72722" lon="7.07974">
        <ele>445.60000610352</ele>
        <time>2022-02-11T08:56:20.000Z</time>
      </trkpt>
      <trkpt lat="43.72723" lon="7.0797">
        <ele>446</ele>
        <time>2022-02-11T08:56:21.000Z</time>
      </trkpt>
      <trkpt lat="43.72724" lon="7.0796">
        <ele>447</ele>
        <time>2022-02-11T08:56:24.000Z</time>
      </trkpt>
      <trkpt lat="43.72725" lon="7.0795">
        <ele>448.20001220703</ele>
        <time>2022-02-11T08:56:27.000Z</time>
      </trkpt>
      <trkpt lat="43.72729" lon="7.07941">
        <ele>449.60000610352</ele>
        <time>2022-02-11T08:56:30.000Z</time>
      </trkpt>
      <trkpt lat="43.72733" lon="7.07941">
        <ele>450.79998779297</ele>
        <time>2022-02-11T08:56:32.000Z</time>
      </trkpt>
      <trkpt lat="43.72735" lon="7.07945">
        <ele>451.79998779297</ele>
        <time>2022-02-11T08:56:34.000Z</time>
      </trkpt>
      <trkpt lat="43.72737" lon="7.07949">
        <ele>452.60000610352</ele>
        <time>2022-02-11T08:56:36.000Z</time>
      </trkpt>
      <trkpt lat="43.72738" lon="7.07952">
        <ele>452.79998779297</ele>
        <time>2022-02-11T08:56:37.000Z</time>
      </trkpt>
      <trkpt lat="43.72739" lon="7.07953">
        <ele>452.79998779297</ele>
        <time>2022-02-11T08:56:38.000Z</time>
      </trkpt>
      <trkpt lat="43.72744" lon="7.07964">
        <ele>453.79998779297</ele>
        <time>2022-02-11T08:56:43.000Z</time>
      </trkpt>
      <trkpt lat="43.72744" lon="7.07965">
        <ele>454.20001220703</ele>
        <time>2022-02-11T08:56:44.000Z</time>
      </trkpt>
      <trkpt lat="43.72746" lon="7.07971">
        <ele>455.20001220703</ele>
        <time>2022-02-11T08:56:47.000Z</time>
      </trkpt>
      <trkpt lat="43.7275" lon="7.07976">
        <ele>456.39999389648</ele>
        <time>2022-02-11T08:56:50.000Z</time>
      </trkpt>
      <trkpt lat="43.7275" lon="7.07977">
        <ele>456.60000610352</ele>
        <time>2022-02-11T08:56:51.000Z</time>
      </trkpt>
      <trkpt lat="43.72751" lon="7.07978">
        <ele>456.79998779297</ele>
        <time>2022-02-11T08:56:52.000Z</time>
      </trkpt>
      <trkpt lat="43.72754" lon="7.07981">
        <ele>457.39999389648</ele>
        <time>2022-02-11T08:56:54.000Z</time>
      </trkpt>
      <trkpt lat="43.72758" lon="7.07983">
        <ele>457.79998779297</ele>
        <time>2022-02-11T08:56:56.000Z</time>
      </trkpt>
      <trkpt lat="43.7276" lon="7.07984">
        <ele>457.79998779297</ele>
        <time>2022-02-11T08:56:57.000Z</time>
      </trkpt>
      <trkpt lat="43.72763" lon="7.07984">
        <ele>458.39999389648</ele>
        <time>2022-02-11T08:57:00.000Z</time>
      </trkpt>
      <trkpt lat="43.72767" lon="7.07984">
        <ele>459</ele>
        <time>2022-02-11T08:57:02.000Z</time>
      </trkpt>
      <trkpt lat="43.72771" lon="7.07985">
        <ele>459.60000610352</ele>
        <time>2022-02-11T08:57:04.000Z</time>
      </trkpt>
      <trkpt lat="43.72779" lon="7.07986">
        <ele>460</ele>
        <time>2022-02-11T08:57:08.000Z</time>
      </trkpt>
      <trkpt lat="43.72785" lon="7.07986">
        <ele>460.60000610352</ele>
        <time>2022-02-11T08:57:11.000Z</time>
      </trkpt>
      <trkpt lat="43.72791" lon="7.07985">
        <ele>461.39999389648</ele>
        <time>2022-02-11T08:57:14.000Z</time>
      </trkpt>
      <trkpt lat="43.72794" lon="7.07985">
        <ele>461.79998779297</ele>
        <time>2022-02-11T08:57:15.000Z</time>
      </trkpt>
      <trkpt lat="43.72801" lon="7.07984">
        <ele>462.79998779297</ele>
        <time>2022-02-11T08:57:19.000Z</time>
      </trkpt>
      <trkpt lat="43.72803" lon="7.07985">
        <ele>463.20001220703</ele>
        <time>2022-02-11T08:57:20.000Z</time>
      </trkpt>
      <trkpt lat="43.72806" lon="7.07983">
        <ele>464</ele>
        <time>2022-02-11T08:57:22.000Z</time>
      </trkpt>
      <trkpt lat="43.7281" lon="7.0798">
        <ele>465</ele>
        <time>2022-02-11T08:57:24.000Z</time>
      </trkpt>
      <trkpt lat="43.72812" lon="7.07978">
        <ele>465.20001220703</ele>
        <time>2022-02-11T08:57:25.000Z</time>
      </trkpt>
      <trkpt lat="43.72819" lon="7.07976">
        <ele>466.39999389648</ele>
        <time>2022-02-11T08:57:28.000Z</time>
      </trkpt>
      <trkpt lat="43.72822" lon="7.07975">
        <ele>466.60000610352</ele>
        <time>2022-02-11T08:57:29.000Z</time>
      </trkpt>
      <trkpt lat="43.72829" lon="7.07974">
        <ele>467.60000610352</ele>
        <time>2022-02-11T08:57:32.000Z</time>
      </trkpt>
      <trkpt lat="43.72836" lon="7.07974">
        <ele>468.60000610352</ele>
        <time>2022-02-11T08:57:36.000Z</time>
      </trkpt>
      <trkpt lat="43.72838" lon="7.07974">
        <ele>468.79998779297</ele>
        <time>2022-02-11T08:57:37.000Z</time>
      </trkpt>
      <trkpt lat="43.72848" lon="7.07976">
        <ele>470</ele>
        <time>2022-02-11T08:57:42.000Z</time>
      </trkpt>
      <trkpt lat="43.72853" lon="7.07977">
        <ele>470.60000610352</ele>
        <time>2022-02-11T08:57:44.000Z</time>
      </trkpt>
      <trkpt lat="43.72857" lon="7.07978">
        <ele>471.20001220703</ele>
        <time>2022-02-11T08:57:46.000Z</time>
      </trkpt>
      <trkpt lat="43.72864" lon="7.07983">
        <ele>472.20001220703</ele>
        <time>2022-02-11T08:57:50.000Z</time>
      </trkpt>
      <trkpt lat="43.72866" lon="7.07985">
        <ele>472.39999389648</ele>
        <time>2022-02-11T08:57:51.000Z</time>
      </trkpt>
      <trkpt lat="43.72872" lon="7.07992">
        <ele>473.20001220703</ele>
        <time>2022-02-11T08:57:55.000Z</time>
      </trkpt>
      <trkpt lat="43.72876" lon="7.07999">
        <ele>474.20001220703</ele>
        <time>2022-02-11T08:57:59.000Z</time>
      </trkpt>
      <trkpt lat="43.72877" lon="7.08001">
        <ele>474.60000610352</ele>
        <time>2022-02-11T08:58:00.000Z</time>
      </trkpt>
      <trkpt lat="43.7288" lon="7.08006">
        <ele>475.39999389648</ele>
        <time>2022-02-11T08:58:03.000Z</time>
      </trkpt>
      <trkpt lat="43.72882" lon="7.0801">
        <ele>475.60000610352</ele>
        <time>2022-02-11T08:58:05.000Z</time>
      </trkpt>
      <trkpt lat="43.72882" lon="7.08012">
        <ele>475.79998779297</ele>
        <time>2022-02-11T08:58:06.000Z</time>
      </trkpt>
      <trkpt lat="43.7289" lon="7.08018">
        <ele>476.20001220703</ele>
        <time>2022-02-11T08:58:11.000Z</time>
      </trkpt>
      <trkpt lat="43.72895" lon="7.0802">
        <ele>476.39999389648</ele>
        <time>2022-02-11T08:58:13.000Z</time>
      </trkpt>
      <trkpt lat="43.72899" lon="7.08024">
        <ele>477.20001220703</ele>
        <time>2022-02-11T08:58:16.000Z</time>
      </trkpt>
      <trkpt lat="43.729" lon="7.08025">
        <ele>477.60000610352</ele>
        <time>2022-02-11T08:58:17.000Z</time>
      </trkpt>
      <trkpt lat="43.72906" lon="7.08031">
        <ele>478.60000610352</ele>
        <time>2022-02-11T08:58:21.000Z</time>
      </trkpt>
      <trkpt lat="43.72907" lon="7.08033">
        <ele>478.79998779297</ele>
        <time>2022-02-11T08:58:22.000Z</time>
      </trkpt>
      <trkpt lat="43.72913" lon="7.08038">
        <ele>479.39999389648</ele>
        <time>2022-02-11T08:58:26.000Z</time>
      </trkpt>
      <trkpt lat="43.72915" lon="7.08038">
        <ele>479.60000610352</ele>
        <time>2022-02-11T08:58:27.000Z</time>
      </trkpt>
      <trkpt lat="43.72916" lon="7.08039">
        <ele>479.79998779297</ele>
        <time>2022-02-11T08:58:28.000Z</time>
      </trkpt>
      <trkpt lat="43.72916" lon="7.08039">
        <ele>480.39999389648</ele>
        <time>2022-02-11T08:58:31.000Z</time>
      </trkpt>
      <trkpt lat="43.72917" lon="7.0804">
        <ele>480.79998779297</ele>
        <time>2022-02-11T08:58:34.000Z</time>
      </trkpt>
      <trkpt lat="43.72917" lon="7.0804">
        <ele>480.79998779297</ele>
        <time>2022-02-11T08:58:41.000Z</time>
      </trkpt>
      <trkpt lat="43.72921" lon="7.0804">
        <ele>480.60000610352</ele>
        <time>2022-02-11T08:58:57.000Z</time>
      </trkpt>
      <trkpt lat="43.72932" lon="7.08041">
        <ele>480.79998779297</ele>
        <time>2022-02-11T08:59:02.000Z</time>
      </trkpt>
      <trkpt lat="43.72941" lon="7.08044">
        <ele>481.79998779297</ele>
        <time>2022-02-11T08:59:07.000Z</time>
      </trkpt>
      <trkpt lat="43.72945" lon="7.08046">
        <ele>482.39999389648</ele>
        <time>2022-02-11T08:59:09.000Z</time>
      </trkpt>
      <trkpt lat="43.72948" lon="7.0805">
        <ele>483.20001220703</ele>
        <time>2022-02-11T08:59:11.000Z</time>
      </trkpt>
      <trkpt lat="43.72953" lon="7.08054">
        <ele>484.20001220703</ele>
        <time>2022-02-11T08:59:14.000Z</time>
      </trkpt>
      <trkpt lat="43.72955" lon="7.08055">
        <ele>484.39999389648</ele>
        <time>2022-02-11T08:59:15.000Z</time>
      </trkpt>
      <trkpt lat="43.72956" lon="7.08054">
        <ele>484.60000610352</ele>
        <time>2022-02-11T08:59:16.000Z</time>
      </trkpt>
      <trkpt lat="43.72957" lon="7.08049">
        <ele>485.39999389648</ele>
        <time>2022-02-11T08:59:18.000Z</time>
      </trkpt>
      <trkpt lat="43.72957" lon="7.08047">
        <ele>485.39999389648</ele>
        <time>2022-02-11T08:59:19.000Z</time>
      </trkpt>
      <trkpt lat="43.72954" lon="7.08043">
        <ele>486</ele>
        <time>2022-02-11T08:59:21.000Z</time>
      </trkpt>
      <trkpt lat="43.72953" lon="7.08041">
        <ele>486.39999389648</ele>
        <time>2022-02-11T08:59:22.000Z</time>
      </trkpt>
      <trkpt lat="43.7295" lon="7.08037">
        <ele>487.39999389648</ele>
        <time>2022-02-11T08:59:24.000Z</time>
      </trkpt>
      <trkpt lat="43.72949" lon="7.08035">
        <ele>487.79998779297</ele>
        <time>2022-02-11T08:59:25.000Z</time>
      </trkpt>
      <trkpt lat="43.72946" lon="7.08028">
        <ele>489</ele>
        <time>2022-02-11T08:59:28.000Z</time>
      </trkpt>
      <trkpt lat="43.72942" lon="7.08022">
        <ele>490</ele>
        <time>2022-02-11T08:59:31.000Z</time>
      </trkpt>
      <trkpt lat="43.72938" lon="7.08019">
        <ele>491.20001220703</ele>
        <time>2022-02-11T08:59:34.000Z</time>
      </trkpt>
      <trkpt lat="43.72934" lon="7.08014">
        <ele>492.39999389648</ele>
        <time>2022-02-11T08:59:37.000Z</time>
      </trkpt>
      <trkpt lat="43.72928" lon="7.08005">
        <ele>493.60000610352</ele>
        <time>2022-02-11T08:59:41.000Z</time>
      </trkpt>
      <trkpt lat="43.72927" lon="7.08001">
        <ele>494.60000610352</ele>
        <time>2022-02-11T08:59:44.000Z</time>
      </trkpt>
      <trkpt lat="43.72926" lon="7.08">
        <ele>495</ele>
        <time>2022-02-11T08:59:45.000Z</time>
      </trkpt>
      <trkpt lat="43.7293" lon="7.07997">
        <ele>495.39999389648</ele>
        <time>2022-02-11T08:59:48.000Z</time>
      </trkpt>
      <trkpt lat="43.72934" lon="7.08001">
        <ele>495.79998779297</ele>
        <time>2022-02-11T08:59:50.000Z</time>
      </trkpt>
      <trkpt lat="43.72937" lon="7.08004">
        <ele>496.20001220703</ele>
        <time>2022-02-11T08:59:52.000Z</time>
      </trkpt>
      <trkpt lat="43.72945" lon="7.08007">
        <ele>497</ele>
        <time>2022-02-11T08:59:56.000Z</time>
      </trkpt>
      <trkpt lat="43.72946" lon="7.08008">
        <ele>497</ele>
        <time>2022-02-11T08:59:57.000Z</time>
      </trkpt>
      <trkpt lat="43.72949" lon="7.08008">
        <ele>497.39999389648</ele>
        <time>2022-02-11T08:59:58.000Z</time>
      </trkpt>
      <trkpt lat="43.72951" lon="7.08009">
        <ele>498</ele>
        <time>2022-02-11T09:00:00.000Z</time>
      </trkpt>
      <trkpt lat="43.72955" lon="7.08008">
        <ele>498.60000610352</ele>
        <time>2022-02-11T09:00:02.000Z</time>
      </trkpt>
      <trkpt lat="43.72956" lon="7.08007">
        <ele>499</ele>
        <time>2022-02-11T09:00:03.000Z</time>
      </trkpt>
      <trkpt lat="43.7296" lon="7.08">
        <ele>500.39999389648</ele>
        <time>2022-02-11T09:00:06.000Z</time>
      </trkpt>
      <trkpt lat="43.72961" lon="7.07999">
        <ele>500.79998779297</ele>
        <time>2022-02-11T09:00:07.000Z</time>
      </trkpt>
      <trkpt lat="43.72964" lon="7.07997">
        <ele>501.79998779297</ele>
        <time>2022-02-11T09:00:09.000Z</time>
      </trkpt>
      <trkpt lat="43.72969" lon="7.07993">
        <ele>502.79998779297</ele>
        <time>2022-02-11T09:00:12.000Z</time>
      </trkpt>
      <trkpt lat="43.72973" lon="7.07991">
        <ele>503.79998779297</ele>
        <time>2022-02-11T09:00:15.000Z</time>
      </trkpt>
      <trkpt lat="43.72974" lon="7.07992">
        <ele>504.20001220703</ele>
        <time>2022-02-11T09:00:16.000Z</time>
      </trkpt>
      <trkpt lat="43.72979" lon="7.07991">
        <ele>505.39999389648</ele>
        <time>2022-02-11T09:00:19.000Z</time>
      </trkpt>
      <trkpt lat="43.72982" lon="7.07989">
        <ele>506.39999389648</ele>
        <time>2022-02-11T09:00:21.000Z</time>
      </trkpt>
      <trkpt lat="43.72983" lon="7.07988">
        <ele>506.60000610352</ele>
        <time>2022-02-11T09:00:22.000Z</time>
      </trkpt>
      <trkpt lat="43.72988" lon="7.07983">
        <ele>508</ele>
        <time>2022-02-11T09:00:25.000Z</time>
      </trkpt>
      <trkpt lat="43.72991" lon="7.07981">
        <ele>509</ele>
        <time>2022-02-11T09:00:27.000Z</time>
      </trkpt>
      <trkpt lat="43.72992" lon="7.0798">
        <ele>509.20001220703</ele>
        <time>2022-02-11T09:00:28.000Z</time>
      </trkpt>
      <trkpt lat="43.72993" lon="7.0798">
        <ele>509.60000610352</ele>
        <time>2022-02-11T09:00:29.000Z</time>
      </trkpt>
      <trkpt lat="43.72995" lon="7.07979">
        <ele>510.39999389648</ele>
        <time>2022-02-11T09:00:31.000Z</time>
      </trkpt>
      <trkpt lat="43.72997" lon="7.07978">
        <ele>510.60000610352</ele>
        <time>2022-02-11T09:00:32.000Z</time>
      </trkpt>
      <trkpt lat="43.73001" lon="7.07977">
        <ele>511.20001220703</ele>
        <time>2022-02-11T09:00:35.000Z</time>
      </trkpt>
      <trkpt lat="43.73003" lon="7.07977">
        <ele>511.39999389648</ele>
        <time>2022-02-11T09:00:36.000Z</time>
      </trkpt>
      <trkpt lat="43.73006" lon="7.07977">
        <ele>512</ele>
        <time>2022-02-11T09:00:38.000Z</time>
      </trkpt>
      <trkpt lat="43.73009" lon="7.07977">
        <ele>512.59997558594</ele>
        <time>2022-02-11T09:00:40.000Z</time>
      </trkpt>
      <trkpt lat="43.73008" lon="7.07976">
        <ele>513.20001220703</ele>
        <time>2022-02-11T09:00:43.000Z</time>
      </trkpt>
      <trkpt lat="43.7301" lon="7.07977">
        <ele>513.59997558594</ele>
        <time>2022-02-11T09:00:51.000Z</time>
      </trkpt>
      <trkpt lat="43.73011" lon="7.07977">
        <ele>513.59997558594</ele>
        <time>2022-02-11T09:00:52.000Z</time>
      </trkpt>
      <trkpt lat="43.73014" lon="7.07976">
        <ele>514.59997558594</ele>
        <time>2022-02-11T09:00:58.000Z</time>
      </trkpt>
      <trkpt lat="43.73015" lon="7.07975">
        <ele>515</ele>
        <time>2022-02-11T09:01:00.000Z</time>
      </trkpt>
      <trkpt lat="43.73017" lon="7.07975">
        <ele>515.20001220703</ele>
        <time>2022-02-11T09:01:12.000Z</time>
      </trkpt>
      <trkpt lat="43.73018" lon="7.07975">
        <ele>515</ele>
        <time>2022-02-11T09:01:14.000Z</time>
      </trkpt>
      <trkpt lat="43.73021" lon="7.07976">
        <ele>515.20001220703</ele>
        <time>2022-02-11T09:01:17.000Z</time>
      </trkpt>
      <trkpt lat="43.73027" lon="7.07978">
        <ele>515.79998779297</ele>
        <time>2022-02-11T09:01:21.000Z</time>
      </trkpt>
      <trkpt lat="43.73029" lon="7.07978">
        <ele>516</ele>
        <time>2022-02-11T09:01:22.000Z</time>
      </trkpt>
      <trkpt lat="43.73034" lon="7.07978">
        <ele>516.79998779297</ele>
        <time>2022-02-11T09:01:25.000Z</time>
      </trkpt>
      <trkpt lat="43.7304" lon="7.07979">
        <ele>518.20001220703</ele>
        <time>2022-02-11T09:01:29.000Z</time>
      </trkpt>
      <trkpt lat="43.73045" lon="7.07981">
        <ele>519.20001220703</ele>
        <time>2022-02-11T09:01:32.000Z</time>
      </trkpt>
      <trkpt lat="43.73051" lon="7.07985">
        <ele>520.40002441406</ele>
        <time>2022-02-11T09:01:35.000Z</time>
      </trkpt>
      <trkpt lat="43.73057" lon="7.07989">
        <ele>521.79998779297</ele>
        <time>2022-02-11T09:01:38.000Z</time>
      </trkpt>
      <trkpt lat="43.73062" lon="7.07989">
        <ele>522.40002441406</ele>
        <time>2022-02-11T09:01:40.000Z</time>
      </trkpt>
      <trkpt lat="43.73064" lon="7.07988">
        <ele>522.79998779297</ele>
        <time>2022-02-11T09:01:41.000Z</time>
      </trkpt>
      <trkpt lat="43.73071" lon="7.07984">
        <ele>524.20001220703</ele>
        <time>2022-02-11T09:01:44.000Z</time>
      </trkpt>
      <trkpt lat="43.73074" lon="7.07984">
        <ele>524.79998779297</ele>
        <time>2022-02-11T09:01:45.000Z</time>
      </trkpt>
      <trkpt lat="43.73076" lon="7.07983">
        <ele>525.20001220703</ele>
        <time>2022-02-11T09:01:46.000Z</time>
      </trkpt>
      <trkpt lat="43.7308" lon="7.07984">
        <ele>526.40002441406</ele>
        <time>2022-02-11T09:01:48.000Z</time>
      </trkpt>
      <trkpt lat="43.73083" lon="7.07985">
        <ele>527.59997558594</ele>
        <time>2022-02-11T09:01:50.000Z</time>
      </trkpt>
      <trkpt lat="43.73086" lon="7.07986">
        <ele>528.59997558594</ele>
        <time>2022-02-11T09:01:52.000Z</time>
      </trkpt>
      <trkpt lat="43.73094" lon="7.07985">
        <ele>529.59997558594</ele>
        <time>2022-02-11T09:01:55.000Z</time>
      </trkpt>
      <trkpt lat="43.73097" lon="7.07985">
        <ele>530</ele>
        <time>2022-02-11T09:01:56.000Z</time>
      </trkpt>
      <trkpt lat="43.73104" lon="7.07984">
        <ele>531.40002441406</ele>
        <time>2022-02-11T09:01:59.000Z</time>
      </trkpt>
      <trkpt lat="43.73106" lon="7.07984">
        <ele>531.79998779297</ele>
        <time>2022-02-11T09:02:00.000Z</time>
      </trkpt>
      <trkpt lat="43.73109" lon="7.07984">
        <ele>532.40002441406</ele>
        <time>2022-02-11T09:02:01.000Z</time>
      </trkpt>
      <trkpt lat="43.73113" lon="7.07983">
        <ele>533.40002441406</ele>
        <time>2022-02-11T09:02:03.000Z</time>
      </trkpt>
      <trkpt lat="43.73118" lon="7.07982">
        <ele>534.59997558594</ele>
        <time>2022-02-11T09:02:05.000Z</time>
      </trkpt>
      <trkpt lat="43.73121" lon="7.07981">
        <ele>535.20001220703</ele>
        <time>2022-02-11T09:02:06.000Z</time>
      </trkpt>
      <trkpt lat="43.73126" lon="7.0798">
        <ele>536</ele>
        <time>2022-02-11T09:02:08.000Z</time>
      </trkpt>
      <trkpt lat="43.73133" lon="7.07979">
        <ele>537.20001220703</ele>
        <time>2022-02-11T09:02:11.000Z</time>
      </trkpt>
      <trkpt lat="43.73135" lon="7.07979">
        <ele>537.79998779297</ele>
        <time>2022-02-11T09:02:12.000Z</time>
      </trkpt>
      <trkpt lat="43.7314" lon="7.07979">
        <ele>538.40002441406</ele>
        <time>2022-02-11T09:02:14.000Z</time>
      </trkpt>
      <trkpt lat="43.73143" lon="7.07979">
        <ele>539.40002441406</ele>
        <time>2022-02-11T09:02:16.000Z</time>
      </trkpt>
      <trkpt lat="43.73148" lon="7.07978">
        <ele>540.40002441406</ele>
        <time>2022-02-11T09:02:18.000Z</time>
      </trkpt>
      <trkpt lat="43.73154" lon="7.07977">
        <ele>541.59997558594</ele>
        <time>2022-02-11T09:02:21.000Z</time>
      </trkpt>
      <trkpt lat="43.73158" lon="7.07976">
        <ele>542.40002441406</ele>
        <time>2022-02-11T09:02:23.000Z</time>
      </trkpt>
      <trkpt lat="43.73163" lon="7.07974">
        <ele>542.79998779297</ele>
        <time>2022-02-11T09:02:25.000Z</time>
      </trkpt>
      <trkpt lat="43.73169" lon="7.07971">
        <ele>543.79998779297</ele>
        <time>2022-02-11T09:02:28.000Z</time>
      </trkpt>
      <trkpt lat="43.73172" lon="7.07969">
        <ele>544.40002441406</ele>
        <time>2022-02-11T09:02:29.000Z</time>
      </trkpt>
      <trkpt lat="43.73177" lon="7.07965">
        <ele>545.40002441406</ele>
        <time>2022-02-11T09:02:32.000Z</time>
      </trkpt>
      <trkpt lat="43.73184" lon="7.0796">
        <ele>546.59997558594</ele>
        <time>2022-02-11T09:02:35.000Z</time>
      </trkpt>
      <trkpt lat="43.73188" lon="7.07957">
        <ele>547.20001220703</ele>
        <time>2022-02-11T09:02:37.000Z</time>
      </trkpt>
      <trkpt lat="43.7319" lon="7.07956">
        <ele>547.59997558594</ele>
        <time>2022-02-11T09:02:38.000Z</time>
      </trkpt>
      <trkpt lat="43.73196" lon="7.07952">
        <ele>549.20001220703</ele>
        <time>2022-02-11T09:02:41.000Z</time>
      </trkpt>
      <trkpt lat="43.73201" lon="7.0795">
        <ele>550.20001220703</ele>
        <time>2022-02-11T09:02:43.000Z</time>
      </trkpt>
      <trkpt lat="43.73207" lon="7.07949">
        <ele>551.40002441406</ele>
        <time>2022-02-11T09:02:45.000Z</time>
      </trkpt>
      <trkpt lat="43.73211" lon="7.07948">
        <ele>552.40002441406</ele>
        <time>2022-02-11T09:02:47.000Z</time>
      </trkpt>
      <trkpt lat="43.73213" lon="7.07948">
        <ele>552.59997558594</ele>
        <time>2022-02-11T09:02:48.000Z</time>
      </trkpt>
      <trkpt lat="43.73217" lon="7.07948">
        <ele>553.40002441406</ele>
        <time>2022-02-11T09:02:50.000Z</time>
      </trkpt>
      <trkpt lat="43.73226" lon="7.07949">
        <ele>554.59997558594</ele>
        <time>2022-02-11T09:02:54.000Z</time>
      </trkpt>
      <trkpt lat="43.73234" lon="7.07948">
        <ele>555.59997558594</ele>
        <time>2022-02-11T09:02:57.000Z</time>
      </trkpt>
      <trkpt lat="43.73238" lon="7.07947">
        <ele>556.59997558594</ele>
        <time>2022-02-11T09:02:59.000Z</time>
      </trkpt>
      <trkpt lat="43.7324" lon="7.07946">
        <ele>557</ele>
        <time>2022-02-11T09:03:00.000Z</time>
      </trkpt>
      <trkpt lat="43.73245" lon="7.07946">
        <ele>558.20001220703</ele>
        <time>2022-02-11T09:03:02.000Z</time>
      </trkpt>
      <trkpt lat="43.73249" lon="7.07946">
        <ele>559</ele>
        <time>2022-02-11T09:03:04.000Z</time>
      </trkpt>
      <trkpt lat="43.73251" lon="7.07947">
        <ele>559.79998779297</ele>
        <time>2022-02-11T09:03:05.000Z</time>
      </trkpt>
      <trkpt lat="43.73255" lon="7.07948">
        <ele>560.79998779297</ele>
        <time>2022-02-11T09:03:07.000Z</time>
      </trkpt>
      <trkpt lat="43.73259" lon="7.07949">
        <ele>562</ele>
        <time>2022-02-11T09:03:09.000Z</time>
      </trkpt>
      <trkpt lat="43.73263" lon="7.07952">
        <ele>563.59997558594</ele>
        <time>2022-02-11T09:03:12.000Z</time>
      </trkpt>
      <trkpt lat="43.73267" lon="7.07955">
        <ele>564.20001220703</ele>
        <time>2022-02-11T09:03:14.000Z</time>
      </trkpt>
      <trkpt lat="43.73268" lon="7.07956">
        <ele>564.59997558594</ele>
        <time>2022-02-11T09:03:15.000Z</time>
      </trkpt>
      <trkpt lat="43.73274" lon="7.07961">
        <ele>565.79998779297</ele>
        <time>2022-02-11T09:03:19.000Z</time>
      </trkpt>
      <trkpt lat="43.73276" lon="7.07963">
        <ele>566</ele>
        <time>2022-02-11T09:03:20.000Z</time>
      </trkpt>
      <trkpt lat="43.73283" lon="7.07966">
        <ele>566.79998779297</ele>
        <time>2022-02-11T09:03:24.000Z</time>
      </trkpt>
      <trkpt lat="43.73292" lon="7.07966">
        <ele>568</ele>
        <time>2022-02-11T09:03:28.000Z</time>
      </trkpt>
      <trkpt lat="43.73296" lon="7.07967">
        <ele>568.40002441406</ele>
        <time>2022-02-11T09:03:30.000Z</time>
      </trkpt>
      <trkpt lat="43.73297" lon="7.07967">
        <ele>569</ele>
        <time>2022-02-11T09:03:34.000Z</time>
      </trkpt>
      <trkpt lat="43.73302" lon="7.0797">
        <ele>570</ele>
        <time>2022-02-11T09:03:41.000Z</time>
      </trkpt>
      <trkpt lat="43.73303" lon="7.07971">
        <ele>570.59997558594</ele>
        <time>2022-02-11T09:03:47.000Z</time>
      </trkpt>
      <trkpt lat="43.73309" lon="7.07973">
        <ele>570.79998779297</ele>
        <time>2022-02-11T09:03:52.000Z</time>
      </trkpt>
      <trkpt lat="43.73313" lon="7.07974">
        <ele>571.20001220703</ele>
        <time>2022-02-11T09:03:54.000Z</time>
      </trkpt>
      <trkpt lat="43.7332" lon="7.07978">
        <ele>572.40002441406</ele>
        <time>2022-02-11T09:03:58.000Z</time>
      </trkpt>
      <trkpt lat="43.73328" lon="7.07981">
        <ele>573.40002441406</ele>
        <time>2022-02-11T09:04:03.000Z</time>
      </trkpt>
      <trkpt lat="43.73331" lon="7.07981">
        <ele>574.59997558594</ele>
        <time>2022-02-11T09:04:08.000Z</time>
      </trkpt>
      <trkpt lat="43.73332" lon="7.07982">
        <ele>574.79998779297</ele>
        <time>2022-02-11T09:04:27.000Z</time>
      </trkpt>
      <trkpt lat="43.73337" lon="7.07983">
        <ele>574.79998779297</ele>
        <time>2022-02-11T09:04:38.000Z</time>
      </trkpt>
      <trkpt lat="43.73339" lon="7.07983">
        <ele>574.59997558594</ele>
        <time>2022-02-11T09:04:39.000Z</time>
      </trkpt>
      <trkpt lat="43.73346" lon="7.07979">
        <ele>574.20001220703</ele>
        <time>2022-02-11T09:04:42.000Z</time>
      </trkpt>
      <trkpt lat="43.73357" lon="7.07968">
        <ele>573.79998779297</ele>
        <time>2022-02-11T09:04:47.000Z</time>
      </trkpt>
      <trkpt lat="43.73367" lon="7.07954">
        <ele>574.40002441406</ele>
        <time>2022-02-11T09:04:52.000Z</time>
      </trkpt>
      <trkpt lat="43.73373" lon="7.07939">
        <ele>575</ele>
        <time>2022-02-11T09:04:56.000Z</time>
      </trkpt>
      <trkpt lat="43.73378" lon="7.07932">
        <ele>575.59997558594</ele>
        <time>2022-02-11T09:04:59.000Z</time>
      </trkpt>
      <trkpt lat="43.73381" lon="7.07929">
        <ele>576.59997558594</ele>
        <time>2022-02-11T09:05:01.000Z</time>
      </trkpt>
      <trkpt lat="43.73382" lon="7.07926">
        <ele>576.79998779297</ele>
        <time>2022-02-11T09:05:02.000Z</time>
      </trkpt>
      <trkpt lat="43.73384" lon="7.07922">
        <ele>578</ele>
        <time>2022-02-11T09:05:04.000Z</time>
      </trkpt>
      <trkpt lat="43.73388" lon="7.07915">
        <ele>579.20001220703</ele>
        <time>2022-02-11T09:05:07.000Z</time>
      </trkpt>
      <trkpt lat="43.73389" lon="7.07914">
        <ele>579.40002441406</ele>
        <time>2022-02-11T09:05:08.000Z</time>
      </trkpt>
      <trkpt lat="43.73393" lon="7.07907">
        <ele>580.40002441406</ele>
        <time>2022-02-11T09:05:11.000Z</time>
      </trkpt>
      <trkpt lat="43.73393" lon="7.07906">
        <ele>581.79998779297</ele>
        <time>2022-02-11T09:05:13.000Z</time>
      </trkpt>
      <trkpt lat="43.73394" lon="7.07905">
        <ele>582.40002441406</ele>
        <time>2022-02-11T09:05:14.000Z</time>
      </trkpt>
      <trkpt lat="43.73396" lon="7.07903">
        <ele>582.79998779297</ele>
        <time>2022-02-11T09:05:15.000Z</time>
      </trkpt>
      <trkpt lat="43.73406" lon="7.07892">
        <ele>584</ele>
        <time>2022-02-11T09:05:21.000Z</time>
      </trkpt>
      <trkpt lat="43.73409" lon="7.0789">
        <ele>584.79998779297</ele>
        <time>2022-02-11T09:05:23.000Z</time>
      </trkpt>
      <trkpt lat="43.7341" lon="7.07889">
        <ele>585.20001220703</ele>
        <time>2022-02-11T09:05:24.000Z</time>
      </trkpt>
      <trkpt lat="43.73414" lon="7.07886">
        <ele>585.59997558594</ele>
        <time>2022-02-11T09:05:26.000Z</time>
      </trkpt>
      <trkpt lat="43.73417" lon="7.07883">
        <ele>586.20001220703</ele>
        <time>2022-02-11T09:05:28.000Z</time>
      </trkpt>
      <trkpt lat="43.73419" lon="7.07881">
        <ele>586.40002441406</ele>
        <time>2022-02-11T09:05:29.000Z</time>
      </trkpt>
      <trkpt lat="43.73423" lon="7.07879">
        <ele>586.59997558594</ele>
        <time>2022-02-11T09:05:31.000Z</time>
      </trkpt>
      <trkpt lat="43.73433" lon="7.07872">
        <ele>587.20001220703</ele>
        <time>2022-02-11T09:05:36.000Z</time>
      </trkpt>
      <trkpt lat="43.73435" lon="7.0787">
        <ele>587.40002441406</ele>
        <time>2022-02-11T09:05:37.000Z</time>
      </trkpt>
      <trkpt lat="43.73445" lon="7.07861">
        <ele>587.59997558594</ele>
        <time>2022-02-11T09:05:43.000Z</time>
      </trkpt>
      <trkpt lat="43.73448" lon="7.07859">
        <ele>587.79998779297</ele>
        <time>2022-02-11T09:05:45.000Z</time>
      </trkpt>
      <trkpt lat="43.73454" lon="7.0786">
        <ele>588</ele>
        <time>2022-02-11T09:05:47.000Z</time>
      </trkpt>
      <trkpt lat="43.73466" lon="7.07856">
        <ele>587</ele>
        <time>2022-02-11T09:05:50.000Z</time>
      </trkpt>
      <trkpt lat="43.73469" lon="7.07854">
        <ele>586.20001220703</ele>
        <time>2022-02-11T09:05:51.000Z</time>
      </trkpt>
      <trkpt lat="43.73473" lon="7.07852">
        <ele>583.79998779297</ele>
        <time>2022-02-11T09:05:53.000Z</time>
      </trkpt>
      <trkpt lat="43.73475" lon="7.07853">
        <ele>583</ele>
        <time>2022-02-11T09:05:54.000Z</time>
      </trkpt>
      <trkpt lat="43.73478" lon="7.07854">
        <ele>582.20001220703</ele>
        <time>2022-02-11T09:05:55.000Z</time>
      </trkpt>
      <trkpt lat="43.73485" lon="7.07859">
        <ele>582.40002441406</ele>
        <time>2022-02-11T09:05:58.000Z</time>
      </trkpt>
      <trkpt lat="43.73487" lon="7.07861">
        <ele>582.79998779297</ele>
        <time>2022-02-11T09:05:59.000Z</time>
      </trkpt>
      <trkpt lat="43.73489" lon="7.07863">
        <ele>583.20001220703</ele>
        <time>2022-02-11T09:06:00.000Z</time>
      </trkpt>
      <trkpt lat="43.73495" lon="7.07868">
        <ele>584.40002441406</ele>
        <time>2022-02-11T09:06:03.000Z</time>
      </trkpt>
      <trkpt lat="43.73499" lon="7.07874">
        <ele>585.59997558594</ele>
        <time>2022-02-11T09:06:05.000Z</time>
      </trkpt>
      <trkpt lat="43.73503" lon="7.07876">
        <ele>586.59997558594</ele>
        <time>2022-02-11T09:06:07.000Z</time>
      </trkpt>
      <trkpt lat="43.73505" lon="7.07877">
        <ele>587</ele>
        <time>2022-02-11T09:06:08.000Z</time>
      </trkpt>
      <trkpt lat="43.7351" lon="7.07879">
        <ele>588</ele>
        <time>2022-02-11T09:06:10.000Z</time>
      </trkpt>
      <trkpt lat="43.73516" lon="7.07881">
        <ele>589.59997558594</ele>
        <time>2022-02-11T09:06:13.000Z</time>
      </trkpt>
      <trkpt lat="43.73518" lon="7.07882">
        <ele>590.20001220703</ele>
        <time>2022-02-11T09:06:14.000Z</time>
      </trkpt>
      <trkpt lat="43.73522" lon="7.07884">
        <ele>591.20001220703</ele>
        <time>2022-02-11T09:06:16.000Z</time>
      </trkpt>
      <trkpt lat="43.73527" lon="7.0789">
        <ele>592.40002441406</ele>
        <time>2022-02-11T09:06:19.000Z</time>
      </trkpt>
      <trkpt lat="43.73529" lon="7.07891">
        <ele>592.79998779297</ele>
        <time>2022-02-11T09:06:20.000Z</time>
      </trkpt>
      <trkpt lat="43.73532" lon="7.07893">
        <ele>593.59997558594</ele>
        <time>2022-02-11T09:06:22.000Z</time>
      </trkpt>
      <trkpt lat="43.73532" lon="7.07895">
        <ele>594</ele>
        <time>2022-02-11T09:06:23.000Z</time>
      </trkpt>
      <trkpt lat="43.73537" lon="7.07899">
        <ele>594.59997558594</ele>
        <time>2022-02-11T09:06:26.000Z</time>
      </trkpt>
      <trkpt lat="43.73539" lon="7.079">
        <ele>594.79998779297</ele>
        <time>2022-02-11T09:06:27.000Z</time>
      </trkpt>
      <trkpt lat="43.73547" lon="7.07905">
        <ele>596</ele>
        <time>2022-02-11T09:06:31.000Z</time>
      </trkpt>
      <trkpt lat="43.73549" lon="7.07909">
        <ele>596.59997558594</ele>
        <time>2022-02-11T09:06:33.000Z</time>
      </trkpt>
      <trkpt lat="43.73551" lon="7.07911">
        <ele>597</ele>
        <time>2022-02-11T09:06:34.000Z</time>
      </trkpt>
      <trkpt lat="43.73555" lon="7.07915">
        <ele>598.20001220703</ele>
        <time>2022-02-11T09:06:37.000Z</time>
      </trkpt>
      <trkpt lat="43.73555" lon="7.07917">
        <ele>598.40002441406</ele>
        <time>2022-02-11T09:06:38.000Z</time>
      </trkpt>
      <trkpt lat="43.73555" lon="7.07921">
        <ele>599.59997558594</ele>
        <time>2022-02-11T09:06:40.000Z</time>
      </trkpt>
      <trkpt lat="43.73555" lon="7.07923">
        <ele>600.20001220703</ele>
        <time>2022-02-11T09:06:41.000Z</time>
      </trkpt>
      <trkpt lat="43.73556" lon="7.07925">
        <ele>600.79998779297</ele>
        <time>2022-02-11T09:06:42.000Z</time>
      </trkpt>
      <trkpt lat="43.73561" lon="7.07927">
        <ele>602</ele>
        <time>2022-02-11T09:06:45.000Z</time>
      </trkpt>
      <trkpt lat="43.73568" lon="7.07929">
        <ele>603.20001220703</ele>
        <time>2022-02-11T09:06:48.000Z</time>
      </trkpt>
      <trkpt lat="43.73571" lon="7.07931">
        <ele>604.20001220703</ele>
        <time>2022-02-11T09:06:50.000Z</time>
      </trkpt>
      <trkpt lat="43.73573" lon="7.07932">
        <ele>604.40002441406</ele>
        <time>2022-02-11T09:06:51.000Z</time>
      </trkpt>
      <trkpt lat="43.73576" lon="7.07937">
        <ele>605.40002441406</ele>
        <time>2022-02-11T09:06:54.000Z</time>
      </trkpt>
      <trkpt lat="43.73577" lon="7.07939">
        <ele>605.79998779297</ele>
        <time>2022-02-11T09:06:55.000Z</time>
      </trkpt>
      <trkpt lat="43.73578" lon="7.0794">
        <ele>606</ele>
        <time>2022-02-11T09:06:56.000Z</time>
      </trkpt>
      <trkpt lat="43.73581" lon="7.07941">
        <ele>606.59997558594</ele>
        <time>2022-02-11T09:06:58.000Z</time>
      </trkpt>
      <trkpt lat="43.73582" lon="7.07942">
        <ele>607</ele>
        <time>2022-02-11T09:06:59.000Z</time>
      </trkpt>
      <trkpt lat="43.73584" lon="7.07941">
        <ele>607.59997558594</ele>
        <time>2022-02-11T09:07:00.000Z</time>
      </trkpt>
      <trkpt lat="43.73588" lon="7.07943">
        <ele>608.40002441406</ele>
        <time>2022-02-11T09:07:02.000Z</time>
      </trkpt>
      <trkpt lat="43.73593" lon="7.07945">
        <ele>609.59997558594</ele>
        <time>2022-02-11T09:07:05.000Z</time>
      </trkpt>
      <trkpt lat="43.73599" lon="7.07947">
        <ele>610.59997558594</ele>
        <time>2022-02-11T09:07:08.000Z</time>
      </trkpt>
      <trkpt lat="43.73602" lon="7.07947">
        <ele>611</ele>
        <time>2022-02-11T09:07:09.000Z</time>
      </trkpt>
      <trkpt lat="43.73604" lon="7.07948">
        <ele>611.40002441406</ele>
        <time>2022-02-11T09:07:10.000Z</time>
      </trkpt>
      <trkpt lat="43.73605" lon="7.0795">
        <ele>611.79998779297</ele>
        <time>2022-02-11T09:07:11.000Z</time>
      </trkpt>
      <trkpt lat="43.73606" lon="7.07955">
        <ele>613</ele>
        <time>2022-02-11T09:07:14.000Z</time>
      </trkpt>
      <trkpt lat="43.73609" lon="7.07958">
        <ele>613.79998779297</ele>
        <time>2022-02-11T09:07:20.000Z</time>
      </trkpt>
      <trkpt lat="43.73611" lon="7.07958">
        <ele>613.59997558594</ele>
        <time>2022-02-11T09:07:27.000Z</time>
      </trkpt>
      <trkpt lat="43.73612" lon="7.07957">
        <ele>613.79998779297</ele>
        <time>2022-02-11T09:07:35.000Z</time>
      </trkpt>
      <trkpt lat="43.73614" lon="7.07957">
        <ele>613.79998779297</ele>
        <time>2022-02-11T09:07:40.000Z</time>
      </trkpt>
      <trkpt lat="43.73614" lon="7.07958">
        <ele>614</ele>
        <time>2022-02-11T09:07:43.000Z</time>
      </trkpt>
      <trkpt lat="43.73614" lon="7.07957">
        <ele>614.20001220703</ele>
        <time>2022-02-11T09:07:45.000Z</time>
      </trkpt>
      <trkpt lat="43.73613" lon="7.07957">
        <ele>613.59997558594</ele>
        <time>2022-02-11T09:07:50.000Z</time>
      </trkpt>
      <trkpt lat="43.73613" lon="7.07958">
        <ele>613.59997558594</ele>
        <time>2022-02-11T09:07:56.000Z</time>
      </trkpt>
      <trkpt lat="43.73614" lon="7.07957">
        <ele>613.59997558594</ele>
        <time>2022-02-11T09:08:03.000Z</time>
      </trkpt>
      <trkpt lat="43.73615" lon="7.07958">
        <ele>613.79998779297</ele>
        <time>2022-02-11T09:08:14.000Z</time>
      </trkpt>
      <trkpt lat="43.73616" lon="7.07957">
        <ele>613.79998779297</ele>
        <time>2022-02-11T09:08:26.000Z</time>
      </trkpt>
      <trkpt lat="43.73616" lon="7.07957">
        <ele>613.79998779297</ele>
        <time>2022-02-11T09:08:35.000Z</time>
      </trkpt>
      <trkpt lat="43.73616" lon="7.07956">
        <ele>613</ele>
        <time>2022-02-11T09:08:42.000Z</time>
      </trkpt>
      <trkpt lat="43.73617" lon="7.07956">
        <ele>612.79998779297</ele>
        <time>2022-02-11T09:08:45.000Z</time>
      </trkpt>
      <trkpt lat="43.73618" lon="7.07956">
        <ele>613.40002441406</ele>
        <time>2022-02-11T09:08:57.000Z</time>
      </trkpt>
      <trkpt lat="43.73618" lon="7.07955">
        <ele>613</ele>
        <time>2022-02-11T09:09:08.000Z</time>
      </trkpt>
      <trkpt lat="43.73618" lon="7.07955">
        <ele>613.79998779297</ele>
        <time>2022-02-11T09:09:16.000Z</time>
      </trkpt>
      <trkpt lat="43.73618" lon="7.07955">
        <ele>614</ele>
        <time>2022-02-11T09:09:17.000Z</time>
      </trkpt>
      <trkpt lat="43.73619" lon="7.07956">
        <ele>613.59997558594</ele>
        <time>2022-02-11T09:09:22.000Z</time>
      </trkpt>
      <trkpt lat="43.73619" lon="7.07957">
        <ele>613.20001220703</ele>
        <time>2022-02-11T09:09:27.000Z</time>
      </trkpt>
      <trkpt lat="43.73624" lon="7.07949">
        <ele>613.79998779297</ele>
        <time>2022-02-11T09:09:33.000Z</time>
      </trkpt>
      <trkpt lat="43.73631" lon="7.07934">
        <ele>614.59997558594</ele>
        <time>2022-02-11T09:09:39.000Z</time>
      </trkpt>
      <trkpt lat="43.73633" lon="7.07928">
        <ele>615</ele>
        <time>2022-02-11T09:09:41.000Z</time>
      </trkpt>
      <trkpt lat="43.73634" lon="7.07923">
        <ele>616.20001220703</ele>
        <time>2022-02-11T09:09:43.000Z</time>
      </trkpt>
      <trkpt lat="43.73635" lon="7.07921">
        <ele>616.59997558594</ele>
        <time>2022-02-11T09:09:44.000Z</time>
      </trkpt>
      <trkpt lat="43.73637" lon="7.07919">
        <ele>617.20001220703</ele>
        <time>2022-02-11T09:09:45.000Z</time>
      </trkpt>
      <trkpt lat="43.73643" lon="7.07912">
        <ele>618.40002441406</ele>
        <time>2022-02-11T09:09:48.000Z</time>
      </trkpt>
      <trkpt lat="43.73647" lon="7.07907">
        <ele>618.59997558594</ele>
        <time>2022-02-11T09:09:50.000Z</time>
      </trkpt>
      <trkpt lat="43.73654" lon="7.07901">
        <ele>619.40002441406</ele>
        <time>2022-02-11T09:09:54.000Z</time>
      </trkpt>
      <trkpt lat="43.73658" lon="7.07898">
        <ele>620.20001220703</ele>
        <time>2022-02-11T09:09:56.000Z</time>
      </trkpt>
      <trkpt lat="43.73663" lon="7.07896">
        <ele>620.59997558594</ele>
        <time>2022-02-11T09:09:58.000Z</time>
      </trkpt>
      <trkpt lat="43.73672" lon="7.07895">
        <ele>621.59997558594</ele>
        <time>2022-02-11T09:10:02.000Z</time>
      </trkpt>
      <trkpt lat="43.73681" lon="7.07891">
        <ele>622.79998779297</ele>
        <time>2022-02-11T09:10:06.000Z</time>
      </trkpt>
      <trkpt lat="43.73688" lon="7.07889">
        <ele>623.79998779297</ele>
        <time>2022-02-11T09:10:09.000Z</time>
      </trkpt>
      <trkpt lat="43.73691" lon="7.07888">
        <ele>623.79998779297</ele>
        <time>2022-02-11T09:10:10.000Z</time>
      </trkpt>
      <trkpt lat="43.73699" lon="7.07885">
        <ele>624.79998779297</ele>
        <time>2022-02-11T09:10:14.000Z</time>
      </trkpt>
      <trkpt lat="43.73702" lon="7.07883">
        <ele>625</ele>
        <time>2022-02-11T09:10:15.000Z</time>
      </trkpt>
      <trkpt lat="43.7371" lon="7.07876">
        <ele>626.20001220703</ele>
        <time>2022-02-11T09:10:19.000Z</time>
      </trkpt>
      <trkpt lat="43.73714" lon="7.07872">
        <ele>626.79998779297</ele>
        <time>2022-02-11T09:10:21.000Z</time>
      </trkpt>
      <trkpt lat="43.73716" lon="7.07869">
        <ele>627.20001220703</ele>
        <time>2022-02-11T09:10:22.000Z</time>
      </trkpt>
      <trkpt lat="43.7372" lon="7.07862">
        <ele>627.79998779297</ele>
        <time>2022-02-11T09:10:25.000Z</time>
      </trkpt>
      <trkpt lat="43.73722" lon="7.07861">
        <ele>628.20001220703</ele>
        <time>2022-02-11T09:10:26.000Z</time>
      </trkpt>
      <trkpt lat="43.73734" lon="7.07861">
        <ele>629.40002441406</ele>
        <time>2022-02-11T09:10:30.000Z</time>
      </trkpt>
      <trkpt lat="43.73737" lon="7.07861">
        <ele>629.40002441406</ele>
        <time>2022-02-11T09:10:31.000Z</time>
      </trkpt>
      <trkpt lat="43.73753" lon="7.07863">
        <ele>629.40002441406</ele>
        <time>2022-02-11T09:10:37.000Z</time>
      </trkpt>
      <trkpt lat="43.73772" lon="7.07878">
        <ele>629.79998779297</ele>
        <time>2022-02-11T09:10:44.000Z</time>
      </trkpt>
      <trkpt lat="43.73782" lon="7.0789">
        <ele>630.40002441406</ele>
        <time>2022-02-11T09:10:48.000Z</time>
      </trkpt>
      <trkpt lat="43.7379" lon="7.07894">
        <ele>630.59997558594</ele>
        <time>2022-02-11T09:10:51.000Z</time>
      </trkpt>
      <trkpt lat="43.73803" lon="7.07901">
        <ele>631.59997558594</ele>
        <time>2022-02-11T09:10:55.000Z</time>
      </trkpt>
      <trkpt lat="43.73806" lon="7.07902">
        <ele>631.79998779297</ele>
        <time>2022-02-11T09:10:56.000Z</time>
      </trkpt>
      <trkpt lat="43.7383" lon="7.07903">
        <ele>632.79998779297</ele>
        <time>2022-02-11T09:11:03.000Z</time>
      </trkpt>
      <trkpt lat="43.73848" lon="7.07913">
        <ele>632.59997558594</ele>
        <time>2022-02-11T09:11:08.000Z</time>
      </trkpt>
      <trkpt lat="43.73862" lon="7.07919">
        <ele>631.40002441406</ele>
        <time>2022-02-11T09:11:11.000Z</time>
      </trkpt>
      <trkpt lat="43.73867" lon="7.0792">
        <ele>630.79998779297</ele>
        <time>2022-02-11T09:11:12.000Z</time>
      </trkpt>
      <trkpt lat="43.73872" lon="7.07923">
        <ele>630.20001220703</ele>
        <time>2022-02-11T09:11:13.000Z</time>
      </trkpt>
      <trkpt lat="43.73879" lon="7.07927">
        <ele>629.59997558594</ele>
        <time>2022-02-11T09:11:15.000Z</time>
      </trkpt>
      <trkpt lat="43.73886" lon="7.07929">
        <ele>629.79998779297</ele>
        <time>2022-02-11T09:11:18.000Z</time>
      </trkpt>
      <trkpt lat="43.73889" lon="7.07929">
        <ele>630</ele>
        <time>2022-02-11T09:11:19.000Z</time>
      </trkpt>
      <trkpt lat="43.73902" lon="7.07934">
        <ele>630.59997558594</ele>
        <time>2022-02-11T09:11:23.000Z</time>
      </trkpt>
      <trkpt lat="43.73925" lon="7.07934">
        <ele>629.20001220703</ele>
        <time>2022-02-11T09:11:28.000Z</time>
      </trkpt>
      <trkpt lat="43.73928" lon="7.07934">
        <ele>629</ele>
        <time>2022-02-11T09:11:29.000Z</time>
      </trkpt>
      <trkpt lat="43.73945" lon="7.07935">
        <ele>630.59997558594</ele>
        <time>2022-02-11T09:11:35.000Z</time>
      </trkpt>
      <trkpt lat="43.73965" lon="7.07937">
        <ele>631.40002441406</ele>
        <time>2022-02-11T09:11:41.000Z</time>
      </trkpt>
      <trkpt lat="43.73968" lon="7.07939">
        <ele>631.59997558594</ele>
        <time>2022-02-11T09:11:42.000Z</time>
      </trkpt>
      <trkpt lat="43.73978" lon="7.0794">
        <ele>631.79998779297</ele>
        <time>2022-02-11T09:11:45.000Z</time>
      </trkpt>
      <trkpt lat="43.7399" lon="7.07943">
        <ele>630.79998779297</ele>
        <time>2022-02-11T09:11:49.000Z</time>
      </trkpt>
      <trkpt lat="43.73994" lon="7.07945">
        <ele>630.59997558594</ele>
        <time>2022-02-11T09:11:50.000Z</time>
      </trkpt>
      <trkpt lat="43.74002" lon="7.07943">
        <ele>629.79998779297</ele>
        <time>2022-02-11T09:11:52.000Z</time>
      </trkpt>
      <trkpt lat="43.74006" lon="7.07941">
        <ele>629.40002441406</ele>
        <time>2022-02-11T09:11:53.000Z</time>
      </trkpt>
      <trkpt lat="43.74015" lon="7.07937">
        <ele>628.59997558594</ele>
        <time>2022-02-11T09:11:55.000Z</time>
      </trkpt>
      <trkpt lat="43.7402" lon="7.07937">
        <ele>628.20001220703</ele>
        <time>2022-02-11T09:11:56.000Z</time>
      </trkpt>
      <trkpt lat="43.74027" lon="7.07935">
        <ele>627.40002441406</ele>
        <time>2022-02-11T09:11:58.000Z</time>
      </trkpt>
      <trkpt lat="43.7404" lon="7.07931">
        <ele>627.40002441406</ele>
        <time>2022-02-11T09:12:03.000Z</time>
      </trkpt>
      <trkpt lat="43.74044" lon="7.07932">
        <ele>628.20001220703</ele>
        <time>2022-02-11T09:12:05.000Z</time>
      </trkpt>
      <trkpt lat="43.74048" lon="7.07931">
        <ele>629.20001220703</ele>
        <time>2022-02-11T09:12:07.000Z</time>
      </trkpt>
      <trkpt lat="43.74051" lon="7.0793">
        <ele>629.59997558594</ele>
        <time>2022-02-11T09:12:08.000Z</time>
      </trkpt>
      <trkpt lat="43.74053" lon="7.07928">
        <ele>630.20001220703</ele>
        <time>2022-02-11T09:12:09.000Z</time>
      </trkpt>
      <trkpt lat="43.74059" lon="7.07926">
        <ele>630.79998779297</ele>
        <time>2022-02-11T09:12:11.000Z</time>
      </trkpt>
      <trkpt lat="43.74064" lon="7.07926">
        <ele>630.79998779297</ele>
        <time>2022-02-11T09:12:13.000Z</time>
      </trkpt>
      <trkpt lat="43.74074" lon="7.07921">
        <ele>629.79998779297</ele>
        <time>2022-02-11T09:12:17.000Z</time>
      </trkpt>
      <trkpt lat="43.74086" lon="7.07909">
        <ele>629</ele>
        <time>2022-02-11T09:12:22.000Z</time>
      </trkpt>
      <trkpt lat="43.74095" lon="7.07903">
        <ele>631.20001220703</ele>
        <time>2022-02-11T09:12:27.000Z</time>
      </trkpt>
      <trkpt lat="43.74114" lon="7.07886">
        <ele>630.20001220703</ele>
        <time>2022-02-11T09:12:33.000Z</time>
      </trkpt>
      <trkpt lat="43.74127" lon="7.07866">
        <ele>629.40002441406</ele>
        <time>2022-02-11T09:12:38.000Z</time>
      </trkpt>
      <trkpt lat="43.74145" lon="7.07843">
        <ele>629.40002441406</ele>
        <time>2022-02-11T09:12:44.000Z</time>
      </trkpt>
      <trkpt lat="43.74152" lon="7.07842">
        <ele>629</ele>
        <time>2022-02-11T09:12:46.000Z</time>
      </trkpt>
      <trkpt lat="43.74158" lon="7.07841">
        <ele>628.20001220703</ele>
        <time>2022-02-11T09:12:48.000Z</time>
      </trkpt>
      <trkpt lat="43.74162" lon="7.07841">
        <ele>627.79998779297</ele>
        <time>2022-02-11T09:12:49.000Z</time>
      </trkpt>
      <trkpt lat="43.74171" lon="7.07841">
        <ele>627.59997558594</ele>
        <time>2022-02-11T09:12:51.000Z</time>
      </trkpt>
      <trkpt lat="43.74176" lon="7.07841">
        <ele>627.40002441406</ele>
        <time>2022-02-11T09:12:52.000Z</time>
      </trkpt>
      <trkpt lat="43.74186" lon="7.07838">
        <ele>626.79998779297</ele>
        <time>2022-02-11T09:12:55.000Z</time>
      </trkpt>
      <trkpt lat="43.74188" lon="7.07838">
        <ele>626.20001220703</ele>
        <time>2022-02-11T09:12:56.000Z</time>
      </trkpt>
      <trkpt lat="43.74192" lon="7.07835">
        <ele>625.59997558594</ele>
        <time>2022-02-11T09:12:58.000Z</time>
      </trkpt>
      <trkpt lat="43.74198" lon="7.07825">
        <ele>626</ele>
        <time>2022-02-11T09:13:02.000Z</time>
      </trkpt>
      <trkpt lat="43.74205" lon="7.07819">
        <ele>626.59997558594</ele>
        <time>2022-02-11T09:13:05.000Z</time>
      </trkpt>
      <trkpt lat="43.7421" lon="7.07814">
        <ele>627.20001220703</ele>
        <time>2022-02-11T09:13:07.000Z</time>
      </trkpt>
      <trkpt lat="43.74222" lon="7.07799">
        <ele>627.79998779297</ele>
        <time>2022-02-11T09:13:13.000Z</time>
      </trkpt>
      <trkpt lat="43.7423" lon="7.0779">
        <ele>628</ele>
        <time>2022-02-11T09:13:17.000Z</time>
      </trkpt>
      <trkpt lat="43.74231" lon="7.07789">
        <ele>628</ele>
        <time>2022-02-11T09:13:18.000Z</time>
      </trkpt>
      <trkpt lat="43.74234" lon="7.07786">
        <ele>628.20001220703</ele>
        <time>2022-02-11T09:13:21.000Z</time>
      </trkpt>
      <trkpt lat="43.74236" lon="7.07785">
        <ele>628.20001220703</ele>
        <time>2022-02-11T09:13:23.000Z</time>
      </trkpt>
      <trkpt lat="43.74246" lon="7.07785">
        <ele>628</ele>
        <time>2022-02-11T09:13:28.000Z</time>
      </trkpt>
      <trkpt lat="43.74254" lon="7.0779">
        <ele>628.59997558594</ele>
        <time>2022-02-11T09:13:32.000Z</time>
      </trkpt>
      <trkpt lat="43.74258" lon="7.07791">
        <ele>629</ele>
        <time>2022-02-11T09:13:34.000Z</time>
      </trkpt>
      <trkpt lat="43.74259" lon="7.07791">
        <ele>629.59997558594</ele>
        <time>2022-02-11T09:13:37.000Z</time>
      </trkpt>
      <trkpt lat="43.74261" lon="7.07796">
        <ele>629.79998779297</ele>
        <time>2022-02-11T09:13:49.000Z</time>
      </trkpt>
      <trkpt lat="43.74258" lon="7.07799">
        <ele>630</ele>
        <time>2022-02-11T09:13:51.000Z</time>
      </trkpt>
      <trkpt lat="43.74252" lon="7.07805">
        <ele>630.20001220703</ele>
        <time>2022-02-11T09:13:54.000Z</time>
      </trkpt>
      <trkpt lat="43.74241" lon="7.07817">
        <ele>631</ele>
        <time>2022-02-11T09:14:00.000Z</time>
      </trkpt>
      <trkpt lat="43.74239" lon="7.0782">
        <ele>631.20001220703</ele>
        <time>2022-02-11T09:14:01.000Z</time>
      </trkpt>
      <trkpt lat="43.74238" lon="7.07827">
        <ele>631.40002441406</ele>
        <time>2022-02-11T09:14:03.000Z</time>
      </trkpt>
      <trkpt lat="43.74236" lon="7.07834">
        <ele>631.40002441406</ele>
        <time>2022-02-11T09:14:05.000Z</time>
      </trkpt>
      <trkpt lat="43.74234" lon="7.07842">
        <ele>631.40002441406</ele>
        <time>2022-02-11T09:14:07.000Z</time>
      </trkpt>
      <trkpt lat="43.74231" lon="7.07852">
        <ele>631.79998779297</ele>
        <time>2022-02-11T09:14:10.000Z</time>
      </trkpt>
      <trkpt lat="43.74228" lon="7.07866">
        <ele>632</ele>
        <time>2022-02-11T09:14:15.000Z</time>
      </trkpt>
      <trkpt lat="43.74227" lon="7.0787">
        <ele>632.20001220703</ele>
        <time>2022-02-11T09:14:17.000Z</time>
      </trkpt>
      <trkpt lat="43.74228" lon="7.07874">
        <ele>632.79998779297</ele>
        <time>2022-02-11T09:14:19.000Z</time>
      </trkpt>
      <trkpt lat="43.74227" lon="7.07878">
        <ele>633.40002441406</ele>
        <time>2022-02-11T09:14:21.000Z</time>
      </trkpt>
      <trkpt lat="43.74226" lon="7.07892">
        <ele>632.20001220703</ele>
        <time>2022-02-11T09:14:26.000Z</time>
      </trkpt>
      <trkpt lat="43.74227" lon="7.07897">
        <ele>631.40002441406</ele>
        <time>2022-02-11T09:14:27.000Z</time>
      </trkpt>
      <trkpt lat="43.74226" lon="7.07903">
        <ele>630.79998779297</ele>
        <time>2022-02-11T09:14:28.000Z</time>
      </trkpt>
      <trkpt lat="43.74227" lon="7.07907">
        <ele>630.20001220703</ele>
        <time>2022-02-11T09:14:29.000Z</time>
      </trkpt>
      <trkpt lat="43.74229" lon="7.07912">
        <ele>629.40002441406</ele>
        <time>2022-02-11T09:14:30.000Z</time>
      </trkpt>
      <trkpt lat="43.7423" lon="7.07921">
        <ele>628</ele>
        <time>2022-02-11T09:14:32.000Z</time>
      </trkpt>
      <trkpt lat="43.74232" lon="7.07928">
        <ele>627.59997558594</ele>
        <time>2022-02-11T09:14:33.000Z</time>
      </trkpt>
      <trkpt lat="43.7423" lon="7.07943">
        <ele>626.79998779297</ele>
        <time>2022-02-11T09:14:36.000Z</time>
      </trkpt>
      <trkpt lat="43.74231" lon="7.0795">
        <ele>626.59997558594</ele>
        <time>2022-02-11T09:14:38.000Z</time>
      </trkpt>
      <trkpt lat="43.74232" lon="7.07952">
        <ele>627</ele>
        <time>2022-02-11T09:14:40.000Z</time>
      </trkpt>
      <trkpt lat="43.74232" lon="7.07955">
        <ele>628</ele>
        <time>2022-02-11T09:14:42.000Z</time>
      </trkpt>
      <trkpt lat="43.74233" lon="7.0796">
        <ele>629.20001220703</ele>
        <time>2022-02-11T09:14:45.000Z</time>
      </trkpt>
      <trkpt lat="43.74234" lon="7.0796">
        <ele>630.20001220703</ele>
        <time>2022-02-11T09:14:52.000Z</time>
      </trkpt>
      <trkpt lat="43.74235" lon="7.07962">
        <ele>630.20001220703</ele>
        <time>2022-02-11T09:14:54.000Z</time>
      </trkpt>
      <trkpt lat="43.74235" lon="7.07968">
        <ele>631.20001220703</ele>
        <time>2022-02-11T09:14:58.000Z</time>
      </trkpt>
      <trkpt lat="43.74234" lon="7.07969">
        <ele>631.40002441406</ele>
        <time>2022-02-11T09:14:59.000Z</time>
      </trkpt>
      <trkpt lat="43.74234" lon="7.07973">
        <ele>632.59997558594</ele>
        <time>2022-02-11T09:15:05.000Z</time>
      </trkpt>
      <trkpt lat="43.7423" lon="7.07988">
        <ele>633</ele>
        <time>2022-02-11T09:15:10.000Z</time>
      </trkpt>
      <trkpt lat="43.74227" lon="7.07993">
        <ele>633.59997558594</ele>
        <time>2022-02-11T09:15:12.000Z</time>
      </trkpt>
      <trkpt lat="43.74221" lon="7.08005">
        <ele>634.79998779297</ele>
        <time>2022-02-11T09:15:16.000Z</time>
      </trkpt>
      <trkpt lat="43.74214" lon="7.08024">
        <ele>635.59997558594</ele>
        <time>2022-02-11T09:15:21.000Z</time>
      </trkpt>
      <trkpt lat="43.7421" lon="7.08035">
        <ele>636</ele>
        <time>2022-02-11T09:15:24.000Z</time>
      </trkpt>
      <trkpt lat="43.74208" lon="7.08043">
        <ele>636.79998779297</ele>
        <time>2022-02-11T09:15:26.000Z</time>
      </trkpt>
      <trkpt lat="43.74207" lon="7.08047">
        <ele>637.40002441406</ele>
        <time>2022-02-11T09:15:27.000Z</time>
      </trkpt>
      <trkpt lat="43.742" lon="7.08067">
        <ele>637.59997558594</ele>
        <time>2022-02-11T09:15:31.000Z</time>
      </trkpt>
      <trkpt lat="43.74193" lon="7.0808">
        <ele>636.59997558594</ele>
        <time>2022-02-11T09:15:35.000Z</time>
      </trkpt>
      <trkpt lat="43.74189" lon="7.0809">
        <ele>637.40002441406</ele>
        <time>2022-02-11T09:15:39.000Z</time>
      </trkpt>
      <trkpt lat="43.74189" lon="7.08091">
        <ele>637.40002441406</ele>
        <time>2022-02-11T09:15:40.000Z</time>
      </trkpt>
      <trkpt lat="43.74197" lon="7.08089">
        <ele>638</ele>
        <time>2022-02-11T09:15:44.000Z</time>
      </trkpt>
      <trkpt lat="43.742" lon="7.08084">
        <ele>638.40002441406</ele>
        <time>2022-02-11T09:15:46.000Z</time>
      </trkpt>
      <trkpt lat="43.74202" lon="7.08081">
        <ele>638.40002441406</ele>
        <time>2022-02-11T09:15:47.000Z</time>
      </trkpt>
      <trkpt lat="43.74205" lon="7.08079">
        <ele>638.79998779297</ele>
        <time>2022-02-11T09:15:48.000Z</time>
      </trkpt>
      <trkpt lat="43.7421" lon="7.08078">
        <ele>639.40002441406</ele>
        <time>2022-02-11T09:15:50.000Z</time>
      </trkpt>
      <trkpt lat="43.74214" lon="7.08074">
        <ele>640.20001220703</ele>
        <time>2022-02-11T09:15:52.000Z</time>
      </trkpt>
      <trkpt lat="43.74215" lon="7.08073">
        <ele>640.59997558594</ele>
        <time>2022-02-11T09:15:53.000Z</time>
      </trkpt>
      <trkpt lat="43.74217" lon="7.08072">
        <ele>641.20001220703</ele>
        <time>2022-02-11T09:15:54.000Z</time>
      </trkpt>
      <trkpt lat="43.74219" lon="7.08071">
        <ele>641.79998779297</ele>
        <time>2022-02-11T09:15:55.000Z</time>
      </trkpt>
      <trkpt lat="43.74222" lon="7.08071">
        <ele>642.59997558594</ele>
        <time>2022-02-11T09:15:56.000Z</time>
      </trkpt>
      <trkpt lat="43.74224" lon="7.0807">
        <ele>643.40002441406</ele>
        <time>2022-02-11T09:15:57.000Z</time>
      </trkpt>
      <trkpt lat="43.74226" lon="7.08069">
        <ele>644</ele>
        <time>2022-02-11T09:15:58.000Z</time>
      </trkpt>
      <trkpt lat="43.74228" lon="7.08068">
        <ele>644.79998779297</ele>
        <time>2022-02-11T09:15:59.000Z</time>
      </trkpt>
      <trkpt lat="43.74232" lon="7.08066">
        <ele>646</ele>
        <time>2022-02-11T09:16:01.000Z</time>
      </trkpt>
      <trkpt lat="43.74236" lon="7.08064">
        <ele>646.79998779297</ele>
        <time>2022-02-11T09:16:03.000Z</time>
      </trkpt>
      <trkpt lat="43.74238" lon="7.08063">
        <ele>647</ele>
        <time>2022-02-11T09:16:04.000Z</time>
      </trkpt>
      <trkpt lat="43.74245" lon="7.0806">
        <ele>648.20001220703</ele>
        <time>2022-02-11T09:16:07.000Z</time>
      </trkpt>
      <trkpt lat="43.74254" lon="7.0806">
        <ele>648.59997558594</ele>
        <time>2022-02-11T09:16:11.000Z</time>
      </trkpt>
      <trkpt lat="43.74258" lon="7.08058">
        <ele>649</ele>
        <time>2022-02-11T09:16:13.000Z</time>
      </trkpt>
      <trkpt lat="43.74262" lon="7.08055">
        <ele>649.59997558594</ele>
        <time>2022-02-11T09:16:15.000Z</time>
      </trkpt>
      <trkpt lat="43.74265" lon="7.08054">
        <ele>650</ele>
        <time>2022-02-11T09:16:16.000Z</time>
      </trkpt>
      <trkpt lat="43.74269" lon="7.08051">
        <ele>650.59997558594</ele>
        <time>2022-02-11T09:16:18.000Z</time>
      </trkpt>
      <trkpt lat="43.74272" lon="7.08049">
        <ele>651.59997558594</ele>
        <time>2022-02-11T09:16:20.000Z</time>
      </trkpt>
      <trkpt lat="43.74274" lon="7.08048">
        <ele>652</ele>
        <time>2022-02-11T09:16:21.000Z</time>
      </trkpt>
      <trkpt lat="43.74276" lon="7.08047">
        <ele>652.59997558594</ele>
        <time>2022-02-11T09:16:22.000Z</time>
      </trkpt>
      <trkpt lat="43.74278" lon="7.08045">
        <ele>653</ele>
        <time>2022-02-11T09:16:23.000Z</time>
      </trkpt>
      <trkpt lat="43.74285" lon="7.0804">
        <ele>654</ele>
        <time>2022-02-11T09:16:27.000Z</time>
      </trkpt>
      <trkpt lat="43.74286" lon="7.08037">
        <ele>654.20001220703</ele>
        <time>2022-02-11T09:16:28.000Z</time>
      </trkpt>
      <trkpt lat="43.74297" lon="7.0803">
        <ele>655</ele>
        <time>2022-02-11T09:16:33.000Z</time>
      </trkpt>
      <trkpt lat="43.74299" lon="7.08029">
        <ele>655.20001220703</ele>
        <time>2022-02-11T09:16:34.000Z</time>
      </trkpt>
      <trkpt lat="43.74306" lon="7.08021">
        <ele>656.20001220703</ele>
        <time>2022-02-11T09:16:38.000Z</time>
      </trkpt>
      <trkpt lat="43.74307" lon="7.08019">
        <ele>656.79998779297</ele>
        <time>2022-02-11T09:16:39.000Z</time>
      </trkpt>
      <trkpt lat="43.74311" lon="7.08014">
        <ele>657.40002441406</ele>
        <time>2022-02-11T09:16:41.000Z</time>
      </trkpt>
      <trkpt lat="43.74316" lon="7.08008">
        <ele>658.79998779297</ele>
        <time>2022-02-11T09:16:44.000Z</time>
      </trkpt>
      <trkpt lat="43.74319" lon="7.08003">
        <ele>660.20001220703</ele>
        <time>2022-02-11T09:16:46.000Z</time>
      </trkpt>
      <trkpt lat="43.7432" lon="7.08001">
        <ele>660.59997558594</ele>
        <time>2022-02-11T09:16:47.000Z</time>
      </trkpt>
      <trkpt lat="43.74321" lon="7.07998">
        <ele>661.20001220703</ele>
        <time>2022-02-11T09:16:48.000Z</time>
      </trkpt>
      <trkpt lat="43.74324" lon="7.07995">
        <ele>662</ele>
        <time>2022-02-11T09:16:50.000Z</time>
      </trkpt>
      <trkpt lat="43.74325" lon="7.07994">
        <ele>662.40002441406</ele>
        <time>2022-02-11T09:16:51.000Z</time>
      </trkpt>
      <trkpt lat="43.74329" lon="7.07993">
        <ele>663.59997558594</ele>
        <time>2022-02-11T09:16:53.000Z</time>
      </trkpt>
      <trkpt lat="43.74333" lon="7.07993">
        <ele>665</ele>
        <time>2022-02-11T09:16:55.000Z</time>
      </trkpt>
      <trkpt lat="43.74336" lon="7.07991">
        <ele>666.40002441406</ele>
        <time>2022-02-11T09:16:57.000Z</time>
      </trkpt>
      <trkpt lat="43.74337" lon="7.07991">
        <ele>667</ele>
        <time>2022-02-11T09:16:58.000Z</time>
      </trkpt>
      <trkpt lat="43.74339" lon="7.07991">
        <ele>667.40002441406</ele>
        <time>2022-02-11T09:16:59.000Z</time>
      </trkpt>
      <trkpt lat="43.7434" lon="7.07992">
        <ele>667.79998779297</ele>
        <time>2022-02-11T09:17:00.000Z</time>
      </trkpt>
      <trkpt lat="43.74339" lon="7.07991">
        <ele>668.59997558594</ele>
        <time>2022-02-11T09:17:02.000Z</time>
      </trkpt>
      <trkpt lat="43.7434" lon="7.07991">
        <ele>669</ele>
        <time>2022-02-11T09:17:15.000Z</time>
      </trkpt>
      <trkpt lat="43.74341" lon="7.07991">
        <ele>669.20001220703</ele>
        <time>2022-02-11T09:17:25.000Z</time>
      </trkpt>
      <trkpt lat="43.74343" lon="7.07991">
        <ele>669.59997558594</ele>
        <time>2022-02-11T09:17:30.000Z</time>
      </trkpt>
      <trkpt lat="43.74343" lon="7.07992">
        <ele>669.59997558594</ele>
        <time>2022-02-11T09:17:31.000Z</time>
      </trkpt>
      <trkpt lat="43.74346" lon="7.07993">
        <ele>670.59997558594</ele>
        <time>2022-02-11T09:17:36.000Z</time>
      </trkpt>
      <trkpt lat="43.74347" lon="7.07993">
        <ele>671</ele>
        <time>2022-02-11T09:17:38.000Z</time>
      </trkpt>
      <trkpt lat="43.74348" lon="7.07992">
        <ele>671.59997558594</ele>
        <time>2022-02-11T09:17:42.000Z</time>
      </trkpt>
      <trkpt lat="43.74348" lon="7.07992">
        <ele>672</ele>
        <time>2022-02-11T09:17:45.000Z</time>
      </trkpt>
      <trkpt lat="43.7435" lon="7.07994">
        <ele>672.59997558594</ele>
        <time>2022-02-11T09:17:51.000Z</time>
      </trkpt>
      <trkpt lat="43.7435" lon="7.07994">
        <ele>672.79998779297</ele>
        <time>2022-02-11T09:17:52.000Z</time>
      </trkpt>
      <trkpt lat="43.74352" lon="7.07995">
        <ele>673.79998779297</ele>
        <time>2022-02-11T09:17:58.000Z</time>
      </trkpt>
      <trkpt lat="43.74353" lon="7.07994">
        <ele>674</ele>
        <time>2022-02-11T09:18:00.000Z</time>
      </trkpt>
      <trkpt lat="43.74354" lon="7.0799">
        <ele>674.79998779297</ele>
        <time>2022-02-11T09:18:06.000Z</time>
      </trkpt>
      <trkpt lat="43.74354" lon="7.07989">
        <ele>674.79998779297</ele>
        <time>2022-02-11T09:18:07.000Z</time>
      </trkpt>
      <trkpt lat="43.74355" lon="7.07987">
        <ele>675.79998779297</ele>
        <time>2022-02-11T09:18:14.000Z</time>
      </trkpt>
      <trkpt lat="43.74355" lon="7.07987">
        <ele>675.79998779297</ele>
        <time>2022-02-11T09:18:16.000Z</time>
      </trkpt>
      <trkpt lat="43.74359" lon="7.07984">
        <ele>675.79998779297</ele>
        <time>2022-02-11T09:18:23.000Z</time>
      </trkpt>
      <trkpt lat="43.74366" lon="7.07982">
        <ele>676</ele>
        <time>2022-02-11T09:18:27.000Z</time>
      </trkpt>
      <trkpt lat="43.74368" lon="7.07983">
        <ele>676.40002441406</ele>
        <time>2022-02-11T09:18:28.000Z</time>
      </trkpt>
      <trkpt lat="43.74369" lon="7.07984">
        <ele>676.79998779297</ele>
        <time>2022-02-11T09:18:29.000Z</time>
      </trkpt>
      <trkpt lat="43.74373" lon="7.07985">
        <ele>678.20001220703</ele>
        <time>2022-02-11T09:18:31.000Z</time>
      </trkpt>
      <trkpt lat="43.74377" lon="7.07984">
        <ele>679.59997558594</ele>
        <time>2022-02-11T09:18:33.000Z</time>
      </trkpt>
      <trkpt lat="43.74379" lon="7.07983">
        <ele>680.20001220703</ele>
        <time>2022-02-11T09:18:34.000Z</time>
      </trkpt>
      <trkpt lat="43.74383" lon="7.07981">
        <ele>681.20001220703</ele>
        <time>2022-02-11T09:18:36.000Z</time>
      </trkpt>
      <trkpt lat="43.74386" lon="7.07982">
        <ele>682.40002441406</ele>
        <time>2022-02-11T09:18:38.000Z</time>
      </trkpt>
      <trkpt lat="43.74389" lon="7.07984">
        <ele>683.79998779297</ele>
        <time>2022-02-11T09:18:40.000Z</time>
      </trkpt>
      <trkpt lat="43.74388" lon="7.07983">
        <ele>685</ele>
        <time>2022-02-11T09:18:43.000Z</time>
      </trkpt>
      <trkpt lat="43.74389" lon="7.07983">
        <ele>685.59997558594</ele>
        <time>2022-02-11T09:18:50.000Z</time>
      </trkpt>
      <trkpt lat="43.74389" lon="7.07986">
        <ele>686</ele>
        <time>2022-02-11T09:18:54.000Z</time>
      </trkpt>
      <trkpt lat="43.7439" lon="7.07988">
        <ele>686.20001220703</ele>
        <time>2022-02-11T09:18:55.000Z</time>
      </trkpt>
      <trkpt lat="43.7439" lon="7.07989">
        <ele>687.20001220703</ele>
        <time>2022-02-11T09:19:01.000Z</time>
      </trkpt>
      <trkpt lat="43.74395" lon="7.07996">
        <ele>687.40002441406</ele>
        <time>2022-02-11T09:19:07.000Z</time>
      </trkpt>
      <trkpt lat="43.74395" lon="7.07999">
        <ele>687.79998779297</ele>
        <time>2022-02-11T09:19:09.000Z</time>
      </trkpt>
      <trkpt lat="43.74395" lon="7.07998">
        <ele>688.40002441406</ele>
        <time>2022-02-11T09:19:10.000Z</time>
      </trkpt>
      <trkpt lat="43.74396" lon="7.07999">
        <ele>689.40002441406</ele>
        <time>2022-02-11T09:19:12.000Z</time>
      </trkpt>
      <trkpt lat="43.74397" lon="7.07999">
        <ele>690.59997558594</ele>
        <time>2022-02-11T09:19:16.000Z</time>
      </trkpt>
      <trkpt lat="43.74398" lon="7.08003">
        <ele>691.59997558594</ele>
        <time>2022-02-11T09:19:23.000Z</time>
      </trkpt>
      <trkpt lat="43.74398" lon="7.08003">
        <ele>691.59997558594</ele>
        <time>2022-02-11T09:19:24.000Z</time>
      </trkpt>
      <trkpt lat="43.74404" lon="7.0801">
        <ele>691.79998779297</ele>
        <time>2022-02-11T09:19:30.000Z</time>
      </trkpt>
      <trkpt lat="43.74406" lon="7.0801">
        <ele>691.79998779297</ele>
        <time>2022-02-11T09:19:31.000Z</time>
      </trkpt>
      <trkpt lat="43.7441" lon="7.08008">
        <ele>692.59997558594</ele>
        <time>2022-02-11T09:19:33.000Z</time>
      </trkpt>
      <trkpt lat="43.74411" lon="7.08008">
        <ele>693.40002441406</ele>
        <time>2022-02-11T09:19:34.000Z</time>
      </trkpt>
      <trkpt lat="43.74411" lon="7.08009">
        <ele>694</ele>
        <time>2022-02-11T09:19:35.000Z</time>
      </trkpt>
      <trkpt lat="43.74411" lon="7.08009">
        <ele>695.20001220703</ele>
        <time>2022-02-11T09:19:37.000Z</time>
      </trkpt>
      <trkpt lat="43.74411" lon="7.08009">
        <ele>695.59997558594</ele>
        <time>2022-02-11T09:19:38.000Z</time>
      </trkpt>
      <trkpt lat="43.74413" lon="7.08007">
        <ele>696.20001220703</ele>
        <time>2022-02-11T09:19:45.000Z</time>
      </trkpt>
      <trkpt lat="43.74414" lon="7.08007">
        <ele>696.40002441406</ele>
        <time>2022-02-11T09:19:47.000Z</time>
      </trkpt>
      <trkpt lat="43.74419" lon="7.08001">
        <ele>696.40002441406</ele>
        <time>2022-02-11T09:19:50.000Z</time>
      </trkpt>
      <trkpt lat="43.74423" lon="7.07995">
        <ele>697.79998779297</ele>
        <time>2022-02-11T09:19:54.000Z</time>
      </trkpt>
      <trkpt lat="43.74424" lon="7.07995">
        <ele>698.20001220703</ele>
        <time>2022-02-11T09:19:55.000Z</time>
      </trkpt>
      <trkpt lat="43.74424" lon="7.07995">
        <ele>698.79998779297</ele>
        <time>2022-02-11T09:19:58.000Z</time>
      </trkpt>
      <trkpt lat="43.74424" lon="7.07995">
        <ele>699</ele>
        <time>2022-02-11T09:20:00.000Z</time>
      </trkpt>
      <trkpt lat="43.74424" lon="7.07995">
        <ele>699.20001220703</ele>
        <time>2022-02-11T09:20:06.000Z</time>
      </trkpt>
      <trkpt lat="43.74424" lon="7.07993">
        <ele>699.20001220703</ele>
        <time>2022-02-11T09:20:26.000Z</time>
      </trkpt>
      <trkpt lat="43.74432" lon="7.07992">
        <ele>699.40002441406</ele>
        <time>2022-02-11T09:20:31.000Z</time>
      </trkpt>
      <trkpt lat="43.74433" lon="7.07992">
        <ele>699.59997558594</ele>
        <time>2022-02-11T09:20:32.000Z</time>
      </trkpt>
      <trkpt lat="43.74435" lon="7.07992">
        <ele>699.79998779297</ele>
        <time>2022-02-11T09:20:33.000Z</time>
      </trkpt>
      <trkpt lat="43.74441" lon="7.07988">
        <ele>700.79998779297</ele>
        <time>2022-02-11T09:20:37.000Z</time>
      </trkpt>
      <trkpt lat="43.74443" lon="7.07988">
        <ele>701.20001220703</ele>
        <time>2022-02-11T09:20:38.000Z</time>
      </trkpt>
      <trkpt lat="43.74453" lon="7.07984">
        <ele>702.59997558594</ele>
        <time>2022-02-11T09:20:43.000Z</time>
      </trkpt>
      <trkpt lat="43.74456" lon="7.07982">
        <ele>703.59997558594</ele>
        <time>2022-02-11T09:20:45.000Z</time>
      </trkpt>
      <trkpt lat="43.74462" lon="7.07978">
        <ele>704.79998779297</ele>
        <time>2022-02-11T09:20:48.000Z</time>
      </trkpt>
      <trkpt lat="43.7447" lon="7.0797">
        <ele>705.59997558594</ele>
        <time>2022-02-11T09:20:53.000Z</time>
      </trkpt>
      <trkpt lat="43.74475" lon="7.07965">
        <ele>706</ele>
        <time>2022-02-11T09:20:56.000Z</time>
      </trkpt>
      <trkpt lat="43.74485" lon="7.07959">
        <ele>706.79998779297</ele>
        <time>2022-02-11T09:21:01.000Z</time>
      </trkpt>
      <trkpt lat="43.74489" lon="7.07958">
        <ele>707</ele>
        <time>2022-02-11T09:21:02.000Z</time>
      </trkpt>
      <trkpt lat="43.745" lon="7.07947">
        <ele>708</ele>
        <time>2022-02-11T09:21:06.000Z</time>
      </trkpt>
      <trkpt lat="43.74503" lon="7.07944">
        <ele>708.20001220703</ele>
        <time>2022-02-11T09:21:07.000Z</time>
      </trkpt>
      <trkpt lat="43.74518" lon="7.0793">
        <ele>708.40002441406</ele>
        <time>2022-02-11T09:21:12.000Z</time>
      </trkpt>
      <trkpt lat="43.7453" lon="7.07912">
        <ele>708.59997558594</ele>
        <time>2022-02-11T09:21:17.000Z</time>
      </trkpt>
      <trkpt lat="43.74534" lon="7.07908">
        <ele>708.79998779297</ele>
        <time>2022-02-11T09:21:18.000Z</time>
      </trkpt>
      <trkpt lat="43.74544" lon="7.07897">
        <ele>708.59997558594</ele>
        <time>2022-02-11T09:21:21.000Z</time>
      </trkpt>
      <trkpt lat="43.7455" lon="7.07894">
        <ele>708.40002441406</ele>
        <time>2022-02-11T09:21:23.000Z</time>
      </trkpt>
      <trkpt lat="43.74554" lon="7.07895">
        <ele>708.40002441406</ele>
        <time>2022-02-11T09:21:24.000Z</time>
      </trkpt>
      <trkpt lat="43.74565" lon="7.07883">
        <ele>708.59997558594</ele>
        <time>2022-02-11T09:21:28.000Z</time>
      </trkpt>
      <trkpt lat="43.74579" lon="7.07876">
        <ele>709.20001220703</ele>
        <time>2022-02-11T09:21:33.000Z</time>
      </trkpt>
      <trkpt lat="43.7459" lon="7.07868">
        <ele>710</ele>
        <time>2022-02-11T09:21:38.000Z</time>
      </trkpt>
      <trkpt lat="43.74593" lon="7.07869">
        <ele>710.40002441406</ele>
        <time>2022-02-11T09:21:39.000Z</time>
      </trkpt>
      <trkpt lat="43.74601" lon="7.07872">
        <ele>711.20001220703</ele>
        <time>2022-02-11T09:21:42.000Z</time>
      </trkpt>
      <trkpt lat="43.74605" lon="7.07872">
        <ele>711.59997558594</ele>
        <time>2022-02-11T09:21:44.000Z</time>
      </trkpt>
      <trkpt lat="43.74612" lon="7.0787">
        <ele>712.40002441406</ele>
        <time>2022-02-11T09:21:47.000Z</time>
      </trkpt>
      <trkpt lat="43.74615" lon="7.07868">
        <ele>712.59997558594</ele>
        <time>2022-02-11T09:21:48.000Z</time>
      </trkpt>
      <trkpt lat="43.74625" lon="7.07867">
        <ele>713.59997558594</ele>
        <time>2022-02-11T09:21:53.000Z</time>
      </trkpt>
      <trkpt lat="43.74627" lon="7.07867">
        <ele>713.79998779297</ele>
        <time>2022-02-11T09:21:54.000Z</time>
      </trkpt>
      <trkpt lat="43.74633" lon="7.07863">
        <ele>714.79998779297</ele>
        <time>2022-02-11T09:21:57.000Z</time>
      </trkpt>
      <trkpt lat="43.74636" lon="7.0786">
        <ele>715.20001220703</ele>
        <time>2022-02-11T09:21:59.000Z</time>
      </trkpt>
      <trkpt lat="43.74644" lon="7.07854">
        <ele>716</ele>
        <time>2022-02-11T09:22:03.000Z</time>
      </trkpt>
      <trkpt lat="43.74646" lon="7.07854">
        <ele>716.20001220703</ele>
        <time>2022-02-11T09:22:04.000Z</time>
      </trkpt>
      <trkpt lat="43.74657" lon="7.07846">
        <ele>717</ele>
        <time>2022-02-11T09:22:10.000Z</time>
      </trkpt>
      <trkpt lat="43.7466" lon="7.07845">
        <ele>717.20001220703</ele>
        <time>2022-02-11T09:22:12.000Z</time>
      </trkpt>
      <trkpt lat="43.7467" lon="7.07844">
        <ele>718</ele>
        <time>2022-02-11T09:22:17.000Z</time>
      </trkpt>
      <trkpt lat="43.74679" lon="7.07842">
        <ele>719.20001220703</ele>
        <time>2022-02-11T09:22:21.000Z</time>
      </trkpt>
      <trkpt lat="43.74686" lon="7.07841">
        <ele>720</ele>
        <time>2022-02-11T09:22:24.000Z</time>
      </trkpt>
      <trkpt lat="43.7469" lon="7.07841">
        <ele>720.40002441406</ele>
        <time>2022-02-11T09:22:26.000Z</time>
      </trkpt>
      <trkpt lat="43.74699" lon="7.07841">
        <ele>721.20001220703</ele>
        <time>2022-02-11T09:22:31.000Z</time>
      </trkpt>
      <trkpt lat="43.74701" lon="7.07841">
        <ele>721.40002441406</ele>
        <time>2022-02-11T09:22:32.000Z</time>
      </trkpt>
      <trkpt lat="43.74708" lon="7.07841">
        <ele>722.79998779297</ele>
        <time>2022-02-11T09:22:36.000Z</time>
      </trkpt>
      <trkpt lat="43.7471" lon="7.07841">
        <ele>723</ele>
        <time>2022-02-11T09:22:37.000Z</time>
      </trkpt>
      <trkpt lat="43.74716" lon="7.07841">
        <ele>724</ele>
        <time>2022-02-11T09:22:40.000Z</time>
      </trkpt>
      <trkpt lat="43.74723" lon="7.0784">
        <ele>725</ele>
        <time>2022-02-11T09:22:44.000Z</time>
      </trkpt>
      <trkpt lat="43.7474" lon="7.0784">
        <ele>726</ele>
        <time>2022-02-11T09:22:52.000Z</time>
      </trkpt>
      <trkpt lat="43.74744" lon="7.07841">
        <ele>726.20001220703</ele>
        <time>2022-02-11T09:22:54.000Z</time>
      </trkpt>
      <trkpt lat="43.74757" lon="7.07842">
        <ele>727.20001220703</ele>
        <time>2022-02-11T09:23:00.000Z</time>
      </trkpt>
      <trkpt lat="43.74761" lon="7.07843">
        <ele>727.59997558594</ele>
        <time>2022-02-11T09:23:02.000Z</time>
      </trkpt>
      <trkpt lat="43.74771" lon="7.07844">
        <ele>728.20001220703</ele>
        <time>2022-02-11T09:23:07.000Z</time>
      </trkpt>
      <trkpt lat="43.74784" lon="7.07845">
        <ele>729.20001220703</ele>
        <time>2022-02-11T09:23:13.000Z</time>
      </trkpt>
      <trkpt lat="43.74786" lon="7.07845">
        <ele>729.40002441406</ele>
        <time>2022-02-11T09:23:14.000Z</time>
      </trkpt>
      <trkpt lat="43.74804" lon="7.07847">
        <ele>730</ele>
        <time>2022-02-11T09:23:22.000Z</time>
      </trkpt>
      <trkpt lat="43.7481" lon="7.0785">
        <ele>730.40002441406</ele>
        <time>2022-02-11T09:23:25.000Z</time>
      </trkpt>
      <trkpt lat="43.74816" lon="7.07854">
        <ele>731.20001220703</ele>
        <time>2022-02-11T09:23:29.000Z</time>
      </trkpt>
      <trkpt lat="43.74819" lon="7.07854">
        <ele>731.40002441406</ele>
        <time>2022-02-11T09:23:30.000Z</time>
      </trkpt>
      <trkpt lat="43.74821" lon="7.07854">
        <ele>731.59997558594</ele>
        <time>2022-02-11T09:23:31.000Z</time>
      </trkpt>
      <trkpt lat="43.74827" lon="7.07851">
        <ele>732.40002441406</ele>
        <time>2022-02-11T09:23:34.000Z</time>
      </trkpt>
      <trkpt lat="43.74829" lon="7.0785">
        <ele>732.59997558594</ele>
        <time>2022-02-11T09:23:35.000Z</time>
      </trkpt>
      <trkpt lat="43.74836" lon="7.07845">
        <ele>733.79998779297</ele>
        <time>2022-02-11T09:23:39.000Z</time>
      </trkpt>
      <trkpt lat="43.7484" lon="7.07842">
        <ele>734</ele>
        <time>2022-02-11T09:23:41.000Z</time>
      </trkpt>
      <trkpt lat="43.74849" lon="7.07835">
        <ele>734.79998779297</ele>
        <time>2022-02-11T09:23:46.000Z</time>
      </trkpt>
      <trkpt lat="43.74853" lon="7.07831">
        <ele>735</ele>
        <time>2022-02-11T09:23:48.000Z</time>
      </trkpt>
      <trkpt lat="43.74862" lon="7.07824">
        <ele>736</ele>
        <time>2022-02-11T09:23:53.000Z</time>
      </trkpt>
      <trkpt lat="43.74868" lon="7.07821">
        <ele>736.59997558594</ele>
        <time>2022-02-11T09:23:56.000Z</time>
      </trkpt>
      <trkpt lat="43.74872" lon="7.0782">
        <ele>737</ele>
        <time>2022-02-11T09:23:58.000Z</time>
      </trkpt>
      <trkpt lat="43.74884" lon="7.07813">
        <ele>738</ele>
        <time>2022-02-11T09:24:04.000Z</time>
      </trkpt>
      <trkpt lat="43.74886" lon="7.07812">
        <ele>738</ele>
        <time>2022-02-11T09:24:05.000Z</time>
      </trkpt>
      <trkpt lat="43.74906" lon="7.07801">
        <ele>738.79998779297</ele>
        <time>2022-02-11T09:24:13.000Z</time>
      </trkpt>
      <trkpt lat="43.74911" lon="7.07799">
        <ele>739.20001220703</ele>
        <time>2022-02-11T09:24:15.000Z</time>
      </trkpt>
      <trkpt lat="43.74926" lon="7.07791">
        <ele>739.79998779297</ele>
        <time>2022-02-11T09:24:21.000Z</time>
      </trkpt>
      <trkpt lat="43.74932" lon="7.07789">
        <ele>740.20001220703</ele>
        <time>2022-02-11T09:24:23.000Z</time>
      </trkpt>
      <trkpt lat="43.74946" lon="7.07783">
        <ele>741</ele>
        <time>2022-02-11T09:24:29.000Z</time>
      </trkpt>
      <trkpt lat="43.74951" lon="7.07781">
        <ele>741.20001220703</ele>
        <time>2022-02-11T09:24:31.000Z</time>
      </trkpt>
      <trkpt lat="43.74959" lon="7.07778">
        <ele>742.20001220703</ele>
        <time>2022-02-11T09:24:35.000Z</time>
      </trkpt>
      <trkpt lat="43.74962" lon="7.07777">
        <ele>742.40002441406</ele>
        <time>2022-02-11T09:24:36.000Z</time>
      </trkpt>
      <trkpt lat="43.74975" lon="7.07774">
        <ele>743.59997558594</ele>
        <time>2022-02-11T09:24:42.000Z</time>
      </trkpt>
      <trkpt lat="43.74987" lon="7.07778">
        <ele>744.79998779297</ele>
        <time>2022-02-11T09:24:48.000Z</time>
      </trkpt>
      <trkpt lat="43.74993" lon="7.0778">
        <ele>746.20001220703</ele>
        <time>2022-02-11T09:24:51.000Z</time>
      </trkpt>
      <trkpt lat="43.74999" lon="7.07781">
        <ele>747.20001220703</ele>
        <time>2022-02-11T09:24:54.000Z</time>
      </trkpt>
      <trkpt lat="43.75" lon="7.07781">
        <ele>747.79998779297</ele>
        <time>2022-02-11T09:24:55.000Z</time>
      </trkpt>
      <trkpt lat="43.75004" lon="7.07783">
        <ele>748.59997558594</ele>
        <time>2022-02-11T09:24:57.000Z</time>
      </trkpt>
      <trkpt lat="43.75012" lon="7.07785">
        <ele>749.59997558594</ele>
        <time>2022-02-11T09:25:01.000Z</time>
      </trkpt>
      <trkpt lat="43.75016" lon="7.07785">
        <ele>750</ele>
        <time>2022-02-11T09:25:03.000Z</time>
      </trkpt>
      <trkpt lat="43.7502" lon="7.07787">
        <ele>750.79998779297</ele>
        <time>2022-02-11T09:25:05.000Z</time>
      </trkpt>
      <trkpt lat="43.7503" lon="7.0779">
        <ele>751.59997558594</ele>
        <time>2022-02-11T09:25:09.000Z</time>
      </trkpt>
      <trkpt lat="43.75032" lon="7.07791">
        <ele>751.79998779297</ele>
        <time>2022-02-11T09:25:10.000Z</time>
      </trkpt>
      <trkpt lat="43.75042" lon="7.07794">
        <ele>753</ele>
        <time>2022-02-11T09:25:15.000Z</time>
      </trkpt>
      <trkpt lat="43.75046" lon="7.07795">
        <ele>753.40002441406</ele>
        <time>2022-02-11T09:25:17.000Z</time>
      </trkpt>
      <trkpt lat="43.75058" lon="7.07794">
        <ele>754</ele>
        <time>2022-02-11T09:25:23.000Z</time>
      </trkpt>
      <trkpt lat="43.75062" lon="7.07792">
        <ele>754.20001220703</ele>
        <time>2022-02-11T09:25:25.000Z</time>
      </trkpt>
      <trkpt lat="43.75072" lon="7.07788">
        <ele>755.20001220703</ele>
        <time>2022-02-11T09:25:30.000Z</time>
      </trkpt>
      <trkpt lat="43.75083" lon="7.07783">
        <ele>755.79998779297</ele>
        <time>2022-02-11T09:25:35.000Z</time>
      </trkpt>
      <trkpt lat="43.75087" lon="7.07782">
        <ele>756.20001220703</ele>
        <time>2022-02-11T09:25:37.000Z</time>
      </trkpt>
      <trkpt lat="43.75096" lon="7.07782">
        <ele>757.40002441406</ele>
        <time>2022-02-11T09:25:41.000Z</time>
      </trkpt>
      <trkpt lat="43.75103" lon="7.07784">
        <ele>758.40002441406</ele>
        <time>2022-02-11T09:25:45.000Z</time>
      </trkpt>
      <trkpt lat="43.75109" lon="7.07789">
        <ele>759.59997558594</ele>
        <time>2022-02-11T09:25:48.000Z</time>
      </trkpt>
      <trkpt lat="43.75114" lon="7.07793">
        <ele>760.59997558594</ele>
        <time>2022-02-11T09:25:51.000Z</time>
      </trkpt>
      <trkpt lat="43.7512" lon="7.07798">
        <ele>761.79998779297</ele>
        <time>2022-02-11T09:25:54.000Z</time>
      </trkpt>
      <trkpt lat="43.75128" lon="7.07802">
        <ele>763</ele>
        <time>2022-02-11T09:25:57.000Z</time>
      </trkpt>
      <trkpt lat="43.75136" lon="7.07804">
        <ele>764.20001220703</ele>
        <time>2022-02-11T09:26:00.000Z</time>
      </trkpt>
      <trkpt lat="43.75139" lon="7.07805">
        <ele>764.59997558594</ele>
        <time>2022-02-11T09:26:01.000Z</time>
      </trkpt>
      <trkpt lat="43.75144" lon="7.07805">
        <ele>765.40002441406</ele>
        <time>2022-02-11T09:26:03.000Z</time>
      </trkpt>
      <trkpt lat="43.75148" lon="7.07806">
        <ele>766.59997558594</ele>
        <time>2022-02-11T09:26:05.000Z</time>
      </trkpt>
      <trkpt lat="43.75151" lon="7.07806">
        <ele>767.20001220703</ele>
        <time>2022-02-11T09:26:06.000Z</time>
      </trkpt>
      <trkpt lat="43.75154" lon="7.07807">
        <ele>768</ele>
        <time>2022-02-11T09:26:07.000Z</time>
      </trkpt>
      <trkpt lat="43.75161" lon="7.07811">
        <ele>769.40002441406</ele>
        <time>2022-02-11T09:26:10.000Z</time>
      </trkpt>
      <trkpt lat="43.75166" lon="7.07813">
        <ele>770</ele>
        <time>2022-02-11T09:26:12.000Z</time>
      </trkpt>
      <trkpt lat="43.75171" lon="7.07814">
        <ele>770.59997558594</ele>
        <time>2022-02-11T09:26:14.000Z</time>
      </trkpt>
      <trkpt lat="43.75183" lon="7.07816">
        <ele>772.20001220703</ele>
        <time>2022-02-11T09:26:18.000Z</time>
      </trkpt>
      <trkpt lat="43.75191" lon="7.07818">
        <ele>773.20001220703</ele>
        <time>2022-02-11T09:26:21.000Z</time>
      </trkpt>
      <trkpt lat="43.75196" lon="7.0782">
        <ele>774.20001220703</ele>
        <time>2022-02-11T09:26:23.000Z</time>
      </trkpt>
      <trkpt lat="43.752" lon="7.07822">
        <ele>775.59997558594</ele>
        <time>2022-02-11T09:26:25.000Z</time>
      </trkpt>
      <trkpt lat="43.75204" lon="7.07825">
        <ele>776.79998779297</ele>
        <time>2022-02-11T09:26:27.000Z</time>
      </trkpt>
      <trkpt lat="43.75207" lon="7.07828">
        <ele>777.79998779297</ele>
        <time>2022-02-11T09:26:29.000Z</time>
      </trkpt>
      <trkpt lat="43.75211" lon="7.07833">
        <ele>778.79998779297</ele>
        <time>2022-02-11T09:26:31.000Z</time>
      </trkpt>
      <trkpt lat="43.75213" lon="7.07835">
        <ele>779.20001220703</ele>
        <time>2022-02-11T09:26:32.000Z</time>
      </trkpt>
      <trkpt lat="43.75217" lon="7.07842">
        <ele>780.40002441406</ele>
        <time>2022-02-11T09:26:35.000Z</time>
      </trkpt>
      <trkpt lat="43.75218" lon="7.07844">
        <ele>781</ele>
        <time>2022-02-11T09:26:36.000Z</time>
      </trkpt>
      <trkpt lat="43.75218" lon="7.07846">
        <ele>781.79998779297</ele>
        <time>2022-02-11T09:26:37.000Z</time>
      </trkpt>
      <trkpt lat="43.7522" lon="7.07849">
        <ele>783</ele>
        <time>2022-02-11T09:26:39.000Z</time>
      </trkpt>
      <trkpt lat="43.75223" lon="7.07852">
        <ele>784.40002441406</ele>
        <time>2022-02-11T09:26:41.000Z</time>
      </trkpt>
      <trkpt lat="43.75227" lon="7.07858">
        <ele>785.59997558594</ele>
        <time>2022-02-11T09:26:44.000Z</time>
      </trkpt>
      <trkpt lat="43.75227" lon="7.07861">
        <ele>786.20001220703</ele>
        <time>2022-02-11T09:26:45.000Z</time>
      </trkpt>
      <trkpt lat="43.75227" lon="7.07863">
        <ele>786.79998779297</ele>
        <time>2022-02-11T09:26:46.000Z</time>
      </trkpt>
      <trkpt lat="43.75227" lon="7.07863">
        <ele>788</ele>
        <time>2022-02-11T09:26:48.000Z</time>
      </trkpt>
      <trkpt lat="43.75227" lon="7.07863">
        <ele>788.79998779297</ele>
        <time>2022-02-11T09:26:50.000Z</time>
      </trkpt>
      <trkpt lat="43.75226" lon="7.07863">
        <ele>789</ele>
        <time>2022-02-11T09:26:53.000Z</time>
      </trkpt>
      <trkpt lat="43.75229" lon="7.07865">
        <ele>789.40002441406</ele>
        <time>2022-02-11T09:26:57.000Z</time>
      </trkpt>
      <trkpt lat="43.75231" lon="7.07865">
        <ele>790.20001220703</ele>
        <time>2022-02-11T09:27:04.000Z</time>
      </trkpt>
      <trkpt lat="43.75233" lon="7.07866">
        <ele>790.20001220703</ele>
        <time>2022-02-11T09:27:05.000Z</time>
      </trkpt>
      <trkpt lat="43.75234" lon="7.07867">
        <ele>790.59997558594</ele>
        <time>2022-02-11T09:27:10.000Z</time>
      </trkpt>
      <trkpt lat="43.75234" lon="7.07869">
        <ele>790.59997558594</ele>
        <time>2022-02-11T09:27:15.000Z</time>
      </trkpt>
      <trkpt lat="43.75234" lon="7.07869">
        <ele>791.20001220703</ele>
        <time>2022-02-11T09:27:20.000Z</time>
      </trkpt>
      <trkpt lat="43.75234" lon="7.07869">
        <ele>791.20001220703</ele>
        <time>2022-02-11T09:27:21.000Z</time>
      </trkpt>
      <trkpt lat="43.75232" lon="7.07869">
        <ele>791.59997558594</ele>
        <time>2022-02-11T09:27:27.000Z</time>
      </trkpt>
      <trkpt lat="43.75229" lon="7.07871">
        <ele>791.59997558594</ele>
        <time>2022-02-11T09:27:29.000Z</time>
      </trkpt>
      <trkpt lat="43.75227" lon="7.07877">
        <ele>791.40002441406</ele>
        <time>2022-02-11T09:27:31.000Z</time>
      </trkpt>
      <trkpt lat="43.7522" lon="7.07893">
        <ele>792.40002441406</ele>
        <time>2022-02-11T09:27:37.000Z</time>
      </trkpt>
      <trkpt lat="43.75218" lon="7.07897">
        <ele>793</ele>
        <time>2022-02-11T09:27:39.000Z</time>
      </trkpt>
      <trkpt lat="43.75216" lon="7.07902">
        <ele>793.40002441406</ele>
        <time>2022-02-11T09:27:41.000Z</time>
      </trkpt>
      <trkpt lat="43.7521" lon="7.07917">
        <ele>794.59997558594</ele>
        <time>2022-02-11T09:27:47.000Z</time>
      </trkpt>
      <trkpt lat="43.75202" lon="7.07927">
        <ele>795.79998779297</ele>
        <time>2022-02-11T09:27:52.000Z</time>
      </trkpt>
      <trkpt lat="43.75201" lon="7.07928">
        <ele>796</ele>
        <time>2022-02-11T09:27:53.000Z</time>
      </trkpt>
      <trkpt lat="43.75194" lon="7.07935">
        <ele>796.79998779297</ele>
        <time>2022-02-11T09:27:57.000Z</time>
      </trkpt>
      <trkpt lat="43.75191" lon="7.0794">
        <ele>797.40002441406</ele>
        <time>2022-02-11T09:28:00.000Z</time>
      </trkpt>
      <trkpt lat="43.75187" lon="7.0795">
        <ele>798</ele>
        <time>2022-02-11T09:28:05.000Z</time>
      </trkpt>
      <trkpt lat="43.75187" lon="7.07951">
        <ele>798.20001220703</ele>
        <time>2022-02-11T09:28:06.000Z</time>
      </trkpt>
      <trkpt lat="43.75187" lon="7.07953">
        <ele>798.59997558594</ele>
        <time>2022-02-11T09:28:07.000Z</time>
      </trkpt>
      <trkpt lat="43.75189" lon="7.07956">
        <ele>799.20001220703</ele>
        <time>2022-02-11T09:28:09.000Z</time>
      </trkpt>
      <trkpt lat="43.75193" lon="7.07955">
        <ele>799.79998779297</ele>
        <time>2022-02-11T09:28:11.000Z</time>
      </trkpt>
      <trkpt lat="43.75196" lon="7.07956">
        <ele>800.40002441406</ele>
        <time>2022-02-11T09:28:13.000Z</time>
      </trkpt>
      <trkpt lat="43.75198" lon="7.07955">
        <ele>800.59997558594</ele>
        <time>2022-02-11T09:28:14.000Z</time>
      </trkpt>
      <trkpt lat="43.75201" lon="7.07955">
        <ele>801</ele>
        <time>2022-02-11T09:28:15.000Z</time>
      </trkpt>
      <trkpt lat="43.75203" lon="7.07955">
        <ele>801.40002441406</ele>
        <time>2022-02-11T09:28:16.000Z</time>
      </trkpt>
      <trkpt lat="43.75207" lon="7.07955">
        <ele>802</ele>
        <time>2022-02-11T09:28:18.000Z</time>
      </trkpt>
      <trkpt lat="43.75211" lon="7.07955">
        <ele>802.59997558594</ele>
        <time>2022-02-11T09:28:20.000Z</time>
      </trkpt>
      <trkpt lat="43.75217" lon="7.07955">
        <ele>803.79998779297</ele>
        <time>2022-02-11T09:28:23.000Z</time>
      </trkpt>
      <trkpt lat="43.7522" lon="7.07956">
        <ele>805</ele>
        <time>2022-02-11T09:28:25.000Z</time>
      </trkpt>
      <trkpt lat="43.75222" lon="7.07956">
        <ele>805.79998779297</ele>
        <time>2022-02-11T09:28:27.000Z</time>
      </trkpt>
      <trkpt lat="43.75224" lon="7.07957">
        <ele>806.20001220703</ele>
        <time>2022-02-11T09:28:28.000Z</time>
      </trkpt>
      <trkpt lat="43.75228" lon="7.0796">
        <ele>807.20001220703</ele>
        <time>2022-02-11T09:28:31.000Z</time>
      </trkpt>
      <trkpt lat="43.75233" lon="7.07964">
        <ele>808</ele>
        <time>2022-02-11T09:28:35.000Z</time>
      </trkpt>
      <trkpt lat="43.75237" lon="7.07967">
        <ele>808.40002441406</ele>
        <time>2022-02-11T09:28:37.000Z</time>
      </trkpt>
      <trkpt lat="43.75241" lon="7.07972">
        <ele>809.40002441406</ele>
        <time>2022-02-11T09:28:40.000Z</time>
      </trkpt>
      <trkpt lat="43.75245" lon="7.07976">
        <ele>810.79998779297</ele>
        <time>2022-02-11T09:28:43.000Z</time>
      </trkpt>
      <trkpt lat="43.75249" lon="7.07981">
        <ele>812</ele>
        <time>2022-02-11T09:28:46.000Z</time>
      </trkpt>
      <trkpt lat="43.75256" lon="7.07989">
        <ele>813.20001220703</ele>
        <time>2022-02-11T09:28:51.000Z</time>
      </trkpt>
      <trkpt lat="43.75261" lon="7.07993">
        <ele>813.59997558594</ele>
        <time>2022-02-11T09:28:54.000Z</time>
      </trkpt>
      <trkpt lat="43.75267" lon="7.07996">
        <ele>814.20001220703</ele>
        <time>2022-02-11T09:28:57.000Z</time>
      </trkpt>
      <trkpt lat="43.75273" lon="7.08005">
        <ele>815.20001220703</ele>
        <time>2022-02-11T09:29:02.000Z</time>
      </trkpt>
      <trkpt lat="43.75274" lon="7.08007">
        <ele>815.59997558594</ele>
        <time>2022-02-11T09:29:03.000Z</time>
      </trkpt>
      <trkpt lat="43.75277" lon="7.08014">
        <ele>816.59997558594</ele>
        <time>2022-02-11T09:29:06.000Z</time>
      </trkpt>
      <trkpt lat="43.75278" lon="7.08025">
        <ele>817.79998779297</ele>
        <time>2022-02-11T09:29:10.000Z</time>
      </trkpt>
      <trkpt lat="43.75278" lon="7.08033">
        <ele>819</ele>
        <time>2022-02-11T09:29:13.000Z</time>
      </trkpt>
      <trkpt lat="43.75277" lon="7.08042">
        <ele>819.59997558594</ele>
        <time>2022-02-11T09:29:17.000Z</time>
      </trkpt>
      <trkpt lat="43.75276" lon="7.08051">
        <ele>820</ele>
        <time>2022-02-11T09:29:20.000Z</time>
      </trkpt>
      <trkpt lat="43.75274" lon="7.0806">
        <ele>821</ele>
        <time>2022-02-11T09:29:24.000Z</time>
      </trkpt>
      <trkpt lat="43.75275" lon="7.08062">
        <ele>821.20001220703</ele>
        <time>2022-02-11T09:29:25.000Z</time>
      </trkpt>
      <trkpt lat="43.75276" lon="7.08064">
        <ele>821.40002441406</ele>
        <time>2022-02-11T09:29:26.000Z</time>
      </trkpt>
      <trkpt lat="43.7528" lon="7.08066">
        <ele>821.59997558594</ele>
        <time>2022-02-11T09:29:28.000Z</time>
      </trkpt>
      <trkpt lat="43.75291" lon="7.0807">
        <ele>822.20001220703</ele>
        <time>2022-02-11T09:29:33.000Z</time>
      </trkpt>
      <trkpt lat="43.75295" lon="7.0807">
        <ele>822.59997558594</ele>
        <time>2022-02-11T09:29:35.000Z</time>
      </trkpt>
      <trkpt lat="43.75303" lon="7.08073">
        <ele>823.40002441406</ele>
        <time>2022-02-11T09:29:39.000Z</time>
      </trkpt>
      <trkpt lat="43.75307" lon="7.08075">
        <ele>824.20001220703</ele>
        <time>2022-02-11T09:29:41.000Z</time>
      </trkpt>
      <trkpt lat="43.7531" lon="7.08077">
        <ele>824.59997558594</ele>
        <time>2022-02-11T09:29:42.000Z</time>
      </trkpt>
      <trkpt lat="43.75316" lon="7.0808">
        <ele>825.59997558594</ele>
        <time>2022-02-11T09:29:45.000Z</time>
      </trkpt>
      <trkpt lat="43.75321" lon="7.08082">
        <ele>826.40002441406</ele>
        <time>2022-02-11T09:29:48.000Z</time>
      </trkpt>
      <trkpt lat="43.75323" lon="7.08082">
        <ele>826.79998779297</ele>
        <time>2022-02-11T09:29:49.000Z</time>
      </trkpt>
      <trkpt lat="43.7533" lon="7.08083">
        <ele>828</ele>
        <time>2022-02-11T09:29:52.000Z</time>
      </trkpt>
      <trkpt lat="43.75333" lon="7.08083">
        <ele>828.40002441406</ele>
        <time>2022-02-11T09:29:54.000Z</time>
      </trkpt>
      <trkpt lat="43.75339" lon="7.08085">
        <ele>829</ele>
        <time>2022-02-11T09:29:57.000Z</time>
      </trkpt>
      <trkpt lat="43.75343" lon="7.08089">
        <ele>830.20001220703</ele>
        <time>2022-02-11T09:30:00.000Z</time>
      </trkpt>
      <trkpt lat="43.75345" lon="7.08091">
        <ele>830.59997558594</ele>
        <time>2022-02-11T09:30:01.000Z</time>
      </trkpt>
      <trkpt lat="43.75347" lon="7.08096">
        <ele>831.20001220703</ele>
        <time>2022-02-11T09:30:03.000Z</time>
      </trkpt>
      <trkpt lat="43.75353" lon="7.08102">
        <ele>832.20001220703</ele>
        <time>2022-02-11T09:30:07.000Z</time>
      </trkpt>
      <trkpt lat="43.75355" lon="7.08103">
        <ele>832.59997558594</ele>
        <time>2022-02-11T09:30:08.000Z</time>
      </trkpt>
      <trkpt lat="43.75364" lon="7.08107">
        <ele>833.79998779297</ele>
        <time>2022-02-11T09:30:13.000Z</time>
      </trkpt>
      <trkpt lat="43.75367" lon="7.0811">
        <ele>834.40002441406</ele>
        <time>2022-02-11T09:30:15.000Z</time>
      </trkpt>
      <trkpt lat="43.75369" lon="7.08114">
        <ele>834.79998779297</ele>
        <time>2022-02-11T09:30:17.000Z</time>
      </trkpt>
      <trkpt lat="43.75375" lon="7.0812">
        <ele>836.20001220703</ele>
        <time>2022-02-11T09:30:21.000Z</time>
      </trkpt>
      <trkpt lat="43.7538" lon="7.08127">
        <ele>837.40002441406</ele>
        <time>2022-02-11T09:30:25.000Z</time>
      </trkpt>
      <trkpt lat="43.75386" lon="7.08135">
        <ele>838.20001220703</ele>
        <time>2022-02-11T09:30:29.000Z</time>
      </trkpt>
      <trkpt lat="43.7539" lon="7.08137">
        <ele>838.59997558594</ele>
        <time>2022-02-11T09:30:31.000Z</time>
      </trkpt>
      <trkpt lat="43.75397" lon="7.0814">
        <ele>839</ele>
        <time>2022-02-11T09:30:35.000Z</time>
      </trkpt>
      <trkpt lat="43.75403" lon="7.08142">
        <ele>839.79998779297</ele>
        <time>2022-02-11T09:30:38.000Z</time>
      </trkpt>
      <trkpt lat="43.75408" lon="7.08145">
        <ele>841.20001220703</ele>
        <time>2022-02-11T09:30:41.000Z</time>
      </trkpt>
      <trkpt lat="43.75413" lon="7.08147">
        <ele>842</ele>
        <time>2022-02-11T09:30:43.000Z</time>
      </trkpt>
      <trkpt lat="43.75414" lon="7.08148">
        <ele>842.20001220703</ele>
        <time>2022-02-11T09:30:44.000Z</time>
      </trkpt>
      <trkpt lat="43.75425" lon="7.08157">
        <ele>843.20001220703</ele>
        <time>2022-02-11T09:30:50.000Z</time>
      </trkpt>
      <trkpt lat="43.75429" lon="7.0816">
        <ele>843.59997558594</ele>
        <time>2022-02-11T09:30:52.000Z</time>
      </trkpt>
      <trkpt lat="43.75437" lon="7.08167">
        <ele>844.40002441406</ele>
        <time>2022-02-11T09:30:57.000Z</time>
      </trkpt>
      <trkpt lat="43.7544" lon="7.0817">
        <ele>845.20001220703</ele>
        <time>2022-02-11T09:30:59.000Z</time>
      </trkpt>
      <trkpt lat="43.75442" lon="7.08171">
        <ele>845.59997558594</ele>
        <time>2022-02-11T09:31:00.000Z</time>
      </trkpt>
      <trkpt lat="43.75449" lon="7.08176">
        <ele>846.79998779297</ele>
        <time>2022-02-11T09:31:04.000Z</time>
      </trkpt>
      <trkpt lat="43.75453" lon="7.08178">
        <ele>847.20001220703</ele>
        <time>2022-02-11T09:31:06.000Z</time>
      </trkpt>
      <trkpt lat="43.7546" lon="7.08183">
        <ele>848</ele>
        <time>2022-02-11T09:31:10.000Z</time>
      </trkpt>
      <trkpt lat="43.75469" lon="7.08187">
        <ele>849</ele>
        <time>2022-02-11T09:31:15.000Z</time>
      </trkpt>
      <trkpt lat="43.75473" lon="7.08186">
        <ele>849.40002441406</ele>
        <time>2022-02-11T09:31:17.000Z</time>
      </trkpt>
      <trkpt lat="43.75478" lon="7.08181">
        <ele>850.20001220703</ele>
        <time>2022-02-11T09:31:20.000Z</time>
      </trkpt>
      <trkpt lat="43.75485" lon="7.08178">
        <ele>851.20001220703</ele>
        <time>2022-02-11T09:31:24.000Z</time>
      </trkpt>
      <trkpt lat="43.75491" lon="7.08175">
        <ele>851.79998779297</ele>
        <time>2022-02-11T09:31:27.000Z</time>
      </trkpt>
      <trkpt lat="43.75493" lon="7.08175">
        <ele>852.20001220703</ele>
        <time>2022-02-11T09:31:28.000Z</time>
      </trkpt>
      <trkpt lat="43.75503" lon="7.08172">
        <ele>853.40002441406</ele>
        <time>2022-02-11T09:31:33.000Z</time>
      </trkpt>
      <trkpt lat="43.75504" lon="7.08172">
        <ele>853.59997558594</ele>
        <time>2022-02-11T09:31:34.000Z</time>
      </trkpt>
      <trkpt lat="43.7551" lon="7.08173">
        <ele>854.79998779297</ele>
        <time>2022-02-11T09:31:37.000Z</time>
      </trkpt>
      <trkpt lat="43.75516" lon="7.08174">
        <ele>855.59997558594</ele>
        <time>2022-02-11T09:31:40.000Z</time>
      </trkpt>
      <trkpt lat="43.7552" lon="7.08176">
        <ele>856</ele>
        <time>2022-02-11T09:31:42.000Z</time>
      </trkpt>
      <trkpt lat="43.75527" lon="7.08177">
        <ele>857.20001220703</ele>
        <time>2022-02-11T09:31:46.000Z</time>
      </trkpt>
      <trkpt lat="43.75528" lon="7.08177">
        <ele>857.20001220703</ele>
        <time>2022-02-11T09:31:47.000Z</time>
      </trkpt>
      <trkpt lat="43.7554" lon="7.08175">
        <ele>858</ele>
        <time>2022-02-11T09:31:53.000Z</time>
      </trkpt>
      <trkpt lat="43.75542" lon="7.08174">
        <ele>858.20001220703</ele>
        <time>2022-02-11T09:31:54.000Z</time>
      </trkpt>
      <trkpt lat="43.75551" lon="7.08172">
        <ele>859.20001220703</ele>
        <time>2022-02-11T09:31:59.000Z</time>
      </trkpt>
      <trkpt lat="43.75559" lon="7.08172">
        <ele>860.40002441406</ele>
        <time>2022-02-11T09:32:03.000Z</time>
      </trkpt>
      <trkpt lat="43.75563" lon="7.08173">
        <ele>860.59997558594</ele>
        <time>2022-02-11T09:32:05.000Z</time>
      </trkpt>
      <trkpt lat="43.75572" lon="7.08173">
        <ele>861.40002441406</ele>
        <time>2022-02-11T09:32:09.000Z</time>
      </trkpt>
      <trkpt lat="43.75579" lon="7.08172">
        <ele>862.59997558594</ele>
        <time>2022-02-11T09:32:13.000Z</time>
      </trkpt>
      <trkpt lat="43.7559" lon="7.08172">
        <ele>863.59997558594</ele>
        <time>2022-02-11T09:32:18.000Z</time>
      </trkpt>
      <trkpt lat="43.75595" lon="7.08172">
        <ele>864.20001220703</ele>
        <time>2022-02-11T09:32:20.000Z</time>
      </trkpt>
      <trkpt lat="43.75606" lon="7.08169">
        <ele>865</ele>
        <time>2022-02-11T09:32:24.000Z</time>
      </trkpt>
      <trkpt lat="43.75609" lon="7.08169">
        <ele>865.20001220703</ele>
        <time>2022-02-11T09:32:25.000Z</time>
      </trkpt>
      <trkpt lat="43.75613" lon="7.08171">
        <ele>866</ele>
        <time>2022-02-11T09:32:27.000Z</time>
      </trkpt>
      <trkpt lat="43.7562" lon="7.0817">
        <ele>867.20001220703</ele>
        <time>2022-02-11T09:32:30.000Z</time>
      </trkpt>
      <trkpt lat="43.75622" lon="7.0817">
        <ele>867.59997558594</ele>
        <time>2022-02-11T09:32:31.000Z</time>
      </trkpt>
      <trkpt lat="43.75629" lon="7.08169">
        <ele>868.59997558594</ele>
        <time>2022-02-11T09:32:34.000Z</time>
      </trkpt>
      <trkpt lat="43.75635" lon="7.08169">
        <ele>869.79998779297</ele>
        <time>2022-02-11T09:32:37.000Z</time>
      </trkpt>
      <trkpt lat="43.75648" lon="7.08169">
        <ele>870.79998779297</ele>
        <time>2022-02-11T09:32:43.000Z</time>
      </trkpt>
      <trkpt lat="43.75659" lon="7.08171">
        <ele>872</ele>
        <time>2022-02-11T09:32:48.000Z</time>
      </trkpt>
      <trkpt lat="43.75664" lon="7.08171">
        <ele>872.59997558594</ele>
        <time>2022-02-11T09:32:50.000Z</time>
      </trkpt>
      <trkpt lat="43.7567" lon="7.08172">
        <ele>873.20001220703</ele>
        <time>2022-02-11T09:32:53.000Z</time>
      </trkpt>
      <trkpt lat="43.75678" lon="7.08173">
        <ele>873.79998779297</ele>
        <time>2022-02-11T09:32:56.000Z</time>
      </trkpt>
      <trkpt lat="43.75688" lon="7.08172">
        <ele>874.20001220703</ele>
        <time>2022-02-11T09:33:00.000Z</time>
      </trkpt>
      <trkpt lat="43.75695" lon="7.0817">
        <ele>875.40002441406</ele>
        <time>2022-02-11T09:33:03.000Z</time>
      </trkpt>
      <trkpt lat="43.75701" lon="7.08168">
        <ele>876.59997558594</ele>
        <time>2022-02-11T09:33:06.000Z</time>
      </trkpt>
      <trkpt lat="43.75708" lon="7.08168">
        <ele>877.40002441406</ele>
        <time>2022-02-11T09:33:09.000Z</time>
      </trkpt>
      <trkpt lat="43.7571" lon="7.08167">
        <ele>877.59997558594</ele>
        <time>2022-02-11T09:33:10.000Z</time>
      </trkpt>
      <trkpt lat="43.75718" lon="7.08166">
        <ele>878.59997558594</ele>
        <time>2022-02-11T09:33:13.000Z</time>
      </trkpt>
      <trkpt lat="43.75722" lon="7.08165">
        <ele>879.20001220703</ele>
        <time>2022-02-11T09:33:15.000Z</time>
      </trkpt>
      <trkpt lat="43.75726" lon="7.08163">
        <ele>879.79998779297</ele>
        <time>2022-02-11T09:33:17.000Z</time>
      </trkpt>
      <trkpt lat="43.75731" lon="7.08158">
        <ele>880.59997558594</ele>
        <time>2022-02-11T09:33:20.000Z</time>
      </trkpt>
      <trkpt lat="43.75731" lon="7.08156">
        <ele>880.79998779297</ele>
        <time>2022-02-11T09:33:21.000Z</time>
      </trkpt>
      <trkpt lat="43.75725" lon="7.08149">
        <ele>881.79998779297</ele>
        <time>2022-02-11T09:33:24.000Z</time>
      </trkpt>
      <trkpt lat="43.75724" lon="7.08146">
        <ele>882</ele>
        <time>2022-02-11T09:33:25.000Z</time>
      </trkpt>
      <trkpt lat="43.75719" lon="7.08136">
        <ele>883.40002441406</ele>
        <time>2022-02-11T09:33:29.000Z</time>
      </trkpt>
      <trkpt lat="43.75716" lon="7.0813">
        <ele>884.59997558594</ele>
        <time>2022-02-11T09:33:31.000Z</time>
      </trkpt>
      <trkpt lat="43.75715" lon="7.08128">
        <ele>885</ele>
        <time>2022-02-11T09:33:32.000Z</time>
      </trkpt>
      <trkpt lat="43.75711" lon="7.08121">
        <ele>885.79998779297</ele>
        <time>2022-02-11T09:33:35.000Z</time>
      </trkpt>
      <trkpt lat="43.75708" lon="7.08113">
        <ele>887</ele>
        <time>2022-02-11T09:33:38.000Z</time>
      </trkpt>
      <trkpt lat="43.75707" lon="7.08111">
        <ele>887.20001220703</ele>
        <time>2022-02-11T09:33:39.000Z</time>
      </trkpt>
      <trkpt lat="43.75705" lon="7.08109">
        <ele>887.40002441406</ele>
        <time>2022-02-11T09:33:40.000Z</time>
      </trkpt>
      <trkpt lat="43.75701" lon="7.08101">
        <ele>888</ele>
        <time>2022-02-11T09:33:43.000Z</time>
      </trkpt>
      <trkpt lat="43.75697" lon="7.08093">
        <ele>888.79998779297</ele>
        <time>2022-02-11T09:33:46.000Z</time>
      </trkpt>
      <trkpt lat="43.75695" lon="7.08088">
        <ele>889.20001220703</ele>
        <time>2022-02-11T09:33:48.000Z</time>
      </trkpt>
      <trkpt lat="43.75693" lon="7.08085">
        <ele>889.59997558594</ele>
        <time>2022-02-11T09:33:49.000Z</time>
      </trkpt>
      <trkpt lat="43.75692" lon="7.0808">
        <ele>890.40002441406</ele>
        <time>2022-02-11T09:33:51.000Z</time>
      </trkpt>
      <trkpt lat="43.7569" lon="7.08078">
        <ele>891.20001220703</ele>
        <time>2022-02-11T09:33:52.000Z</time>
      </trkpt>
      <trkpt lat="43.75689" lon="7.08077">
        <ele>891.79998779297</ele>
        <time>2022-02-11T09:33:53.000Z</time>
      </trkpt>
      <trkpt lat="43.75683" lon="7.08067">
        <ele>893</ele>
        <time>2022-02-11T09:33:57.000Z</time>
      </trkpt>
      <trkpt lat="43.75681" lon="7.08064">
        <ele>893.20001220703</ele>
        <time>2022-02-11T09:33:58.000Z</time>
      </trkpt>
      <trkpt lat="43.75678" lon="7.08057">
        <ele>894</ele>
        <time>2022-02-11T09:34:01.000Z</time>
      </trkpt>
      <trkpt lat="43.75674" lon="7.0805">
        <ele>895</ele>
        <time>2022-02-11T09:34:04.000Z</time>
      </trkpt>
      <trkpt lat="43.75672" lon="7.08044">
        <ele>895.59997558594</ele>
        <time>2022-02-11T09:34:06.000Z</time>
      </trkpt>
      <trkpt lat="43.7567" lon="7.08035">
        <ele>896.20001220703</ele>
        <time>2022-02-11T09:34:09.000Z</time>
      </trkpt>
      <trkpt lat="43.75669" lon="7.08034">
        <ele>896.59997558594</ele>
        <time>2022-02-11T09:34:10.000Z</time>
      </trkpt>
      <trkpt lat="43.75669" lon="7.08033">
        <ele>896.79998779297</ele>
        <time>2022-02-11T09:34:11.000Z</time>
      </trkpt>
      <trkpt lat="43.75669" lon="7.08033">
        <ele>897.40002441406</ele>
        <time>2022-02-11T09:34:13.000Z</time>
      </trkpt>
      <trkpt lat="43.75669" lon="7.08029">
        <ele>897.79998779297</ele>
        <time>2022-02-11T09:34:16.000Z</time>
      </trkpt>
      <trkpt lat="43.75667" lon="7.08013">
        <ele>898.59997558594</ele>
        <time>2022-02-11T09:34:22.000Z</time>
      </trkpt>
      <trkpt lat="43.75668" lon="7.08001">
        <ele>899.59997558594</ele>
        <time>2022-02-11T09:34:26.000Z</time>
      </trkpt>
      <trkpt lat="43.75667" lon="7.07995">
        <ele>900.40002441406</ele>
        <time>2022-02-11T09:34:28.000Z</time>
      </trkpt>
      <trkpt lat="43.75667" lon="7.07994">
        <ele>900.79998779297</ele>
        <time>2022-02-11T09:34:29.000Z</time>
      </trkpt>
      <trkpt lat="43.75664" lon="7.07982">
        <ele>902</ele>
        <time>2022-02-11T09:34:33.000Z</time>
      </trkpt>
      <trkpt lat="43.75665" lon="7.07975">
        <ele>902.20001220703</ele>
        <time>2022-02-11T09:34:36.000Z</time>
      </trkpt>
      <trkpt lat="43.75666" lon="7.07972">
        <ele>902.59997558594</ele>
        <time>2022-02-11T09:34:38.000Z</time>
      </trkpt>
      <trkpt lat="43.75666" lon="7.07972">
        <ele>903</ele>
        <time>2022-02-11T09:34:41.000Z</time>
      </trkpt>
      <trkpt lat="43.75666" lon="7.07972">
        <ele>903.20001220703</ele>
        <time>2022-02-11T09:34:42.000Z</time>
      </trkpt>
      <trkpt lat="43.75666" lon="7.07972">
        <ele>903.20001220703</ele>
        <time>2022-02-11T09:34:47.000Z</time>
      </trkpt>
      <trkpt lat="43.75665" lon="7.07971">
        <ele>903</ele>
        <time>2022-02-11T09:34:48.000Z</time>
      </trkpt>
      <trkpt lat="43.75666" lon="7.07971">
        <ele>902.79998779297</ele>
        <time>2022-02-11T09:34:50.000Z</time>
      </trkpt>
      <trkpt lat="43.75666" lon="7.07968">
        <ele>903.59997558594</ele>
        <time>2022-02-11T09:34:56.000Z</time>
      </trkpt>
      <trkpt lat="43.75668" lon="7.07966">
        <ele>904</ele>
        <time>2022-02-11T09:35:00.000Z</time>
      </trkpt>
      <trkpt lat="43.75668" lon="7.07966">
        <ele>904.40002441406</ele>
        <time>2022-02-11T09:35:02.000Z</time>
      </trkpt>
      <trkpt lat="43.75672" lon="7.07967">
        <ele>905.20001220703</ele>
        <time>2022-02-11T09:35:08.000Z</time>
      </trkpt>
      <trkpt lat="43.75673" lon="7.07967">
        <ele>905.20001220703</ele>
        <time>2022-02-11T09:35:09.000Z</time>
      </trkpt>
      <trkpt lat="43.75678" lon="7.07971">
        <ele>906.20001220703</ele>
        <time>2022-02-11T09:35:16.000Z</time>
      </trkpt>
      <trkpt lat="43.75679" lon="7.07972">
        <ele>906.59997558594</ele>
        <time>2022-02-11T09:35:18.000Z</time>
      </trkpt>
      <trkpt lat="43.75679" lon="7.07973">
        <ele>907.40002441406</ele>
        <time>2022-02-11T09:35:24.000Z</time>
      </trkpt>
      <trkpt lat="43.7568" lon="7.07973">
        <ele>907.40002441406</ele>
        <time>2022-02-11T09:35:25.000Z</time>
      </trkpt>
      <trkpt lat="43.75681" lon="7.07972">
        <ele>907.79998779297</ele>
        <time>2022-02-11T09:35:33.000Z</time>
      </trkpt>
      <trkpt lat="43.7568" lon="7.07972">
        <ele>907.79998779297</ele>
        <time>2022-02-11T09:35:43.000Z</time>
      </trkpt>
      <trkpt lat="43.75682" lon="7.07964">
        <ele>907.79998779297</ele>
        <time>2022-02-11T09:35:48.000Z</time>
      </trkpt>
      <trkpt lat="43.75682" lon="7.07953">
        <ele>908.20001220703</ele>
        <time>2022-02-11T09:35:53.000Z</time>
      </trkpt>
      <trkpt lat="43.75681" lon="7.07951">
        <ele>908.40002441406</ele>
        <time>2022-02-11T09:35:54.000Z</time>
      </trkpt>
      <trkpt lat="43.75681" lon="7.07942">
        <ele>909</ele>
        <time>2022-02-11T09:35:58.000Z</time>
      </trkpt>
      <trkpt lat="43.75682" lon="7.0794">
        <ele>909</ele>
        <time>2022-02-11T09:35:59.000Z</time>
      </trkpt>
      <trkpt lat="43.75684" lon="7.07931">
        <ele>909.40002441406</ele>
        <time>2022-02-11T09:36:02.000Z</time>
      </trkpt>
      <trkpt lat="43.75685" lon="7.07929">
        <ele>909.79998779297</ele>
        <time>2022-02-11T09:36:03.000Z</time>
      </trkpt>
      <trkpt lat="43.75685" lon="7.0792">
        <ele>910.59997558594</ele>
        <time>2022-02-11T09:36:06.000Z</time>
      </trkpt>
      <trkpt lat="43.75686" lon="7.07915">
        <ele>911.40002441406</ele>
        <time>2022-02-11T09:36:08.000Z</time>
      </trkpt>
      <trkpt lat="43.75687" lon="7.07913">
        <ele>911.79998779297</ele>
        <time>2022-02-11T09:36:09.000Z</time>
      </trkpt>
      <trkpt lat="43.75689" lon="7.07903">
        <ele>913.20001220703</ele>
        <time>2022-02-11T09:36:13.000Z</time>
      </trkpt>
      <trkpt lat="43.7569" lon="7.07898">
        <ele>913.79998779297</ele>
        <time>2022-02-11T09:36:15.000Z</time>
      </trkpt>
      <trkpt lat="43.75691" lon="7.07897">
        <ele>914.20001220703</ele>
        <time>2022-02-11T09:36:16.000Z</time>
      </trkpt>
      <trkpt lat="43.75693" lon="7.07894">
        <ele>915.40002441406</ele>
        <time>2022-02-11T09:36:20.000Z</time>
      </trkpt>
      <trkpt lat="43.75693" lon="7.07894">
        <ele>916.20001220703</ele>
        <time>2022-02-11T09:36:47.000Z</time>
      </trkpt>
      <trkpt lat="43.75693" lon="7.07892">
        <ele>916.20001220703</ele>
        <time>2022-02-11T09:37:06.000Z</time>
      </trkpt>
      <trkpt lat="43.75695" lon="7.07886">
        <ele>916.59997558594</ele>
        <time>2022-02-11T09:37:12.000Z</time>
      </trkpt>
      <trkpt lat="43.75696" lon="7.07884">
        <ele>917.59997558594</ele>
        <time>2022-02-11T09:37:16.000Z</time>
      </trkpt>
      <trkpt lat="43.75697" lon="7.07882">
        <ele>917.59997558594</ele>
        <time>2022-02-11T09:37:17.000Z</time>
      </trkpt>
      <trkpt lat="43.757" lon="7.07868">
        <ele>919</ele>
        <time>2022-02-11T09:37:23.000Z</time>
      </trkpt>
      <trkpt lat="43.75701" lon="7.07859">
        <ele>920</ele>
        <time>2022-02-11T09:37:26.000Z</time>
      </trkpt>
      <trkpt lat="43.75701" lon="7.0785">
        <ele>920.59997558594</ele>
        <time>2022-02-11T09:37:29.000Z</time>
      </trkpt>
      <trkpt lat="43.75702" lon="7.07837">
        <ele>921.20001220703</ele>
        <time>2022-02-11T09:37:33.000Z</time>
      </trkpt>
      <trkpt lat="43.75704" lon="7.07832">
        <ele>921.79998779297</ele>
        <time>2022-02-11T09:37:35.000Z</time>
      </trkpt>
      <trkpt lat="43.75705" lon="7.0783">
        <ele>922.20001220703</ele>
        <time>2022-02-11T09:37:36.000Z</time>
      </trkpt>
      <trkpt lat="43.75709" lon="7.07823">
        <ele>923.20001220703</ele>
        <time>2022-02-11T09:37:39.000Z</time>
      </trkpt>
      <trkpt lat="43.75711" lon="7.07818">
        <ele>923.59997558594</ele>
        <time>2022-02-11T09:37:41.000Z</time>
      </trkpt>
      <trkpt lat="43.75714" lon="7.07813">
        <ele>924.40002441406</ele>
        <time>2022-02-11T09:37:43.000Z</time>
      </trkpt>
      <trkpt lat="43.75717" lon="7.07802">
        <ele>925.20001220703</ele>
        <time>2022-02-11T09:37:47.000Z</time>
      </trkpt>
      <trkpt lat="43.75718" lon="7.07796">
        <ele>925.59997558594</ele>
        <time>2022-02-11T09:37:49.000Z</time>
      </trkpt>
      <trkpt lat="43.7572" lon="7.07788">
        <ele>927</ele>
        <time>2022-02-11T09:37:52.000Z</time>
      </trkpt>
      <trkpt lat="43.75721" lon="7.07785">
        <ele>927.40002441406</ele>
        <time>2022-02-11T09:37:53.000Z</time>
      </trkpt>
      <trkpt lat="43.75723" lon="7.07776">
        <ele>928.20001220703</ele>
        <time>2022-02-11T09:37:56.000Z</time>
      </trkpt>
      <trkpt lat="43.75726" lon="7.07769">
        <ele>929.20001220703</ele>
        <time>2022-02-11T09:37:59.000Z</time>
      </trkpt>
      <trkpt lat="43.75727" lon="7.07766">
        <ele>929.59997558594</ele>
        <time>2022-02-11T09:38:00.000Z</time>
      </trkpt>
      <trkpt lat="43.75731" lon="7.0776">
        <ele>930.59997558594</ele>
        <time>2022-02-11T09:38:03.000Z</time>
      </trkpt>
      <trkpt lat="43.75735" lon="7.0775">
        <ele>931.79998779297</ele>
        <time>2022-02-11T09:38:07.000Z</time>
      </trkpt>
      <trkpt lat="43.75737" lon="7.07744">
        <ele>932.79998779297</ele>
        <time>2022-02-11T09:38:10.000Z</time>
      </trkpt>
      <trkpt lat="43.7574" lon="7.07737">
        <ele>934.20001220703</ele>
        <time>2022-02-11T09:38:13.000Z</time>
      </trkpt>
      <trkpt lat="43.75741" lon="7.07734">
        <ele>934.20001220703</ele>
        <time>2022-02-11T09:38:14.000Z</time>
      </trkpt>
      <trkpt lat="43.75745" lon="7.07721">
        <ele>935.40002441406</ele>
        <time>2022-02-11T09:38:19.000Z</time>
      </trkpt>
      <trkpt lat="43.75747" lon="7.07714">
        <ele>936</ele>
        <time>2022-02-11T09:38:22.000Z</time>
      </trkpt>
      <trkpt lat="43.7575" lon="7.07707">
        <ele>936.59997558594</ele>
        <time>2022-02-11T09:38:25.000Z</time>
      </trkpt>
      <trkpt lat="43.75755" lon="7.07698">
        <ele>937.59997558594</ele>
        <time>2022-02-11T09:38:29.000Z</time>
      </trkpt>
      <trkpt lat="43.75756" lon="7.07696">
        <ele>937.79998779297</ele>
        <time>2022-02-11T09:38:30.000Z</time>
      </trkpt>
      <trkpt lat="43.75759" lon="7.07686">
        <ele>939</ele>
        <time>2022-02-11T09:38:34.000Z</time>
      </trkpt>
      <trkpt lat="43.75761" lon="7.07679">
        <ele>939.79998779297</ele>
        <time>2022-02-11T09:38:37.000Z</time>
      </trkpt>
      <trkpt lat="43.75762" lon="7.07677">
        <ele>940</ele>
        <time>2022-02-11T09:38:38.000Z</time>
      </trkpt>
      <trkpt lat="43.75766" lon="7.07664">
        <ele>941.20001220703</ele>
        <time>2022-02-11T09:38:44.000Z</time>
      </trkpt>
      <trkpt lat="43.75769" lon="7.07657">
        <ele>942.20001220703</ele>
        <time>2022-02-11T09:38:47.000Z</time>
      </trkpt>
      <trkpt lat="43.75771" lon="7.07655">
        <ele>942.59997558594</ele>
        <time>2022-02-11T09:38:48.000Z</time>
      </trkpt>
      <trkpt lat="43.75776" lon="7.07648">
        <ele>943.59997558594</ele>
        <time>2022-02-11T09:38:52.000Z</time>
      </trkpt>
      <trkpt lat="43.75777" lon="7.07646">
        <ele>944</ele>
        <time>2022-02-11T09:38:53.000Z</time>
      </trkpt>
      <trkpt lat="43.75781" lon="7.07639">
        <ele>945</ele>
        <time>2022-02-11T09:38:57.000Z</time>
      </trkpt>
      <trkpt lat="43.75782" lon="7.07637">
        <ele>945.79998779297</ele>
        <time>2022-02-11T09:38:59.000Z</time>
      </trkpt>
      <trkpt lat="43.75783" lon="7.07634">
        <ele>946.20001220703</ele>
        <time>2022-02-11T09:39:00.000Z</time>
      </trkpt>
      <trkpt lat="43.75785" lon="7.07631">
        <ele>947</ele>
        <time>2022-02-11T09:39:03.000Z</time>
      </trkpt>
      <trkpt lat="43.75786" lon="7.07632">
        <ele>947.20001220703</ele>
        <time>2022-02-11T09:39:04.000Z</time>
      </trkpt>
      <trkpt lat="43.75786" lon="7.07639">
        <ele>947.79998779297</ele>
        <time>2022-02-11T09:39:07.000Z</time>
      </trkpt>
      <trkpt lat="43.75786" lon="7.07641">
        <ele>947.79998779297</ele>
        <time>2022-02-11T09:39:08.000Z</time>
      </trkpt>
      <trkpt lat="43.75787" lon="7.07642">
        <ele>947.79998779297</ele>
        <time>2022-02-11T09:39:09.000Z</time>
      </trkpt>
      <trkpt lat="43.75789" lon="7.07649">
        <ele>948.20001220703</ele>
        <time>2022-02-11T09:39:13.000Z</time>
      </trkpt>
      <trkpt lat="43.75789" lon="7.0765">
        <ele>948.20001220703</ele>
        <time>2022-02-11T09:39:14.000Z</time>
      </trkpt>
      <trkpt lat="43.7579" lon="7.07654">
        <ele>948.59997558594</ele>
        <time>2022-02-11T09:39:18.000Z</time>
      </trkpt>
      <trkpt lat="43.75791" lon="7.07653">
        <ele>948.79998779297</ele>
        <time>2022-02-11T09:39:20.000Z</time>
      </trkpt>
      <trkpt lat="43.7579" lon="7.0765">
        <ele>948.79998779297</ele>
        <time>2022-02-11T09:39:22.000Z</time>
      </trkpt>
      <trkpt lat="43.75788" lon="7.07646">
        <ele>948.59997558594</ele>
        <time>2022-02-11T09:39:25.000Z</time>
      </trkpt>
      <trkpt lat="43.75787" lon="7.07641">
        <ele>948.59997558594</ele>
        <time>2022-02-11T09:39:28.000Z</time>
      </trkpt>
      <trkpt lat="43.75786" lon="7.0764">
        <ele>948.20001220703</ele>
        <time>2022-02-11T09:39:33.000Z</time>
      </trkpt>
      <trkpt lat="43.75786" lon="7.07643">
        <ele>948.20001220703</ele>
        <time>2022-02-11T09:39:38.000Z</time>
      </trkpt>
      <trkpt lat="43.75786" lon="7.07644">
        <ele>948.40002441406</ele>
        <time>2022-02-11T09:39:50.000Z</time>
      </trkpt>
      <trkpt lat="43.75786" lon="7.07644">
        <ele>948.59997558594</ele>
        <time>2022-02-11T09:40:17.000Z</time>
      </trkpt>
      <trkpt lat="43.75786" lon="7.07644">
        <ele>948.59997558594</ele>
        <time>2022-02-11T09:40:43.000Z</time>
      </trkpt>
      <trkpt lat="43.75787" lon="7.07644">
        <ele>948.40002441406</ele>
        <time>2022-02-11T09:41:12.000Z</time>
      </trkpt>
      <trkpt lat="43.75787" lon="7.07644">
        <ele>948.40002441406</ele>
        <time>2022-02-11T09:41:35.000Z</time>
      </trkpt>
      <trkpt lat="43.75787" lon="7.07645">
        <ele>948.40002441406</ele>
        <time>2022-02-11T09:41:57.000Z</time>
      </trkpt>
      <trkpt lat="43.75788" lon="7.07645">
        <ele>948.40002441406</ele>
        <time>2022-02-11T09:42:19.000Z</time>
      </trkpt>
      <trkpt lat="43.75787" lon="7.07645">
        <ele>948.59997558594</ele>
        <time>2022-02-11T09:42:24.000Z</time>
      </trkpt>
      <trkpt lat="43.75788" lon="7.07646">
        <ele>948.20001220703</ele>
        <time>2022-02-11T09:42:41.000Z</time>
      </trkpt>
      <trkpt lat="43.7579" lon="7.07648">
        <ele>948.40002441406</ele>
        <time>2022-02-11T09:42:43.000Z</time>
      </trkpt>
      <trkpt lat="43.75792" lon="7.07654">
        <ele>948.79998779297</ele>
        <time>2022-02-11T09:42:47.000Z</time>
      </trkpt>
      <trkpt lat="43.75797" lon="7.07665">
        <ele>949.20001220703</ele>
        <time>2022-02-11T09:42:52.000Z</time>
      </trkpt>
      <trkpt lat="43.75798" lon="7.07666">
        <ele>949.40002441406</ele>
        <time>2022-02-11T09:42:53.000Z</time>
      </trkpt>
      <trkpt lat="43.75804" lon="7.07677">
        <ele>950</ele>
        <time>2022-02-11T09:42:58.000Z</time>
      </trkpt>
      <trkpt lat="43.75808" lon="7.07681">
        <ele>950.40002441406</ele>
        <time>2022-02-11T09:43:00.000Z</time>
      </trkpt>
      <trkpt lat="43.75817" lon="7.0769">
        <ele>951.20001220703</ele>
        <time>2022-02-11T09:43:05.000Z</time>
      </trkpt>
      <trkpt lat="43.75819" lon="7.07692">
        <ele>951.40002441406</ele>
        <time>2022-02-11T09:43:06.000Z</time>
      </trkpt>
      <trkpt lat="43.75831" lon="7.07697">
        <ele>952.40002441406</ele>
        <time>2022-02-11T09:43:12.000Z</time>
      </trkpt>
      <trkpt lat="43.75836" lon="7.07698">
        <ele>952.79998779297</ele>
        <time>2022-02-11T09:43:14.000Z</time>
      </trkpt>
      <trkpt lat="43.75845" lon="7.07701">
        <ele>953.59997558594</ele>
        <time>2022-02-11T09:43:18.000Z</time>
      </trkpt>
      <trkpt lat="43.75856" lon="7.07702">
        <ele>954.20001220703</ele>
        <time>2022-02-11T09:43:23.000Z</time>
      </trkpt>
      <trkpt lat="43.75861" lon="7.07702">
        <ele>954.59997558594</ele>
        <time>2022-02-11T09:43:25.000Z</time>
      </trkpt>
      <trkpt lat="43.75872" lon="7.07701">
        <ele>955.59997558594</ele>
        <time>2022-02-11T09:43:30.000Z</time>
      </trkpt>
      <trkpt lat="43.75875" lon="7.077">
        <ele>955.79998779297</ele>
        <time>2022-02-11T09:43:31.000Z</time>
      </trkpt>
      <trkpt lat="43.75886" lon="7.07693">
        <ele>956.79998779297</ele>
        <time>2022-02-11T09:43:36.000Z</time>
      </trkpt>
      <trkpt lat="43.75892" lon="7.07687">
        <ele>957.20001220703</ele>
        <time>2022-02-11T09:43:39.000Z</time>
      </trkpt>
      <trkpt lat="43.759" lon="7.07677">
        <ele>958</ele>
        <time>2022-02-11T09:43:43.000Z</time>
      </trkpt>
      <trkpt lat="43.75909" lon="7.07664">
        <ele>958.79998779297</ele>
        <time>2022-02-11T09:43:48.000Z</time>
      </trkpt>
      <trkpt lat="43.7591" lon="7.07662">
        <ele>959</ele>
        <time>2022-02-11T09:43:49.000Z</time>
      </trkpt>
      <trkpt lat="43.75922" lon="7.07644">
        <ele>960.20001220703</ele>
        <time>2022-02-11T09:43:56.000Z</time>
      </trkpt>
      <trkpt lat="43.75931" lon="7.07628">
        <ele>961.20001220703</ele>
        <time>2022-02-11T09:44:02.000Z</time>
      </trkpt>
      <trkpt lat="43.75936" lon="7.0762">
        <ele>961.79998779297</ele>
        <time>2022-02-11T09:44:05.000Z</time>
      </trkpt>
      <trkpt lat="43.75943" lon="7.0761">
        <ele>962.40002441406</ele>
        <time>2022-02-11T09:44:08.000Z</time>
      </trkpt>
      <trkpt lat="43.75956" lon="7.07593">
        <ele>963.40002441406</ele>
        <time>2022-02-11T09:44:14.000Z</time>
      </trkpt>
      <trkpt lat="43.75958" lon="7.07589">
        <ele>963.59997558594</ele>
        <time>2022-02-11T09:44:15.000Z</time>
      </trkpt>
      <trkpt lat="43.75968" lon="7.07576">
        <ele>964.59997558594</ele>
        <time>2022-02-11T09:44:20.000Z</time>
      </trkpt>
      <trkpt lat="43.75976" lon="7.0757">
        <ele>965.40002441406</ele>
        <time>2022-02-11T09:44:23.000Z</time>
      </trkpt>
      <trkpt lat="43.75978" lon="7.07567">
        <ele>965.59997558594</ele>
        <time>2022-02-11T09:44:24.000Z</time>
      </trkpt>
      <trkpt lat="43.75989" lon="7.07561">
        <ele>966.79998779297</ele>
        <time>2022-02-11T09:44:28.000Z</time>
      </trkpt>
      <trkpt lat="43.75995" lon="7.07558">
        <ele>967.40002441406</ele>
        <time>2022-02-11T09:44:30.000Z</time>
      </trkpt>
      <trkpt lat="43.76003" lon="7.07555">
        <ele>968</ele>
        <time>2022-02-11T09:44:33.000Z</time>
      </trkpt>
      <trkpt lat="43.76016" lon="7.07549">
        <ele>969</ele>
        <time>2022-02-11T09:44:38.000Z</time>
      </trkpt>
      <trkpt lat="43.76022" lon="7.07546">
        <ele>969.40002441406</ele>
        <time>2022-02-11T09:44:40.000Z</time>
      </trkpt>
      <trkpt lat="43.76029" lon="7.07542">
        <ele>970.20001220703</ele>
        <time>2022-02-11T09:44:43.000Z</time>
      </trkpt>
      <trkpt lat="43.76041" lon="7.07535">
        <ele>971.20001220703</ele>
        <time>2022-02-11T09:44:48.000Z</time>
      </trkpt>
      <trkpt lat="43.76046" lon="7.07532">
        <ele>971.40002441406</ele>
        <time>2022-02-11T09:44:50.000Z</time>
      </trkpt>
      <trkpt lat="43.76058" lon="7.07524">
        <ele>972.40002441406</ele>
        <time>2022-02-11T09:44:55.000Z</time>
      </trkpt>
      <trkpt lat="43.76064" lon="7.07519">
        <ele>972.79998779297</ele>
        <time>2022-02-11T09:44:58.000Z</time>
      </trkpt>
      <trkpt lat="43.76071" lon="7.07508">
        <ele>973.40002441406</ele>
        <time>2022-02-11T09:45:02.000Z</time>
      </trkpt>
      <trkpt lat="43.76071" lon="7.07501">
        <ele>973.40002441406</ele>
        <time>2022-02-11T09:45:04.000Z</time>
      </trkpt>
      <trkpt lat="43.76064" lon="7.07485">
        <ele>973.40002441406</ele>
        <time>2022-02-11T09:45:09.000Z</time>
      </trkpt>
      <trkpt lat="43.7606" lon="7.07467">
        <ele>974.20001220703</ele>
        <time>2022-02-11T09:45:14.000Z</time>
      </trkpt>
      <trkpt lat="43.76059" lon="7.07459">
        <ele>974.40002441406</ele>
        <time>2022-02-11T09:45:16.000Z</time>
      </trkpt>
      <trkpt lat="43.76054" lon="7.07448">
        <ele>974.79998779297</ele>
        <time>2022-02-11T09:45:20.000Z</time>
      </trkpt>
      <trkpt lat="43.76048" lon="7.07434">
        <ele>975.59997558594</ele>
        <time>2022-02-11T09:45:25.000Z</time>
      </trkpt>
      <trkpt lat="43.76044" lon="7.07425">
        <ele>976</ele>
        <time>2022-02-11T09:45:28.000Z</time>
      </trkpt>
      <trkpt lat="43.76034" lon="7.07409">
        <ele>975.79998779297</ele>
        <time>2022-02-11T09:45:34.000Z</time>
      </trkpt>
      <trkpt lat="43.76027" lon="7.07389">
        <ele>975.79998779297</ele>
        <time>2022-02-11T09:45:40.000Z</time>
      </trkpt>
      <trkpt lat="43.76022" lon="7.07373">
        <ele>976.59997558594</ele>
        <time>2022-02-11T09:45:46.000Z</time>
      </trkpt>
      <trkpt lat="43.76022" lon="7.07367">
        <ele>976.59997558594</ele>
        <time>2022-02-11T09:45:48.000Z</time>
      </trkpt>
      <trkpt lat="43.76025" lon="7.07358">
        <ele>977.20001220703</ele>
        <time>2022-02-11T09:45:52.000Z</time>
      </trkpt>
      <trkpt lat="43.76026" lon="7.07343">
        <ele>976.59997558594</ele>
        <time>2022-02-11T09:45:56.000Z</time>
      </trkpt>
      <trkpt lat="43.76019" lon="7.0733">
        <ele>975.59997558594</ele>
        <time>2022-02-11T09:46:00.000Z</time>
      </trkpt>
      <trkpt lat="43.76018" lon="7.07328">
        <ele>975.59997558594</ele>
        <time>2022-02-11T09:46:01.000Z</time>
      </trkpt>
      <trkpt lat="43.76011" lon="7.07314">
        <ele>975.79998779297</ele>
        <time>2022-02-11T09:46:05.000Z</time>
      </trkpt>
      <trkpt lat="43.76008" lon="7.07305">
        <ele>976.40002441406</ele>
        <time>2022-02-11T09:46:09.000Z</time>
      </trkpt>
      <trkpt lat="43.76008" lon="7.07301">
        <ele>976.40002441406</ele>
        <time>2022-02-11T09:46:10.000Z</time>
      </trkpt>
      <trkpt lat="43.76009" lon="7.07299">
        <ele>976.59997558594</ele>
        <time>2022-02-11T09:46:11.000Z</time>
      </trkpt>
      <trkpt lat="43.7601" lon="7.07291">
        <ele>976.79998779297</ele>
        <time>2022-02-11T09:46:15.000Z</time>
      </trkpt>
      <trkpt lat="43.76013" lon="7.07279">
        <ele>976.40002441406</ele>
        <time>2022-02-11T09:46:19.000Z</time>
      </trkpt>
      <trkpt lat="43.76015" lon="7.07258">
        <ele>976</ele>
        <time>2022-02-11T09:46:24.000Z</time>
      </trkpt>
      <trkpt lat="43.76015" lon="7.0724">
        <ele>976</ele>
        <time>2022-02-11T09:46:29.000Z</time>
      </trkpt>
      <trkpt lat="43.76013" lon="7.07218">
        <ele>975.79998779297</ele>
        <time>2022-02-11T09:46:34.000Z</time>
      </trkpt>
      <trkpt lat="43.76014" lon="7.07202">
        <ele>975.40002441406</ele>
        <time>2022-02-11T09:46:38.000Z</time>
      </trkpt>
      <trkpt lat="43.76013" lon="7.07199">
        <ele>975.40002441406</ele>
        <time>2022-02-11T09:46:39.000Z</time>
      </trkpt>
      <trkpt lat="43.76005" lon="7.07188">
        <ele>975.40002441406</ele>
        <time>2022-02-11T09:46:43.000Z</time>
      </trkpt>
      <trkpt lat="43.75997" lon="7.0717">
        <ele>976.40002441406</ele>
        <time>2022-02-11T09:46:50.000Z</time>
      </trkpt>
      <trkpt lat="43.75998" lon="7.07151">
        <ele>977</ele>
        <time>2022-02-11T09:46:56.000Z</time>
      </trkpt>
      <trkpt lat="43.75998" lon="7.07127">
        <ele>976.40002441406</ele>
        <time>2022-02-11T09:47:03.000Z</time>
      </trkpt>
      <trkpt lat="43.76" lon="7.07108">
        <ele>976</ele>
        <time>2022-02-11T09:47:08.000Z</time>
      </trkpt>
      <trkpt lat="43.76001" lon="7.07094">
        <ele>975.40002441406</ele>
        <time>2022-02-11T09:47:12.000Z</time>
      </trkpt>
      <trkpt lat="43.76001" lon="7.07083">
        <ele>974.79998779297</ele>
        <time>2022-02-11T09:47:16.000Z</time>
      </trkpt>
      <trkpt lat="43.75998" lon="7.07076">
        <ele>974.20001220703</ele>
        <time>2022-02-11T09:47:19.000Z</time>
      </trkpt>
      <trkpt lat="43.75995" lon="7.07071">
        <ele>974.20001220703</ele>
        <time>2022-02-11T09:47:21.000Z</time>
      </trkpt>
      <trkpt lat="43.75979" lon="7.07052">
        <ele>973.40002441406</ele>
        <time>2022-02-11T09:47:29.000Z</time>
      </trkpt>
      <trkpt lat="43.75975" lon="7.07048">
        <ele>973.20001220703</ele>
        <time>2022-02-11T09:47:31.000Z</time>
      </trkpt>
      <trkpt lat="43.75967" lon="7.07045">
        <ele>973</ele>
        <time>2022-02-11T09:47:34.000Z</time>
      </trkpt>
      <trkpt lat="43.75955" lon="7.07043">
        <ele>972.59997558594</ele>
        <time>2022-02-11T09:47:39.000Z</time>
      </trkpt>
      <trkpt lat="43.75943" lon="7.07042">
        <ele>973</ele>
        <time>2022-02-11T09:47:44.000Z</time>
      </trkpt>
      <trkpt lat="43.75943" lon="7.07042">
        <ele>973.59997558594</ele>
        <time>2022-02-11T09:47:48.000Z</time>
      </trkpt>
      <trkpt lat="43.75945" lon="7.07039">
        <ele>973.79998779297</ele>
        <time>2022-02-11T09:47:53.000Z</time>
      </trkpt>
      <trkpt lat="43.75949" lon="7.07035">
        <ele>974.40002441406</ele>
        <time>2022-02-11T09:48:00.000Z</time>
      </trkpt>
      <trkpt lat="43.75949" lon="7.07033">
        <ele>974.59997558594</ele>
        <time>2022-02-11T09:48:02.000Z</time>
      </trkpt>
      <trkpt lat="43.7595" lon="7.07032">
        <ele>974.79998779297</ele>
        <time>2022-02-11T09:48:03.000Z</time>
      </trkpt>
      <trkpt lat="43.7595" lon="7.07032">
        <ele>975.59997558594</ele>
        <time>2022-02-11T09:48:06.000Z</time>
      </trkpt>
      <trkpt lat="43.75948" lon="7.07031">
        <ele>976.20001220703</ele>
        <time>2022-02-11T09:48:09.000Z</time>
      </trkpt>
      <trkpt lat="43.75944" lon="7.07026">
        <ele>976.20001220703</ele>
        <time>2022-02-11T09:48:12.000Z</time>
      </trkpt>
      <trkpt lat="43.75939" lon="7.07025">
        <ele>976.79998779297</ele>
        <time>2022-02-11T09:48:15.000Z</time>
      </trkpt>
      <trkpt lat="43.75939" lon="7.07024">
        <ele>977</ele>
        <time>2022-02-11T09:48:16.000Z</time>
      </trkpt>
      <trkpt lat="43.75939" lon="7.07025">
        <ele>977.20001220703</ele>
        <time>2022-02-11T09:48:17.000Z</time>
      </trkpt>
      <trkpt lat="43.75936" lon="7.07022">
        <ele>977.79998779297</ele>
        <time>2022-02-11T09:48:22.000Z</time>
      </trkpt>
      <trkpt lat="43.75934" lon="7.07021">
        <ele>978.79998779297</ele>
        <time>2022-02-11T09:48:27.000Z</time>
      </trkpt>
      <trkpt lat="43.75932" lon="7.0702">
        <ele>979</ele>
        <time>2022-02-11T09:48:28.000Z</time>
      </trkpt>
      <trkpt lat="43.75925" lon="7.07015">
        <ele>979.59997558594</ele>
        <time>2022-02-11T09:48:32.000Z</time>
      </trkpt>
      <trkpt lat="43.75923" lon="7.07014">
        <ele>979.79998779297</ele>
        <time>2022-02-11T09:48:33.000Z</time>
      </trkpt>
      <trkpt lat="43.75922" lon="7.07014">
        <ele>980</ele>
        <time>2022-02-11T09:48:34.000Z</time>
      </trkpt>
      <trkpt lat="43.75917" lon="7.07009">
        <ele>980.59997558594</ele>
        <time>2022-02-11T09:48:37.000Z</time>
      </trkpt>
      <trkpt lat="43.75917" lon="7.07006">
        <ele>980.79998779297</ele>
        <time>2022-02-11T09:48:38.000Z</time>
      </trkpt>
      <trkpt lat="43.75923" lon="7.06998">
        <ele>981</ele>
        <time>2022-02-11T09:48:42.000Z</time>
      </trkpt>
      <trkpt lat="43.75924" lon="7.06995">
        <ele>981.20001220703</ele>
        <time>2022-02-11T09:48:43.000Z</time>
      </trkpt>
      <trkpt lat="43.75927" lon="7.06988">
        <ele>981.20001220703</ele>
        <time>2022-02-11T09:48:45.000Z</time>
      </trkpt>
      <trkpt lat="43.7593" lon="7.06981">
        <ele>980.79998779297</ele>
        <time>2022-02-11T09:48:47.000Z</time>
      </trkpt>
      <trkpt lat="43.7593" lon="7.06972">
        <ele>980</ele>
        <time>2022-02-11T09:48:49.000Z</time>
      </trkpt>
      <trkpt lat="43.75928" lon="7.06962">
        <ele>979.20001220703</ele>
        <time>2022-02-11T09:48:51.000Z</time>
      </trkpt>
      <trkpt lat="43.75927" lon="7.06958">
        <ele>978.79998779297</ele>
        <time>2022-02-11T09:48:52.000Z</time>
      </trkpt>
      <trkpt lat="43.75922" lon="7.0694">
        <ele>978.20001220703</ele>
        <time>2022-02-11T09:48:57.000Z</time>
      </trkpt>
      <trkpt lat="43.75914" lon="7.06933">
        <ele>978</ele>
        <time>2022-02-11T09:49:02.000Z</time>
      </trkpt>
      <trkpt lat="43.75902" lon="7.06933">
        <ele>978</ele>
        <time>2022-02-11T09:49:07.000Z</time>
      </trkpt>
      <trkpt lat="43.75894" lon="7.06929">
        <ele>978.40002441406</ele>
        <time>2022-02-11T09:49:11.000Z</time>
      </trkpt>
      <trkpt lat="43.75892" lon="7.06928">
        <ele>978.79998779297</ele>
        <time>2022-02-11T09:49:12.000Z</time>
      </trkpt>
      <trkpt lat="43.75881" lon="7.06924">
        <ele>979</ele>
        <time>2022-02-11T09:49:17.000Z</time>
      </trkpt>
      <trkpt lat="43.75868" lon="7.0692">
        <ele>979</ele>
        <time>2022-02-11T09:49:22.000Z</time>
      </trkpt>
      <trkpt lat="43.75855" lon="7.06915">
        <ele>978.59997558594</ele>
        <time>2022-02-11T09:49:27.000Z</time>
      </trkpt>
      <trkpt lat="43.75841" lon="7.06905">
        <ele>978.79998779297</ele>
        <time>2022-02-11T09:49:33.000Z</time>
      </trkpt>
      <trkpt lat="43.75827" lon="7.06891">
        <ele>978.79998779297</ele>
        <time>2022-02-11T09:49:39.000Z</time>
      </trkpt>
      <trkpt lat="43.7582" lon="7.06885">
        <ele>978.59997558594</ele>
        <time>2022-02-11T09:49:41.000Z</time>
      </trkpt>
      <trkpt lat="43.75813" lon="7.06877">
        <ele>978.20001220703</ele>
        <time>2022-02-11T09:49:43.000Z</time>
      </trkpt>
      <trkpt lat="43.75808" lon="7.06871">
        <ele>977.59997558594</ele>
        <time>2022-02-11T09:49:45.000Z</time>
      </trkpt>
      <trkpt lat="43.75804" lon="7.06869">
        <ele>977.20001220703</ele>
        <time>2022-02-11T09:49:47.000Z</time>
      </trkpt>
      <trkpt lat="43.75791" lon="7.06864">
        <ele>978.20001220703</ele>
        <time>2022-02-11T09:49:52.000Z</time>
      </trkpt>
      <trkpt lat="43.75779" lon="7.06864">
        <ele>978.79998779297</ele>
        <time>2022-02-11T09:49:56.000Z</time>
      </trkpt>
      <trkpt lat="43.75777" lon="7.06862">
        <ele>978.79998779297</ele>
        <time>2022-02-11T09:49:57.000Z</time>
      </trkpt>
      <trkpt lat="43.75763" lon="7.06854">
        <ele>979</ele>
        <time>2022-02-11T09:50:03.000Z</time>
      </trkpt>
      <trkpt lat="43.7575" lon="7.0685">
        <ele>979</ele>
        <time>2022-02-11T09:50:08.000Z</time>
      </trkpt>
      <trkpt lat="43.75742" lon="7.06848">
        <ele>979</ele>
        <time>2022-02-11T09:50:13.000Z</time>
      </trkpt>
      <trkpt lat="43.75728" lon="7.06842">
        <ele>978.59997558594</ele>
        <time>2022-02-11T09:50:18.000Z</time>
      </trkpt>
      <trkpt lat="43.75716" lon="7.0683">
        <ele>977.79998779297</ele>
        <time>2022-02-11T09:50:21.000Z</time>
      </trkpt>
      <trkpt lat="43.75713" lon="7.06823">
        <ele>977.40002441406</ele>
        <time>2022-02-11T09:50:22.000Z</time>
      </trkpt>
      <trkpt lat="43.7571" lon="7.06803">
        <ele>975.79998779297</ele>
        <time>2022-02-11T09:50:25.000Z</time>
      </trkpt>
      <trkpt lat="43.75701" lon="7.0679">
        <ele>974.20001220703</ele>
        <time>2022-02-11T09:50:27.000Z</time>
      </trkpt>
      <trkpt lat="43.75696" lon="7.06784">
        <ele>973.20001220703</ele>
        <time>2022-02-11T09:50:28.000Z</time>
      </trkpt>
      <trkpt lat="43.75693" lon="7.06779">
        <ele>972.59997558594</ele>
        <time>2022-02-11T09:50:29.000Z</time>
      </trkpt>
      <trkpt lat="43.75687" lon="7.06766">
        <ele>971.59997558594</ele>
        <time>2022-02-11T09:50:31.000Z</time>
      </trkpt>
      <trkpt lat="43.75684" lon="7.0676">
        <ele>971</ele>
        <time>2022-02-11T09:50:32.000Z</time>
      </trkpt>
      <trkpt lat="43.7568" lon="7.06754">
        <ele>970.79998779297</ele>
        <time>2022-02-11T09:50:33.000Z</time>
      </trkpt>
      <trkpt lat="43.75666" lon="7.06729">
        <ele>970.40002441406</ele>
        <time>2022-02-11T09:50:37.000Z</time>
      </trkpt>
      <trkpt lat="43.75666" lon="7.06717">
        <ele>969.79998779297</ele>
        <time>2022-02-11T09:50:39.000Z</time>
      </trkpt>
      <trkpt lat="43.75664" lon="7.06711">
        <ele>968.79998779297</ele>
        <time>2022-02-11T09:50:40.000Z</time>
      </trkpt>
      <trkpt lat="43.75657" lon="7.06701">
        <ele>968</ele>
        <time>2022-02-11T09:50:42.000Z</time>
      </trkpt>
      <trkpt lat="43.75653" lon="7.06696">
        <ele>967.79998779297</ele>
        <time>2022-02-11T09:50:43.000Z</time>
      </trkpt>
      <trkpt lat="43.75647" lon="7.06684">
        <ele>967.40002441406</ele>
        <time>2022-02-11T09:50:45.000Z</time>
      </trkpt>
      <trkpt lat="43.75642" lon="7.06672">
        <ele>967.59997558594</ele>
        <time>2022-02-11T09:50:47.000Z</time>
      </trkpt>
      <trkpt lat="43.75634" lon="7.06656">
        <ele>967.59997558594</ele>
        <time>2022-02-11T09:50:50.000Z</time>
      </trkpt>
      <trkpt lat="43.75627" lon="7.0665">
        <ele>967.79998779297</ele>
        <time>2022-02-11T09:50:52.000Z</time>
      </trkpt>
      <trkpt lat="43.75613" lon="7.06635">
        <ele>968.59997558594</ele>
        <time>2022-02-11T09:50:56.000Z</time>
      </trkpt>
      <trkpt lat="43.75611" lon="7.06631">
        <ele>969</ele>
        <time>2022-02-11T09:50:57.000Z</time>
      </trkpt>
      <trkpt lat="43.75602" lon="7.06621">
        <ele>969.79998779297</ele>
        <time>2022-02-11T09:51:00.000Z</time>
      </trkpt>
      <trkpt lat="43.75599" lon="7.06618">
        <ele>970</ele>
        <time>2022-02-11T09:51:01.000Z</time>
      </trkpt>
      <trkpt lat="43.75591" lon="7.06606">
        <ele>971.20001220703</ele>
        <time>2022-02-11T09:51:05.000Z</time>
      </trkpt>
      <trkpt lat="43.75588" lon="7.06604">
        <ele>971.59997558594</ele>
        <time>2022-02-11T09:51:06.000Z</time>
      </trkpt>
      <trkpt lat="43.75584" lon="7.066">
        <ele>972.20001220703</ele>
        <time>2022-02-11T09:51:08.000Z</time>
      </trkpt>
      <trkpt lat="43.75579" lon="7.06592">
        <ele>973.20001220703</ele>
        <time>2022-02-11T09:51:11.000Z</time>
      </trkpt>
      <trkpt lat="43.75577" lon="7.06588">
        <ele>973.40002441406</ele>
        <time>2022-02-11T09:51:12.000Z</time>
      </trkpt>
      <trkpt lat="43.75569" lon="7.06579">
        <ele>974.40002441406</ele>
        <time>2022-02-11T09:51:16.000Z</time>
      </trkpt>
      <trkpt lat="43.75568" lon="7.06577">
        <ele>974.59997558594</ele>
        <time>2022-02-11T09:51:17.000Z</time>
      </trkpt>
      <trkpt lat="43.75561" lon="7.06566">
        <ele>975.59997558594</ele>
        <time>2022-02-11T09:51:21.000Z</time>
      </trkpt>
      <trkpt lat="43.75557" lon="7.06559">
        <ele>976.20001220703</ele>
        <time>2022-02-11T09:51:24.000Z</time>
      </trkpt>
      <trkpt lat="43.75549" lon="7.06548">
        <ele>976.59997558594</ele>
        <time>2022-02-11T09:51:29.000Z</time>
      </trkpt>
      <trkpt lat="43.75545" lon="7.06541">
        <ele>976.79998779297</ele>
        <time>2022-02-11T09:51:31.000Z</time>
      </trkpt>
      <trkpt lat="43.75537" lon="7.06517">
        <ele>976.59997558594</ele>
        <time>2022-02-11T09:51:36.000Z</time>
      </trkpt>
      <trkpt lat="43.75528" lon="7.06498">
        <ele>975.20001220703</ele>
        <time>2022-02-11T09:51:40.000Z</time>
      </trkpt>
      <trkpt lat="43.75522" lon="7.06492">
        <ele>974.79998779297</ele>
        <time>2022-02-11T09:51:42.000Z</time>
      </trkpt>
      <trkpt lat="43.75512" lon="7.06481">
        <ele>974.59997558594</ele>
        <time>2022-02-11T09:51:47.000Z</time>
      </trkpt>
      <trkpt lat="43.755" lon="7.06468">
        <ele>975</ele>
        <time>2022-02-11T09:51:52.000Z</time>
      </trkpt>
      <trkpt lat="43.75489" lon="7.06454">
        <ele>974.79998779297</ele>
        <time>2022-02-11T09:51:58.000Z</time>
      </trkpt>
      <trkpt lat="43.75477" lon="7.06442">
        <ele>976</ele>
        <time>2022-02-11T09:52:04.000Z</time>
      </trkpt>
      <trkpt lat="43.75472" lon="7.06439">
        <ele>976.40002441406</ele>
        <time>2022-02-11T09:52:06.000Z</time>
      </trkpt>
      <trkpt lat="43.7546" lon="7.06436">
        <ele>977</ele>
        <time>2022-02-11T09:52:11.000Z</time>
      </trkpt>
      <trkpt lat="43.75452" lon="7.06436">
        <ele>977.40002441406</ele>
        <time>2022-02-11T09:52:14.000Z</time>
      </trkpt>
      <trkpt lat="43.7544" lon="7.06436">
        <ele>978.59997558594</ele>
        <time>2022-02-11T09:52:19.000Z</time>
      </trkpt>
      <trkpt lat="43.75436" lon="7.06436">
        <ele>978.59997558594</ele>
        <time>2022-02-11T09:52:21.000Z</time>
      </trkpt>
      <trkpt lat="43.75423" lon="7.06439">
        <ele>979.20001220703</ele>
        <time>2022-02-11T09:52:27.000Z</time>
      </trkpt>
      <trkpt lat="43.75412" lon="7.06445">
        <ele>978.40002441406</ele>
        <time>2022-02-11T09:52:31.000Z</time>
      </trkpt>
      <trkpt lat="43.75402" lon="7.06439">
        <ele>978.20001220703</ele>
        <time>2022-02-11T09:52:36.000Z</time>
      </trkpt>
      <trkpt lat="43.754" lon="7.06437">
        <ele>978</ele>
        <time>2022-02-11T09:52:37.000Z</time>
      </trkpt>
      <trkpt lat="43.75389" lon="7.06436">
        <ele>978</ele>
        <time>2022-02-11T09:52:41.000Z</time>
      </trkpt>
      <trkpt lat="43.75374" lon="7.06435">
        <ele>978</ele>
        <time>2022-02-11T09:52:46.000Z</time>
      </trkpt>
      <trkpt lat="43.75368" lon="7.06431">
        <ele>978.40002441406</ele>
        <time>2022-02-11T09:52:49.000Z</time>
      </trkpt>
      <trkpt lat="43.75367" lon="7.06428">
        <ele>978.59997558594</ele>
        <time>2022-02-11T09:52:50.000Z</time>
      </trkpt>
      <trkpt lat="43.75365" lon="7.06422">
        <ele>979.59997558594</ele>
        <time>2022-02-11T09:52:52.000Z</time>
      </trkpt>
      <trkpt lat="43.75363" lon="7.06416">
        <ele>980.59997558594</ele>
        <time>2022-02-11T09:52:54.000Z</time>
      </trkpt>
      <trkpt lat="43.75362" lon="7.0641">
        <ele>981.20001220703</ele>
        <time>2022-02-11T09:52:56.000Z</time>
      </trkpt>
      <trkpt lat="43.75359" lon="7.06404">
        <ele>981.79998779297</ele>
        <time>2022-02-11T09:52:58.000Z</time>
      </trkpt>
      <trkpt lat="43.75352" lon="7.06398">
        <ele>982.79998779297</ele>
        <time>2022-02-11T09:53:02.000Z</time>
      </trkpt>
      <trkpt lat="43.7534" lon="7.06397">
        <ele>983.40002441406</ele>
        <time>2022-02-11T09:53:07.000Z</time>
      </trkpt>
      <trkpt lat="43.75335" lon="7.06399">
        <ele>984</ele>
        <time>2022-02-11T09:53:10.000Z</time>
      </trkpt>
      <trkpt lat="43.75326" lon="7.06401">
        <ele>984.40002441406</ele>
        <time>2022-02-11T09:53:14.000Z</time>
      </trkpt>
      <trkpt lat="43.7531" lon="7.06395">
        <ele>984.59997558594</ele>
        <time>2022-02-11T09:53:20.000Z</time>
      </trkpt>
      <trkpt lat="43.75296" lon="7.06393">
        <ele>985</ele>
        <time>2022-02-11T09:53:25.000Z</time>
      </trkpt>
      <trkpt lat="43.75293" lon="7.06392">
        <ele>985.20001220703</ele>
        <time>2022-02-11T09:53:26.000Z</time>
      </trkpt>
      <trkpt lat="43.75284" lon="7.06384">
        <ele>986</ele>
        <time>2022-02-11T09:53:30.000Z</time>
      </trkpt>
      <trkpt lat="43.75283" lon="7.06382">
        <ele>986.40002441406</ele>
        <time>2022-02-11T09:53:31.000Z</time>
      </trkpt>
      <trkpt lat="43.75277" lon="7.06379">
        <ele>987.20001220703</ele>
        <time>2022-02-11T09:53:34.000Z</time>
      </trkpt>
      <trkpt lat="43.7527" lon="7.06375">
        <ele>987.59997558594</ele>
        <time>2022-02-11T09:53:37.000Z</time>
      </trkpt>
      <trkpt lat="43.75256" lon="7.06357">
        <ele>986.40002441406</ele>
        <time>2022-02-11T09:53:42.000Z</time>
      </trkpt>
      <trkpt lat="43.75253" lon="7.06354">
        <ele>986.20001220703</ele>
        <time>2022-02-11T09:53:43.000Z</time>
      </trkpt>
      <trkpt lat="43.7525" lon="7.0635">
        <ele>986.20001220703</ele>
        <time>2022-02-11T09:53:44.000Z</time>
      </trkpt>
      <trkpt lat="43.75244" lon="7.06333">
        <ele>985.59997558594</ele>
        <time>2022-02-11T09:53:47.000Z</time>
      </trkpt>
      <trkpt lat="43.75238" lon="7.06319">
        <ele>985.40002441406</ele>
        <time>2022-02-11T09:53:49.000Z</time>
      </trkpt>
      <trkpt lat="43.75235" lon="7.06311">
        <ele>985.20001220703</ele>
        <time>2022-02-11T09:53:50.000Z</time>
      </trkpt>
      <trkpt lat="43.75229" lon="7.06298">
        <ele>984.40002441406</ele>
        <time>2022-02-11T09:53:52.000Z</time>
      </trkpt>
      <trkpt lat="43.75227" lon="7.06293">
        <ele>984</ele>
        <time>2022-02-11T09:53:53.000Z</time>
      </trkpt>
      <trkpt lat="43.75226" lon="7.06285">
        <ele>983.40002441406</ele>
        <time>2022-02-11T09:53:55.000Z</time>
      </trkpt>
      <trkpt lat="43.7523" lon="7.06271">
        <ele>984</ele>
        <time>2022-02-11T09:53:59.000Z</time>
      </trkpt>
      <trkpt lat="43.75229" lon="7.06252">
        <ele>984.79998779297</ele>
        <time>2022-02-11T09:54:03.000Z</time>
      </trkpt>
      <trkpt lat="43.75229" lon="7.06248">
        <ele>985</ele>
        <time>2022-02-11T09:54:04.000Z</time>
      </trkpt>
      <trkpt lat="43.75226" lon="7.06234">
        <ele>985.79998779297</ele>
        <time>2022-02-11T09:54:08.000Z</time>
      </trkpt>
      <trkpt lat="43.75225" lon="7.06224">
        <ele>986</ele>
        <time>2022-02-11T09:54:11.000Z</time>
      </trkpt>
      <trkpt lat="43.75223" lon="7.06217">
        <ele>986</ele>
        <time>2022-02-11T09:54:13.000Z</time>
      </trkpt>
      <trkpt lat="43.75212" lon="7.06205">
        <ele>985.79998779297</ele>
        <time>2022-02-11T09:54:17.000Z</time>
      </trkpt>
      <trkpt lat="43.75205" lon="7.06193">
        <ele>985.40002441406</ele>
        <time>2022-02-11T09:54:19.000Z</time>
      </trkpt>
      <trkpt lat="43.75202" lon="7.06186">
        <ele>985</ele>
        <time>2022-02-11T09:54:20.000Z</time>
      </trkpt>
      <trkpt lat="43.75198" lon="7.0618">
        <ele>984.40002441406</ele>
        <time>2022-02-11T09:54:21.000Z</time>
      </trkpt>
      <trkpt lat="43.75193" lon="7.06176">
        <ele>983</ele>
        <time>2022-02-11T09:54:22.000Z</time>
      </trkpt>
      <trkpt lat="43.75185" lon="7.06166">
        <ele>981.59997558594</ele>
        <time>2022-02-11T09:54:24.000Z</time>
      </trkpt>
      <trkpt lat="43.75176" lon="7.06148">
        <ele>980.40002441406</ele>
        <time>2022-02-11T09:54:27.000Z</time>
      </trkpt>
      <trkpt lat="43.75172" lon="7.06145">
        <ele>979.79998779297</ele>
        <time>2022-02-11T09:54:28.000Z</time>
      </trkpt>
      <trkpt lat="43.75168" lon="7.06142">
        <ele>979.79998779297</ele>
        <time>2022-02-11T09:54:29.000Z</time>
      </trkpt>
      <trkpt lat="43.75163" lon="7.06136">
        <ele>979.59997558594</ele>
        <time>2022-02-11T09:54:30.000Z</time>
      </trkpt>
      <trkpt lat="43.7516" lon="7.0613">
        <ele>979.20001220703</ele>
        <time>2022-02-11T09:54:31.000Z</time>
      </trkpt>
      <trkpt lat="43.75154" lon="7.0612">
        <ele>978.20001220703</ele>
        <time>2022-02-11T09:54:33.000Z</time>
      </trkpt>
      <trkpt lat="43.75151" lon="7.06117">
        <ele>977.59997558594</ele>
        <time>2022-02-11T09:54:34.000Z</time>
      </trkpt>
      <trkpt lat="43.75143" lon="7.06108">
        <ele>977</ele>
        <time>2022-02-11T09:54:36.000Z</time>
      </trkpt>
      <trkpt lat="43.75135" lon="7.06102">
        <ele>977.20001220703</ele>
        <time>2022-02-11T09:54:38.000Z</time>
      </trkpt>
      <trkpt lat="43.75126" lon="7.06091">
        <ele>977.40002441406</ele>
        <time>2022-02-11T09:54:41.000Z</time>
      </trkpt>
      <trkpt lat="43.7512" lon="7.06084">
        <ele>977.59997558594</ele>
        <time>2022-02-11T09:54:43.000Z</time>
      </trkpt>
      <trkpt lat="43.75113" lon="7.06078">
        <ele>978</ele>
        <time>2022-02-11T09:54:45.000Z</time>
      </trkpt>
      <trkpt lat="43.75104" lon="7.06071">
        <ele>977.59997558594</ele>
        <time>2022-02-11T09:54:48.000Z</time>
      </trkpt>
      <trkpt lat="43.75103" lon="7.06072">
        <ele>977</ele>
        <time>2022-02-11T09:54:49.000Z</time>
      </trkpt>
      <trkpt lat="43.75098" lon="7.06069">
        <ele>976.40002441406</ele>
        <time>2022-02-11T09:54:51.000Z</time>
      </trkpt>
      <trkpt lat="43.75097" lon="7.06066">
        <ele>975.79998779297</ele>
        <time>2022-02-11T09:54:52.000Z</time>
      </trkpt>
      <trkpt lat="43.7509" lon="7.06063">
        <ele>975</ele>
        <time>2022-02-11T09:54:54.000Z</time>
      </trkpt>
      <trkpt lat="43.75086" lon="7.0606">
        <ele>973.79998779297</ele>
        <time>2022-02-11T09:54:55.000Z</time>
      </trkpt>
      <trkpt lat="43.75081" lon="7.06051">
        <ele>972.59997558594</ele>
        <time>2022-02-11T09:54:57.000Z</time>
      </trkpt>
      <trkpt lat="43.7507" lon="7.06046">
        <ele>972</ele>
        <time>2022-02-11T09:55:00.000Z</time>
      </trkpt>
      <trkpt lat="43.75056" lon="7.06034">
        <ele>973</ele>
        <time>2022-02-11T09:55:04.000Z</time>
      </trkpt>
      <trkpt lat="43.75043" lon="7.06025">
        <ele>973.59997558594</ele>
        <time>2022-02-11T09:55:08.000Z</time>
      </trkpt>
      <trkpt lat="43.75039" lon="7.06024">
        <ele>973.40002441406</ele>
        <time>2022-02-11T09:55:09.000Z</time>
      </trkpt>
      <trkpt lat="43.75033" lon="7.06016">
        <ele>973.40002441406</ele>
        <time>2022-02-11T09:55:11.000Z</time>
      </trkpt>
      <trkpt lat="43.75032" lon="7.0601">
        <ele>973.40002441406</ele>
        <time>2022-02-11T09:55:12.000Z</time>
      </trkpt>
      <trkpt lat="43.7503" lon="7.0599">
        <ele>973.59997558594</ele>
        <time>2022-02-11T09:55:16.000Z</time>
      </trkpt>
      <trkpt lat="43.7503" lon="7.05985">
        <ele>973.59997558594</ele>
        <time>2022-02-11T09:55:17.000Z</time>
      </trkpt>
      <trkpt lat="43.75028" lon="7.05969">
        <ele>974.20001220703</ele>
        <time>2022-02-11T09:55:20.000Z</time>
      </trkpt>
      <trkpt lat="43.75026" lon="7.05951">
        <ele>974</ele>
        <time>2022-02-11T09:55:23.000Z</time>
      </trkpt>
      <trkpt lat="43.75023" lon="7.05939">
        <ele>973.59997558594</ele>
        <time>2022-02-11T09:55:25.000Z</time>
      </trkpt>
      <trkpt lat="43.75017" lon="7.0593">
        <ele>973.20001220703</ele>
        <time>2022-02-11T09:55:27.000Z</time>
      </trkpt>
      <trkpt lat="43.75015" lon="7.05925">
        <ele>973</ele>
        <time>2022-02-11T09:55:28.000Z</time>
      </trkpt>
      <trkpt lat="43.75012" lon="7.05913">
        <ele>972.79998779297</ele>
        <time>2022-02-11T09:55:31.000Z</time>
      </trkpt>
      <trkpt lat="43.75011" lon="7.0591">
        <ele>973.20001220703</ele>
        <time>2022-02-11T09:55:32.000Z</time>
      </trkpt>
      <trkpt lat="43.75007" lon="7.05893">
        <ele>974.79998779297</ele>
        <time>2022-02-11T09:55:37.000Z</time>
      </trkpt>
      <trkpt lat="43.75006" lon="7.05881">
        <ele>976</ele>
        <time>2022-02-11T09:55:40.000Z</time>
      </trkpt>
      <trkpt lat="43.75006" lon="7.0587">
        <ele>976.79998779297</ele>
        <time>2022-02-11T09:55:43.000Z</time>
      </trkpt>
      <trkpt lat="43.75006" lon="7.05866">
        <ele>977.20001220703</ele>
        <time>2022-02-11T09:55:44.000Z</time>
      </trkpt>
      <trkpt lat="43.75002" lon="7.05849">
        <ele>978.20001220703</ele>
        <time>2022-02-11T09:55:48.000Z</time>
      </trkpt>
      <trkpt lat="43.75001" lon="7.05846">
        <ele>978.20001220703</ele>
        <time>2022-02-11T09:55:49.000Z</time>
      </trkpt>
      <trkpt lat="43.74995" lon="7.05832">
        <ele>978.20001220703</ele>
        <time>2022-02-11T09:55:52.000Z</time>
      </trkpt>
      <trkpt lat="43.74988" lon="7.05806">
        <ele>978.20001220703</ele>
        <time>2022-02-11T09:55:58.000Z</time>
      </trkpt>
      <trkpt lat="43.74978" lon="7.05794">
        <ele>977.79998779297</ele>
        <time>2022-02-11T09:56:02.000Z</time>
      </trkpt>
      <trkpt lat="43.74975" lon="7.0579">
        <ele>977.59997558594</ele>
        <time>2022-02-11T09:56:03.000Z</time>
      </trkpt>
      <trkpt lat="43.74964" lon="7.05778">
        <ele>977.79998779297</ele>
        <time>2022-02-11T09:56:07.000Z</time>
      </trkpt>
      <trkpt lat="43.74958" lon="7.05757">
        <ele>977.40002441406</ele>
        <time>2022-02-11T09:56:12.000Z</time>
      </trkpt>
      <trkpt lat="43.74958" lon="7.05754">
        <ele>977.20001220703</ele>
        <time>2022-02-11T09:56:13.000Z</time>
      </trkpt>
      <trkpt lat="43.74962" lon="7.05741">
        <ele>977</ele>
        <time>2022-02-11T09:56:16.000Z</time>
      </trkpt>
      <trkpt lat="43.74972" lon="7.05723">
        <ele>977.79998779297</ele>
        <time>2022-02-11T09:56:22.000Z</time>
      </trkpt>
      <trkpt lat="43.74974" lon="7.05716">
        <ele>978.20001220703</ele>
        <time>2022-02-11T09:56:24.000Z</time>
      </trkpt>
      <trkpt lat="43.7498" lon="7.05708">
        <ele>979.40002441406</ele>
        <time>2022-02-11T09:56:27.000Z</time>
      </trkpt>
      <trkpt lat="43.74988" lon="7.05694">
        <ele>980.40002441406</ele>
        <time>2022-02-11T09:56:32.000Z</time>
      </trkpt>
      <trkpt lat="43.74991" lon="7.05689">
        <ele>980.79998779297</ele>
        <time>2022-02-11T09:56:34.000Z</time>
      </trkpt>
      <trkpt lat="43.75" lon="7.0568">
        <ele>981.40002441406</ele>
        <time>2022-02-11T09:56:39.000Z</time>
      </trkpt>
      <trkpt lat="43.75005" lon="7.05681">
        <ele>981.59997558594</ele>
        <time>2022-02-11T09:56:41.000Z</time>
      </trkpt>
      <trkpt lat="43.75013" lon="7.05681">
        <ele>981.59997558594</ele>
        <time>2022-02-11T09:56:44.000Z</time>
      </trkpt>
      <trkpt lat="43.75022" lon="7.05674">
        <ele>982.79998779297</ele>
        <time>2022-02-11T09:56:49.000Z</time>
      </trkpt>
      <trkpt lat="43.75032" lon="7.05667">
        <ele>984</ele>
        <time>2022-02-11T09:56:54.000Z</time>
      </trkpt>
      <trkpt lat="43.75036" lon="7.05662">
        <ele>984.20001220703</ele>
        <time>2022-02-11T09:56:56.000Z</time>
      </trkpt>
      <trkpt lat="43.75043" lon="7.05651">
        <ele>985</ele>
        <time>2022-02-11T09:57:01.000Z</time>
      </trkpt>
      <trkpt lat="43.75045" lon="7.05645">
        <ele>985.20001220703</ele>
        <time>2022-02-11T09:57:03.000Z</time>
      </trkpt>
      <trkpt lat="43.75057" lon="7.05621">
        <ele>985.40002441406</ele>
        <time>2022-02-11T09:57:11.000Z</time>
      </trkpt>
      <trkpt lat="43.75078" lon="7.056">
        <ele>984.59997558594</ele>
        <time>2022-02-11T09:57:19.000Z</time>
      </trkpt>
      <trkpt lat="43.75093" lon="7.05584">
        <ele>983.79998779297</ele>
        <time>2022-02-11T09:57:24.000Z</time>
      </trkpt>
      <trkpt lat="43.75101" lon="7.05576">
        <ele>982.40002441406</ele>
        <time>2022-02-11T09:57:27.000Z</time>
      </trkpt>
      <trkpt lat="43.75102" lon="7.05572">
        <ele>981.59997558594</ele>
        <time>2022-02-11T09:57:29.000Z</time>
      </trkpt>
      <trkpt lat="43.75099" lon="7.05565">
        <ele>981.20001220703</ele>
        <time>2022-02-11T09:57:31.000Z</time>
      </trkpt>
      <trkpt lat="43.7509" lon="7.05557">
        <ele>981</ele>
        <time>2022-02-11T09:57:35.000Z</time>
      </trkpt>
      <trkpt lat="43.75081" lon="7.05548">
        <ele>981.59997558594</ele>
        <time>2022-02-11T09:57:39.000Z</time>
      </trkpt>
      <trkpt lat="43.75078" lon="7.05548">
        <ele>981.59997558594</ele>
        <time>2022-02-11T09:57:40.000Z</time>
      </trkpt>
      <trkpt lat="43.75063" lon="7.05551">
        <ele>982</ele>
        <time>2022-02-11T09:57:46.000Z</time>
      </trkpt>
      <trkpt lat="43.75061" lon="7.05551">
        <ele>982.40002441406</ele>
        <time>2022-02-11T09:57:47.000Z</time>
      </trkpt>
      <trkpt lat="43.75047" lon="7.05549">
        <ele>983.40002441406</ele>
        <time>2022-02-11T09:57:52.000Z</time>
      </trkpt>
      <trkpt lat="43.75027" lon="7.05542">
        <ele>983</ele>
        <time>2022-02-11T09:57:58.000Z</time>
      </trkpt>
      <trkpt lat="43.75" lon="7.05525">
        <ele>982.59997558594</ele>
        <time>2022-02-11T09:58:06.000Z</time>
      </trkpt>
      <trkpt lat="43.74983" lon="7.0551">
        <ele>983</ele>
        <time>2022-02-11T09:58:12.000Z</time>
      </trkpt>
      <trkpt lat="43.7497" lon="7.05507">
        <ele>983.20001220703</ele>
        <time>2022-02-11T09:58:17.000Z</time>
      </trkpt>
      <trkpt lat="43.74962" lon="7.05505">
        <ele>983.59997558594</ele>
        <time>2022-02-11T09:58:20.000Z</time>
      </trkpt>
      <trkpt lat="43.7496" lon="7.05497">
        <ele>984.40002441406</ele>
        <time>2022-02-11T09:58:22.000Z</time>
      </trkpt>
      <trkpt lat="43.74958" lon="7.05494">
        <ele>984.79998779297</ele>
        <time>2022-02-11T09:58:23.000Z</time>
      </trkpt>
      <trkpt lat="43.74956" lon="7.05492">
        <ele>985.20001220703</ele>
        <time>2022-02-11T09:58:24.000Z</time>
      </trkpt>
      <trkpt lat="43.7495" lon="7.0549">
        <ele>985.20001220703</ele>
        <time>2022-02-11T09:58:26.000Z</time>
      </trkpt>
      <trkpt lat="43.74941" lon="7.05488">
        <ele>985.40002441406</ele>
        <time>2022-02-11T09:58:29.000Z</time>
      </trkpt>
      <trkpt lat="43.74935" lon="7.05487">
        <ele>986</ele>
        <time>2022-02-11T09:58:32.000Z</time>
      </trkpt>
      <trkpt lat="43.74925" lon="7.05473">
        <ele>986.79998779297</ele>
        <time>2022-02-11T09:58:37.000Z</time>
      </trkpt>
      <trkpt lat="43.74921" lon="7.05467">
        <ele>987</ele>
        <time>2022-02-11T09:58:39.000Z</time>
      </trkpt>
      <trkpt lat="43.74919" lon="7.05464">
        <ele>987.20001220703</ele>
        <time>2022-02-11T09:58:40.000Z</time>
      </trkpt>
      <trkpt lat="43.74908" lon="7.05449">
        <ele>987.40002441406</ele>
        <time>2022-02-11T09:58:45.000Z</time>
      </trkpt>
      <trkpt lat="43.74896" lon="7.05436">
        <ele>988.20001220703</ele>
        <time>2022-02-11T09:58:50.000Z</time>
      </trkpt>
      <trkpt lat="43.74892" lon="7.0543">
        <ele>988.40002441406</ele>
        <time>2022-02-11T09:58:52.000Z</time>
      </trkpt>
      <trkpt lat="43.74878" lon="7.05421">
        <ele>989</ele>
        <time>2022-02-11T09:58:57.000Z</time>
      </trkpt>
      <trkpt lat="43.74869" lon="7.05418">
        <ele>989.40002441406</ele>
        <time>2022-02-11T09:59:00.000Z</time>
      </trkpt>
      <trkpt lat="43.74859" lon="7.05415">
        <ele>990.20001220703</ele>
        <time>2022-02-11T09:59:04.000Z</time>
      </trkpt>
      <trkpt lat="43.74853" lon="7.05414">
        <ele>990.40002441406</ele>
        <time>2022-02-11T09:59:06.000Z</time>
      </trkpt>
      <trkpt lat="43.74845" lon="7.05414">
        <ele>991.59997558594</ele>
        <time>2022-02-11T09:59:10.000Z</time>
      </trkpt>
      <trkpt lat="43.74842" lon="7.05414">
        <ele>992</ele>
        <time>2022-02-11T09:59:11.000Z</time>
      </trkpt>
      <trkpt lat="43.74836" lon="7.05412">
        <ele>992.79998779297</ele>
        <time>2022-02-11T09:59:14.000Z</time>
      </trkpt>
      <trkpt lat="43.74832" lon="7.05408">
        <ele>993.59997558594</ele>
        <time>2022-02-11T09:59:16.000Z</time>
      </trkpt>
      <trkpt lat="43.74828" lon="7.05407">
        <ele>994</ele>
        <time>2022-02-11T09:59:18.000Z</time>
      </trkpt>
      <trkpt lat="43.7482" lon="7.05408">
        <ele>995.40002441406</ele>
        <time>2022-02-11T09:59:21.000Z</time>
      </trkpt>
      <trkpt lat="43.74805" lon="7.05401">
        <ele>996.20001220703</ele>
        <time>2022-02-11T09:59:27.000Z</time>
      </trkpt>
      <trkpt lat="43.74793" lon="7.05393">
        <ele>996.40002441406</ele>
        <time>2022-02-11T09:59:32.000Z</time>
      </trkpt>
      <trkpt lat="43.74786" lon="7.05385">
        <ele>996.79998779297</ele>
        <time>2022-02-11T09:59:36.000Z</time>
      </trkpt>
      <trkpt lat="43.74784" lon="7.05374">
        <ele>997.40002441406</ele>
        <time>2022-02-11T09:59:40.000Z</time>
      </trkpt>
      <trkpt lat="43.74784" lon="7.05371">
        <ele>997.59997558594</ele>
        <time>2022-02-11T09:59:41.000Z</time>
      </trkpt>
      <trkpt lat="43.74783" lon="7.05369">
        <ele>998</ele>
        <time>2022-02-11T09:59:43.000Z</time>
      </trkpt>
      <trkpt lat="43.74783" lon="7.05364">
        <ele>998.59997558594</ele>
        <time>2022-02-11T09:59:45.000Z</time>
      </trkpt>
      <trkpt lat="43.74782" lon="7.05359">
        <ele>998.79998779297</ele>
        <time>2022-02-11T09:59:47.000Z</time>
      </trkpt>
      <trkpt lat="43.7478" lon="7.05347">
        <ele>999.79998779297</ele>
        <time>2022-02-11T09:59:51.000Z</time>
      </trkpt>
      <trkpt lat="43.74778" lon="7.05338">
        <ele>1000.5999755859</ele>
        <time>2022-02-11T09:59:54.000Z</time>
      </trkpt>
      <trkpt lat="43.74778" lon="7.05334">
        <ele>1000.799987793</ele>
        <time>2022-02-11T09:59:55.000Z</time>
      </trkpt>
      <trkpt lat="43.74777" lon="7.05327">
        <ele>1001.799987793</ele>
        <time>2022-02-11T09:59:57.000Z</time>
      </trkpt>
      <trkpt lat="43.74776" lon="7.05321">
        <ele>1003.200012207</ele>
        <time>2022-02-11T09:59:59.000Z</time>
      </trkpt>
      <trkpt lat="43.74774" lon="7.05314">
        <ele>1004.4000244141</ele>
        <time>2022-02-11T10:00:01.000Z</time>
      </trkpt>
      <trkpt lat="43.74771" lon="7.05308">
        <ele>1005.4000244141</ele>
        <time>2022-02-11T10:00:03.000Z</time>
      </trkpt>
      <trkpt lat="43.7477" lon="7.05302">
        <ele>1006.5999755859</ele>
        <time>2022-02-11T10:00:05.000Z</time>
      </trkpt>
      <trkpt lat="43.74769" lon="7.05297">
        <ele>1007.799987793</ele>
        <time>2022-02-11T10:00:07.000Z</time>
      </trkpt>
      <trkpt lat="43.74769" lon="7.05291">
        <ele>1009</ele>
        <time>2022-02-11T10:00:10.000Z</time>
      </trkpt>
      <trkpt lat="43.74769" lon="7.05286">
        <ele>1009.4000244141</ele>
        <time>2022-02-11T10:00:13.000Z</time>
      </trkpt>
      <trkpt lat="43.7477" lon="7.05283">
        <ele>1009.5999755859</ele>
        <time>2022-02-11T10:00:15.000Z</time>
      </trkpt>
      <trkpt lat="43.74771" lon="7.05275">
        <ele>1009.799987793</ele>
        <time>2022-02-11T10:00:18.000Z</time>
      </trkpt>
      <trkpt lat="43.74771" lon="7.05255">
        <ele>1009.5999755859</ele>
        <time>2022-02-11T10:00:25.000Z</time>
      </trkpt>
      <trkpt lat="43.74766" lon="7.05241">
        <ele>1010.200012207</ele>
        <time>2022-02-11T10:00:30.000Z</time>
      </trkpt>
      <trkpt lat="43.74764" lon="7.05236">
        <ele>1010.5999755859</ele>
        <time>2022-02-11T10:00:32.000Z</time>
      </trkpt>
      <trkpt lat="43.74763" lon="7.05234">
        <ele>1011.4000244141</ele>
        <time>2022-02-11T10:00:38.000Z</time>
      </trkpt>
      <trkpt lat="43.74764" lon="7.05234">
        <ele>1011.5999755859</ele>
        <time>2022-02-11T10:00:45.000Z</time>
      </trkpt>
      <trkpt lat="43.74764" lon="7.05234">
        <ele>1012.4000244141</ele>
        <time>2022-02-11T10:00:53.000Z</time>
      </trkpt>
      <trkpt lat="43.74764" lon="7.05234">
        <ele>1011.799987793</ele>
        <time>2022-02-11T10:01:00.000Z</time>
      </trkpt>
      <trkpt lat="43.74765" lon="7.05234">
        <ele>1011.799987793</ele>
        <time>2022-02-11T10:01:14.000Z</time>
      </trkpt>
      <trkpt lat="43.74766" lon="7.05234">
        <ele>1012</ele>
        <time>2022-02-11T10:01:28.000Z</time>
      </trkpt>
      <trkpt lat="43.74765" lon="7.05234">
        <ele>1011.4000244141</ele>
        <time>2022-02-11T10:01:42.000Z</time>
      </trkpt>
      <trkpt lat="43.74766" lon="7.05234">
        <ele>1012.4000244141</ele>
        <time>2022-02-11T10:01:51.000Z</time>
      </trkpt>
      <trkpt lat="43.74765" lon="7.05234">
        <ele>1012.4000244141</ele>
        <time>2022-02-11T10:01:58.000Z</time>
      </trkpt>
      <trkpt lat="43.74765" lon="7.05234">
        <ele>1012.4000244141</ele>
        <time>2022-02-11T10:02:04.000Z</time>
      </trkpt>
      <trkpt lat="43.74765" lon="7.05234">
        <ele>1012.200012207</ele>
        <time>2022-02-11T10:02:13.000Z</time>
      </trkpt>
      <trkpt lat="43.74765" lon="7.05234">
        <ele>1012</ele>
        <time>2022-02-11T10:02:21.000Z</time>
      </trkpt>
      <trkpt lat="43.74766" lon="7.05234">
        <ele>1012.4000244141</ele>
        <time>2022-02-11T10:02:32.000Z</time>
      </trkpt>
      <trkpt lat="43.74765" lon="7.05234">
        <ele>1012.5999755859</ele>
        <time>2022-02-11T10:02:41.000Z</time>
      </trkpt>
      <trkpt lat="43.74765" lon="7.05234">
        <ele>1012.5999755859</ele>
        <time>2022-02-11T10:02:49.000Z</time>
      </trkpt>
      <trkpt lat="43.74766" lon="7.05234">
        <ele>1012.5999755859</ele>
        <time>2022-02-11T10:02:59.000Z</time>
      </trkpt>
      <trkpt lat="43.74766" lon="7.05234">
        <ele>1012.799987793</ele>
        <time>2022-02-11T10:03:12.000Z</time>
      </trkpt>
      <trkpt lat="43.74766" lon="7.05235">
        <ele>1012.4000244141</ele>
        <time>2022-02-11T10:03:23.000Z</time>
      </trkpt>
      <trkpt lat="43.74766" lon="7.05234">
        <ele>1012.200012207</ele>
        <time>2022-02-11T10:03:31.000Z</time>
      </trkpt>
      <trkpt lat="43.74766" lon="7.05235">
        <ele>1011.799987793</ele>
        <time>2022-02-11T10:03:42.000Z</time>
      </trkpt>
      <trkpt lat="43.74766" lon="7.05235">
        <ele>1012</ele>
        <time>2022-02-11T10:03:49.000Z</time>
      </trkpt>
      <trkpt lat="43.74765" lon="7.05235">
        <ele>1011.5999755859</ele>
        <time>2022-02-11T10:04:00.000Z</time>
      </trkpt>
      <trkpt lat="43.74766" lon="7.05235">
        <ele>1011.5999755859</ele>
        <time>2022-02-11T10:04:11.000Z</time>
      </trkpt>
      <trkpt lat="43.74766" lon="7.05236">
        <ele>1011.5999755859</ele>
        <time>2022-02-11T10:04:20.000Z</time>
      </trkpt>
      <trkpt lat="43.74766" lon="7.05236">
        <ele>1011.4000244141</ele>
        <time>2022-02-11T10:04:25.000Z</time>
      </trkpt>
      <trkpt lat="43.74767" lon="7.05236">
        <ele>1011.4000244141</ele>
        <time>2022-02-11T10:04:30.000Z</time>
      </trkpt>
      <trkpt lat="43.74767" lon="7.05236">
        <ele>1011.4000244141</ele>
        <time>2022-02-11T10:04:41.000Z</time>
      </trkpt>
      <trkpt lat="43.74767" lon="7.05236">
        <ele>1011.200012207</ele>
        <time>2022-02-11T10:04:48.000Z</time>
      </trkpt>
      <trkpt lat="43.74769" lon="7.05237">
        <ele>1010.799987793</ele>
        <time>2022-02-11T10:05:11.000Z</time>
      </trkpt>
      <trkpt lat="43.74769" lon="7.05236">
        <ele>1011.4000244141</ele>
        <time>2022-02-11T10:05:19.000Z</time>
      </trkpt>
      <trkpt lat="43.74769" lon="7.05236">
        <ele>1011</ele>
        <time>2022-02-11T10:05:31.000Z</time>
      </trkpt>
      <trkpt lat="43.74768" lon="7.05236">
        <ele>1011.200012207</ele>
        <time>2022-02-11T10:05:42.000Z</time>
      </trkpt>
      <trkpt lat="43.74768" lon="7.05236">
        <ele>1010.5999755859</ele>
        <time>2022-02-11T10:05:55.000Z</time>
      </trkpt>
      <trkpt lat="43.74767" lon="7.05236">
        <ele>1010.799987793</ele>
        <time>2022-02-11T10:06:08.000Z</time>
      </trkpt>
      <trkpt lat="43.74767" lon="7.05235">
        <ele>1011</ele>
        <time>2022-02-11T10:06:22.000Z</time>
      </trkpt>
      <trkpt lat="43.74767" lon="7.05235">
        <ele>1010.799987793</ele>
        <time>2022-02-11T10:06:32.000Z</time>
      </trkpt>
      <trkpt lat="43.74766" lon="7.05234">
        <ele>1010.5999755859</ele>
        <time>2022-02-11T10:06:43.000Z</time>
      </trkpt>
      <trkpt lat="43.74765" lon="7.05234">
        <ele>1010.5999755859</ele>
        <time>2022-02-11T10:06:55.000Z</time>
      </trkpt>
      <trkpt lat="43.74765" lon="7.05235">
        <ele>1011.4000244141</ele>
        <time>2022-02-11T10:07:05.000Z</time>
      </trkpt>
      <trkpt lat="43.74765" lon="7.05235">
        <ele>1011</ele>
        <time>2022-02-11T10:07:12.000Z</time>
      </trkpt>
      <trkpt lat="43.74764" lon="7.05235">
        <ele>1011</ele>
        <time>2022-02-11T10:07:17.000Z</time>
      </trkpt>
      <trkpt lat="43.74763" lon="7.05233">
        <ele>1011.200012207</ele>
        <time>2022-02-11T10:07:20.000Z</time>
      </trkpt>
      <trkpt lat="43.7476" lon="7.05226">
        <ele>1011.4000244141</ele>
        <time>2022-02-11T10:07:23.000Z</time>
      </trkpt>
      <trkpt lat="43.74759" lon="7.0522">
        <ele>1011.799987793</ele>
        <time>2022-02-11T10:07:25.000Z</time>
      </trkpt>
      <trkpt lat="43.74755" lon="7.05208">
        <ele>1012.4000244141</ele>
        <time>2022-02-11T10:07:29.000Z</time>
      </trkpt>
      <trkpt lat="43.74756" lon="7.05205">
        <ele>1012.799987793</ele>
        <time>2022-02-11T10:07:30.000Z</time>
      </trkpt>
      <trkpt lat="43.74757" lon="7.05197">
        <ele>1013.5999755859</ele>
        <time>2022-02-11T10:07:32.000Z</time>
      </trkpt>
      <trkpt lat="43.74757" lon="7.05187">
        <ele>1014.5999755859</ele>
        <time>2022-02-11T10:07:35.000Z</time>
      </trkpt>
      <trkpt lat="43.74756" lon="7.05179">
        <ele>1014.799987793</ele>
        <time>2022-02-11T10:07:37.000Z</time>
      </trkpt>
      <trkpt lat="43.7475" lon="7.05159">
        <ele>1015.799987793</ele>
        <time>2022-02-11T10:07:43.000Z</time>
      </trkpt>
      <trkpt lat="43.74749" lon="7.05158">
        <ele>1016</ele>
        <time>2022-02-11T10:07:44.000Z</time>
      </trkpt>
      <trkpt lat="43.74743" lon="7.05156">
        <ele>1016.799987793</ele>
        <time>2022-02-11T10:07:46.000Z</time>
      </trkpt>
      <trkpt lat="43.74741" lon="7.05156">
        <ele>1017.4000244141</ele>
        <time>2022-02-11T10:07:47.000Z</time>
      </trkpt>
      <trkpt lat="43.7474" lon="7.05156">
        <ele>1018.200012207</ele>
        <time>2022-02-11T10:07:48.000Z</time>
      </trkpt>
      <trkpt lat="43.74736" lon="7.05154">
        <ele>1019.5999755859</ele>
        <time>2022-02-11T10:07:50.000Z</time>
      </trkpt>
      <trkpt lat="43.74732" lon="7.05151">
        <ele>1021.200012207</ele>
        <time>2022-02-11T10:07:52.000Z</time>
      </trkpt>
      <trkpt lat="43.74727" lon="7.05147">
        <ele>1022.4000244141</ele>
        <time>2022-02-11T10:07:55.000Z</time>
      </trkpt>
      <trkpt lat="43.74726" lon="7.05145">
        <ele>1022.799987793</ele>
        <time>2022-02-11T10:07:56.000Z</time>
      </trkpt>
      <trkpt lat="43.74724" lon="7.05141">
        <ele>1023.4000244141</ele>
        <time>2022-02-11T10:07:58.000Z</time>
      </trkpt>
      <trkpt lat="43.74723" lon="7.05139">
        <ele>1023.799987793</ele>
        <time>2022-02-11T10:07:59.000Z</time>
      </trkpt>
      <trkpt lat="43.7472" lon="7.05131">
        <ele>1025</ele>
        <time>2022-02-11T10:08:02.000Z</time>
      </trkpt>
      <trkpt lat="43.74713" lon="7.05122">
        <ele>1026</ele>
        <time>2022-02-11T10:08:06.000Z</time>
      </trkpt>
      <trkpt lat="43.74707" lon="7.05111">
        <ele>1027</ele>
        <time>2022-02-11T10:08:11.000Z</time>
      </trkpt>
      <trkpt lat="43.74695" lon="7.05087">
        <ele>1028.1999511719</ele>
        <time>2022-02-11T10:08:20.000Z</time>
      </trkpt>
      <trkpt lat="43.74686" lon="7.05073">
        <ele>1029.1999511719</ele>
        <time>2022-02-11T10:08:26.000Z</time>
      </trkpt>
      <trkpt lat="43.74678" lon="7.05062">
        <ele>1030.1999511719</ele>
        <time>2022-02-11T10:08:31.000Z</time>
      </trkpt>
      <trkpt lat="43.74676" lon="7.05059">
        <ele>1030.1999511719</ele>
        <time>2022-02-11T10:08:32.000Z</time>
      </trkpt>
      <trkpt lat="43.74664" lon="7.05043">
        <ele>1030.8000488281</ele>
        <time>2022-02-11T10:08:39.000Z</time>
      </trkpt>
      <trkpt lat="43.7466" lon="7.05039">
        <ele>1031.1999511719</ele>
        <time>2022-02-11T10:08:41.000Z</time>
      </trkpt>
      <trkpt lat="43.74652" lon="7.05032">
        <ele>1032.1999511719</ele>
        <time>2022-02-11T10:08:45.000Z</time>
      </trkpt>
      <trkpt lat="43.7465" lon="7.05029">
        <ele>1032.4000244141</ele>
        <time>2022-02-11T10:08:46.000Z</time>
      </trkpt>
      <trkpt lat="43.74642" lon="7.05023">
        <ele>1033.8000488281</ele>
        <time>2022-02-11T10:08:50.000Z</time>
      </trkpt>
      <trkpt lat="43.74635" lon="7.05016">
        <ele>1035</ele>
        <time>2022-02-11T10:08:54.000Z</time>
      </trkpt>
      <trkpt lat="43.74631" lon="7.05012">
        <ele>1035.1999511719</ele>
        <time>2022-02-11T10:08:56.000Z</time>
      </trkpt>
      <trkpt lat="43.74627" lon="7.05009">
        <ele>1036</ele>
        <time>2022-02-11T10:08:58.000Z</time>
      </trkpt>
      <trkpt lat="43.74618" lon="7.05008">
        <ele>1037</ele>
        <time>2022-02-11T10:09:02.000Z</time>
      </trkpt>
      <trkpt lat="43.74616" lon="7.05007">
        <ele>1037.4000244141</ele>
        <time>2022-02-11T10:09:03.000Z</time>
      </trkpt>
      <trkpt lat="43.74612" lon="7.05006">
        <ele>1038.4000244141</ele>
        <time>2022-02-11T10:09:05.000Z</time>
      </trkpt>
      <trkpt lat="43.74606" lon="7.05005">
        <ele>1039.5999755859</ele>
        <time>2022-02-11T10:09:08.000Z</time>
      </trkpt>
      <trkpt lat="43.74604" lon="7.05004">
        <ele>1039.5999755859</ele>
        <time>2022-02-11T10:09:09.000Z</time>
      </trkpt>
      <trkpt lat="43.74594" lon="7.05002">
        <ele>1040.5999755859</ele>
        <time>2022-02-11T10:09:14.000Z</time>
      </trkpt>
      <trkpt lat="43.74591" lon="7.05003">
        <ele>1040.8000488281</ele>
        <time>2022-02-11T10:09:15.000Z</time>
      </trkpt>
      <trkpt lat="43.74576" lon="7.05004">
        <ele>1041.5999755859</ele>
        <time>2022-02-11T10:09:22.000Z</time>
      </trkpt>
      <trkpt lat="43.74559" lon="7.05004">
        <ele>1042.1999511719</ele>
        <time>2022-02-11T10:09:29.000Z</time>
      </trkpt>
      <trkpt lat="43.74542" lon="7.04999">
        <ele>1042.5999755859</ele>
        <time>2022-02-11T10:09:36.000Z</time>
      </trkpt>
      <trkpt lat="43.74538" lon="7.04997">
        <ele>1042.5999755859</ele>
        <time>2022-02-11T10:09:38.000Z</time>
      </trkpt>
      <trkpt lat="43.74529" lon="7.04996">
        <ele>1042.5999755859</ele>
        <time>2022-02-11T10:09:41.000Z</time>
      </trkpt>
      <trkpt lat="43.74507" lon="7.05">
        <ele>1042.1999511719</ele>
        <time>2022-02-11T10:09:48.000Z</time>
      </trkpt>
      <trkpt lat="43.74489" lon="7.05007">
        <ele>1041.5999755859</ele>
        <time>2022-02-11T10:09:53.000Z</time>
      </trkpt>
      <trkpt lat="43.74479" lon="7.0501">
        <ele>1041.4000244141</ele>
        <time>2022-02-11T10:09:56.000Z</time>
      </trkpt>
      <trkpt lat="43.74475" lon="7.05008">
        <ele>1041.4000244141</ele>
        <time>2022-02-11T10:09:57.000Z</time>
      </trkpt>
      <trkpt lat="43.74471" lon="7.05002">
        <ele>1041.5999755859</ele>
        <time>2022-02-11T10:09:59.000Z</time>
      </trkpt>
      <trkpt lat="43.74459" lon="7.04989">
        <ele>1042</ele>
        <time>2022-02-11T10:10:04.000Z</time>
      </trkpt>
      <trkpt lat="43.74454" lon="7.04985">
        <ele>1042.1999511719</ele>
        <time>2022-02-11T10:10:06.000Z</time>
      </trkpt>
      <trkpt lat="43.74452" lon="7.04979">
        <ele>1042.4000244141</ele>
        <time>2022-02-11T10:10:08.000Z</time>
      </trkpt>
      <trkpt lat="43.74451" lon="7.04977">
        <ele>1042.1999511719</ele>
        <time>2022-02-11T10:10:09.000Z</time>
      </trkpt>
      <trkpt lat="43.74452" lon="7.04973">
        <ele>1042.4000244141</ele>
        <time>2022-02-11T10:10:12.000Z</time>
      </trkpt>
      <trkpt lat="43.74453" lon="7.04968">
        <ele>1042.5999755859</ele>
        <time>2022-02-11T10:10:14.000Z</time>
      </trkpt>
      <trkpt lat="43.74451" lon="7.04967">
        <ele>1042.8000488281</ele>
        <time>2022-02-11T10:10:15.000Z</time>
      </trkpt>
      <trkpt lat="43.74449" lon="7.04966">
        <ele>1043</ele>
        <time>2022-02-11T10:10:16.000Z</time>
      </trkpt>
      <trkpt lat="43.74438" lon="7.04965">
        <ele>1043</ele>
        <time>2022-02-11T10:10:21.000Z</time>
      </trkpt>
      <trkpt lat="43.74425" lon="7.04969">
        <ele>1041.5999755859</ele>
        <time>2022-02-11T10:10:27.000Z</time>
      </trkpt>
      <trkpt lat="43.7442" lon="7.04972">
        <ele>1040.4000244141</ele>
        <time>2022-02-11T10:10:29.000Z</time>
      </trkpt>
      <trkpt lat="43.74416" lon="7.04973">
        <ele>1040.1999511719</ele>
        <time>2022-02-11T10:10:30.000Z</time>
      </trkpt>
      <trkpt lat="43.74413" lon="7.04973">
        <ele>1039.8000488281</ele>
        <time>2022-02-11T10:10:31.000Z</time>
      </trkpt>
      <trkpt lat="43.7441" lon="7.04975">
        <ele>1039.4000244141</ele>
        <time>2022-02-11T10:10:32.000Z</time>
      </trkpt>
      <trkpt lat="43.74403" lon="7.04979">
        <ele>1038.4000244141</ele>
        <time>2022-02-11T10:10:34.000Z</time>
      </trkpt>
      <trkpt lat="43.74399" lon="7.0498">
        <ele>1038</ele>
        <time>2022-02-11T10:10:35.000Z</time>
      </trkpt>
      <trkpt lat="43.74394" lon="7.04982">
        <ele>1035.8000488281</ele>
        <time>2022-02-11T10:10:36.000Z</time>
      </trkpt>
      <trkpt lat="43.74385" lon="7.04986">
        <ele>1034.8000488281</ele>
        <time>2022-02-11T10:10:38.000Z</time>
      </trkpt>
      <trkpt lat="43.7438" lon="7.04989">
        <ele>1033.4000244141</ele>
        <time>2022-02-11T10:10:40.000Z</time>
      </trkpt>
      <trkpt lat="43.7437" lon="7.0499">
        <ele>1032.5999755859</ele>
        <time>2022-02-11T10:10:43.000Z</time>
      </trkpt>
      <trkpt lat="43.74365" lon="7.04994">
        <ele>1032.1999511719</ele>
        <time>2022-02-11T10:10:45.000Z</time>
      </trkpt>
      <trkpt lat="43.7436" lon="7.04999">
        <ele>1031.8000488281</ele>
        <time>2022-02-11T10:10:47.000Z</time>
      </trkpt>
      <trkpt lat="43.74355" lon="7.05005">
        <ele>1031.5999755859</ele>
        <time>2022-02-11T10:10:49.000Z</time>
      </trkpt>
      <trkpt lat="43.74347" lon="7.05008">
        <ele>1031.5999755859</ele>
        <time>2022-02-11T10:10:51.000Z</time>
      </trkpt>
      <trkpt lat="43.74344" lon="7.05008">
        <ele>1031.8000488281</ele>
        <time>2022-02-11T10:10:52.000Z</time>
      </trkpt>
      <trkpt lat="43.74326" lon="7.05011">
        <ele>1032.8000488281</ele>
        <time>2022-02-11T10:10:57.000Z</time>
      </trkpt>
      <trkpt lat="43.74319" lon="7.05008">
        <ele>1032.8000488281</ele>
        <time>2022-02-11T10:10:59.000Z</time>
      </trkpt>
      <trkpt lat="43.74311" lon="7.05004">
        <ele>1032.4000244141</ele>
        <time>2022-02-11T10:11:01.000Z</time>
      </trkpt>
      <trkpt lat="43.74304" lon="7.05004">
        <ele>1032</ele>
        <time>2022-02-11T10:11:03.000Z</time>
      </trkpt>
      <trkpt lat="43.74299" lon="7.05003">
        <ele>1032</ele>
        <time>2022-02-11T10:11:05.000Z</time>
      </trkpt>
      <trkpt lat="43.74293" lon="7.05004">
        <ele>1032.1999511719</ele>
        <time>2022-02-11T10:11:08.000Z</time>
      </trkpt>
      <trkpt lat="43.7429" lon="7.0501">
        <ele>1032.8000488281</ele>
        <time>2022-02-11T10:11:10.000Z</time>
      </trkpt>
      <trkpt lat="43.74286" lon="7.05021">
        <ele>1033</ele>
        <time>2022-02-11T10:11:14.000Z</time>
      </trkpt>
      <trkpt lat="43.74285" lon="7.05025">
        <ele>1033.1999511719</ele>
        <time>2022-02-11T10:11:15.000Z</time>
      </trkpt>
      <trkpt lat="43.74284" lon="7.05029">
        <ele>1033.5999755859</ele>
        <time>2022-02-11T10:11:16.000Z</time>
      </trkpt>
      <trkpt lat="43.74278" lon="7.0504">
        <ele>1034.1999511719</ele>
        <time>2022-02-11T10:11:19.000Z</time>
      </trkpt>
      <trkpt lat="43.74274" lon="7.05045">
        <ele>1034.5999755859</ele>
        <time>2022-02-11T10:11:21.000Z</time>
      </trkpt>
      <trkpt lat="43.7426" lon="7.05054">
        <ele>1035.4000244141</ele>
        <time>2022-02-11T10:11:25.000Z</time>
      </trkpt>
      <trkpt lat="43.7425" lon="7.05065">
        <ele>1036.8000488281</ele>
        <time>2022-02-11T10:11:29.000Z</time>
      </trkpt>
      <trkpt lat="43.74246" lon="7.0507">
        <ele>1037.4000244141</ele>
        <time>2022-02-11T10:11:30.000Z</time>
      </trkpt>
      <trkpt lat="43.74244" lon="7.05071">
        <ele>1038</ele>
        <time>2022-02-11T10:11:31.000Z</time>
      </trkpt>
      <trkpt lat="43.74234" lon="7.05076">
        <ele>1039.1999511719</ele>
        <time>2022-02-11T10:11:34.000Z</time>
      </trkpt>
      <trkpt lat="43.74223" lon="7.05083">
        <ele>1040.1999511719</ele>
        <time>2022-02-11T10:11:38.000Z</time>
      </trkpt>
      <trkpt lat="43.74213" lon="7.05086">
        <ele>1041.1999511719</ele>
        <time>2022-02-11T10:11:42.000Z</time>
      </trkpt>
      <trkpt lat="43.74211" lon="7.05087">
        <ele>1041.1999511719</ele>
        <time>2022-02-11T10:11:43.000Z</time>
      </trkpt>
      <trkpt lat="43.74204" lon="7.05089">
        <ele>1042.4000244141</ele>
        <time>2022-02-11T10:11:47.000Z</time>
      </trkpt>
      <trkpt lat="43.74198" lon="7.05091">
        <ele>1043</ele>
        <time>2022-02-11T10:11:50.000Z</time>
      </trkpt>
      <trkpt lat="43.74194" lon="7.05092">
        <ele>1043.4000244141</ele>
        <time>2022-02-11T10:11:52.000Z</time>
      </trkpt>
      <trkpt lat="43.74188" lon="7.05095">
        <ele>1044.4000244141</ele>
        <time>2022-02-11T10:11:55.000Z</time>
      </trkpt>
      <trkpt lat="43.74186" lon="7.05094">
        <ele>1044.5999755859</ele>
        <time>2022-02-11T10:11:56.000Z</time>
      </trkpt>
      <trkpt lat="43.74179" lon="7.05099">
        <ele>1044.8000488281</ele>
        <time>2022-02-11T10:12:00.000Z</time>
      </trkpt>
      <trkpt lat="43.74172" lon="7.0511">
        <ele>1045</ele>
        <time>2022-02-11T10:12:05.000Z</time>
      </trkpt>
      <trkpt lat="43.74169" lon="7.05109">
        <ele>1045.1999511719</ele>
        <time>2022-02-11T10:12:06.000Z</time>
      </trkpt>
      <trkpt lat="43.74159" lon="7.05103">
        <ele>1045.4000244141</ele>
        <time>2022-02-11T10:12:11.000Z</time>
      </trkpt>
      <trkpt lat="43.74156" lon="7.05103">
        <ele>1045.5999755859</ele>
        <time>2022-02-11T10:12:12.000Z</time>
      </trkpt>
      <trkpt lat="43.74145" lon="7.05098">
        <ele>1046.1999511719</ele>
        <time>2022-02-11T10:12:17.000Z</time>
      </trkpt>
      <trkpt lat="43.74143" lon="7.05099">
        <ele>1046.1999511719</ele>
        <time>2022-02-11T10:12:18.000Z</time>
      </trkpt>
      <trkpt lat="43.74135" lon="7.05104">
        <ele>1046.5999755859</ele>
        <time>2022-02-11T10:12:22.000Z</time>
      </trkpt>
      <trkpt lat="43.74134" lon="7.05103">
        <ele>1046.8000488281</ele>
        <time>2022-02-11T10:12:23.000Z</time>
      </trkpt>
      <trkpt lat="43.74127" lon="7.05108">
        <ele>1047.8000488281</ele>
        <time>2022-02-11T10:12:27.000Z</time>
      </trkpt>
      <trkpt lat="43.7412" lon="7.05116">
        <ele>1047.5999755859</ele>
        <time>2022-02-11T10:12:31.000Z</time>
      </trkpt>
      <trkpt lat="43.74118" lon="7.05117">
        <ele>1047.4000244141</ele>
        <time>2022-02-11T10:12:32.000Z</time>
      </trkpt>
      <trkpt lat="43.74115" lon="7.05117">
        <ele>1047.1999511719</ele>
        <time>2022-02-11T10:12:34.000Z</time>
      </trkpt>
      <trkpt lat="43.74111" lon="7.05119">
        <ele>1046.8000488281</ele>
        <time>2022-02-11T10:12:36.000Z</time>
      </trkpt>
      <trkpt lat="43.74112" lon="7.05121">
        <ele>1046.5999755859</ele>
        <time>2022-02-11T10:12:38.000Z</time>
      </trkpt>
      <trkpt lat="43.74111" lon="7.05123">
        <ele>1046.4000244141</ele>
        <time>2022-02-11T10:12:39.000Z</time>
      </trkpt>
      <trkpt lat="43.74105" lon="7.05129">
        <ele>1046.4000244141</ele>
        <time>2022-02-11T10:12:42.000Z</time>
      </trkpt>
      <trkpt lat="43.74097" lon="7.05127">
        <ele>1047</ele>
        <time>2022-02-11T10:12:46.000Z</time>
      </trkpt>
      <trkpt lat="43.74095" lon="7.05127">
        <ele>1047.8000488281</ele>
        <time>2022-02-11T10:12:50.000Z</time>
      </trkpt>
      <trkpt lat="43.74092" lon="7.05126">
        <ele>1048</ele>
        <time>2022-02-11T10:12:52.000Z</time>
      </trkpt>
      <trkpt lat="43.7409" lon="7.05126">
        <ele>1048</ele>
        <time>2022-02-11T10:12:54.000Z</time>
      </trkpt>
      <trkpt lat="43.7409" lon="7.05125">
        <ele>1048.1999511719</ele>
        <time>2022-02-11T10:12:55.000Z</time>
      </trkpt>
      <trkpt lat="43.74088" lon="7.05124">
        <ele>1048</ele>
        <time>2022-02-11T10:12:57.000Z</time>
      </trkpt>
      <trkpt lat="43.74082" lon="7.05125">
        <ele>1047.5999755859</ele>
        <time>2022-02-11T10:13:00.000Z</time>
      </trkpt>
      <trkpt lat="43.74067" lon="7.05125">
        <ele>1047.1999511719</ele>
        <time>2022-02-11T10:13:05.000Z</time>
      </trkpt>
      <trkpt lat="43.74061" lon="7.05122">
        <ele>1047</ele>
        <time>2022-02-11T10:13:07.000Z</time>
      </trkpt>
      <trkpt lat="43.74058" lon="7.05119">
        <ele>1047</ele>
        <time>2022-02-11T10:13:09.000Z</time>
      </trkpt>
      <trkpt lat="43.74055" lon="7.05119">
        <ele>1047.1999511719</ele>
        <time>2022-02-11T10:13:10.000Z</time>
      </trkpt>
      <trkpt lat="43.74047" lon="7.05118">
        <ele>1047.4000244141</ele>
        <time>2022-02-11T10:13:13.000Z</time>
      </trkpt>
      <trkpt lat="43.74035" lon="7.05108">
        <ele>1047.4000244141</ele>
        <time>2022-02-11T10:13:18.000Z</time>
      </trkpt>
      <trkpt lat="43.74038" lon="7.05101">
        <ele>1046.8000488281</ele>
        <time>2022-02-11T10:13:21.000Z</time>
      </trkpt>
      <trkpt lat="43.74037" lon="7.05101">
        <ele>1046.5999755859</ele>
        <time>2022-02-11T10:13:25.000Z</time>
      </trkpt>
      <trkpt lat="43.74038" lon="7.05101">
        <ele>1046.5999755859</ele>
        <time>2022-02-11T10:13:30.000Z</time>
      </trkpt>
      <trkpt lat="43.74038" lon="7.05101">
        <ele>1047</ele>
        <time>2022-02-11T10:13:45.000Z</time>
      </trkpt>
      <trkpt lat="43.74039" lon="7.05102">
        <ele>1047</ele>
        <time>2022-02-11T10:14:04.000Z</time>
      </trkpt>
      <trkpt lat="43.74039" lon="7.05102">
        <ele>1047.1999511719</ele>
        <time>2022-02-11T10:14:36.000Z</time>
      </trkpt>
      <trkpt lat="43.74039" lon="7.05102">
        <ele>1047</ele>
        <time>2022-02-11T10:15:04.000Z</time>
      </trkpt>
      <trkpt lat="43.7404" lon="7.05102">
        <ele>1047.1999511719</ele>
        <time>2022-02-11T10:15:22.000Z</time>
      </trkpt>
      <trkpt lat="43.7404" lon="7.05102">
        <ele>1047.1999511719</ele>
        <time>2022-02-11T10:15:51.000Z</time>
      </trkpt>
      <trkpt lat="43.7404" lon="7.051">
        <ele>1047</ele>
        <time>2022-02-11T10:15:57.000Z</time>
      </trkpt>
      <trkpt lat="43.74041" lon="7.05099">
        <ele>1047</ele>
        <time>2022-02-11T10:15:59.000Z</time>
      </trkpt>
      <trkpt lat="43.74045" lon="7.05089">
        <ele>1047</ele>
        <time>2022-02-11T10:16:04.000Z</time>
      </trkpt>
      <trkpt lat="43.74048" lon="7.0508">
        <ele>1047</ele>
        <time>2022-02-11T10:16:09.000Z</time>
      </trkpt>
      <trkpt lat="43.74049" lon="7.05076">
        <ele>1047</ele>
        <time>2022-02-11T10:16:11.000Z</time>
      </trkpt>
      <trkpt lat="43.7405" lon="7.05067">
        <ele>1047</ele>
        <time>2022-02-11T10:16:15.000Z</time>
      </trkpt>
      <trkpt lat="43.74051" lon="7.0505">
        <ele>1047.1999511719</ele>
        <time>2022-02-11T10:16:21.000Z</time>
      </trkpt>
      <trkpt lat="43.74054" lon="7.05039">
        <ele>1048</ele>
        <time>2022-02-11T10:16:25.000Z</time>
      </trkpt>
      <trkpt lat="43.74054" lon="7.05037">
        <ele>1048.4000244141</ele>
        <time>2022-02-11T10:16:26.000Z</time>
      </trkpt>
      <trkpt lat="43.74054" lon="7.05028">
        <ele>1049</ele>
        <time>2022-02-11T10:16:29.000Z</time>
      </trkpt>
      <trkpt lat="43.74055" lon="7.05025">
        <ele>1049.4000244141</ele>
        <time>2022-02-11T10:16:30.000Z</time>
      </trkpt>
      <trkpt lat="43.74056" lon="7.05015">
        <ele>1050.4000244141</ele>
        <time>2022-02-11T10:16:33.000Z</time>
      </trkpt>
      <trkpt lat="43.74056" lon="7.05009">
        <ele>1051.4000244141</ele>
        <time>2022-02-11T10:16:35.000Z</time>
      </trkpt>
      <trkpt lat="43.74056" lon="7.05007">
        <ele>1052</ele>
        <time>2022-02-11T10:16:36.000Z</time>
      </trkpt>
      <trkpt lat="43.74057" lon="7.05003">
        <ele>1052.4000244141</ele>
        <time>2022-02-11T10:16:37.000Z</time>
      </trkpt>
      <trkpt lat="43.74059" lon="7.04996">
        <ele>1053.5999755859</ele>
        <time>2022-02-11T10:16:40.000Z</time>
      </trkpt>
      <trkpt lat="43.74062" lon="7.04987">
        <ele>1054.8000488281</ele>
        <time>2022-02-11T10:16:44.000Z</time>
      </trkpt>
      <trkpt lat="43.74061" lon="7.04984">
        <ele>1055</ele>
        <time>2022-02-11T10:16:45.000Z</time>
      </trkpt>
      <trkpt lat="43.74063" lon="7.04968">
        <ele>1056.1999511719</ele>
        <time>2022-02-11T10:16:50.000Z</time>
      </trkpt>
      <trkpt lat="43.74065" lon="7.0496">
        <ele>1057.1999511719</ele>
        <time>2022-02-11T10:16:53.000Z</time>
      </trkpt>
      <trkpt lat="43.74067" lon="7.04951">
        <ele>1058</ele>
        <time>2022-02-11T10:16:56.000Z</time>
      </trkpt>
      <trkpt lat="43.74068" lon="7.04946">
        <ele>1058.1999511719</ele>
        <time>2022-02-11T10:16:58.000Z</time>
      </trkpt>
      <trkpt lat="43.74069" lon="7.04933">
        <ele>1058.8000488281</ele>
        <time>2022-02-11T10:17:02.000Z</time>
      </trkpt>
      <trkpt lat="43.74073" lon="7.04915">
        <ele>1059</ele>
        <time>2022-02-11T10:17:08.000Z</time>
      </trkpt>
      <trkpt lat="43.74073" lon="7.04909">
        <ele>1059.1999511719</ele>
        <time>2022-02-11T10:17:10.000Z</time>
      </trkpt>
      <trkpt lat="43.74073" lon="7.04906">
        <ele>1059.8000488281</ele>
        <time>2022-02-11T10:17:13.000Z</time>
      </trkpt>
      <trkpt lat="43.74073" lon="7.04905">
        <ele>1060</ele>
        <time>2022-02-11T10:17:14.000Z</time>
      </trkpt>
      <trkpt lat="43.74072" lon="7.04902">
        <ele>1060.1999511719</ele>
        <time>2022-02-11T10:17:17.000Z</time>
      </trkpt>
      <trkpt lat="43.74072" lon="7.04903">
        <ele>1060.1999511719</ele>
        <time>2022-02-11T10:17:18.000Z</time>
      </trkpt>
      <trkpt lat="43.74072" lon="7.04902">
        <ele>1060.1999511719</ele>
        <time>2022-02-11T10:17:20.000Z</time>
      </trkpt>
      <trkpt lat="43.74072" lon="7.04896">
        <ele>1060.4000244141</ele>
        <time>2022-02-11T10:17:24.000Z</time>
      </trkpt>
      <trkpt lat="43.74071" lon="7.04892">
        <ele>1061</ele>
        <time>2022-02-11T10:17:28.000Z</time>
      </trkpt>
      <trkpt lat="43.7407" lon="7.04888">
        <ele>1061.4000244141</ele>
        <time>2022-02-11T10:17:30.000Z</time>
      </trkpt>
      <trkpt lat="43.74071" lon="7.04883">
        <ele>1061.5999755859</ele>
        <time>2022-02-11T10:17:32.000Z</time>
      </trkpt>
      <trkpt lat="43.74071" lon="7.04875">
        <ele>1062.4000244141</ele>
        <time>2022-02-11T10:17:37.000Z</time>
      </trkpt>
      <trkpt lat="43.74072" lon="7.04873">
        <ele>1062.5999755859</ele>
        <time>2022-02-11T10:17:38.000Z</time>
      </trkpt>
      <trkpt lat="43.74072" lon="7.04873">
        <ele>1062.8000488281</ele>
        <time>2022-02-11T10:17:41.000Z</time>
      </trkpt>
      <trkpt lat="43.74072" lon="7.04872">
        <ele>1063.1999511719</ele>
        <time>2022-02-11T10:17:47.000Z</time>
      </trkpt>
      <trkpt lat="43.74072" lon="7.0487">
        <ele>1063</ele>
        <time>2022-02-11T10:17:48.000Z</time>
      </trkpt>
      <trkpt lat="43.74073" lon="7.0486">
        <ele>1063.4000244141</ele>
        <time>2022-02-11T10:17:51.000Z</time>
      </trkpt>
      <trkpt lat="43.74074" lon="7.04857">
        <ele>1063.4000244141</ele>
        <time>2022-02-11T10:17:52.000Z</time>
      </trkpt>
      <trkpt lat="43.74073" lon="7.04848">
        <ele>1064</ele>
        <time>2022-02-11T10:17:55.000Z</time>
      </trkpt>
      <trkpt lat="43.74071" lon="7.04843">
        <ele>1064.1999511719</ele>
        <time>2022-02-11T10:17:57.000Z</time>
      </trkpt>
      <trkpt lat="43.7407" lon="7.04837">
        <ele>1064.5999755859</ele>
        <time>2022-02-11T10:17:59.000Z</time>
      </trkpt>
      <trkpt lat="43.74069" lon="7.04833">
        <ele>1064.8000488281</ele>
        <time>2022-02-11T10:18:01.000Z</time>
      </trkpt>
      <trkpt lat="43.74067" lon="7.04827">
        <ele>1065.4000244141</ele>
        <time>2022-02-11T10:18:03.000Z</time>
      </trkpt>
      <trkpt lat="43.74066" lon="7.04823">
        <ele>1065.5999755859</ele>
        <time>2022-02-11T10:18:04.000Z</time>
      </trkpt>
      <trkpt lat="43.74065" lon="7.0482">
        <ele>1066</ele>
        <time>2022-02-11T10:18:05.000Z</time>
      </trkpt>
      <trkpt lat="43.74065" lon="7.04815">
        <ele>1066.8000488281</ele>
        <time>2022-02-11T10:18:07.000Z</time>
      </trkpt>
      <trkpt lat="43.74065" lon="7.04812">
        <ele>1067.4000244141</ele>
        <time>2022-02-11T10:18:08.000Z</time>
      </trkpt>
      <trkpt lat="43.74064" lon="7.04811">
        <ele>1068</ele>
        <time>2022-02-11T10:18:09.000Z</time>
      </trkpt>
      <trkpt lat="43.74064" lon="7.04808">
        <ele>1069</ele>
        <time>2022-02-11T10:18:11.000Z</time>
      </trkpt>
      <trkpt lat="43.74064" lon="7.04808">
        <ele>1069.8000488281</ele>
        <time>2022-02-11T10:18:13.000Z</time>
      </trkpt>
      <trkpt lat="43.74063" lon="7.04807">
        <ele>1070.4000244141</ele>
        <time>2022-02-11T10:18:14.000Z</time>
      </trkpt>
      <trkpt lat="43.74063" lon="7.04805">
        <ele>1071.4000244141</ele>
        <time>2022-02-11T10:18:19.000Z</time>
      </trkpt>
      <trkpt lat="43.74063" lon="7.04804">
        <ele>1072</ele>
        <time>2022-02-11T10:18:28.000Z</time>
      </trkpt>
      <trkpt lat="43.74064" lon="7.04801">
        <ele>1072</ele>
        <time>2022-02-11T10:18:32.000Z</time>
      </trkpt>
      <trkpt lat="43.74063" lon="7.04797">
        <ele>1072.4000244141</ele>
        <time>2022-02-11T10:18:37.000Z</time>
      </trkpt>
      <trkpt lat="43.74063" lon="7.04797">
        <ele>1072.8000488281</ele>
        <time>2022-02-11T10:18:39.000Z</time>
      </trkpt>
      <trkpt lat="43.74063" lon="7.04797">
        <ele>1073.4000244141</ele>
        <time>2022-02-11T10:18:42.000Z</time>
      </trkpt>
      <trkpt lat="43.74062" lon="7.04792">
        <ele>1073.5999755859</ele>
        <time>2022-02-11T10:18:44.000Z</time>
      </trkpt>
      <trkpt lat="43.74059" lon="7.04779">
        <ele>1074.8000488281</ele>
        <time>2022-02-11T10:18:49.000Z</time>
      </trkpt>
      <trkpt lat="43.74056" lon="7.04769">
        <ele>1076</ele>
        <time>2022-02-11T10:18:52.000Z</time>
      </trkpt>
      <trkpt lat="43.74054" lon="7.04763">
        <ele>1077.1999511719</ele>
        <time>2022-02-11T10:18:54.000Z</time>
      </trkpt>
      <trkpt lat="43.74054" lon="7.04756">
        <ele>1078.8000488281</ele>
        <time>2022-02-11T10:18:56.000Z</time>
      </trkpt>
      <trkpt lat="43.74055" lon="7.04749">
        <ele>1080.4000244141</ele>
        <time>2022-02-11T10:18:58.000Z</time>
      </trkpt>
      <trkpt lat="43.74058" lon="7.04741">
        <ele>1082</ele>
        <time>2022-02-11T10:19:01.000Z</time>
      </trkpt>
      <trkpt lat="43.74059" lon="7.04738">
        <ele>1082.4000244141</ele>
        <time>2022-02-11T10:19:02.000Z</time>
      </trkpt>
      <trkpt lat="43.74059" lon="7.04736">
        <ele>1082.8000488281</ele>
        <time>2022-02-11T10:19:03.000Z</time>
      </trkpt>
      <trkpt lat="43.74057" lon="7.04733">
        <ele>1083.1999511719</ele>
        <time>2022-02-11T10:19:04.000Z</time>
      </trkpt>
      <trkpt lat="43.74057" lon="7.04725">
        <ele>1084</ele>
        <time>2022-02-11T10:19:06.000Z</time>
      </trkpt>
      <trkpt lat="43.74057" lon="7.04721">
        <ele>1084.4000244141</ele>
        <time>2022-02-11T10:19:07.000Z</time>
      </trkpt>
      <trkpt lat="43.74058" lon="7.04711">
        <ele>1086</ele>
        <time>2022-02-11T10:19:10.000Z</time>
      </trkpt>
      <trkpt lat="43.74056" lon="7.04705">
        <ele>1087.1999511719</ele>
        <time>2022-02-11T10:19:12.000Z</time>
      </trkpt>
      <trkpt lat="43.74056" lon="7.04698">
        <ele>1088.8000488281</ele>
        <time>2022-02-11T10:19:14.000Z</time>
      </trkpt>
      <trkpt lat="43.74056" lon="7.04692">
        <ele>1090.1999511719</ele>
        <time>2022-02-11T10:19:16.000Z</time>
      </trkpt>
      <trkpt lat="43.74057" lon="7.04685">
        <ele>1091.4000244141</ele>
        <time>2022-02-11T10:19:18.000Z</time>
      </trkpt>
      <trkpt lat="43.74057" lon="7.04682">
        <ele>1092</ele>
        <time>2022-02-11T10:19:19.000Z</time>
      </trkpt>
      <trkpt lat="43.74058" lon="7.04679">
        <ele>1092.5999755859</ele>
        <time>2022-02-11T10:19:20.000Z</time>
      </trkpt>
      <trkpt lat="43.74058" lon="7.04674">
        <ele>1093.5999755859</ele>
        <time>2022-02-11T10:19:22.000Z</time>
      </trkpt>
      <trkpt lat="43.74057" lon="7.0467">
        <ele>1094</ele>
        <time>2022-02-11T10:19:23.000Z</time>
      </trkpt>
      <trkpt lat="43.74057" lon="7.04667">
        <ele>1094.1999511719</ele>
        <time>2022-02-11T10:19:24.000Z</time>
      </trkpt>
      <trkpt lat="43.74057" lon="7.04658">
        <ele>1095.4000244141</ele>
        <time>2022-02-11T10:19:27.000Z</time>
      </trkpt>
      <trkpt lat="43.74058" lon="7.04655">
        <ele>1096</ele>
        <time>2022-02-11T10:19:28.000Z</time>
      </trkpt>
      <trkpt lat="43.74058" lon="7.04653">
        <ele>1096.4000244141</ele>
        <time>2022-02-11T10:19:29.000Z</time>
      </trkpt>
      <trkpt lat="43.74058" lon="7.04649">
        <ele>1097.5999755859</ele>
        <time>2022-02-11T10:19:31.000Z</time>
      </trkpt>
      <trkpt lat="43.74058" lon="7.04645">
        <ele>1098.4000244141</ele>
        <time>2022-02-11T10:19:32.000Z</time>
      </trkpt>
      <trkpt lat="43.74059" lon="7.04642">
        <ele>1099</ele>
        <time>2022-02-11T10:19:33.000Z</time>
      </trkpt>
      <trkpt lat="43.74059" lon="7.04633">
        <ele>1100.1999511719</ele>
        <time>2022-02-11T10:19:37.000Z</time>
      </trkpt>
      <trkpt lat="43.74056" lon="7.04621">
        <ele>1101.4000244141</ele>
        <time>2022-02-11T10:19:41.000Z</time>
      </trkpt>
      <trkpt lat="43.74055" lon="7.04619">
        <ele>1101.5999755859</ele>
        <time>2022-02-11T10:19:42.000Z</time>
      </trkpt>
      <trkpt lat="43.74053" lon="7.04616">
        <ele>1102</ele>
        <time>2022-02-11T10:19:44.000Z</time>
      </trkpt>
      <trkpt lat="43.74052" lon="7.04613">
        <ele>1102.5999755859</ele>
        <time>2022-02-11T10:19:46.000Z</time>
      </trkpt>
      <trkpt lat="43.74053" lon="7.04611">
        <ele>1102.8000488281</ele>
        <time>2022-02-11T10:19:47.000Z</time>
      </trkpt>
      <trkpt lat="43.74053" lon="7.04609">
        <ele>1103.1999511719</ele>
        <time>2022-02-11T10:19:48.000Z</time>
      </trkpt>
      <trkpt lat="43.74056" lon="7.04604">
        <ele>1103.8000488281</ele>
        <time>2022-02-11T10:19:50.000Z</time>
      </trkpt>
      <trkpt lat="43.74057" lon="7.04601">
        <ele>1103.8000488281</ele>
        <time>2022-02-11T10:19:51.000Z</time>
      </trkpt>
      <trkpt lat="43.74057" lon="7.04598">
        <ele>1104.4000244141</ele>
        <time>2022-02-11T10:19:53.000Z</time>
      </trkpt>
      <trkpt lat="43.74056" lon="7.04593">
        <ele>1104.8000488281</ele>
        <time>2022-02-11T10:19:55.000Z</time>
      </trkpt>
      <trkpt lat="43.74057" lon="7.04583">
        <ele>1106</ele>
        <time>2022-02-11T10:19:59.000Z</time>
      </trkpt>
      <trkpt lat="43.74058" lon="7.0458">
        <ele>1106.4000244141</ele>
        <time>2022-02-11T10:20:01.000Z</time>
      </trkpt>
      <trkpt lat="43.74058" lon="7.0458">
        <ele>1107.1999511719</ele>
        <time>2022-02-11T10:20:04.000Z</time>
      </trkpt>
      <trkpt lat="43.74058" lon="7.0458">
        <ele>1107.8000488281</ele>
        <time>2022-02-11T10:20:06.000Z</time>
      </trkpt>
      <trkpt lat="43.74058" lon="7.0458">
        <ele>1107.8000488281</ele>
        <time>2022-02-11T10:20:34.000Z</time>
      </trkpt>
      <trkpt lat="43.74058" lon="7.04576">
        <ele>1107.8000488281</ele>
        <time>2022-02-11T10:20:57.000Z</time>
      </trkpt>
      <trkpt lat="43.74062" lon="7.04565">
        <ele>1108</ele>
        <time>2022-02-11T10:21:01.000Z</time>
      </trkpt>
      <trkpt lat="43.74062" lon="7.04561">
        <ele>1108.4000244141</ele>
        <time>2022-02-11T10:21:02.000Z</time>
      </trkpt>
      <trkpt lat="43.74061" lon="7.04555">
        <ele>1109</ele>
        <time>2022-02-11T10:21:04.000Z</time>
      </trkpt>
      <trkpt lat="43.74062" lon="7.04551">
        <ele>1109.4000244141</ele>
        <time>2022-02-11T10:21:05.000Z</time>
      </trkpt>
      <trkpt lat="43.74061" lon="7.04548">
        <ele>1109.5999755859</ele>
        <time>2022-02-11T10:21:06.000Z</time>
      </trkpt>
      <trkpt lat="43.74061" lon="7.04539">
        <ele>1110.5999755859</ele>
        <time>2022-02-11T10:21:09.000Z</time>
      </trkpt>
      <trkpt lat="43.74061" lon="7.04529">
        <ele>1111.5999755859</ele>
        <time>2022-02-11T10:21:12.000Z</time>
      </trkpt>
      <trkpt lat="43.74061" lon="7.04525">
        <ele>1111.8000488281</ele>
        <time>2022-02-11T10:21:13.000Z</time>
      </trkpt>
      <trkpt lat="43.74062" lon="7.04518">
        <ele>1113.4000244141</ele>
        <time>2022-02-11T10:21:17.000Z</time>
      </trkpt>
      <trkpt lat="43.74062" lon="7.04513">
        <ele>1114.5999755859</ele>
        <time>2022-02-11T10:21:21.000Z</time>
      </trkpt>
      <trkpt lat="43.74063" lon="7.045">
        <ele>1115.4000244141</ele>
        <time>2022-02-11T10:21:26.000Z</time>
      </trkpt>
      <trkpt lat="43.74062" lon="7.04491">
        <ele>1115.5999755859</ele>
        <time>2022-02-11T10:21:29.000Z</time>
      </trkpt>
      <trkpt lat="43.74064" lon="7.04486">
        <ele>1116</ele>
        <time>2022-02-11T10:21:31.000Z</time>
      </trkpt>
      <trkpt lat="43.74066" lon="7.04479">
        <ele>1116.5999755859</ele>
        <time>2022-02-11T10:21:34.000Z</time>
      </trkpt>
      <trkpt lat="43.74065" lon="7.04474">
        <ele>1117.1999511719</ele>
        <time>2022-02-11T10:21:36.000Z</time>
      </trkpt>
      <trkpt lat="43.74064" lon="7.04465">
        <ele>1117.5999755859</ele>
        <time>2022-02-11T10:21:39.000Z</time>
      </trkpt>
      <trkpt lat="43.74063" lon="7.04463">
        <ele>1117.8000488281</ele>
        <time>2022-02-11T10:21:40.000Z</time>
      </trkpt>
      <trkpt lat="43.74062" lon="7.04456">
        <ele>1118.4000244141</ele>
        <time>2022-02-11T10:21:42.000Z</time>
      </trkpt>
      <trkpt lat="43.7406" lon="7.04451">
        <ele>1119</ele>
        <time>2022-02-11T10:21:44.000Z</time>
      </trkpt>
      <trkpt lat="43.74055" lon="7.04443">
        <ele>1120.1999511719</ele>
        <time>2022-02-11T10:21:48.000Z</time>
      </trkpt>
      <trkpt lat="43.74054" lon="7.04441">
        <ele>1120.5999755859</ele>
        <time>2022-02-11T10:21:49.000Z</time>
      </trkpt>
      <trkpt lat="43.7405" lon="7.04437">
        <ele>1121.4000244141</ele>
        <time>2022-02-11T10:21:52.000Z</time>
      </trkpt>
      <trkpt lat="43.74048" lon="7.04432">
        <ele>1122.1999511719</ele>
        <time>2022-02-11T10:21:54.000Z</time>
      </trkpt>
      <trkpt lat="43.74047" lon="7.0443">
        <ele>1122.5999755859</ele>
        <time>2022-02-11T10:21:55.000Z</time>
      </trkpt>
      <trkpt lat="43.74046" lon="7.04429">
        <ele>1123</ele>
        <time>2022-02-11T10:21:56.000Z</time>
      </trkpt>
      <trkpt lat="43.74043" lon="7.04424">
        <ele>1124</ele>
        <time>2022-02-11T10:21:59.000Z</time>
      </trkpt>
      <trkpt lat="43.74041" lon="7.04422">
        <ele>1124.4000244141</ele>
        <time>2022-02-11T10:22:01.000Z</time>
      </trkpt>
      <trkpt lat="43.74038" lon="7.04415">
        <ele>1125</ele>
        <time>2022-02-11T10:22:05.000Z</time>
      </trkpt>
      <trkpt lat="43.74037" lon="7.04413">
        <ele>1125</ele>
        <time>2022-02-11T10:22:06.000Z</time>
      </trkpt>
      <trkpt lat="43.74036" lon="7.04411">
        <ele>1125.4000244141</ele>
        <time>2022-02-11T10:22:07.000Z</time>
      </trkpt>
      <trkpt lat="43.74033" lon="7.04395">
        <ele>1126.4000244141</ele>
        <time>2022-02-11T10:22:14.000Z</time>
      </trkpt>
      <trkpt lat="43.74032" lon="7.0438">
        <ele>1127.5999755859</ele>
        <time>2022-02-11T10:22:20.000Z</time>
      </trkpt>
      <trkpt lat="43.74033" lon="7.0437">
        <ele>1128</ele>
        <time>2022-02-11T10:22:24.000Z</time>
      </trkpt>
      <trkpt lat="43.74033" lon="7.04358">
        <ele>1128.5999755859</ele>
        <time>2022-02-11T10:22:29.000Z</time>
      </trkpt>
      <trkpt lat="43.74034" lon="7.04355">
        <ele>1128.8000488281</ele>
        <time>2022-02-11T10:22:30.000Z</time>
      </trkpt>
      <trkpt lat="43.74037" lon="7.04344">
        <ele>1129.4000244141</ele>
        <time>2022-02-11T10:22:34.000Z</time>
      </trkpt>
      <trkpt lat="43.74037" lon="7.04343">
        <ele>1129.8000488281</ele>
        <time>2022-02-11T10:22:35.000Z</time>
      </trkpt>
      <trkpt lat="43.74037" lon="7.04341">
        <ele>1130.5999755859</ele>
        <time>2022-02-11T10:22:38.000Z</time>
      </trkpt>
      <trkpt lat="43.74037" lon="7.04341">
        <ele>1130.8000488281</ele>
        <time>2022-02-11T10:22:39.000Z</time>
      </trkpt>
      <trkpt lat="43.74035" lon="7.04336">
        <ele>1130.8000488281</ele>
        <time>2022-02-11T10:22:42.000Z</time>
      </trkpt>
      <trkpt lat="43.74034" lon="7.04327">
        <ele>1130.5999755859</ele>
        <time>2022-02-11T10:22:45.000Z</time>
      </trkpt>
      <trkpt lat="43.74035" lon="7.04322">
        <ele>1131</ele>
        <time>2022-02-11T10:22:47.000Z</time>
      </trkpt>
      <trkpt lat="43.74035" lon="7.04315">
        <ele>1131.8000488281</ele>
        <time>2022-02-11T10:22:49.000Z</time>
      </trkpt>
      <trkpt lat="43.74035" lon="7.04306">
        <ele>1133.4000244141</ele>
        <time>2022-02-11T10:22:52.000Z</time>
      </trkpt>
      <trkpt lat="43.74035" lon="7.043">
        <ele>1134.5999755859</ele>
        <time>2022-02-11T10:22:54.000Z</time>
      </trkpt>
      <trkpt lat="43.74035" lon="7.04294">
        <ele>1136</ele>
        <time>2022-02-11T10:22:56.000Z</time>
      </trkpt>
      <trkpt lat="43.74035" lon="7.04289">
        <ele>1137</ele>
        <time>2022-02-11T10:22:58.000Z</time>
      </trkpt>
      <trkpt lat="43.74035" lon="7.04286">
        <ele>1137.4000244141</ele>
        <time>2022-02-11T10:22:59.000Z</time>
      </trkpt>
      <trkpt lat="43.74034" lon="7.04281">
        <ele>1138.5999755859</ele>
        <time>2022-02-11T10:23:01.000Z</time>
      </trkpt>
      <trkpt lat="43.74036" lon="7.04274">
        <ele>1139.5999755859</ele>
        <time>2022-02-11T10:23:04.000Z</time>
      </trkpt>
      <trkpt lat="43.74036" lon="7.04271">
        <ele>1140</ele>
        <time>2022-02-11T10:23:05.000Z</time>
      </trkpt>
      <trkpt lat="43.74036" lon="7.04266">
        <ele>1140.5999755859</ele>
        <time>2022-02-11T10:23:07.000Z</time>
      </trkpt>
      <trkpt lat="43.74037" lon="7.04258">
        <ele>1141.8000488281</ele>
        <time>2022-02-11T10:23:10.000Z</time>
      </trkpt>
      <trkpt lat="43.74038" lon="7.04253">
        <ele>1142.4000244141</ele>
        <time>2022-02-11T10:23:12.000Z</time>
      </trkpt>
      <trkpt lat="43.74039" lon="7.04248">
        <ele>1143</ele>
        <time>2022-02-11T10:23:14.000Z</time>
      </trkpt>
      <trkpt lat="43.7404" lon="7.04238">
        <ele>1144</ele>
        <time>2022-02-11T10:23:18.000Z</time>
      </trkpt>
      <trkpt lat="43.7404" lon="7.04231">
        <ele>1145.4000244141</ele>
        <time>2022-02-11T10:23:21.000Z</time>
      </trkpt>
      <trkpt lat="43.7404" lon="7.04223">
        <ele>1146.1999511719</ele>
        <time>2022-02-11T10:23:24.000Z</time>
      </trkpt>
      <trkpt lat="43.7404" lon="7.04218">
        <ele>1146.4000244141</ele>
        <time>2022-02-11T10:23:26.000Z</time>
      </trkpt>
      <trkpt lat="43.7404" lon="7.04211">
        <ele>1147.8000488281</ele>
        <time>2022-02-11T10:23:29.000Z</time>
      </trkpt>
      <trkpt lat="43.7404" lon="7.04207">
        <ele>1148.8000488281</ele>
        <time>2022-02-11T10:23:31.000Z</time>
      </trkpt>
      <trkpt lat="43.74041" lon="7.042">
        <ele>1149.8000488281</ele>
        <time>2022-02-11T10:23:34.000Z</time>
      </trkpt>
      <trkpt lat="43.7404" lon="7.04198">
        <ele>1150.1999511719</ele>
        <time>2022-02-11T10:23:35.000Z</time>
      </trkpt>
      <trkpt lat="43.7404" lon="7.04195">
        <ele>1150.5999755859</ele>
        <time>2022-02-11T10:23:36.000Z</time>
      </trkpt>
      <trkpt lat="43.7404" lon="7.04191">
        <ele>1151.1999511719</ele>
        <time>2022-02-11T10:23:38.000Z</time>
      </trkpt>
      <trkpt lat="43.7404" lon="7.04185">
        <ele>1152.4000244141</ele>
        <time>2022-02-11T10:23:41.000Z</time>
      </trkpt>
      <trkpt lat="43.7404" lon="7.0418">
        <ele>1153.4000244141</ele>
        <time>2022-02-11T10:23:43.000Z</time>
      </trkpt>
      <trkpt lat="43.7404" lon="7.04179">
        <ele>1153.8000488281</ele>
        <time>2022-02-11T10:23:44.000Z</time>
      </trkpt>
      <trkpt lat="43.7404" lon="7.04171">
        <ele>1155</ele>
        <time>2022-02-11T10:23:48.000Z</time>
      </trkpt>
      <trkpt lat="43.74039" lon="7.0416">
        <ele>1156.5999755859</ele>
        <time>2022-02-11T10:23:52.000Z</time>
      </trkpt>
      <trkpt lat="43.74037" lon="7.04156">
        <ele>1157.4000244141</ele>
        <time>2022-02-11T10:23:54.000Z</time>
      </trkpt>
      <trkpt lat="43.74037" lon="7.04154">
        <ele>1157.5999755859</ele>
        <time>2022-02-11T10:23:55.000Z</time>
      </trkpt>
      <trkpt lat="43.74035" lon="7.04142">
        <ele>1158.8000488281</ele>
        <time>2022-02-11T10:24:00.000Z</time>
      </trkpt>
      <trkpt lat="43.74034" lon="7.0413">
        <ele>1159.5999755859</ele>
        <time>2022-02-11T10:24:05.000Z</time>
      </trkpt>
      <trkpt lat="43.74034" lon="7.04128">
        <ele>1159.8000488281</ele>
        <time>2022-02-11T10:24:06.000Z</time>
      </trkpt>
      <trkpt lat="43.74033" lon="7.04125">
        <ele>1160.4000244141</ele>
        <time>2022-02-11T10:24:08.000Z</time>
      </trkpt>
      <trkpt lat="43.74033" lon="7.04121">
        <ele>1161</ele>
        <time>2022-02-11T10:24:10.000Z</time>
      </trkpt>
      <trkpt lat="43.74035" lon="7.04114">
        <ele>1162</ele>
        <time>2022-02-11T10:24:13.000Z</time>
      </trkpt>
      <trkpt lat="43.74036" lon="7.04112">
        <ele>1162.1999511719</ele>
        <time>2022-02-11T10:24:14.000Z</time>
      </trkpt>
      <trkpt lat="43.74036" lon="7.0411">
        <ele>1162.4000244141</ele>
        <time>2022-02-11T10:24:15.000Z</time>
      </trkpt>
      <trkpt lat="43.74037" lon="7.04105">
        <ele>1163</ele>
        <time>2022-02-11T10:24:17.000Z</time>
      </trkpt>
      <trkpt lat="43.74038" lon="7.04103">
        <ele>1163.1999511719</ele>
        <time>2022-02-11T10:24:18.000Z</time>
      </trkpt>
      <trkpt lat="43.74039" lon="7.04098">
        <ele>1164.5999755859</ele>
        <time>2022-02-11T10:24:21.000Z</time>
      </trkpt>
      <trkpt lat="43.74039" lon="7.04096">
        <ele>1165.8000488281</ele>
        <time>2022-02-11T10:24:25.000Z</time>
      </trkpt>
      <trkpt lat="43.74038" lon="7.04091">
        <ele>1166</ele>
        <time>2022-02-11T10:24:27.000Z</time>
      </trkpt>
      <trkpt lat="43.74035" lon="7.04081">
        <ele>1166.8000488281</ele>
        <time>2022-02-11T10:24:31.000Z</time>
      </trkpt>
      <trkpt lat="43.74034" lon="7.04079">
        <ele>1167</ele>
        <time>2022-02-11T10:24:32.000Z</time>
      </trkpt>
      <trkpt lat="43.74032" lon="7.04067">
        <ele>1168.1999511719</ele>
        <time>2022-02-11T10:24:36.000Z</time>
      </trkpt>
      <trkpt lat="43.74031" lon="7.04059">
        <ele>1169</ele>
        <time>2022-02-11T10:24:39.000Z</time>
      </trkpt>
      <trkpt lat="43.74031" lon="7.04056">
        <ele>1169.1999511719</ele>
        <time>2022-02-11T10:24:40.000Z</time>
      </trkpt>
      <trkpt lat="43.74028" lon="7.04051">
        <ele>1170.5999755859</ele>
        <time>2022-02-11T10:24:43.000Z</time>
      </trkpt>
      <trkpt lat="43.74028" lon="7.04051">
        <ele>1171</ele>
        <time>2022-02-11T10:24:45.000Z</time>
      </trkpt>
      <trkpt lat="43.74028" lon="7.04051">
        <ele>1171</ele>
        <time>2022-02-11T10:25:03.000Z</time>
      </trkpt>
      <trkpt lat="43.74027" lon="7.04051">
        <ele>1170.8000488281</ele>
        <time>2022-02-11T10:25:31.000Z</time>
      </trkpt>
      <trkpt lat="43.74028" lon="7.04051">
        <ele>1170.5999755859</ele>
        <time>2022-02-11T10:25:47.000Z</time>
      </trkpt>
      <trkpt lat="43.74027" lon="7.0405">
        <ele>1171.4000244141</ele>
        <time>2022-02-11T10:26:03.000Z</time>
      </trkpt>
      <trkpt lat="43.74026" lon="7.0405">
        <ele>1171</ele>
        <time>2022-02-11T10:26:08.000Z</time>
      </trkpt>
      <trkpt lat="43.74022" lon="7.04044">
        <ele>1171</ele>
        <time>2022-02-11T10:26:11.000Z</time>
      </trkpt>
      <trkpt lat="43.74015" lon="7.04034">
        <ele>1171</ele>
        <time>2022-02-11T10:26:16.000Z</time>
      </trkpt>
      <trkpt lat="43.74015" lon="7.04032">
        <ele>1171</ele>
        <time>2022-02-11T10:26:17.000Z</time>
      </trkpt>
      <trkpt lat="43.74011" lon="7.04028">
        <ele>1170.5999755859</ele>
        <time>2022-02-11T10:26:20.000Z</time>
      </trkpt>
      <trkpt lat="43.74009" lon="7.04024">
        <ele>1170.5999755859</ele>
        <time>2022-02-11T10:26:22.000Z</time>
      </trkpt>
      <trkpt lat="43.74005" lon="7.04016">
        <ele>1170.5999755859</ele>
        <time>2022-02-11T10:26:25.000Z</time>
      </trkpt>
      <trkpt lat="43.74004" lon="7.04013">
        <ele>1170.4000244141</ele>
        <time>2022-02-11T10:26:26.000Z</time>
      </trkpt>
      <trkpt lat="43.74004" lon="7.04009">
        <ele>1170.4000244141</ele>
        <time>2022-02-11T10:26:29.000Z</time>
      </trkpt>
      <trkpt lat="43.74005" lon="7.04006">
        <ele>1171.1999511719</ele>
        <time>2022-02-11T10:26:37.000Z</time>
      </trkpt>
      <trkpt lat="43.74007" lon="7.03996">
        <ele>1171.4000244141</ele>
        <time>2022-02-11T10:26:41.000Z</time>
      </trkpt>
      <trkpt lat="43.74008" lon="7.03987">
        <ele>1172</ele>
        <time>2022-02-11T10:26:44.000Z</time>
      </trkpt>
      <trkpt lat="43.74008" lon="7.03986">
        <ele>1172.8000488281</ele>
        <time>2022-02-11T10:26:46.000Z</time>
      </trkpt>
      <trkpt lat="43.74008" lon="7.03986">
        <ele>1173.1999511719</ele>
        <time>2022-02-11T10:26:47.000Z</time>
      </trkpt>
      <trkpt lat="43.74008" lon="7.03986">
        <ele>1174.4000244141</ele>
        <time>2022-02-11T10:26:50.000Z</time>
      </trkpt>
      <trkpt lat="43.74008" lon="7.03986">
        <ele>1174.5999755859</ele>
        <time>2022-02-11T10:26:57.000Z</time>
      </trkpt>
      <trkpt lat="43.74006" lon="7.03985">
        <ele>1174.1999511719</ele>
        <time>2022-02-11T10:27:00.000Z</time>
      </trkpt>
      <trkpt lat="43.74002" lon="7.0398">
        <ele>1174</ele>
        <time>2022-02-11T10:27:03.000Z</time>
      </trkpt>
      <trkpt lat="43.73997" lon="7.03973">
        <ele>1173.4000244141</ele>
        <time>2022-02-11T10:27:06.000Z</time>
      </trkpt>
      <trkpt lat="43.73993" lon="7.03967">
        <ele>1172.4000244141</ele>
        <time>2022-02-11T10:27:08.000Z</time>
      </trkpt>
      <trkpt lat="43.73992" lon="7.03964">
        <ele>1172.1999511719</ele>
        <time>2022-02-11T10:27:09.000Z</time>
      </trkpt>
      <trkpt lat="43.73991" lon="7.03955">
        <ele>1171</ele>
        <time>2022-02-11T10:27:12.000Z</time>
      </trkpt>
      <trkpt lat="43.7399" lon="7.03947">
        <ele>1170.8000488281</ele>
        <time>2022-02-11T10:27:15.000Z</time>
      </trkpt>
      <trkpt lat="43.73989" lon="7.0394">
        <ele>1171.4000244141</ele>
        <time>2022-02-11T10:27:18.000Z</time>
      </trkpt>
      <trkpt lat="43.73987" lon="7.03936">
        <ele>1172</ele>
        <time>2022-02-11T10:27:20.000Z</time>
      </trkpt>
      <trkpt lat="43.73985" lon="7.03933">
        <ele>1172.1999511719</ele>
        <time>2022-02-11T10:27:22.000Z</time>
      </trkpt>
      <trkpt lat="43.73985" lon="7.03929">
        <ele>1171.8000488281</ele>
        <time>2022-02-11T10:27:25.000Z</time>
      </trkpt>
      <trkpt lat="43.73984" lon="7.03912">
        <ele>1172.4000244141</ele>
        <time>2022-02-11T10:27:31.000Z</time>
      </trkpt>
      <trkpt lat="43.73983" lon="7.03906">
        <ele>1173.1999511719</ele>
        <time>2022-02-11T10:27:33.000Z</time>
      </trkpt>
      <trkpt lat="43.73982" lon="7.03898">
        <ele>1174.4000244141</ele>
        <time>2022-02-11T10:27:36.000Z</time>
      </trkpt>
      <trkpt lat="43.73981" lon="7.03891">
        <ele>1175</ele>
        <time>2022-02-11T10:27:38.000Z</time>
      </trkpt>
      <trkpt lat="43.73981" lon="7.03884">
        <ele>1175.5999755859</ele>
        <time>2022-02-11T10:27:40.000Z</time>
      </trkpt>
      <trkpt lat="43.73981" lon="7.03875">
        <ele>1177</ele>
        <time>2022-02-11T10:27:43.000Z</time>
      </trkpt>
      <trkpt lat="43.73982" lon="7.03873">
        <ele>1177.5999755859</ele>
        <time>2022-02-11T10:27:44.000Z</time>
      </trkpt>
      <trkpt lat="43.73982" lon="7.03871">
        <ele>1178</ele>
        <time>2022-02-11T10:27:45.000Z</time>
      </trkpt>
      <trkpt lat="43.73982" lon="7.03869">
        <ele>1179.1999511719</ele>
        <time>2022-02-11T10:27:47.000Z</time>
      </trkpt>
      <trkpt lat="43.73982" lon="7.03867">
        <ele>1180.1999511719</ele>
        <time>2022-02-11T10:27:49.000Z</time>
      </trkpt>
      <trkpt lat="43.7398" lon="7.03859">
        <ele>1181.1999511719</ele>
        <time>2022-02-11T10:27:54.000Z</time>
      </trkpt>
      <trkpt lat="43.73977" lon="7.03838">
        <ele>1182.4000244141</ele>
        <time>2022-02-11T10:28:01.000Z</time>
      </trkpt>
      <trkpt lat="43.73976" lon="7.03831">
        <ele>1183.5999755859</ele>
        <time>2022-02-11T10:28:04.000Z</time>
      </trkpt>
      <trkpt lat="43.73974" lon="7.03818">
        <ele>1184.1999511719</ele>
        <time>2022-02-11T10:28:09.000Z</time>
      </trkpt>
      <trkpt lat="43.73974" lon="7.03816">
        <ele>1184</ele>
        <time>2022-02-11T10:28:10.000Z</time>
      </trkpt>
      <trkpt lat="43.73974" lon="7.03811">
        <ele>1184.5999755859</ele>
        <time>2022-02-11T10:28:13.000Z</time>
      </trkpt>
      <trkpt lat="43.73974" lon="7.03807">
        <ele>1185.1999511719</ele>
        <time>2022-02-11T10:28:15.000Z</time>
      </trkpt>
      <trkpt lat="43.73974" lon="7.03797">
        <ele>1185.5999755859</ele>
        <time>2022-02-11T10:28:19.000Z</time>
      </trkpt>
      <trkpt lat="43.73974" lon="7.03796">
        <ele>1185.8000488281</ele>
        <time>2022-02-11T10:28:20.000Z</time>
      </trkpt>
      <trkpt lat="43.73974" lon="7.03794">
        <ele>1186.4000244141</ele>
        <time>2022-02-11T10:28:23.000Z</time>
      </trkpt>
      <trkpt lat="43.73975" lon="7.03792">
        <ele>1186.5999755859</ele>
        <time>2022-02-11T10:28:24.000Z</time>
      </trkpt>
      <trkpt lat="43.73975" lon="7.03789">
        <ele>1187</ele>
        <time>2022-02-11T10:28:25.000Z</time>
      </trkpt>
      <trkpt lat="43.73975" lon="7.03775">
        <ele>1188.1999511719</ele>
        <time>2022-02-11T10:28:30.000Z</time>
      </trkpt>
      <trkpt lat="43.73976" lon="7.03772">
        <ele>1188.5999755859</ele>
        <time>2022-02-11T10:28:31.000Z</time>
      </trkpt>
      <trkpt lat="43.73979" lon="7.03769">
        <ele>1189.4000244141</ele>
        <time>2022-02-11T10:28:33.000Z</time>
      </trkpt>
      <trkpt lat="43.73979" lon="7.03768">
        <ele>1190.4000244141</ele>
        <time>2022-02-11T10:28:35.000Z</time>
      </trkpt>
      <trkpt lat="43.73979" lon="7.03768">
        <ele>1191</ele>
        <time>2022-02-11T10:28:36.000Z</time>
      </trkpt>
      <trkpt lat="43.73979" lon="7.03768">
        <ele>1192</ele>
        <time>2022-02-11T10:28:39.000Z</time>
      </trkpt>
      <trkpt lat="43.73981" lon="7.03766">
        <ele>1192</ele>
        <time>2022-02-11T10:28:44.000Z</time>
      </trkpt>
      <trkpt lat="43.73982" lon="7.03765">
        <ele>1192.8000488281</ele>
        <time>2022-02-11T10:28:51.000Z</time>
      </trkpt>
      <trkpt lat="43.73983" lon="7.03761">
        <ele>1193</ele>
        <time>2022-02-11T10:28:58.000Z</time>
      </trkpt>
      <trkpt lat="43.73984" lon="7.0376">
        <ele>1193.1999511719</ele>
        <time>2022-02-11T10:28:59.000Z</time>
      </trkpt>
      <trkpt lat="43.73984" lon="7.03759">
        <ele>1193.4000244141</ele>
        <time>2022-02-11T10:29:00.000Z</time>
      </trkpt>
      <trkpt lat="43.73984" lon="7.03752">
        <ele>1193.8000488281</ele>
        <time>2022-02-11T10:29:03.000Z</time>
      </trkpt>
      <trkpt lat="43.73985" lon="7.03748">
        <ele>1194.5999755859</ele>
        <time>2022-02-11T10:29:05.000Z</time>
      </trkpt>
      <trkpt lat="43.73987" lon="7.03742">
        <ele>1195.1999511719</ele>
        <time>2022-02-11T10:29:07.000Z</time>
      </trkpt>
      <trkpt lat="43.73989" lon="7.03737">
        <ele>1195.8000488281</ele>
        <time>2022-02-11T10:29:09.000Z</time>
      </trkpt>
      <trkpt lat="43.73991" lon="7.03727">
        <ele>1197.1999511719</ele>
        <time>2022-02-11T10:29:13.000Z</time>
      </trkpt>
      <trkpt lat="43.7399" lon="7.03724">
        <ele>1197.8000488281</ele>
        <time>2022-02-11T10:29:14.000Z</time>
      </trkpt>
      <trkpt lat="43.7399" lon="7.03721">
        <ele>1198.4000244141</ele>
        <time>2022-02-11T10:29:15.000Z</time>
      </trkpt>
      <trkpt lat="43.7399" lon="7.03715">
        <ele>1199.4000244141</ele>
        <time>2022-02-11T10:29:17.000Z</time>
      </trkpt>
      <trkpt lat="43.73993" lon="7.03711">
        <ele>1200</ele>
        <time>2022-02-11T10:29:19.000Z</time>
      </trkpt>
      <trkpt lat="43.73996" lon="7.03708">
        <ele>1200.5999755859</ele>
        <time>2022-02-11T10:29:21.000Z</time>
      </trkpt>
      <trkpt lat="43.73998" lon="7.03707">
        <ele>1201</ele>
        <time>2022-02-11T10:29:22.000Z</time>
      </trkpt>
      <trkpt lat="43.74" lon="7.03705">
        <ele>1201.8000488281</ele>
        <time>2022-02-11T10:29:24.000Z</time>
      </trkpt>
      <trkpt lat="43.74002" lon="7.03701">
        <ele>1203</ele>
        <time>2022-02-11T10:29:26.000Z</time>
      </trkpt>
      <trkpt lat="43.74003" lon="7.03697">
        <ele>1203.8000488281</ele>
        <time>2022-02-11T10:29:28.000Z</time>
      </trkpt>
      <trkpt lat="43.74003" lon="7.03696">
        <ele>1204.4000244141</ele>
        <time>2022-02-11T10:29:29.000Z</time>
      </trkpt>
      <trkpt lat="43.74004" lon="7.03695">
        <ele>1205.5999755859</ele>
        <time>2022-02-11T10:29:32.000Z</time>
      </trkpt>
      <trkpt lat="43.74006" lon="7.03685">
        <ele>1206</ele>
        <time>2022-02-11T10:29:38.000Z</time>
      </trkpt>
      <trkpt lat="43.74008" lon="7.03678">
        <ele>1206.8000488281</ele>
        <time>2022-02-11T10:29:41.000Z</time>
      </trkpt>
      <trkpt lat="43.74009" lon="7.03674">
        <ele>1207.1999511719</ele>
        <time>2022-02-11T10:29:43.000Z</time>
      </trkpt>
      <trkpt lat="43.7401" lon="7.03672">
        <ele>1207.8000488281</ele>
        <time>2022-02-11T10:29:44.000Z</time>
      </trkpt>
      <trkpt lat="43.74013" lon="7.03666">
        <ele>1208.8000488281</ele>
        <time>2022-02-11T10:29:47.000Z</time>
      </trkpt>
      <trkpt lat="43.74013" lon="7.03665">
        <ele>1209</ele>
        <time>2022-02-11T10:29:48.000Z</time>
      </trkpt>
      <trkpt lat="43.74016" lon="7.03659">
        <ele>1209.8000488281</ele>
        <time>2022-02-11T10:29:51.000Z</time>
      </trkpt>
      <trkpt lat="43.74018" lon="7.03655">
        <ele>1211.1999511719</ele>
        <time>2022-02-11T10:29:55.000Z</time>
      </trkpt>
      <trkpt lat="43.74018" lon="7.03655">
        <ele>1211.8000488281</ele>
        <time>2022-02-11T10:29:56.000Z</time>
      </trkpt>
      <trkpt lat="43.74018" lon="7.03655">
        <ele>1212.4000244141</ele>
        <time>2022-02-11T10:29:58.000Z</time>
      </trkpt>
      <trkpt lat="43.74019" lon="7.03652">
        <ele>1212.5999755859</ele>
        <time>2022-02-11T10:30:01.000Z</time>
      </trkpt>
      <trkpt lat="43.74019" lon="7.03651">
        <ele>1213.4000244141</ele>
        <time>2022-02-11T10:30:05.000Z</time>
      </trkpt>
      <trkpt lat="43.74019" lon="7.0365">
        <ele>1213.5999755859</ele>
        <time>2022-02-11T10:30:09.000Z</time>
      </trkpt>
      <trkpt lat="43.7402" lon="7.03644">
        <ele>1213.4000244141</ele>
        <time>2022-02-11T10:30:24.000Z</time>
      </trkpt>
      <trkpt lat="43.74024" lon="7.03632">
        <ele>1214.4000244141</ele>
        <time>2022-02-11T10:30:29.000Z</time>
      </trkpt>
      <trkpt lat="43.74025" lon="7.0363">
        <ele>1214.8000488281</ele>
        <time>2022-02-11T10:30:30.000Z</time>
      </trkpt>
      <trkpt lat="43.74026" lon="7.03628">
        <ele>1215.1999511719</ele>
        <time>2022-02-11T10:30:31.000Z</time>
      </trkpt>
      <trkpt lat="43.74026" lon="7.03628">
        <ele>1216.1999511719</ele>
        <time>2022-02-11T10:30:33.000Z</time>
      </trkpt>
      <trkpt lat="43.74027" lon="7.03628">
        <ele>1217.1999511719</ele>
        <time>2022-02-11T10:30:36.000Z</time>
      </trkpt>
      <trkpt lat="43.74028" lon="7.03626">
        <ele>1217.5999755859</ele>
        <time>2022-02-11T10:30:41.000Z</time>
      </trkpt>
      <trkpt lat="43.74029" lon="7.03625">
        <ele>1218.4000244141</ele>
        <time>2022-02-11T10:30:45.000Z</time>
      </trkpt>
      <trkpt lat="43.7403" lon="7.03624">
        <ele>1218.8000488281</ele>
        <time>2022-02-11T10:30:48.000Z</time>
      </trkpt>
      <trkpt lat="43.7403" lon="7.03623">
        <ele>1219.4000244141</ele>
        <time>2022-02-11T10:30:51.000Z</time>
      </trkpt>
      <trkpt lat="43.7403" lon="7.03622">
        <ele>1219.4000244141</ele>
        <time>2022-02-11T10:30:52.000Z</time>
      </trkpt>
      <trkpt lat="43.7403" lon="7.03621">
        <ele>1219.4000244141</ele>
        <time>2022-02-11T10:30:55.000Z</time>
      </trkpt>
      <trkpt lat="43.74031" lon="7.03619">
        <ele>1219.4000244141</ele>
        <time>2022-02-11T10:30:56.000Z</time>
      </trkpt>
      <trkpt lat="43.74035" lon="7.03607">
        <ele>1220.4000244141</ele>
        <time>2022-02-11T10:31:01.000Z</time>
      </trkpt>
      <trkpt lat="43.74036" lon="7.03604">
        <ele>1220.8000488281</ele>
        <time>2022-02-11T10:31:02.000Z</time>
      </trkpt>
      <trkpt lat="43.74038" lon="7.03596">
        <ele>1221.8000488281</ele>
        <time>2022-02-11T10:31:05.000Z</time>
      </trkpt>
      <trkpt lat="43.74043" lon="7.03587">
        <ele>1223.4000244141</ele>
        <time>2022-02-11T10:31:09.000Z</time>
      </trkpt>
      <trkpt lat="43.74044" lon="7.03578">
        <ele>1224.8000488281</ele>
        <time>2022-02-11T10:31:12.000Z</time>
      </trkpt>
      <trkpt lat="43.74047" lon="7.0357">
        <ele>1225.5999755859</ele>
        <time>2022-02-11T10:31:15.000Z</time>
      </trkpt>
      <trkpt lat="43.74048" lon="7.03565">
        <ele>1225.8000488281</ele>
        <time>2022-02-11T10:31:17.000Z</time>
      </trkpt>
      <trkpt lat="43.74051" lon="7.03553">
        <ele>1227</ele>
        <time>2022-02-11T10:31:22.000Z</time>
      </trkpt>
      <trkpt lat="43.74053" lon="7.03549">
        <ele>1227.5999755859</ele>
        <time>2022-02-11T10:31:24.000Z</time>
      </trkpt>
      <trkpt lat="43.74056" lon="7.03545">
        <ele>1228.1999511719</ele>
        <time>2022-02-11T10:31:26.000Z</time>
      </trkpt>
      <trkpt lat="43.7406" lon="7.03536">
        <ele>1229.1999511719</ele>
        <time>2022-02-11T10:31:30.000Z</time>
      </trkpt>
      <trkpt lat="43.74062" lon="7.03532">
        <ele>1229.8000488281</ele>
        <time>2022-02-11T10:31:32.000Z</time>
      </trkpt>
      <trkpt lat="43.74065" lon="7.03525">
        <ele>1230.5999755859</ele>
        <time>2022-02-11T10:31:35.000Z</time>
      </trkpt>
      <trkpt lat="43.7407" lon="7.0351">
        <ele>1231.8000488281</ele>
        <time>2022-02-11T10:31:41.000Z</time>
      </trkpt>
      <trkpt lat="43.7407" lon="7.03507">
        <ele>1232</ele>
        <time>2022-02-11T10:31:42.000Z</time>
      </trkpt>
      <trkpt lat="43.74074" lon="7.03497">
        <ele>1232.8000488281</ele>
        <time>2022-02-11T10:31:46.000Z</time>
      </trkpt>
      <trkpt lat="43.74077" lon="7.0348">
        <ele>1233.5999755859</ele>
        <time>2022-02-11T10:31:51.000Z</time>
      </trkpt>
      <trkpt lat="43.74077" lon="7.03477">
        <ele>1233.8000488281</ele>
        <time>2022-02-11T10:31:52.000Z</time>
      </trkpt>
      <trkpt lat="43.74081" lon="7.03459">
        <ele>1234.4000244141</ele>
        <time>2022-02-11T10:31:59.000Z</time>
      </trkpt>
      <trkpt lat="43.74084" lon="7.03449">
        <ele>1234.8000488281</ele>
        <time>2022-02-11T10:32:03.000Z</time>
      </trkpt>
      <trkpt lat="43.74085" lon="7.03444">
        <ele>1234.8000488281</ele>
        <time>2022-02-11T10:32:05.000Z</time>
      </trkpt>
      <trkpt lat="43.74086" lon="7.03441">
        <ele>1234.8000488281</ele>
        <time>2022-02-11T10:32:06.000Z</time>
      </trkpt>
      <trkpt lat="43.74089" lon="7.03432">
        <ele>1234.8000488281</ele>
        <time>2022-02-11T10:32:09.000Z</time>
      </trkpt>
      <trkpt lat="43.74093" lon="7.03427">
        <ele>1234.8000488281</ele>
        <time>2022-02-11T10:32:11.000Z</time>
      </trkpt>
      <trkpt lat="43.74108" lon="7.03401">
        <ele>1234.5999755859</ele>
        <time>2022-02-11T10:32:20.000Z</time>
      </trkpt>
      <trkpt lat="43.74113" lon="7.03374">
        <ele>1234.4000244141</ele>
        <time>2022-02-11T10:32:27.000Z</time>
      </trkpt>
      <trkpt lat="43.74115" lon="7.03342">
        <ele>1234.4000244141</ele>
        <time>2022-02-11T10:32:35.000Z</time>
      </trkpt>
      <trkpt lat="43.74115" lon="7.03321">
        <ele>1235</ele>
        <time>2022-02-11T10:32:41.000Z</time>
      </trkpt>
      <trkpt lat="43.74116" lon="7.03313">
        <ele>1235.5999755859</ele>
        <time>2022-02-11T10:32:44.000Z</time>
      </trkpt>
      <trkpt lat="43.74117" lon="7.03311">
        <ele>1236</ele>
        <time>2022-02-11T10:32:45.000Z</time>
      </trkpt>
      <trkpt lat="43.74118" lon="7.03308">
        <ele>1236.1999511719</ele>
        <time>2022-02-11T10:32:46.000Z</time>
      </trkpt>
      <trkpt lat="43.74118" lon="7.03306">
        <ele>1236.4000244141</ele>
        <time>2022-02-11T10:32:47.000Z</time>
      </trkpt>
      <trkpt lat="43.74117" lon="7.03297">
        <ele>1236.8000488281</ele>
        <time>2022-02-11T10:32:50.000Z</time>
      </trkpt>
      <trkpt lat="43.74118" lon="7.03292">
        <ele>1237.1999511719</ele>
        <time>2022-02-11T10:32:52.000Z</time>
      </trkpt>
      <trkpt lat="43.74118" lon="7.03287">
        <ele>1237.8000488281</ele>
        <time>2022-02-11T10:32:54.000Z</time>
      </trkpt>
      <trkpt lat="43.7412" lon="7.03285">
        <ele>1238</ele>
        <time>2022-02-11T10:32:55.000Z</time>
      </trkpt>
      <trkpt lat="43.74122" lon="7.03283">
        <ele>1238.4000244141</ele>
        <time>2022-02-11T10:32:56.000Z</time>
      </trkpt>
      <trkpt lat="43.74124" lon="7.03282">
        <ele>1238.5999755859</ele>
        <time>2022-02-11T10:32:58.000Z</time>
      </trkpt>
      <trkpt lat="43.74124" lon="7.03282">
        <ele>1238.8000488281</ele>
        <time>2022-02-11T10:32:59.000Z</time>
      </trkpt>
      <trkpt lat="43.74125" lon="7.03279">
        <ele>1238.8000488281</ele>
        <time>2022-02-11T10:33:05.000Z</time>
      </trkpt>
      <trkpt lat="43.74126" lon="7.03274">
        <ele>1238.5999755859</ele>
        <time>2022-02-11T10:33:07.000Z</time>
      </trkpt>
      <trkpt lat="43.74125" lon="7.03272">
        <ele>1238.8000488281</ele>
        <time>2022-02-11T10:33:09.000Z</time>
      </trkpt>
      <trkpt lat="43.74122" lon="7.03263">
        <ele>1239.5999755859</ele>
        <time>2022-02-11T10:33:12.000Z</time>
      </trkpt>
      <trkpt lat="43.74118" lon="7.03246">
        <ele>1240.5999755859</ele>
        <time>2022-02-11T10:33:17.000Z</time>
      </trkpt>
      <trkpt lat="43.74118" lon="7.03228">
        <ele>1241.8000488281</ele>
        <time>2022-02-11T10:33:22.000Z</time>
      </trkpt>
      <trkpt lat="43.74117" lon="7.03225">
        <ele>1242.1999511719</ele>
        <time>2022-02-11T10:33:23.000Z</time>
      </trkpt>
      <trkpt lat="43.74117" lon="7.03218">
        <ele>1243</ele>
        <time>2022-02-11T10:33:25.000Z</time>
      </trkpt>
      <trkpt lat="43.74117" lon="7.03211">
        <ele>1244</ele>
        <time>2022-02-11T10:33:27.000Z</time>
      </trkpt>
      <trkpt lat="43.74118" lon="7.03204">
        <ele>1245.1999511719</ele>
        <time>2022-02-11T10:33:29.000Z</time>
      </trkpt>
      <trkpt lat="43.7412" lon="7.03194">
        <ele>1246.5999755859</ele>
        <time>2022-02-11T10:33:32.000Z</time>
      </trkpt>
      <trkpt lat="43.74119" lon="7.03191">
        <ele>1247</ele>
        <time>2022-02-11T10:33:33.000Z</time>
      </trkpt>
      <trkpt lat="43.7412" lon="7.03184">
        <ele>1248</ele>
        <time>2022-02-11T10:33:35.000Z</time>
      </trkpt>
      <trkpt lat="43.7412" lon="7.03177">
        <ele>1249</ele>
        <time>2022-02-11T10:33:37.000Z</time>
      </trkpt>
      <trkpt lat="43.7412" lon="7.0317">
        <ele>1250.1999511719</ele>
        <time>2022-02-11T10:33:39.000Z</time>
      </trkpt>
      <trkpt lat="43.74119" lon="7.03164">
        <ele>1251.1999511719</ele>
        <time>2022-02-11T10:33:41.000Z</time>
      </trkpt>
      <trkpt lat="43.7412" lon="7.03157">
        <ele>1252</ele>
        <time>2022-02-11T10:33:43.000Z</time>
      </trkpt>
      <trkpt lat="43.7412" lon="7.03154">
        <ele>1253</ele>
        <time>2022-02-11T10:33:44.000Z</time>
      </trkpt>
      <trkpt lat="43.74122" lon="7.03146">
        <ele>1254.8000488281</ele>
        <time>2022-02-11T10:33:47.000Z</time>
      </trkpt>
      <trkpt lat="43.74123" lon="7.03144">
        <ele>1255.1999511719</ele>
        <time>2022-02-11T10:33:48.000Z</time>
      </trkpt>
      <trkpt lat="43.74124" lon="7.03141">
        <ele>1255.8000488281</ele>
        <time>2022-02-11T10:33:49.000Z</time>
      </trkpt>
      <trkpt lat="43.74127" lon="7.03133">
        <ele>1256.8000488281</ele>
        <time>2022-02-11T10:33:52.000Z</time>
      </trkpt>
      <trkpt lat="43.74129" lon="7.03129">
        <ele>1258</ele>
        <time>2022-02-11T10:33:54.000Z</time>
      </trkpt>
      <trkpt lat="43.74131" lon="7.03126">
        <ele>1259</ele>
        <time>2022-02-11T10:33:56.000Z</time>
      </trkpt>
      <trkpt lat="43.74132" lon="7.03121">
        <ele>1259.5999755859</ele>
        <time>2022-02-11T10:33:58.000Z</time>
      </trkpt>
      <trkpt lat="43.74133" lon="7.03118">
        <ele>1260</ele>
        <time>2022-02-11T10:33:59.000Z</time>
      </trkpt>
      <trkpt lat="43.74135" lon="7.03116">
        <ele>1260.4000244141</ele>
        <time>2022-02-11T10:34:00.000Z</time>
      </trkpt>
      <trkpt lat="43.7414" lon="7.03109">
        <ele>1261.8000488281</ele>
        <time>2022-02-11T10:34:04.000Z</time>
      </trkpt>
      <trkpt lat="43.74142" lon="7.03105">
        <ele>1262.8000488281</ele>
        <time>2022-02-11T10:34:06.000Z</time>
      </trkpt>
      <trkpt lat="43.74143" lon="7.03104">
        <ele>1263.4000244141</ele>
        <time>2022-02-11T10:34:07.000Z</time>
      </trkpt>
      <trkpt lat="43.74144" lon="7.03104">
        <ele>1264</ele>
        <time>2022-02-11T10:34:09.000Z</time>
      </trkpt>
      <trkpt lat="43.74144" lon="7.03104">
        <ele>1265.4000244141</ele>
        <time>2022-02-11T10:34:12.000Z</time>
      </trkpt>
      <trkpt lat="43.74144" lon="7.03103">
        <ele>1265.5999755859</ele>
        <time>2022-02-11T10:34:15.000Z</time>
      </trkpt>
      <trkpt lat="43.74145" lon="7.03103">
        <ele>1265.4000244141</ele>
        <time>2022-02-11T10:34:17.000Z</time>
      </trkpt>
      <trkpt lat="43.74145" lon="7.03101">
        <ele>1265.8000488281</ele>
        <time>2022-02-11T10:34:19.000Z</time>
      </trkpt>
      <trkpt lat="43.74148" lon="7.03095">
        <ele>1266</ele>
        <time>2022-02-11T10:34:22.000Z</time>
      </trkpt>
      <trkpt lat="43.7415" lon="7.0309">
        <ele>1266.5999755859</ele>
        <time>2022-02-11T10:34:24.000Z</time>
      </trkpt>
      <trkpt lat="43.74155" lon="7.03084">
        <ele>1267.8000488281</ele>
        <time>2022-02-11T10:34:27.000Z</time>
      </trkpt>
      <trkpt lat="43.74159" lon="7.03082">
        <ele>1269</ele>
        <time>2022-02-11T10:34:29.000Z</time>
      </trkpt>
      <trkpt lat="43.74162" lon="7.03079">
        <ele>1270.1999511719</ele>
        <time>2022-02-11T10:34:31.000Z</time>
      </trkpt>
      <trkpt lat="43.74164" lon="7.03077">
        <ele>1270.8000488281</ele>
        <time>2022-02-11T10:34:32.000Z</time>
      </trkpt>
      <trkpt lat="43.74165" lon="7.03074">
        <ele>1271.1999511719</ele>
        <time>2022-02-11T10:34:33.000Z</time>
      </trkpt>
      <trkpt lat="43.74164" lon="7.03071">
        <ele>1271.5999755859</ele>
        <time>2022-02-11T10:34:34.000Z</time>
      </trkpt>
      <trkpt lat="43.74164" lon="7.03061">
        <ele>1273</ele>
        <time>2022-02-11T10:34:37.000Z</time>
      </trkpt>
      <trkpt lat="43.74163" lon="7.03055">
        <ele>1274</ele>
        <time>2022-02-11T10:34:39.000Z</time>
      </trkpt>
      <trkpt lat="43.74162" lon="7.0305">
        <ele>1275</ele>
        <time>2022-02-11T10:34:41.000Z</time>
      </trkpt>
      <trkpt lat="43.7416" lon="7.03044">
        <ele>1275.4000244141</ele>
        <time>2022-02-11T10:34:43.000Z</time>
      </trkpt>
      <trkpt lat="43.74156" lon="7.03027">
        <ele>1275.8000488281</ele>
        <time>2022-02-11T10:34:49.000Z</time>
      </trkpt>
      <trkpt lat="43.74155" lon="7.03007">
        <ele>1275.5999755859</ele>
        <time>2022-02-11T10:34:56.000Z</time>
      </trkpt>
      <trkpt lat="43.74154" lon="7.02982">
        <ele>1276</ele>
        <time>2022-02-11T10:35:03.000Z</time>
      </trkpt>
      <trkpt lat="43.74154" lon="7.02974">
        <ele>1276</ele>
        <time>2022-02-11T10:35:05.000Z</time>
      </trkpt>
      <trkpt lat="43.74155" lon="7.02967">
        <ele>1276.4000244141</ele>
        <time>2022-02-11T10:35:07.000Z</time>
      </trkpt>
      <trkpt lat="43.74158" lon="7.02956">
        <ele>1277.1999511719</ele>
        <time>2022-02-11T10:35:10.000Z</time>
      </trkpt>
      <trkpt lat="43.74159" lon="7.02952">
        <ele>1277.4000244141</ele>
        <time>2022-02-11T10:35:11.000Z</time>
      </trkpt>
      <trkpt lat="43.7416" lon="7.02945">
        <ele>1277.8000488281</ele>
        <time>2022-02-11T10:35:13.000Z</time>
      </trkpt>
      <trkpt lat="43.74161" lon="7.02937">
        <ele>1278.1999511719</ele>
        <time>2022-02-11T10:35:15.000Z</time>
      </trkpt>
      <trkpt lat="43.74166" lon="7.02921">
        <ele>1279</ele>
        <time>2022-02-11T10:35:20.000Z</time>
      </trkpt>
      <trkpt lat="43.74167" lon="7.02915">
        <ele>1279.4000244141</ele>
        <time>2022-02-11T10:35:22.000Z</time>
      </trkpt>
      <trkpt lat="43.74172" lon="7.02907">
        <ele>1280.1999511719</ele>
        <time>2022-02-11T10:35:26.000Z</time>
      </trkpt>
      <trkpt lat="43.74173" lon="7.02904">
        <ele>1280.4000244141</ele>
        <time>2022-02-11T10:35:27.000Z</time>
      </trkpt>
      <trkpt lat="43.7418" lon="7.02887">
        <ele>1280.5999755859</ele>
        <time>2022-02-11T10:35:36.000Z</time>
      </trkpt>
      <trkpt lat="43.74184" lon="7.02884">
        <ele>1280.4000244141</ele>
        <time>2022-02-11T10:35:42.000Z</time>
      </trkpt>
      <trkpt lat="43.74183" lon="7.02884">
        <ele>1280.4000244141</ele>
        <time>2022-02-11T10:35:44.000Z</time>
      </trkpt>
      <trkpt lat="43.74183" lon="7.02882">
        <ele>1280.1999511719</ele>
        <time>2022-02-11T10:35:46.000Z</time>
      </trkpt>
      <trkpt lat="43.74183" lon="7.02883">
        <ele>1280.4000244141</ele>
        <time>2022-02-11T10:35:53.000Z</time>
      </trkpt>
      <trkpt lat="43.74183" lon="7.02882">
        <ele>1280.1999511719</ele>
        <time>2022-02-11T10:36:08.000Z</time>
      </trkpt>
      <trkpt lat="43.74184" lon="7.02883">
        <ele>1280.8000488281</ele>
        <time>2022-02-11T10:36:18.000Z</time>
      </trkpt>
      <trkpt lat="43.74185" lon="7.02883">
        <ele>1280.8000488281</ele>
        <time>2022-02-11T10:36:37.000Z</time>
      </trkpt>
      <trkpt lat="43.74185" lon="7.02883">
        <ele>1280.5999755859</ele>
        <time>2022-02-11T10:36:50.000Z</time>
      </trkpt>
      <trkpt lat="43.74185" lon="7.02884">
        <ele>1280.8000488281</ele>
        <time>2022-02-11T10:37:01.000Z</time>
      </trkpt>
      <trkpt lat="43.74185" lon="7.02884">
        <ele>1281</ele>
        <time>2022-02-11T10:37:11.000Z</time>
      </trkpt>
      <trkpt lat="43.74185" lon="7.02884">
        <ele>1281.1999511719</ele>
        <time>2022-02-11T10:37:25.000Z</time>
      </trkpt>
      <trkpt lat="43.74185" lon="7.02884">
        <ele>1281</ele>
        <time>2022-02-11T10:37:30.000Z</time>
      </trkpt>
      <trkpt lat="43.74185" lon="7.02884">
        <ele>1280.5999755859</ele>
        <time>2022-02-11T10:37:40.000Z</time>
      </trkpt>
      <trkpt lat="43.74184" lon="7.02885">
        <ele>1280.4000244141</ele>
        <time>2022-02-11T10:37:50.000Z</time>
      </trkpt>
      <trkpt lat="43.74184" lon="7.02884">
        <ele>1281.4000244141</ele>
        <time>2022-02-11T10:37:59.000Z</time>
      </trkpt>
      <trkpt lat="43.74184" lon="7.02884">
        <ele>1281.4000244141</ele>
        <time>2022-02-11T10:38:08.000Z</time>
      </trkpt>
      <trkpt lat="43.74185" lon="7.02884">
        <ele>1281.4000244141</ele>
        <time>2022-02-11T10:38:15.000Z</time>
      </trkpt>
      <trkpt lat="43.74185" lon="7.02883">
        <ele>1281.1999511719</ele>
        <time>2022-02-11T10:38:25.000Z</time>
      </trkpt>
      <trkpt lat="43.74185" lon="7.02884">
        <ele>1281.4000244141</ele>
        <time>2022-02-11T10:38:33.000Z</time>
      </trkpt>
      <trkpt lat="43.74185" lon="7.02884">
        <ele>1280.4000244141</ele>
        <time>2022-02-11T10:38:37.000Z</time>
      </trkpt>
      <trkpt lat="43.74185" lon="7.02883">
        <ele>1280.4000244141</ele>
        <time>2022-02-11T10:38:43.000Z</time>
      </trkpt>
      <trkpt lat="43.74185" lon="7.02883">
        <ele>1280.8000488281</ele>
        <time>2022-02-11T10:38:50.000Z</time>
      </trkpt>
      <trkpt lat="43.74185" lon="7.02884">
        <ele>1280.4000244141</ele>
        <time>2022-02-11T10:39:02.000Z</time>
      </trkpt>
      <trkpt lat="43.74185" lon="7.02884">
        <ele>1280.8000488281</ele>
        <time>2022-02-11T10:39:20.000Z</time>
      </trkpt>
      <trkpt lat="43.74185" lon="7.02884">
        <ele>1280.8000488281</ele>
        <time>2022-02-11T10:39:30.000Z</time>
      </trkpt>
      <trkpt lat="43.74185" lon="7.02884">
        <ele>1280.1999511719</ele>
        <time>2022-02-11T10:39:40.000Z</time>
      </trkpt>
      <trkpt lat="43.74185" lon="7.02884">
        <ele>1280.1999511719</ele>
        <time>2022-02-11T10:39:53.000Z</time>
      </trkpt>
      <trkpt lat="43.74184" lon="7.02885">
        <ele>1280</ele>
        <time>2022-02-11T10:40:13.000Z</time>
      </trkpt>
      <trkpt lat="43.74183" lon="7.02886">
        <ele>1280.4000244141</ele>
        <time>2022-02-11T10:40:24.000Z</time>
      </trkpt>
      <trkpt lat="43.74181" lon="7.02886">
        <ele>1280.1999511719</ele>
        <time>2022-02-11T10:40:30.000Z</time>
      </trkpt>
      <trkpt lat="43.74181" lon="7.02886">
        <ele>1280</ele>
        <time>2022-02-11T10:40:40.000Z</time>
      </trkpt>
      <trkpt lat="43.74181" lon="7.02886">
        <ele>1280.1999511719</ele>
        <time>2022-02-11T10:41:06.000Z</time>
      </trkpt>
      <trkpt lat="43.7418" lon="7.02884">
        <ele>1280.1999511719</ele>
        <time>2022-02-11T10:41:16.000Z</time>
      </trkpt>
      <trkpt lat="43.74175" lon="7.02881">
        <ele>1280</ele>
        <time>2022-02-11T10:41:19.000Z</time>
      </trkpt>
      <trkpt lat="43.74173" lon="7.0288">
        <ele>1280</ele>
        <time>2022-02-11T10:41:20.000Z</time>
      </trkpt>
      <trkpt lat="43.74164" lon="7.02874">
        <ele>1279.1999511719</ele>
        <time>2022-02-11T10:41:24.000Z</time>
      </trkpt>
      <trkpt lat="43.74154" lon="7.02867">
        <ele>1278.8000488281</ele>
        <time>2022-02-11T10:41:28.000Z</time>
      </trkpt>
      <trkpt lat="43.74147" lon="7.02862">
        <ele>1278</ele>
        <time>2022-02-11T10:41:31.000Z</time>
      </trkpt>
      <trkpt lat="43.7414" lon="7.02856">
        <ele>1277.5999755859</ele>
        <time>2022-02-11T10:41:34.000Z</time>
      </trkpt>
      <trkpt lat="43.74121" lon="7.02838">
        <ele>1277.4000244141</ele>
        <time>2022-02-11T10:41:43.000Z</time>
      </trkpt>
      <trkpt lat="43.74102" lon="7.02827">
        <ele>1277.4000244141</ele>
        <time>2022-02-11T10:41:51.000Z</time>
      </trkpt>
      <trkpt lat="43.74092" lon="7.02821">
        <ele>1277</ele>
        <time>2022-02-11T10:41:55.000Z</time>
      </trkpt>
      <trkpt lat="43.74084" lon="7.02814">
        <ele>1277.1999511719</ele>
        <time>2022-02-11T10:41:58.000Z</time>
      </trkpt>
      <trkpt lat="43.74067" lon="7.02801">
        <ele>1276.5999755859</ele>
        <time>2022-02-11T10:42:05.000Z</time>
      </trkpt>
      <trkpt lat="43.7405" lon="7.02794">
        <ele>1275.8000488281</ele>
        <time>2022-02-11T10:42:11.000Z</time>
      </trkpt>
      <trkpt lat="43.74047" lon="7.02792">
        <ele>1275.5999755859</ele>
        <time>2022-02-11T10:42:12.000Z</time>
      </trkpt>
      <trkpt lat="43.74024" lon="7.02784">
        <ele>1275.5999755859</ele>
        <time>2022-02-11T10:42:21.000Z</time>
      </trkpt>
      <trkpt lat="43.74008" lon="7.02777">
        <ele>1274.8000488281</ele>
        <time>2022-02-11T10:42:27.000Z</time>
      </trkpt>
      <trkpt lat="43.74005" lon="7.02775">
        <ele>1274.4000244141</ele>
        <time>2022-02-11T10:42:28.000Z</time>
      </trkpt>
      <trkpt lat="43.73999" lon="7.02773">
        <ele>1273.5999755859</ele>
        <time>2022-02-11T10:42:31.000Z</time>
      </trkpt>
      <trkpt lat="43.73998" lon="7.02774">
        <ele>1273.4000244141</ele>
        <time>2022-02-11T10:42:32.000Z</time>
      </trkpt>
      <trkpt lat="43.73983" lon="7.02783">
        <ele>1272.1999511719</ele>
        <time>2022-02-11T10:42:38.000Z</time>
      </trkpt>
      <trkpt lat="43.73982" lon="7.02786">
        <ele>1271.8000488281</ele>
        <time>2022-02-11T10:42:39.000Z</time>
      </trkpt>
      <trkpt lat="43.73977" lon="7.0279">
        <ele>1271</ele>
        <time>2022-02-11T10:42:41.000Z</time>
      </trkpt>
      <trkpt lat="43.73971" lon="7.02791">
        <ele>1270.4000244141</ele>
        <time>2022-02-11T10:42:43.000Z</time>
      </trkpt>
      <trkpt lat="43.73967" lon="7.02789">
        <ele>1269.5999755859</ele>
        <time>2022-02-11T10:42:45.000Z</time>
      </trkpt>
      <trkpt lat="43.73965" lon="7.02789">
        <ele>1268.8000488281</ele>
        <time>2022-02-11T10:42:47.000Z</time>
      </trkpt>
      <trkpt lat="43.73965" lon="7.02789">
        <ele>1268.5999755859</ele>
        <time>2022-02-11T10:42:48.000Z</time>
      </trkpt>
      <trkpt lat="43.73965" lon="7.02789">
        <ele>1268.8000488281</ele>
        <time>2022-02-11T10:42:56.000Z</time>
      </trkpt>
      <trkpt lat="43.73965" lon="7.02789">
        <ele>1269</ele>
        <time>2022-02-11T10:43:04.000Z</time>
      </trkpt>
      <trkpt lat="43.73964" lon="7.02791">
        <ele>1269.1999511719</ele>
        <time>2022-02-11T10:43:26.000Z</time>
      </trkpt>
      <trkpt lat="43.73964" lon="7.02791">
        <ele>1269.1999511719</ele>
        <time>2022-02-11T10:43:41.000Z</time>
      </trkpt>
      <trkpt lat="43.73964" lon="7.02791">
        <ele>1269.1999511719</ele>
        <time>2022-02-11T10:43:55.000Z</time>
      </trkpt>
      <trkpt lat="43.73964" lon="7.02791">
        <ele>1269.1999511719</ele>
        <time>2022-02-11T10:44:15.000Z</time>
      </trkpt>
      <trkpt lat="43.73964" lon="7.02791">
        <ele>1268.8000488281</ele>
        <time>2022-02-11T10:44:21.000Z</time>
      </trkpt>
      <trkpt lat="43.73963" lon="7.02792">
        <ele>1269</ele>
        <time>2022-02-11T10:44:28.000Z</time>
      </trkpt>
      <trkpt lat="43.73958" lon="7.02792">
        <ele>1269.1999511719</ele>
        <time>2022-02-11T10:44:32.000Z</time>
      </trkpt>
      <trkpt lat="43.73957" lon="7.02793">
        <ele>1269.1999511719</ele>
        <time>2022-02-11T10:44:33.000Z</time>
      </trkpt>
      <trkpt lat="43.73955" lon="7.02795">
        <ele>1268.1999511719</ele>
        <time>2022-02-11T10:44:35.000Z</time>
      </trkpt>
      <trkpt lat="43.73952" lon="7.02795">
        <ele>1267.5999755859</ele>
        <time>2022-02-11T10:44:37.000Z</time>
      </trkpt>
      <trkpt lat="43.73951" lon="7.02794">
        <ele>1267.1999511719</ele>
        <time>2022-02-11T10:44:38.000Z</time>
      </trkpt>
      <trkpt lat="43.73948" lon="7.02792">
        <ele>1266</ele>
        <time>2022-02-11T10:44:41.000Z</time>
      </trkpt>
      <trkpt lat="43.73947" lon="7.02793">
        <ele>1265.4000244141</ele>
        <time>2022-02-11T10:44:42.000Z</time>
      </trkpt>
      <trkpt lat="43.73946" lon="7.02793">
        <ele>1264.8000488281</ele>
        <time>2022-02-11T10:44:43.000Z</time>
      </trkpt>
      <trkpt lat="43.73943" lon="7.02795">
        <ele>1263.8000488281</ele>
        <time>2022-02-11T10:44:45.000Z</time>
      </trkpt>
      <trkpt lat="43.73938" lon="7.02798">
        <ele>1262.1999511719</ele>
        <time>2022-02-11T10:44:48.000Z</time>
      </trkpt>
      <trkpt lat="43.73939" lon="7.02797">
        <ele>1261.5999755859</ele>
        <time>2022-02-11T10:44:49.000Z</time>
      </trkpt>
      <trkpt lat="43.73938" lon="7.02799">
        <ele>1260.8000488281</ele>
        <time>2022-02-11T10:44:50.000Z</time>
      </trkpt>
      <trkpt lat="43.73935" lon="7.02802">
        <ele>1259.4000244141</ele>
        <time>2022-02-11T10:44:52.000Z</time>
      </trkpt>
      <trkpt lat="43.73933" lon="7.02804">
        <ele>1258.8000488281</ele>
        <time>2022-02-11T10:44:53.000Z</time>
      </trkpt>
      <trkpt lat="43.73932" lon="7.02805">
        <ele>1258.1999511719</ele>
        <time>2022-02-11T10:44:54.000Z</time>
      </trkpt>
      <trkpt lat="43.73927" lon="7.02811">
        <ele>1256.5999755859</ele>
        <time>2022-02-11T10:44:57.000Z</time>
      </trkpt>
      <trkpt lat="43.73925" lon="7.02814">
        <ele>1255.8000488281</ele>
        <time>2022-02-11T10:44:58.000Z</time>
      </trkpt>
      <trkpt lat="43.73924" lon="7.02815">
        <ele>1255</ele>
        <time>2022-02-11T10:44:59.000Z</time>
      </trkpt>
      <trkpt lat="43.73922" lon="7.02816">
        <ele>1254.4000244141</ele>
        <time>2022-02-11T10:45:00.000Z</time>
      </trkpt>
      <trkpt lat="43.73922" lon="7.02818">
        <ele>1253.8000488281</ele>
        <time>2022-02-11T10:45:01.000Z</time>
      </trkpt>
      <trkpt lat="43.73921" lon="7.02819">
        <ele>1253</ele>
        <time>2022-02-11T10:45:02.000Z</time>
      </trkpt>
      <trkpt lat="43.73919" lon="7.02821">
        <ele>1252.4000244141</ele>
        <time>2022-02-11T10:45:03.000Z</time>
      </trkpt>
      <trkpt lat="43.73918" lon="7.0282">
        <ele>1251.5999755859</ele>
        <time>2022-02-11T10:45:04.000Z</time>
      </trkpt>
      <trkpt lat="43.73915" lon="7.02818">
        <ele>1250.4000244141</ele>
        <time>2022-02-11T10:45:05.000Z</time>
      </trkpt>
      <trkpt lat="43.73914" lon="7.02817">
        <ele>1249.4000244141</ele>
        <time>2022-02-11T10:45:06.000Z</time>
      </trkpt>
      <trkpt lat="43.73911" lon="7.02816">
        <ele>1247.8000488281</ele>
        <time>2022-02-11T10:45:08.000Z</time>
      </trkpt>
      <trkpt lat="43.7391" lon="7.02815">
        <ele>1246.8000488281</ele>
        <time>2022-02-11T10:45:09.000Z</time>
      </trkpt>
      <trkpt lat="43.73907" lon="7.02815">
        <ele>1246</ele>
        <time>2022-02-11T10:45:11.000Z</time>
      </trkpt>
      <trkpt lat="43.73907" lon="7.02815">
        <ele>1245.8000488281</ele>
        <time>2022-02-11T10:45:12.000Z</time>
      </trkpt>
      <trkpt lat="43.73906" lon="7.02813">
        <ele>1245</ele>
        <time>2022-02-11T10:45:14.000Z</time>
      </trkpt>
      <trkpt lat="43.73903" lon="7.02809">
        <ele>1244.5999755859</ele>
        <time>2022-02-11T10:45:16.000Z</time>
      </trkpt>
      <trkpt lat="43.73901" lon="7.02808">
        <ele>1244.4000244141</ele>
        <time>2022-02-11T10:45:17.000Z</time>
      </trkpt>
      <trkpt lat="43.73896" lon="7.02806">
        <ele>1243.1999511719</ele>
        <time>2022-02-11T10:45:20.000Z</time>
      </trkpt>
      <trkpt lat="43.73893" lon="7.02804">
        <ele>1242</ele>
        <time>2022-02-11T10:45:22.000Z</time>
      </trkpt>
      <trkpt lat="43.73891" lon="7.02801">
        <ele>1240.4000244141</ele>
        <time>2022-02-11T10:45:24.000Z</time>
      </trkpt>
      <trkpt lat="43.73888" lon="7.02801">
        <ele>1239.1999511719</ele>
        <time>2022-02-11T10:45:25.000Z</time>
      </trkpt>
      <trkpt lat="43.73886" lon="7.02801">
        <ele>1238.4000244141</ele>
        <time>2022-02-11T10:45:26.000Z</time>
      </trkpt>
      <trkpt lat="43.73884" lon="7.028">
        <ele>1237.4000244141</ele>
        <time>2022-02-11T10:45:27.000Z</time>
      </trkpt>
      <trkpt lat="43.73882" lon="7.028">
        <ele>1237</ele>
        <time>2022-02-11T10:45:28.000Z</time>
      </trkpt>
      <trkpt lat="43.73881" lon="7.02798">
        <ele>1236.5999755859</ele>
        <time>2022-02-11T10:45:29.000Z</time>
      </trkpt>
      <trkpt lat="43.73879" lon="7.02797">
        <ele>1236</ele>
        <time>2022-02-11T10:45:30.000Z</time>
      </trkpt>
      <trkpt lat="43.73876" lon="7.02796">
        <ele>1234.4000244141</ele>
        <time>2022-02-11T10:45:32.000Z</time>
      </trkpt>
      <trkpt lat="43.73874" lon="7.02796">
        <ele>1233.1999511719</ele>
        <time>2022-02-11T10:45:34.000Z</time>
      </trkpt>
      <trkpt lat="43.73873" lon="7.02798">
        <ele>1232.8000488281</ele>
        <time>2022-02-11T10:45:35.000Z</time>
      </trkpt>
      <trkpt lat="43.7387" lon="7.02797">
        <ele>1232</ele>
        <time>2022-02-11T10:45:37.000Z</time>
      </trkpt>
      <trkpt lat="43.73867" lon="7.02798">
        <ele>1230.8000488281</ele>
        <time>2022-02-11T10:45:39.000Z</time>
      </trkpt>
      <trkpt lat="43.73864" lon="7.02798">
        <ele>1229.8000488281</ele>
        <time>2022-02-11T10:45:41.000Z</time>
      </trkpt>
      <trkpt lat="43.73862" lon="7.02798">
        <ele>1229.1999511719</ele>
        <time>2022-02-11T10:45:42.000Z</time>
      </trkpt>
      <trkpt lat="43.73861" lon="7.02797">
        <ele>1228</ele>
        <time>2022-02-11T10:45:43.000Z</time>
      </trkpt>
      <trkpt lat="43.73858" lon="7.02794">
        <ele>1226.5999755859</ele>
        <time>2022-02-11T10:45:45.000Z</time>
      </trkpt>
      <trkpt lat="43.73856" lon="7.02793">
        <ele>1225.4000244141</ele>
        <time>2022-02-11T10:45:47.000Z</time>
      </trkpt>
      <trkpt lat="43.73853" lon="7.02792">
        <ele>1224.1999511719</ele>
        <time>2022-02-11T10:45:49.000Z</time>
      </trkpt>
      <trkpt lat="43.7385" lon="7.02793">
        <ele>1223</ele>
        <time>2022-02-11T10:45:51.000Z</time>
      </trkpt>
      <trkpt lat="43.73848" lon="7.02792">
        <ele>1222.5999755859</ele>
        <time>2022-02-11T10:45:52.000Z</time>
      </trkpt>
      <trkpt lat="43.73846" lon="7.0279">
        <ele>1221.8000488281</ele>
        <time>2022-02-11T10:45:54.000Z</time>
      </trkpt>
      <trkpt lat="43.73845" lon="7.0279">
        <ele>1220.1999511719</ele>
        <time>2022-02-11T10:45:56.000Z</time>
      </trkpt>
      <trkpt lat="43.73845" lon="7.0279">
        <ele>1219.4000244141</ele>
        <time>2022-02-11T10:45:57.000Z</time>
      </trkpt>
      <trkpt lat="43.73845" lon="7.0279">
        <ele>1218.5999755859</ele>
        <time>2022-02-11T10:45:58.000Z</time>
      </trkpt>
      <trkpt lat="43.73844" lon="7.02789">
        <ele>1217.4000244141</ele>
        <time>2022-02-11T10:46:00.000Z</time>
      </trkpt>
      <trkpt lat="43.73843" lon="7.02789">
        <ele>1216.8000488281</ele>
        <time>2022-02-11T10:46:03.000Z</time>
      </trkpt>
      <trkpt lat="43.73842" lon="7.02788">
        <ele>1216.4000244141</ele>
        <time>2022-02-11T10:46:09.000Z</time>
      </trkpt>
      <trkpt lat="43.73839" lon="7.02785">
        <ele>1215.5999755859</ele>
        <time>2022-02-11T10:46:15.000Z</time>
      </trkpt>
      <trkpt lat="43.73834" lon="7.02782">
        <ele>1215</ele>
        <time>2022-02-11T10:46:19.000Z</time>
      </trkpt>
      <trkpt lat="43.73829" lon="7.02781">
        <ele>1213.5999755859</ele>
        <time>2022-02-11T10:46:22.000Z</time>
      </trkpt>
      <trkpt lat="43.73825" lon="7.02779">
        <ele>1212</ele>
        <time>2022-02-11T10:46:25.000Z</time>
      </trkpt>
      <trkpt lat="43.73825" lon="7.02779">
        <ele>1210.8000488281</ele>
        <time>2022-02-11T10:46:27.000Z</time>
      </trkpt>
      <trkpt lat="43.73824" lon="7.02779">
        <ele>1210.1999511719</ele>
        <time>2022-02-11T10:46:28.000Z</time>
      </trkpt>
      <trkpt lat="43.73822" lon="7.02779">
        <ele>1209.8000488281</ele>
        <time>2022-02-11T10:46:29.000Z</time>
      </trkpt>
      <trkpt lat="43.73821" lon="7.02778">
        <ele>1209.4000244141</ele>
        <time>2022-02-11T10:46:30.000Z</time>
      </trkpt>
      <trkpt lat="43.73821" lon="7.02776">
        <ele>1208.8000488281</ele>
        <time>2022-02-11T10:46:32.000Z</time>
      </trkpt>
      <trkpt lat="43.7382" lon="7.02777">
        <ele>1208</ele>
        <time>2022-02-11T10:46:33.000Z</time>
      </trkpt>
      <trkpt lat="43.73818" lon="7.02776">
        <ele>1206.8000488281</ele>
        <time>2022-02-11T10:46:36.000Z</time>
      </trkpt>
      <trkpt lat="43.73816" lon="7.02774">
        <ele>1206.5999755859</ele>
        <time>2022-02-11T10:46:38.000Z</time>
      </trkpt>
      <trkpt lat="43.73815" lon="7.02774">
        <ele>1205.5999755859</ele>
        <time>2022-02-11T10:46:41.000Z</time>
      </trkpt>
      <trkpt lat="43.73812" lon="7.02775">
        <ele>1205</ele>
        <time>2022-02-11T10:46:43.000Z</time>
      </trkpt>
      <trkpt lat="43.73808" lon="7.02773">
        <ele>1204.5999755859</ele>
        <time>2022-02-11T10:46:45.000Z</time>
      </trkpt>
      <trkpt lat="43.73807" lon="7.02772">
        <ele>1204.1999511719</ele>
        <time>2022-02-11T10:46:46.000Z</time>
      </trkpt>
      <trkpt lat="43.73802" lon="7.02768">
        <ele>1202.5999755859</ele>
        <time>2022-02-11T10:46:49.000Z</time>
      </trkpt>
      <trkpt lat="43.73802" lon="7.02766">
        <ele>1201.4000244141</ele>
        <time>2022-02-11T10:46:50.000Z</time>
      </trkpt>
      <trkpt lat="43.738" lon="7.02766">
        <ele>1200.5999755859</ele>
        <time>2022-02-11T10:46:51.000Z</time>
      </trkpt>
      <trkpt lat="43.73799" lon="7.02766">
        <ele>1199.8000488281</ele>
        <time>2022-02-11T10:46:52.000Z</time>
      </trkpt>
      <trkpt lat="43.73798" lon="7.02767">
        <ele>1198.5999755859</ele>
        <time>2022-02-11T10:46:53.000Z</time>
      </trkpt>
      <trkpt lat="43.73797" lon="7.02767">
        <ele>1197.5999755859</ele>
        <time>2022-02-11T10:46:54.000Z</time>
      </trkpt>
      <trkpt lat="43.73795" lon="7.02765">
        <ele>1196.1999511719</ele>
        <time>2022-02-11T10:46:56.000Z</time>
      </trkpt>
      <trkpt lat="43.73795" lon="7.02765">
        <ele>1195</ele>
        <time>2022-02-11T10:46:58.000Z</time>
      </trkpt>
      <trkpt lat="43.73793" lon="7.02765">
        <ele>1194.8000488281</ele>
        <time>2022-02-11T10:46:59.000Z</time>
      </trkpt>
      <trkpt lat="43.73791" lon="7.02764">
        <ele>1194</ele>
        <time>2022-02-11T10:47:01.000Z</time>
      </trkpt>
      <trkpt lat="43.73789" lon="7.02763">
        <ele>1193.5999755859</ele>
        <time>2022-02-11T10:47:02.000Z</time>
      </trkpt>
      <trkpt lat="43.73787" lon="7.02762">
        <ele>1193.4000244141</ele>
        <time>2022-02-11T10:47:03.000Z</time>
      </trkpt>
      <trkpt lat="43.73786" lon="7.02761">
        <ele>1192.8000488281</ele>
        <time>2022-02-11T10:47:04.000Z</time>
      </trkpt>
      <trkpt lat="43.73782" lon="7.02757">
        <ele>1191.1999511719</ele>
        <time>2022-02-11T10:47:07.000Z</time>
      </trkpt>
      <trkpt lat="43.7378" lon="7.02756">
        <ele>1190.4000244141</ele>
        <time>2022-02-11T10:47:08.000Z</time>
      </trkpt>
      <trkpt lat="43.73779" lon="7.02756">
        <ele>1189.4000244141</ele>
        <time>2022-02-11T10:47:09.000Z</time>
      </trkpt>
      <trkpt lat="43.73778" lon="7.02757">
        <ele>1188.4000244141</ele>
        <time>2022-02-11T10:47:10.000Z</time>
      </trkpt>
      <trkpt lat="43.73776" lon="7.02758">
        <ele>1187.4000244141</ele>
        <time>2022-02-11T10:47:11.000Z</time>
      </trkpt>
      <trkpt lat="43.73774" lon="7.02757">
        <ele>1186.1999511719</ele>
        <time>2022-02-11T10:47:12.000Z</time>
      </trkpt>
      <trkpt lat="43.73773" lon="7.02755">
        <ele>1184.8000488281</ele>
        <time>2022-02-11T10:47:14.000Z</time>
      </trkpt>
      <trkpt lat="43.73768" lon="7.02755">
        <ele>1183.5999755859</ele>
        <time>2022-02-11T10:47:17.000Z</time>
      </trkpt>
      <trkpt lat="43.73763" lon="7.02752">
        <ele>1182.1999511719</ele>
        <time>2022-02-11T10:47:20.000Z</time>
      </trkpt>
      <trkpt lat="43.7376" lon="7.02752">
        <ele>1180.8000488281</ele>
        <time>2022-02-11T10:47:22.000Z</time>
      </trkpt>
      <trkpt lat="43.73756" lon="7.0275">
        <ele>1179.5999755859</ele>
        <time>2022-02-11T10:47:24.000Z</time>
      </trkpt>
      <trkpt lat="43.73753" lon="7.02745">
        <ele>1177.8000488281</ele>
        <time>2022-02-11T10:47:26.000Z</time>
      </trkpt>
      <trkpt lat="43.7375" lon="7.02743">
        <ele>1176</ele>
        <time>2022-02-11T10:47:28.000Z</time>
      </trkpt>
      <trkpt lat="43.73745" lon="7.02742">
        <ele>1174.4000244141</ele>
        <time>2022-02-11T10:47:30.000Z</time>
      </trkpt>
      <trkpt lat="43.7374" lon="7.02738">
        <ele>1172.5999755859</ele>
        <time>2022-02-11T10:47:32.000Z</time>
      </trkpt>
      <trkpt lat="43.73737" lon="7.02734">
        <ele>1171</ele>
        <time>2022-02-11T10:47:34.000Z</time>
      </trkpt>
      <trkpt lat="43.73735" lon="7.02733">
        <ele>1170.4000244141</ele>
        <time>2022-02-11T10:47:35.000Z</time>
      </trkpt>
      <trkpt lat="43.73731" lon="7.02731">
        <ele>1169.8000488281</ele>
        <time>2022-02-11T10:47:36.000Z</time>
      </trkpt>
      <trkpt lat="43.73727" lon="7.02729">
        <ele>1168.8000488281</ele>
        <time>2022-02-11T10:47:38.000Z</time>
      </trkpt>
      <trkpt lat="43.73724" lon="7.02728">
        <ele>1169.1999511719</ele>
        <time>2022-02-11T10:47:39.000Z</time>
      </trkpt>
      <trkpt lat="43.73719" lon="7.02726">
        <ele>1168.1999511719</ele>
        <time>2022-02-11T10:47:41.000Z</time>
      </trkpt>
      <trkpt lat="43.73713" lon="7.02727">
        <ele>1166.4000244141</ele>
        <time>2022-02-11T10:47:43.000Z</time>
      </trkpt>
      <trkpt lat="43.73709" lon="7.02726">
        <ele>1165.1999511719</ele>
        <time>2022-02-11T10:47:44.000Z</time>
      </trkpt>
      <trkpt lat="43.73703" lon="7.02726">
        <ele>1163.5999755859</ele>
        <time>2022-02-11T10:47:46.000Z</time>
      </trkpt>
      <trkpt lat="43.73697" lon="7.02726">
        <ele>1162</ele>
        <time>2022-02-11T10:47:48.000Z</time>
      </trkpt>
      <trkpt lat="43.7369" lon="7.02723">
        <ele>1160.5999755859</ele>
        <time>2022-02-11T10:47:50.000Z</time>
      </trkpt>
      <trkpt lat="43.73681" lon="7.0272">
        <ele>1159</ele>
        <time>2022-02-11T10:47:52.000Z</time>
      </trkpt>
      <trkpt lat="43.73672" lon="7.02724">
        <ele>1158</ele>
        <time>2022-02-11T10:47:54.000Z</time>
      </trkpt>
      <trkpt lat="43.7366" lon="7.02728">
        <ele>1156.1999511719</ele>
        <time>2022-02-11T10:47:56.000Z</time>
      </trkpt>
      <trkpt lat="43.73647" lon="7.02731">
        <ele>1154.8000488281</ele>
        <time>2022-02-11T10:47:58.000Z</time>
      </trkpt>
      <trkpt lat="43.73642" lon="7.02735">
        <ele>1153.8000488281</ele>
        <time>2022-02-11T10:47:59.000Z</time>
      </trkpt>
      <trkpt lat="43.73636" lon="7.02738">
        <ele>1153</ele>
        <time>2022-02-11T10:48:00.000Z</time>
      </trkpt>
      <trkpt lat="43.7363" lon="7.02738">
        <ele>1152.1999511719</ele>
        <time>2022-02-11T10:48:01.000Z</time>
      </trkpt>
      <trkpt lat="43.73621" lon="7.02736">
        <ele>1152</ele>
        <time>2022-02-11T10:48:03.000Z</time>
      </trkpt>
      <trkpt lat="43.73615" lon="7.02737">
        <ele>1151.8000488281</ele>
        <time>2022-02-11T10:48:05.000Z</time>
      </trkpt>
      <trkpt lat="43.73614" lon="7.02736">
        <ele>1151.8000488281</ele>
        <time>2022-02-11T10:48:07.000Z</time>
      </trkpt>
      <trkpt lat="43.73614" lon="7.02736">
        <ele>1151</ele>
        <time>2022-02-11T10:48:14.000Z</time>
      </trkpt>
      <trkpt lat="43.73614" lon="7.02736">
        <ele>1150.8000488281</ele>
        <time>2022-02-11T10:48:16.000Z</time>
      </trkpt>
      <trkpt lat="43.73614" lon="7.02736">
        <ele>1149.8000488281</ele>
        <time>2022-02-11T10:48:28.000Z</time>
      </trkpt>
      <trkpt lat="43.73614" lon="7.02736">
        <ele>1149</ele>
        <time>2022-02-11T10:48:45.000Z</time>
      </trkpt>
      <trkpt lat="43.73614" lon="7.02736">
        <ele>1148.8000488281</ele>
        <time>2022-02-11T10:49:12.000Z</time>
      </trkpt>
      <trkpt lat="43.73613" lon="7.02736">
        <ele>1148.8000488281</ele>
        <time>2022-02-11T10:49:26.000Z</time>
      </trkpt>
      <trkpt lat="43.73613" lon="7.02736">
        <ele>1148.5999755859</ele>
        <time>2022-02-11T10:49:40.000Z</time>
      </trkpt>
      <trkpt lat="43.73612" lon="7.02736">
        <ele>1148.5999755859</ele>
        <time>2022-02-11T10:49:54.000Z</time>
      </trkpt>
      <trkpt lat="43.73608" lon="7.02734">
        <ele>1148.4000244141</ele>
        <time>2022-02-11T10:50:05.000Z</time>
      </trkpt>
      <trkpt lat="43.73596" lon="7.02733">
        <ele>1148</ele>
        <time>2022-02-11T10:50:12.000Z</time>
      </trkpt>
      <trkpt lat="43.73591" lon="7.02731">
        <ele>1147.5999755859</ele>
        <time>2022-02-11T10:50:14.000Z</time>
      </trkpt>
      <trkpt lat="43.73581" lon="7.02727">
        <ele>1147</ele>
        <time>2022-02-11T10:50:18.000Z</time>
      </trkpt>
      <trkpt lat="43.73578" lon="7.02726">
        <ele>1146.5999755859</ele>
        <time>2022-02-11T10:50:19.000Z</time>
      </trkpt>
      <trkpt lat="43.73567" lon="7.02721">
        <ele>1145.1999511719</ele>
        <time>2022-02-11T10:50:23.000Z</time>
      </trkpt>
      <trkpt lat="43.73563" lon="7.0272">
        <ele>1144.4000244141</ele>
        <time>2022-02-11T10:50:24.000Z</time>
      </trkpt>
      <trkpt lat="43.73559" lon="7.02719">
        <ele>1143.5999755859</ele>
        <time>2022-02-11T10:50:25.000Z</time>
      </trkpt>
      <trkpt lat="43.73554" lon="7.02718">
        <ele>1143</ele>
        <time>2022-02-11T10:50:26.000Z</time>
      </trkpt>
      <trkpt lat="43.73548" lon="7.02718">
        <ele>1142.4000244141</ele>
        <time>2022-02-11T10:50:27.000Z</time>
      </trkpt>
      <trkpt lat="43.73542" lon="7.02718">
        <ele>1141.8000488281</ele>
        <time>2022-02-11T10:50:28.000Z</time>
      </trkpt>
      <trkpt lat="43.73537" lon="7.02718">
        <ele>1140.5999755859</ele>
        <time>2022-02-11T10:50:29.000Z</time>
      </trkpt>
      <trkpt lat="43.73527" lon="7.02716">
        <ele>1138.8000488281</ele>
        <time>2022-02-11T10:50:31.000Z</time>
      </trkpt>
      <trkpt lat="43.73522" lon="7.02714">
        <ele>1137.8000488281</ele>
        <time>2022-02-11T10:50:32.000Z</time>
      </trkpt>
      <trkpt lat="43.73517" lon="7.02713">
        <ele>1137</ele>
        <time>2022-02-11T10:50:33.000Z</time>
      </trkpt>
      <trkpt lat="43.73511" lon="7.0271">
        <ele>1136.4000244141</ele>
        <time>2022-02-11T10:50:34.000Z</time>
      </trkpt>
      <trkpt lat="43.73504" lon="7.02707">
        <ele>1135.1999511719</ele>
        <time>2022-02-11T10:50:35.000Z</time>
      </trkpt>
      <trkpt lat="43.73491" lon="7.02701">
        <ele>1133.1999511719</ele>
        <time>2022-02-11T10:50:37.000Z</time>
      </trkpt>
      <trkpt lat="43.73472" lon="7.0269">
        <ele>1131.5999755859</ele>
        <time>2022-02-11T10:50:40.000Z</time>
      </trkpt>
      <trkpt lat="43.73466" lon="7.02688">
        <ele>1130.5999755859</ele>
        <time>2022-02-11T10:50:41.000Z</time>
      </trkpt>
      <trkpt lat="43.7346" lon="7.02686">
        <ele>1129.8000488281</ele>
        <time>2022-02-11T10:50:42.000Z</time>
      </trkpt>
      <trkpt lat="43.7345" lon="7.02682">
        <ele>1129.4000244141</ele>
        <time>2022-02-11T10:50:44.000Z</time>
      </trkpt>
      <trkpt lat="43.7344" lon="7.02681">
        <ele>1128.8000488281</ele>
        <time>2022-02-11T10:50:46.000Z</time>
      </trkpt>
      <trkpt lat="43.73429" lon="7.02678">
        <ele>1129.1999511719</ele>
        <time>2022-02-11T10:50:49.000Z</time>
      </trkpt>
      <trkpt lat="43.73417" lon="7.02674">
        <ele>1130</ele>
        <time>2022-02-11T10:50:52.000Z</time>
      </trkpt>
      <trkpt lat="43.73404" lon="7.0267">
        <ele>1130.8000488281</ele>
        <time>2022-02-11T10:50:56.000Z</time>
      </trkpt>
      <trkpt lat="43.73396" lon="7.02669">
        <ele>1131.4000244141</ele>
        <time>2022-02-11T10:50:59.000Z</time>
      </trkpt>
      <trkpt lat="43.73388" lon="7.0267">
        <ele>1132.4000244141</ele>
        <time>2022-02-11T10:51:02.000Z</time>
      </trkpt>
      <trkpt lat="43.73388" lon="7.0267">
        <ele>1132.5999755859</ele>
        <time>2022-02-11T10:51:03.000Z</time>
      </trkpt>
      <trkpt lat="43.73382" lon="7.0267">
        <ele>1133.8000488281</ele>
        <time>2022-02-11T10:51:05.000Z</time>
      </trkpt>
      <trkpt lat="43.73378" lon="7.0267">
        <ele>1134.8000488281</ele>
        <time>2022-02-11T10:51:07.000Z</time>
      </trkpt>
      <trkpt lat="43.73372" lon="7.02671">
        <ele>1136</ele>
        <time>2022-02-11T10:51:10.000Z</time>
      </trkpt>
      <trkpt lat="43.73371" lon="7.02671">
        <ele>1136.8000488281</ele>
        <time>2022-02-11T10:51:12.000Z</time>
      </trkpt>
      <trkpt lat="43.7337" lon="7.02672">
        <ele>1137.1999511719</ele>
        <time>2022-02-11T10:51:13.000Z</time>
      </trkpt>
      <trkpt lat="43.73369" lon="7.02672">
        <ele>1138.4000244141</ele>
        <time>2022-02-11T10:51:16.000Z</time>
      </trkpt>
      <trkpt lat="43.73368" lon="7.02672">
        <ele>1139.1999511719</ele>
        <time>2022-02-11T10:51:19.000Z</time>
      </trkpt>
      <trkpt lat="43.73366" lon="7.02673">
        <ele>1139.4000244141</ele>
        <time>2022-02-11T10:51:21.000Z</time>
      </trkpt>
      <trkpt lat="43.73363" lon="7.02674">
        <ele>1139.8000488281</ele>
        <time>2022-02-11T10:51:23.000Z</time>
      </trkpt>
      <trkpt lat="43.73361" lon="7.02673">
        <ele>1140.4000244141</ele>
        <time>2022-02-11T10:51:25.000Z</time>
      </trkpt>
      <trkpt lat="43.73358" lon="7.02674">
        <ele>1141.5999755859</ele>
        <time>2022-02-11T10:51:29.000Z</time>
      </trkpt>
      <trkpt lat="43.73357" lon="7.02675">
        <ele>1141.8000488281</ele>
        <time>2022-02-11T10:51:30.000Z</time>
      </trkpt>
      <trkpt lat="43.73354" lon="7.02675">
        <ele>1142.1999511719</ele>
        <time>2022-02-11T10:51:32.000Z</time>
      </trkpt>
      <trkpt lat="43.73352" lon="7.02676">
        <ele>1142.5999755859</ele>
        <time>2022-02-11T10:51:35.000Z</time>
      </trkpt>
      <trkpt lat="43.73344" lon="7.02678">
        <ele>1143.5999755859</ele>
        <time>2022-02-11T10:51:40.000Z</time>
      </trkpt>
      <trkpt lat="43.73337" lon="7.02683">
        <ele>1145</ele>
        <time>2022-02-11T10:51:44.000Z</time>
      </trkpt>
      <trkpt lat="43.73335" lon="7.02684">
        <ele>1145.1999511719</ele>
        <time>2022-02-11T10:51:45.000Z</time>
      </trkpt>
      <trkpt lat="43.73329" lon="7.02686">
        <ele>1146.1999511719</ele>
        <time>2022-02-11T10:51:48.000Z</time>
      </trkpt>
      <trkpt lat="43.73323" lon="7.02688">
        <ele>1146.5999755859</ele>
        <time>2022-02-11T10:51:51.000Z</time>
      </trkpt>
      <trkpt lat="43.73319" lon="7.02691">
        <ele>1147.4000244141</ele>
        <time>2022-02-11T10:51:54.000Z</time>
      </trkpt>
      <trkpt lat="43.73313" lon="7.02693">
        <ele>1148</ele>
        <time>2022-02-11T10:51:57.000Z</time>
      </trkpt>
      <trkpt lat="43.73307" lon="7.02694">
        <ele>1148.1999511719</ele>
        <time>2022-02-11T10:52:01.000Z</time>
      </trkpt>
      <trkpt lat="43.73303" lon="7.0269">
        <ele>1148.1999511719</ele>
        <time>2022-02-11T10:52:03.000Z</time>
      </trkpt>
      <trkpt lat="43.73303" lon="7.02689">
        <ele>1148.5999755859</ele>
        <time>2022-02-11T10:52:05.000Z</time>
      </trkpt>
      <trkpt lat="43.73303" lon="7.0269">
        <ele>1149.1999511719</ele>
        <time>2022-02-11T10:52:07.000Z</time>
      </trkpt>
      <trkpt lat="43.73303" lon="7.0269">
        <ele>1149.5999755859</ele>
        <time>2022-02-11T10:52:09.000Z</time>
      </trkpt>
      <trkpt lat="43.73303" lon="7.0269">
        <ele>1149.8000488281</ele>
        <time>2022-02-11T10:52:19.000Z</time>
      </trkpt>
      <trkpt lat="43.73301" lon="7.02692">
        <ele>1149.8000488281</ele>
        <time>2022-02-11T10:52:27.000Z</time>
      </trkpt>
      <trkpt lat="43.73296" lon="7.02694">
        <ele>1149.5999755859</ele>
        <time>2022-02-11T10:52:34.000Z</time>
      </trkpt>
      <trkpt lat="43.73291" lon="7.02693">
        <ele>1150.5999755859</ele>
        <time>2022-02-11T10:52:41.000Z</time>
      </trkpt>
      <trkpt lat="43.73285" lon="7.02694">
        <ele>1150.8000488281</ele>
        <time>2022-02-11T10:52:46.000Z</time>
      </trkpt>
      <trkpt lat="43.73268" lon="7.02691">
        <ele>1151</ele>
        <time>2022-02-11T10:52:53.000Z</time>
      </trkpt>
      <trkpt lat="43.73268" lon="7.02693">
        <ele>1151</ele>
        <time>2022-02-11T10:52:54.000Z</time>
      </trkpt>
      <trkpt lat="43.73261" lon="7.02691">
        <ele>1151.4000244141</ele>
        <time>2022-02-11T10:52:57.000Z</time>
      </trkpt>
      <trkpt lat="43.73259" lon="7.02688">
        <ele>1151.5999755859</ele>
        <time>2022-02-11T10:52:58.000Z</time>
      </trkpt>
      <trkpt lat="43.73257" lon="7.02688">
        <ele>1152</ele>
        <time>2022-02-11T10:52:59.000Z</time>
      </trkpt>
      <trkpt lat="43.73252" lon="7.02686">
        <ele>1153.1999511719</ele>
        <time>2022-02-11T10:53:02.000Z</time>
      </trkpt>
      <trkpt lat="43.73245" lon="7.02685">
        <ele>1154.4000244141</ele>
        <time>2022-02-11T10:53:05.000Z</time>
      </trkpt>
      <trkpt lat="43.73243" lon="7.02685">
        <ele>1154.1999511719</ele>
        <time>2022-02-11T10:53:06.000Z</time>
      </trkpt>
      <trkpt lat="43.73239" lon="7.02687">
        <ele>1154.4000244141</ele>
        <time>2022-02-11T10:53:08.000Z</time>
      </trkpt>
      <trkpt lat="43.73223" lon="7.02688">
        <ele>1155</ele>
        <time>2022-02-11T10:53:15.000Z</time>
      </trkpt>
      <trkpt lat="43.73207" lon="7.02689">
        <ele>1155</ele>
        <time>2022-02-11T10:53:22.000Z</time>
      </trkpt>
      <trkpt lat="43.73202" lon="7.02689">
        <ele>1155.4000244141</ele>
        <time>2022-02-11T10:53:25.000Z</time>
      </trkpt>
      <trkpt lat="43.732" lon="7.0269">
        <ele>1155.4000244141</ele>
        <time>2022-02-11T10:53:27.000Z</time>
      </trkpt>
      <trkpt lat="43.73199" lon="7.02691">
        <ele>1155</ele>
        <time>2022-02-11T10:53:32.000Z</time>
      </trkpt>
      <trkpt lat="43.73198" lon="7.02691">
        <ele>1154.8000488281</ele>
        <time>2022-02-11T10:53:40.000Z</time>
      </trkpt>
      <trkpt lat="43.73196" lon="7.0269">
        <ele>1154.8000488281</ele>
        <time>2022-02-11T10:53:44.000Z</time>
      </trkpt>
      <trkpt lat="43.73194" lon="7.02688">
        <ele>1155.1999511719</ele>
        <time>2022-02-11T10:53:48.000Z</time>
      </trkpt>
      <trkpt lat="43.73192" lon="7.02689">
        <ele>1156.1999511719</ele>
        <time>2022-02-11T10:53:54.000Z</time>
      </trkpt>
      <trkpt lat="43.73191" lon="7.02689">
        <ele>1156.4000244141</ele>
        <time>2022-02-11T10:53:56.000Z</time>
      </trkpt>
      <trkpt lat="43.73186" lon="7.02687">
        <ele>1157</ele>
        <time>2022-02-11T10:54:02.000Z</time>
      </trkpt>
      <trkpt lat="43.73184" lon="7.02685">
        <ele>1157.4000244141</ele>
        <time>2022-02-11T10:54:06.000Z</time>
      </trkpt>
      <trkpt lat="43.73182" lon="7.02685">
        <ele>1157.5999755859</ele>
        <time>2022-02-11T10:54:08.000Z</time>
      </trkpt>
      <trkpt lat="43.73182" lon="7.02683">
        <ele>1157.8000488281</ele>
        <time>2022-02-11T10:54:13.000Z</time>
      </trkpt>
      <trkpt lat="43.7318" lon="7.0268">
        <ele>1158.8000488281</ele>
        <time>2022-02-11T10:54:17.000Z</time>
      </trkpt>
      <trkpt lat="43.7318" lon="7.02679">
        <ele>1159.4000244141</ele>
        <time>2022-02-11T10:54:20.000Z</time>
      </trkpt>
      <trkpt lat="43.73179" lon="7.02679">
        <ele>1159.8000488281</ele>
        <time>2022-02-11T10:54:24.000Z</time>
      </trkpt>
      <trkpt lat="43.73179" lon="7.02679">
        <ele>1160</ele>
        <time>2022-02-11T10:54:29.000Z</time>
      </trkpt>
      <trkpt lat="43.73177" lon="7.02678">
        <ele>1160</ele>
        <time>2022-02-11T10:54:34.000Z</time>
      </trkpt>
      <trkpt lat="43.73172" lon="7.02675">
        <ele>1160.1999511719</ele>
        <time>2022-02-11T10:54:42.000Z</time>
      </trkpt>
      <trkpt lat="43.73164" lon="7.02669">
        <ele>1161</ele>
        <time>2022-02-11T10:54:46.000Z</time>
      </trkpt>
      <trkpt lat="43.7316" lon="7.02667">
        <ele>1161.5999755859</ele>
        <time>2022-02-11T10:54:48.000Z</time>
      </trkpt>
      <trkpt lat="43.73159" lon="7.02666">
        <ele>1162.4000244141</ele>
        <time>2022-02-11T10:54:49.000Z</time>
      </trkpt>
      <trkpt lat="43.73158" lon="7.02666">
        <ele>1163.8000488281</ele>
        <time>2022-02-11T10:54:51.000Z</time>
      </trkpt>
      <trkpt lat="43.73157" lon="7.02665">
        <ele>1165</ele>
        <time>2022-02-11T10:54:54.000Z</time>
      </trkpt>
      <trkpt lat="43.73153" lon="7.02667">
        <ele>1165</ele>
        <time>2022-02-11T10:54:58.000Z</time>
      </trkpt>
      <trkpt lat="43.73153" lon="7.02668">
        <ele>1164.8000488281</ele>
        <time>2022-02-11T10:55:02.000Z</time>
      </trkpt>
      <trkpt lat="43.73147" lon="7.02669">
        <ele>1164.5999755859</ele>
        <time>2022-02-11T10:55:06.000Z</time>
      </trkpt>
      <trkpt lat="43.73145" lon="7.02668">
        <ele>1164.5999755859</ele>
        <time>2022-02-11T10:55:07.000Z</time>
      </trkpt>
      <trkpt lat="43.73138" lon="7.02664">
        <ele>1165.8000488281</ele>
        <time>2022-02-11T10:55:13.000Z</time>
      </trkpt>
      <trkpt lat="43.73137" lon="7.02663">
        <ele>1166.1999511719</ele>
        <time>2022-02-11T10:55:14.000Z</time>
      </trkpt>
      <trkpt lat="43.73136" lon="7.02662">
        <ele>1167</ele>
        <time>2022-02-11T10:55:24.000Z</time>
      </trkpt>
      <trkpt lat="43.73135" lon="7.02661">
        <ele>1167.4000244141</ele>
        <time>2022-02-11T10:55:29.000Z</time>
      </trkpt>
      <trkpt lat="43.73134" lon="7.02661">
        <ele>1167.4000244141</ele>
        <time>2022-02-11T10:55:31.000Z</time>
      </trkpt>
      <trkpt lat="43.73134" lon="7.02658">
        <ele>1167.5999755859</ele>
        <time>2022-02-11T10:55:36.000Z</time>
      </trkpt>
      <trkpt lat="43.73135" lon="7.02655">
        <ele>1168.4000244141</ele>
        <time>2022-02-11T10:55:41.000Z</time>
      </trkpt>
      <trkpt lat="43.73136" lon="7.02653">
        <ele>1169.1999511719</ele>
        <time>2022-02-11T10:55:45.000Z</time>
      </trkpt>
      <trkpt lat="43.73137" lon="7.02652">
        <ele>1169.4000244141</ele>
        <time>2022-02-11T10:55:48.000Z</time>
      </trkpt>
      <trkpt lat="43.73137" lon="7.0265">
        <ele>1170.1999511719</ele>
        <time>2022-02-11T10:55:56.000Z</time>
      </trkpt>
      <trkpt lat="43.73137" lon="7.0265">
        <ele>1170.5999755859</ele>
        <time>2022-02-11T10:56:01.000Z</time>
      </trkpt>
      <trkpt lat="43.73137" lon="7.0265">
        <ele>1170.5999755859</ele>
        <time>2022-02-11T10:56:04.000Z</time>
      </trkpt>
      <trkpt lat="43.73134" lon="7.02649">
        <ele>1170.5999755859</ele>
        <time>2022-02-11T10:56:05.000Z</time>
      </trkpt>
      <trkpt lat="43.73131" lon="7.02646">
        <ele>1170.8000488281</ele>
        <time>2022-02-11T10:56:07.000Z</time>
      </trkpt>
      <trkpt lat="43.73125" lon="7.02643">
        <ele>1171.5999755859</ele>
        <time>2022-02-11T10:56:10.000Z</time>
      </trkpt>
      <trkpt lat="43.73118" lon="7.02634">
        <ele>1173</ele>
        <time>2022-02-11T10:56:14.000Z</time>
      </trkpt>
      <trkpt lat="43.73117" lon="7.02632">
        <ele>1173.4000244141</ele>
        <time>2022-02-11T10:56:15.000Z</time>
      </trkpt>
      <trkpt lat="43.73116" lon="7.0263">
        <ele>1174.1999511719</ele>
        <time>2022-02-11T10:56:17.000Z</time>
      </trkpt>
      <trkpt lat="43.73115" lon="7.0263">
        <ele>1175.4000244141</ele>
        <time>2022-02-11T10:56:19.000Z</time>
      </trkpt>
      <trkpt lat="43.73113" lon="7.0263">
        <ele>1176.4000244141</ele>
        <time>2022-02-11T10:56:21.000Z</time>
      </trkpt>
      <trkpt lat="43.73113" lon="7.0263">
        <ele>1176.5999755859</ele>
        <time>2022-02-11T10:56:22.000Z</time>
      </trkpt>
      <trkpt lat="43.73111" lon="7.02629">
        <ele>1177</ele>
        <time>2022-02-11T10:56:28.000Z</time>
      </trkpt>
      <trkpt lat="43.7311" lon="7.02627">
        <ele>1177</ele>
        <time>2022-02-11T10:56:30.000Z</time>
      </trkpt>
      <trkpt lat="43.73108" lon="7.02626">
        <ele>1177.1999511719</ele>
        <time>2022-02-11T10:56:32.000Z</time>
      </trkpt>
      <trkpt lat="43.73106" lon="7.02622">
        <ele>1177.4000244141</ele>
        <time>2022-02-11T10:56:34.000Z</time>
      </trkpt>
      <trkpt lat="43.73104" lon="7.0262">
        <ele>1177.5999755859</ele>
        <time>2022-02-11T10:56:35.000Z</time>
      </trkpt>
      <trkpt lat="43.73103" lon="7.02615">
        <ele>1178.1999511719</ele>
        <time>2022-02-11T10:56:37.000Z</time>
      </trkpt>
      <trkpt lat="43.73102" lon="7.02613">
        <ele>1178.5999755859</ele>
        <time>2022-02-11T10:56:38.000Z</time>
      </trkpt>
      <trkpt lat="43.73101" lon="7.02612">
        <ele>1179</ele>
        <time>2022-02-11T10:56:39.000Z</time>
      </trkpt>
      <trkpt lat="43.731" lon="7.02611">
        <ele>1180</ele>
        <time>2022-02-11T10:56:41.000Z</time>
      </trkpt>
      <trkpt lat="43.73099" lon="7.02612">
        <ele>1180.4000244141</ele>
        <time>2022-02-11T10:56:42.000Z</time>
      </trkpt>
      <trkpt lat="43.73096" lon="7.02611">
        <ele>1181</ele>
        <time>2022-02-11T10:56:44.000Z</time>
      </trkpt>
      <trkpt lat="43.73093" lon="7.02609">
        <ele>1181.1999511719</ele>
        <time>2022-02-11T10:56:46.000Z</time>
      </trkpt>
      <trkpt lat="43.73093" lon="7.02609">
        <ele>1181.5999755859</ele>
        <time>2022-02-11T10:56:48.000Z</time>
      </trkpt>
      <trkpt lat="43.73092" lon="7.02609">
        <ele>1181.8000488281</ele>
        <time>2022-02-11T10:56:50.000Z</time>
      </trkpt>
      <trkpt lat="43.73091" lon="7.02611">
        <ele>1182.4000244141</ele>
        <time>2022-02-11T10:57:01.000Z</time>
      </trkpt>
      <trkpt lat="43.73088" lon="7.02609">
        <ele>1182.5999755859</ele>
        <time>2022-02-11T10:57:06.000Z</time>
      </trkpt>
      <trkpt lat="43.73087" lon="7.02607">
        <ele>1182.8000488281</ele>
        <time>2022-02-11T10:57:08.000Z</time>
      </trkpt>
      <trkpt lat="43.73086" lon="7.02605">
        <ele>1183.5999755859</ele>
        <time>2022-02-11T10:57:14.000Z</time>
      </trkpt>
      <trkpt lat="43.73086" lon="7.02605">
        <ele>1183.5999755859</ele>
        <time>2022-02-11T10:57:15.000Z</time>
      </trkpt>
      <trkpt lat="43.73086" lon="7.02605">
        <ele>1184</ele>
        <time>2022-02-11T10:57:20.000Z</time>
      </trkpt>
      <trkpt lat="43.73086" lon="7.02605">
        <ele>1184.1999511719</ele>
        <time>2022-02-11T10:57:24.000Z</time>
      </trkpt>
      <trkpt lat="43.73084" lon="7.02602">
        <ele>1184</ele>
        <time>2022-02-11T10:57:29.000Z</time>
      </trkpt>
      <trkpt lat="43.73081" lon="7.02603">
        <ele>1184.8000488281</ele>
        <time>2022-02-11T10:57:34.000Z</time>
      </trkpt>
      <trkpt lat="43.7308" lon="7.02604">
        <ele>1185</ele>
        <time>2022-02-11T10:57:36.000Z</time>
      </trkpt>
      <trkpt lat="43.73079" lon="7.02604">
        <ele>1185.1999511719</ele>
        <time>2022-02-11T10:57:37.000Z</time>
      </trkpt>
      <trkpt lat="43.73074" lon="7.02602">
        <ele>1186</ele>
        <time>2022-02-11T10:57:44.000Z</time>
      </trkpt>
      <trkpt lat="43.73072" lon="7.02603">
        <ele>1186.4000244141</ele>
        <time>2022-02-11T10:57:47.000Z</time>
      </trkpt>
      <trkpt lat="43.73069" lon="7.02603">
        <ele>1186.5999755859</ele>
        <time>2022-02-11T10:57:52.000Z</time>
      </trkpt>
      <trkpt lat="43.73066" lon="7.02602">
        <ele>1187.1999511719</ele>
        <time>2022-02-11T10:57:59.000Z</time>
      </trkpt>
      <trkpt lat="43.73065" lon="7.02602">
        <ele>1187.1999511719</ele>
        <time>2022-02-11T10:58:00.000Z</time>
      </trkpt>
      <trkpt lat="43.7306" lon="7.02603">
        <ele>1187.4000244141</ele>
        <time>2022-02-11T10:58:08.000Z</time>
      </trkpt>
      <trkpt lat="43.73058" lon="7.02604">
        <ele>1187.5999755859</ele>
        <time>2022-02-11T10:58:15.000Z</time>
      </trkpt>
      <trkpt lat="43.73053" lon="7.02604">
        <ele>1188.1999511719</ele>
        <time>2022-02-11T10:58:23.000Z</time>
      </trkpt>
      <trkpt lat="43.73051" lon="7.02602">
        <ele>1188.4000244141</ele>
        <time>2022-02-11T10:58:28.000Z</time>
      </trkpt>
      <trkpt lat="43.73046" lon="7.02602">
        <ele>1189.1999511719</ele>
        <time>2022-02-11T10:58:33.000Z</time>
      </trkpt>
      <trkpt lat="43.73046" lon="7.02603">
        <ele>1189.4000244141</ele>
        <time>2022-02-11T10:58:35.000Z</time>
      </trkpt>
      <trkpt lat="43.73046" lon="7.02603">
        <ele>1189.5999755859</ele>
        <time>2022-02-11T10:58:43.000Z</time>
      </trkpt>
      <trkpt lat="43.73046" lon="7.02603">
        <ele>1189.5999755859</ele>
        <time>2022-02-11T10:58:53.000Z</time>
      </trkpt>
      <trkpt lat="43.73046" lon="7.02602">
        <ele>1189.4000244141</ele>
        <time>2022-02-11T10:59:00.000Z</time>
      </trkpt>
      <trkpt lat="43.73047" lon="7.02601">
        <ele>1189</ele>
        <time>2022-02-11T10:59:06.000Z</time>
      </trkpt>
      <trkpt lat="43.73046" lon="7.02603">
        <ele>1188.8000488281</ele>
        <time>2022-02-11T10:59:14.000Z</time>
      </trkpt>
      <trkpt lat="43.73046" lon="7.02603">
        <ele>1188.8000488281</ele>
        <time>2022-02-11T10:59:18.000Z</time>
      </trkpt>
      <trkpt lat="43.73045" lon="7.02604">
        <ele>1189.4000244141</ele>
        <time>2022-02-11T10:59:25.000Z</time>
      </trkpt>
      <trkpt lat="43.73043" lon="7.02606">
        <ele>1189.5999755859</ele>
        <time>2022-02-11T10:59:31.000Z</time>
      </trkpt>
      <trkpt lat="43.73043" lon="7.02603">
        <ele>1189.8000488281</ele>
        <time>2022-02-11T10:59:40.000Z</time>
      </trkpt>
      <trkpt lat="43.73042" lon="7.02602">
        <ele>1190.1999511719</ele>
        <time>2022-02-11T10:59:51.000Z</time>
      </trkpt>
      <trkpt lat="43.73039" lon="7.02602">
        <ele>1191.1999511719</ele>
        <time>2022-02-11T10:59:59.000Z</time>
      </trkpt>
      <trkpt lat="43.73036" lon="7.02603">
        <ele>1192</ele>
        <time>2022-02-11T11:00:07.000Z</time>
      </trkpt>
      <trkpt lat="43.73035" lon="7.02603">
        <ele>1192.1999511719</ele>
        <time>2022-02-11T11:00:09.000Z</time>
      </trkpt>
      <trkpt lat="43.73032" lon="7.02601">
        <ele>1193</ele>
        <time>2022-02-11T11:00:16.000Z</time>
      </trkpt>
      <trkpt lat="43.73031" lon="7.026">
        <ele>1193.4000244141</ele>
        <time>2022-02-11T11:00:19.000Z</time>
      </trkpt>
      <trkpt lat="43.73029" lon="7.02599">
        <ele>1194</ele>
        <time>2022-02-11T11:00:24.000Z</time>
      </trkpt>
      <trkpt lat="43.73027" lon="7.02599">
        <ele>1194.4000244141</ele>
        <time>2022-02-11T11:00:26.000Z</time>
      </trkpt>
      <trkpt lat="43.73024" lon="7.02602">
        <ele>1195</ele>
        <time>2022-02-11T11:00:31.000Z</time>
      </trkpt>
      <trkpt lat="43.7302" lon="7.02602">
        <ele>1195.5999755859</ele>
        <time>2022-02-11T11:00:38.000Z</time>
      </trkpt>
      <trkpt lat="43.7302" lon="7.02602">
        <ele>1195.5999755859</ele>
        <time>2022-02-11T11:00:39.000Z</time>
      </trkpt>
      <trkpt lat="43.73017" lon="7.02601">
        <ele>1196.5999755859</ele>
        <time>2022-02-11T11:00:45.000Z</time>
      </trkpt>
      <trkpt lat="43.73015" lon="7.026">
        <ele>1197.4000244141</ele>
        <time>2022-02-11T11:00:55.000Z</time>
      </trkpt>
      <trkpt lat="43.73014" lon="7.026">
        <ele>1197.5999755859</ele>
        <time>2022-02-11T11:00:57.000Z</time>
      </trkpt>
      <trkpt lat="43.73012" lon="7.02599">
        <ele>1198.1999511719</ele>
        <time>2022-02-11T11:01:03.000Z</time>
      </trkpt>
      <trkpt lat="43.7301" lon="7.02598">
        <ele>1198.5999755859</ele>
        <time>2022-02-11T11:01:08.000Z</time>
      </trkpt>
      <trkpt lat="43.7301" lon="7.02598">
        <ele>1198.5999755859</ele>
        <time>2022-02-11T11:01:09.000Z</time>
      </trkpt>
      <trkpt lat="43.73006" lon="7.02595">
        <ele>1199.1999511719</ele>
        <time>2022-02-11T11:01:16.000Z</time>
      </trkpt>
      <trkpt lat="43.73004" lon="7.02593">
        <ele>1199.5999755859</ele>
        <time>2022-02-11T11:01:22.000Z</time>
      </trkpt>
      <trkpt lat="43.73004" lon="7.02592">
        <ele>1199.8000488281</ele>
        <time>2022-02-11T11:01:23.000Z</time>
      </trkpt>
      <trkpt lat="43.73004" lon="7.02593">
        <ele>1199.5999755859</ele>
        <time>2022-02-11T11:01:28.000Z</time>
      </trkpt>
      <trkpt lat="43.73003" lon="7.02593">
        <ele>1199.1999511719</ele>
        <time>2022-02-11T11:01:41.000Z</time>
      </trkpt>
      <trkpt lat="43.73001" lon="7.02593">
        <ele>1199.8000488281</ele>
        <time>2022-02-11T11:01:48.000Z</time>
      </trkpt>
      <trkpt lat="43.72999" lon="7.02595">
        <ele>1199.8000488281</ele>
        <time>2022-02-11T11:02:00.000Z</time>
      </trkpt>
      <trkpt lat="43.72989" lon="7.02604">
        <ele>1200.4000244141</ele>
        <time>2022-02-11T11:02:07.000Z</time>
      </trkpt>
      <trkpt lat="43.72985" lon="7.02604">
        <ele>1200.5999755859</ele>
        <time>2022-02-11T11:02:09.000Z</time>
      </trkpt>
      <trkpt lat="43.72983" lon="7.02602">
        <ele>1200.8000488281</ele>
        <time>2022-02-11T11:02:11.000Z</time>
      </trkpt>
      <trkpt lat="43.72983" lon="7.026">
        <ele>1201</ele>
        <time>2022-02-11T11:02:12.000Z</time>
      </trkpt>
      <trkpt lat="43.72983" lon="7.02596">
        <ele>1201.8000488281</ele>
        <time>2022-02-11T11:02:15.000Z</time>
      </trkpt>
      <trkpt lat="43.72982" lon="7.02594">
        <ele>1202.8000488281</ele>
        <time>2022-02-11T11:02:20.000Z</time>
      </trkpt>
      <trkpt lat="43.72981" lon="7.02593">
        <ele>1202.8000488281</ele>
        <time>2022-02-11T11:02:21.000Z</time>
      </trkpt>
      <trkpt lat="43.72978" lon="7.02589">
        <ele>1203.1999511719</ele>
        <time>2022-02-11T11:02:27.000Z</time>
      </trkpt>
      <trkpt lat="43.72978" lon="7.02589">
        <ele>1203.1999511719</ele>
        <time>2022-02-11T11:02:32.000Z</time>
      </trkpt>
      <trkpt lat="43.72978" lon="7.02589">
        <ele>1203.4000244141</ele>
        <time>2022-02-11T11:02:40.000Z</time>
      </trkpt>
      <trkpt lat="43.72978" lon="7.02585">
        <ele>1203.1999511719</ele>
        <time>2022-02-11T11:02:50.000Z</time>
      </trkpt>
      <trkpt lat="43.72976" lon="7.02582">
        <ele>1203.5999755859</ele>
        <time>2022-02-11T11:02:56.000Z</time>
      </trkpt>
      <trkpt lat="43.72976" lon="7.02581">
        <ele>1204</ele>
        <time>2022-02-11T11:02:58.000Z</time>
      </trkpt>
      <trkpt lat="43.72974" lon="7.0258">
        <ele>1205</ele>
        <time>2022-02-11T11:03:04.000Z</time>
      </trkpt>
      <trkpt lat="43.72974" lon="7.0258">
        <ele>1205</ele>
        <time>2022-02-11T11:03:05.000Z</time>
      </trkpt>
      <trkpt lat="43.72972" lon="7.02578">
        <ele>1205.8000488281</ele>
        <time>2022-02-11T11:03:12.000Z</time>
      </trkpt>
      <trkpt lat="43.72971" lon="7.02577">
        <ele>1206.1999511719</ele>
        <time>2022-02-11T11:03:15.000Z</time>
      </trkpt>
      <trkpt lat="43.7297" lon="7.02573">
        <ele>1206.8000488281</ele>
        <time>2022-02-11T11:03:19.000Z</time>
      </trkpt>
      <trkpt lat="43.72969" lon="7.02571">
        <ele>1207.1999511719</ele>
        <time>2022-02-11T11:03:22.000Z</time>
      </trkpt>
      <trkpt lat="43.72968" lon="7.02569">
        <ele>1208</ele>
        <time>2022-02-11T11:03:27.000Z</time>
      </trkpt>
      <trkpt lat="43.72968" lon="7.02568">
        <ele>1208.1999511719</ele>
        <time>2022-02-11T11:03:28.000Z</time>
      </trkpt>
      <trkpt lat="43.72967" lon="7.02564">
        <ele>1208.8000488281</ele>
        <time>2022-02-11T11:03:35.000Z</time>
      </trkpt>
      <trkpt lat="43.72966" lon="7.02564">
        <ele>1209</ele>
        <time>2022-02-11T11:03:46.000Z</time>
      </trkpt>
      <trkpt lat="43.72962" lon="7.02561">
        <ele>1209.1999511719</ele>
        <time>2022-02-11T11:03:52.000Z</time>
      </trkpt>
      <trkpt lat="43.72961" lon="7.0256">
        <ele>1209.1999511719</ele>
        <time>2022-02-11T11:03:53.000Z</time>
      </trkpt>
      <trkpt lat="43.72958" lon="7.02553">
        <ele>1210</ele>
        <time>2022-02-11T11:03:57.000Z</time>
      </trkpt>
      <trkpt lat="43.72956" lon="7.02552">
        <ele>1210.1999511719</ele>
        <time>2022-02-11T11:03:59.000Z</time>
      </trkpt>
      <trkpt lat="43.72953" lon="7.02548">
        <ele>1210.1999511719</ele>
        <time>2022-02-11T11:04:02.000Z</time>
      </trkpt>
      <trkpt lat="43.72952" lon="7.02546">
        <ele>1210.1999511719</ele>
        <time>2022-02-11T11:04:03.000Z</time>
      </trkpt>
      <trkpt lat="43.7295" lon="7.02545">
        <ele>1210.4000244141</ele>
        <time>2022-02-11T11:04:04.000Z</time>
      </trkpt>
      <trkpt lat="43.72951" lon="7.02544">
        <ele>1210.8000488281</ele>
        <time>2022-02-11T11:04:07.000Z</time>
      </trkpt>
      <trkpt lat="43.72951" lon="7.02539">
        <ele>1211.4000244141</ele>
        <time>2022-02-11T11:04:10.000Z</time>
      </trkpt>
      <trkpt lat="43.7295" lon="7.02538">
        <ele>1211.5999755859</ele>
        <time>2022-02-11T11:04:11.000Z</time>
      </trkpt>
      <trkpt lat="43.72949" lon="7.02535">
        <ele>1211.8000488281</ele>
        <time>2022-02-11T11:04:12.000Z</time>
      </trkpt>
      <trkpt lat="43.72948" lon="7.0253">
        <ele>1212.4000244141</ele>
        <time>2022-02-11T11:04:14.000Z</time>
      </trkpt>
      <trkpt lat="43.72948" lon="7.02527">
        <ele>1212.5999755859</ele>
        <time>2022-02-11T11:04:15.000Z</time>
      </trkpt>
      <trkpt lat="43.72949" lon="7.02522">
        <ele>1213.4000244141</ele>
        <time>2022-02-11T11:04:17.000Z</time>
      </trkpt>
      <trkpt lat="43.7295" lon="7.02519">
        <ele>1213.8000488281</ele>
        <time>2022-02-11T11:04:18.000Z</time>
      </trkpt>
      <trkpt lat="43.72951" lon="7.02516">
        <ele>1214.5999755859</ele>
        <time>2022-02-11T11:04:20.000Z</time>
      </trkpt>
      <trkpt lat="43.72951" lon="7.02516">
        <ele>1215.1999511719</ele>
        <time>2022-02-11T11:04:22.000Z</time>
      </trkpt>
      <trkpt lat="43.72951" lon="7.02514">
        <ele>1215.8000488281</ele>
        <time>2022-02-11T11:04:23.000Z</time>
      </trkpt>
      <trkpt lat="43.72951" lon="7.02515">
        <ele>1217</ele>
        <time>2022-02-11T11:04:26.000Z</time>
      </trkpt>
      <trkpt lat="43.72951" lon="7.02514">
        <ele>1217</ele>
        <time>2022-02-11T11:04:27.000Z</time>
      </trkpt>
      <trkpt lat="43.72951" lon="7.02513">
        <ele>1217</ele>
        <time>2022-02-11T11:04:28.000Z</time>
      </trkpt>
      <trkpt lat="43.72951" lon="7.02498">
        <ele>1217.8000488281</ele>
        <time>2022-02-11T11:04:33.000Z</time>
      </trkpt>
      <trkpt lat="43.72951" lon="7.02495">
        <ele>1218.1999511719</ele>
        <time>2022-02-11T11:04:34.000Z</time>
      </trkpt>
      <trkpt lat="43.7295" lon="7.02488">
        <ele>1219.5999755859</ele>
        <time>2022-02-11T11:04:37.000Z</time>
      </trkpt>
      <trkpt lat="43.72949" lon="7.0248">
        <ele>1220.5999755859</ele>
        <time>2022-02-11T11:04:40.000Z</time>
      </trkpt>
      <trkpt lat="43.72948" lon="7.02476">
        <ele>1221.1999511719</ele>
        <time>2022-02-11T11:04:41.000Z</time>
      </trkpt>
      <trkpt lat="43.72948" lon="7.02467">
        <ele>1222.4000244141</ele>
        <time>2022-02-11T11:04:44.000Z</time>
      </trkpt>
      <trkpt lat="43.72949" lon="7.02461">
        <ele>1223</ele>
        <time>2022-02-11T11:04:46.000Z</time>
      </trkpt>
      <trkpt lat="43.72948" lon="7.02459">
        <ele>1223.4000244141</ele>
        <time>2022-02-11T11:04:47.000Z</time>
      </trkpt>
      <trkpt lat="43.72945" lon="7.02452">
        <ele>1224.5999755859</ele>
        <time>2022-02-11T11:04:50.000Z</time>
      </trkpt>
      <trkpt lat="43.72945" lon="7.02451">
        <ele>1225.8000488281</ele>
        <time>2022-02-11T11:04:53.000Z</time>
      </trkpt>
      <trkpt lat="43.72945" lon="7.0245">
        <ele>1227</ele>
        <time>2022-02-11T11:04:55.000Z</time>
      </trkpt>
      <trkpt lat="43.72945" lon="7.02448">
        <ele>1227.8000488281</ele>
        <time>2022-02-11T11:05:05.000Z</time>
      </trkpt>
      <trkpt lat="43.72945" lon="7.02444">
        <ele>1228</ele>
        <time>2022-02-11T11:05:09.000Z</time>
      </trkpt>
      <trkpt lat="43.72945" lon="7.02441">
        <ele>1228.8000488281</ele>
        <time>2022-02-11T11:05:14.000Z</time>
      </trkpt>
      <trkpt lat="43.72944" lon="7.0244">
        <ele>1229.1999511719</ele>
        <time>2022-02-11T11:05:17.000Z</time>
      </trkpt>
      <trkpt lat="43.72943" lon="7.02439">
        <ele>1230</ele>
        <time>2022-02-11T11:05:23.000Z</time>
      </trkpt>
      <trkpt lat="43.72939" lon="7.02439">
        <ele>1230</ele>
        <time>2022-02-11T11:05:34.000Z</time>
      </trkpt>
      <trkpt lat="43.72938" lon="7.02439">
        <ele>1230.4000244141</ele>
        <time>2022-02-11T11:05:36.000Z</time>
      </trkpt>
      <trkpt lat="43.72936" lon="7.02439">
        <ele>1231.4000244141</ele>
        <time>2022-02-11T11:05:41.000Z</time>
      </trkpt>
      <trkpt lat="43.72936" lon="7.0244">
        <ele>1232</ele>
        <time>2022-02-11T11:05:51.000Z</time>
      </trkpt>
      <trkpt lat="43.72933" lon="7.02442">
        <ele>1232</ele>
        <time>2022-02-11T11:05:58.000Z</time>
      </trkpt>
      <trkpt lat="43.72929" lon="7.02443">
        <ele>1232.5999755859</ele>
        <time>2022-02-11T11:06:06.000Z</time>
      </trkpt>
      <trkpt lat="43.72925" lon="7.02442">
        <ele>1233.5999755859</ele>
        <time>2022-02-11T11:06:14.000Z</time>
      </trkpt>
      <trkpt lat="43.72923" lon="7.02443">
        <ele>1233.8000488281</ele>
        <time>2022-02-11T11:06:24.000Z</time>
      </trkpt>
      <trkpt lat="43.72919" lon="7.02444">
        <ele>1234.1999511719</ele>
        <time>2022-02-11T11:06:31.000Z</time>
      </trkpt>
      <trkpt lat="43.72917" lon="7.02444">
        <ele>1234.5999755859</ele>
        <time>2022-02-11T11:06:36.000Z</time>
      </trkpt>
      <trkpt lat="43.72917" lon="7.02444">
        <ele>1234.5999755859</ele>
        <time>2022-02-11T11:06:38.000Z</time>
      </trkpt>
      <trkpt lat="43.72918" lon="7.02445">
        <ele>1233.8000488281</ele>
        <time>2022-02-11T11:06:56.000Z</time>
      </trkpt>
      <trkpt lat="43.72918" lon="7.02445">
        <ele>1234.1999511719</ele>
        <time>2022-02-11T11:07:02.000Z</time>
      </trkpt>
      <trkpt lat="43.72918" lon="7.02445">
        <ele>1234.1999511719</ele>
        <time>2022-02-11T11:07:03.000Z</time>
      </trkpt>
      <trkpt lat="43.72919" lon="7.02445">
        <ele>1233.5999755859</ele>
        <time>2022-02-11T11:07:09.000Z</time>
      </trkpt>
      <trkpt lat="43.72919" lon="7.02445">
        <ele>1233.4000244141</ele>
        <time>2022-02-11T11:07:10.000Z</time>
      </trkpt>
      <trkpt lat="43.72919" lon="7.02445">
        <ele>1233.4000244141</ele>
        <time>2022-02-11T11:07:15.000Z</time>
      </trkpt>
      <trkpt lat="43.72918" lon="7.02446">
        <ele>1233.1999511719</ele>
        <time>2022-02-11T11:07:29.000Z</time>
      </trkpt>
      <trkpt lat="43.72918" lon="7.02447">
        <ele>1233.5999755859</ele>
        <time>2022-02-11T11:07:45.000Z</time>
      </trkpt>
      <trkpt lat="43.72918" lon="7.02447">
        <ele>1233.5999755859</ele>
        <time>2022-02-11T11:07:52.000Z</time>
      </trkpt>
      <trkpt lat="43.72916" lon="7.02446">
        <ele>1233.5999755859</ele>
        <time>2022-02-11T11:08:08.000Z</time>
      </trkpt>
      <trkpt lat="43.72911" lon="7.02453">
        <ele>1234.4000244141</ele>
        <time>2022-02-11T11:08:16.000Z</time>
      </trkpt>
      <trkpt lat="43.7291" lon="7.02457">
        <ele>1233.1999511719</ele>
        <time>2022-02-11T11:08:23.000Z</time>
      </trkpt>
      <trkpt lat="43.7291" lon="7.02457">
        <ele>1232.4000244141</ele>
        <time>2022-02-11T11:08:31.000Z</time>
      </trkpt>
      <trkpt lat="43.7291" lon="7.02457">
        <ele>1232.4000244141</ele>
        <time>2022-02-11T11:08:32.000Z</time>
      </trkpt>
      <trkpt lat="43.7291" lon="7.02456">
        <ele>1232.5999755859</ele>
        <time>2022-02-11T11:08:48.000Z</time>
      </trkpt>
      <trkpt lat="43.7291" lon="7.02455">
        <ele>1232.4000244141</ele>
        <time>2022-02-11T11:09:19.000Z</time>
      </trkpt>
      <trkpt lat="43.72908" lon="7.02453">
        <ele>1232.5999755859</ele>
        <time>2022-02-11T11:09:27.000Z</time>
      </trkpt>
      <trkpt lat="43.72905" lon="7.0245">
        <ele>1233.4000244141</ele>
        <time>2022-02-11T11:09:34.000Z</time>
      </trkpt>
      <trkpt lat="43.72904" lon="7.0245">
        <ele>1233.5999755859</ele>
        <time>2022-02-11T11:09:35.000Z</time>
      </trkpt>
      <trkpt lat="43.72901" lon="7.02446">
        <ele>1234.5999755859</ele>
        <time>2022-02-11T11:09:42.000Z</time>
      </trkpt>
      <trkpt lat="43.72899" lon="7.02443">
        <ele>1235.8000488281</ele>
        <time>2022-02-11T11:09:47.000Z</time>
      </trkpt>
      <trkpt lat="43.72898" lon="7.0244">
        <ele>1236.4000244141</ele>
        <time>2022-02-11T11:09:51.000Z</time>
      </trkpt>
      <trkpt lat="43.72898" lon="7.02438">
        <ele>1236.8000488281</ele>
        <time>2022-02-11T11:09:53.000Z</time>
      </trkpt>
      <trkpt lat="43.72898" lon="7.02435">
        <ele>1237.5999755859</ele>
        <time>2022-02-11T11:09:58.000Z</time>
      </trkpt>
      <trkpt lat="43.72898" lon="7.02435">
        <ele>1237.8000488281</ele>
        <time>2022-02-11T11:09:59.000Z</time>
      </trkpt>
      <trkpt lat="43.72897" lon="7.02431">
        <ele>1238.4000244141</ele>
        <time>2022-02-11T11:10:05.000Z</time>
      </trkpt>
      <trkpt lat="43.72895" lon="7.0243">
        <ele>1238.8000488281</ele>
        <time>2022-02-11T11:10:08.000Z</time>
      </trkpt>
      <trkpt lat="43.72892" lon="7.02428">
        <ele>1239.4000244141</ele>
        <time>2022-02-11T11:10:12.000Z</time>
      </trkpt>
      <trkpt lat="43.72891" lon="7.02426">
        <ele>1240</ele>
        <time>2022-02-11T11:10:16.000Z</time>
      </trkpt>
      <trkpt lat="43.72889" lon="7.02423">
        <ele>1240.5999755859</ele>
        <time>2022-02-11T11:10:20.000Z</time>
      </trkpt>
      <trkpt lat="43.72889" lon="7.02421">
        <ele>1241</ele>
        <time>2022-02-11T11:10:22.000Z</time>
      </trkpt>
      <trkpt lat="43.72886" lon="7.02419">
        <ele>1242.1999511719</ele>
        <time>2022-02-11T11:10:27.000Z</time>
      </trkpt>
      <trkpt lat="43.72885" lon="7.02419">
        <ele>1242.1999511719</ele>
        <time>2022-02-11T11:10:28.000Z</time>
      </trkpt>
      <trkpt lat="43.72883" lon="7.02421">
        <ele>1242.5999755859</ele>
        <time>2022-02-11T11:10:35.000Z</time>
      </trkpt>
      <trkpt lat="43.72883" lon="7.02421">
        <ele>1242.5999755859</ele>
        <time>2022-02-11T11:10:49.000Z</time>
      </trkpt>
      <trkpt lat="43.72883" lon="7.0242">
        <ele>1242</ele>
        <time>2022-02-11T11:10:57.000Z</time>
      </trkpt>
      <trkpt lat="43.72883" lon="7.0242">
        <ele>1242.5999755859</ele>
        <time>2022-02-11T11:11:19.000Z</time>
      </trkpt>
      <trkpt lat="43.72883" lon="7.0242">
        <ele>1242.4000244141</ele>
        <time>2022-02-11T11:11:29.000Z</time>
      </trkpt>
      <trkpt lat="43.72883" lon="7.0242">
        <ele>1242.8000488281</ele>
        <time>2022-02-11T11:11:37.000Z</time>
      </trkpt>
      <trkpt lat="43.72883" lon="7.02421">
        <ele>1242.8000488281</ele>
        <time>2022-02-11T11:11:55.000Z</time>
      </trkpt>
      <trkpt lat="43.72883" lon="7.02421">
        <ele>1242</ele>
        <time>2022-02-11T11:12:03.000Z</time>
      </trkpt>
      <trkpt lat="43.72883" lon="7.02421">
        <ele>1242.5999755859</ele>
        <time>2022-02-11T11:12:14.000Z</time>
      </trkpt>
      <trkpt lat="43.72883" lon="7.02422">
        <ele>1242.5999755859</ele>
        <time>2022-02-11T11:12:20.000Z</time>
      </trkpt>
      <trkpt lat="43.7288" lon="7.02422">
        <ele>1243</ele>
        <time>2022-02-11T11:12:26.000Z</time>
      </trkpt>
      <trkpt lat="43.72869" lon="7.02425">
        <ele>1242.8000488281</ele>
        <time>2022-02-11T11:12:31.000Z</time>
      </trkpt>
      <trkpt lat="43.72858" lon="7.02427">
        <ele>1242.4000244141</ele>
        <time>2022-02-11T11:12:36.000Z</time>
      </trkpt>
      <trkpt lat="43.72847" lon="7.02431">
        <ele>1242.1999511719</ele>
        <time>2022-02-11T11:12:41.000Z</time>
      </trkpt>
      <trkpt lat="43.72836" lon="7.02433">
        <ele>1242.1999511719</ele>
        <time>2022-02-11T11:12:47.000Z</time>
      </trkpt>
      <trkpt lat="43.72829" lon="7.02434">
        <ele>1242.5999755859</ele>
        <time>2022-02-11T11:12:53.000Z</time>
      </trkpt>
      <trkpt lat="43.7282" lon="7.02434">
        <ele>1242.4000244141</ele>
        <time>2022-02-11T11:13:00.000Z</time>
      </trkpt>
      <trkpt lat="43.7282" lon="7.02433">
        <ele>1242.5999755859</ele>
        <time>2022-02-11T11:13:09.000Z</time>
      </trkpt>
      <trkpt lat="43.72826" lon="7.02433">
        <ele>1242.5999755859</ele>
        <time>2022-02-11T11:13:16.000Z</time>
      </trkpt>
      <trkpt lat="43.7283" lon="7.02434">
        <ele>1242.1999511719</ele>
        <time>2022-02-11T11:13:21.000Z</time>
      </trkpt>
      <trkpt lat="43.72831" lon="7.02434">
        <ele>1241.8000488281</ele>
        <time>2022-02-11T11:13:26.000Z</time>
      </trkpt>
      <trkpt lat="43.72831" lon="7.02435">
        <ele>1242.1999511719</ele>
        <time>2022-02-11T11:13:39.000Z</time>
      </trkpt>
      <trkpt lat="43.72831" lon="7.02435">
        <ele>1242</ele>
        <time>2022-02-11T11:13:50.000Z</time>
      </trkpt>
      <trkpt lat="43.72831" lon="7.02436">
        <ele>1242.5999755859</ele>
        <time>2022-02-11T11:14:00.000Z</time>
      </trkpt>
      <trkpt lat="43.7283" lon="7.02436">
        <ele>1242.4000244141</ele>
        <time>2022-02-11T11:14:09.000Z</time>
      </trkpt>
      <trkpt lat="43.7283" lon="7.02436">
        <ele>1242.5999755859</ele>
        <time>2022-02-11T11:14:16.000Z</time>
      </trkpt>
      <trkpt lat="43.72829" lon="7.02436">
        <ele>1242.4000244141</ele>
        <time>2022-02-11T11:14:24.000Z</time>
      </trkpt>
      <trkpt lat="43.72826" lon="7.02435">
        <ele>1242.1999511719</ele>
        <time>2022-02-11T11:14:30.000Z</time>
      </trkpt>
      <trkpt lat="43.72823" lon="7.02434">
        <ele>1243</ele>
        <time>2022-02-11T11:14:36.000Z</time>
      </trkpt>
      <trkpt lat="43.7281" lon="7.02434">
        <ele>1243</ele>
        <time>2022-02-11T11:14:42.000Z</time>
      </trkpt>
      <trkpt lat="43.72795" lon="7.02429">
        <ele>1243.1999511719</ele>
        <time>2022-02-11T11:14:49.000Z</time>
      </trkpt>
      <trkpt lat="43.72785" lon="7.02421">
        <ele>1244</ele>
        <time>2022-02-11T11:14:54.000Z</time>
      </trkpt>
      <trkpt lat="43.72778" lon="7.02405">
        <ele>1244</ele>
        <time>2022-02-11T11:15:00.000Z</time>
      </trkpt>
      <trkpt lat="43.72779" lon="7.02392">
        <ele>1244</ele>
        <time>2022-02-11T11:15:06.000Z</time>
      </trkpt>
      <trkpt lat="43.72781" lon="7.02386">
        <ele>1244</ele>
        <time>2022-02-11T11:15:11.000Z</time>
      </trkpt>
      <trkpt lat="43.72781" lon="7.02384">
        <ele>1244</ele>
        <time>2022-02-11T11:15:15.000Z</time>
      </trkpt>
      <trkpt lat="43.72781" lon="7.02376">
        <ele>1243.4000244141</ele>
        <time>2022-02-11T11:15:22.000Z</time>
      </trkpt>
      <trkpt lat="43.7278" lon="7.02373">
        <ele>1243.4000244141</ele>
        <time>2022-02-11T11:15:25.000Z</time>
      </trkpt>
      <trkpt lat="43.72779" lon="7.0237">
        <ele>1243.4000244141</ele>
        <time>2022-02-11T11:15:28.000Z</time>
      </trkpt>
      <trkpt lat="43.72777" lon="7.02368">
        <ele>1243.4000244141</ele>
        <time>2022-02-11T11:15:30.000Z</time>
      </trkpt>
      <trkpt lat="43.72776" lon="7.02368">
        <ele>1243.8000488281</ele>
        <time>2022-02-11T11:15:34.000Z</time>
      </trkpt>
      <trkpt lat="43.72771" lon="7.02359">
        <ele>1244</ele>
        <time>2022-02-11T11:15:38.000Z</time>
      </trkpt>
      <trkpt lat="43.72771" lon="7.02357">
        <ele>1244.1999511719</ele>
        <time>2022-02-11T11:15:39.000Z</time>
      </trkpt>
      <trkpt lat="43.72767" lon="7.02342">
        <ele>1245.4000244141</ele>
        <time>2022-02-11T11:15:44.000Z</time>
      </trkpt>
      <trkpt lat="43.72767" lon="7.02336">
        <ele>1245.8000488281</ele>
        <time>2022-02-11T11:15:46.000Z</time>
      </trkpt>
      <trkpt lat="43.72768" lon="7.02332">
        <ele>1246.5999755859</ele>
        <time>2022-02-11T11:15:48.000Z</time>
      </trkpt>
      <trkpt lat="43.72768" lon="7.02332">
        <ele>1247.5999755859</ele>
        <time>2022-02-11T11:15:52.000Z</time>
      </trkpt>
      <trkpt lat="43.7277" lon="7.02329">
        <ele>1248.1999511719</ele>
        <time>2022-02-11T11:15:57.000Z</time>
      </trkpt>
      <trkpt lat="43.72773" lon="7.02327">
        <ele>1248.8000488281</ele>
        <time>2022-02-11T11:16:01.000Z</time>
      </trkpt>
      <trkpt lat="43.72773" lon="7.02327">
        <ele>1249.1999511719</ele>
        <time>2022-02-11T11:16:04.000Z</time>
      </trkpt>
      <trkpt lat="43.72776" lon="7.02323">
        <ele>1250</ele>
        <time>2022-02-11T11:16:10.000Z</time>
      </trkpt>
      <trkpt lat="43.72777" lon="7.02322">
        <ele>1250</ele>
        <time>2022-02-11T11:16:11.000Z</time>
      </trkpt>
      <trkpt lat="43.72779" lon="7.0232">
        <ele>1251</ele>
        <time>2022-02-11T11:16:15.000Z</time>
      </trkpt>
      <trkpt lat="43.72781" lon="7.02317">
        <ele>1251.8000488281</ele>
        <time>2022-02-11T11:16:19.000Z</time>
      </trkpt>
      <trkpt lat="43.72781" lon="7.02316">
        <ele>1252</ele>
        <time>2022-02-11T11:16:20.000Z</time>
      </trkpt>
      <trkpt lat="43.72782" lon="7.02315">
        <ele>1252.8000488281</ele>
        <time>2022-02-11T11:16:25.000Z</time>
      </trkpt>
      <trkpt lat="43.72784" lon="7.0231">
        <ele>1253.1999511719</ele>
        <time>2022-02-11T11:16:32.000Z</time>
      </trkpt>
      <trkpt lat="43.72784" lon="7.02306">
        <ele>1254.1999511719</ele>
        <time>2022-02-11T11:16:38.000Z</time>
      </trkpt>
      <trkpt lat="43.72784" lon="7.02305">
        <ele>1254.4000244141</ele>
        <time>2022-02-11T11:16:39.000Z</time>
      </trkpt>
      <trkpt lat="43.72785" lon="7.02301">
        <ele>1254.8000488281</ele>
        <time>2022-02-11T11:16:45.000Z</time>
      </trkpt>
      <trkpt lat="43.72787" lon="7.02299">
        <ele>1255.1999511719</ele>
        <time>2022-02-11T11:16:48.000Z</time>
      </trkpt>
      <trkpt lat="43.72787" lon="7.02298">
        <ele>1255.8000488281</ele>
        <time>2022-02-11T11:16:52.000Z</time>
      </trkpt>
      <trkpt lat="43.72789" lon="7.02295">
        <ele>1256.4000244141</ele>
        <time>2022-02-11T11:16:56.000Z</time>
      </trkpt>
      <trkpt lat="43.7279" lon="7.0229">
        <ele>1257</ele>
        <time>2022-02-11T11:17:01.000Z</time>
      </trkpt>
      <trkpt lat="43.7279" lon="7.02287">
        <ele>1257.5999755859</ele>
        <time>2022-02-11T11:17:05.000Z</time>
      </trkpt>
      <trkpt lat="43.72791" lon="7.02283">
        <ele>1258.1999511719</ele>
        <time>2022-02-11T11:17:09.000Z</time>
      </trkpt>
      <trkpt lat="43.72792" lon="7.0228">
        <ele>1258.5999755859</ele>
        <time>2022-02-11T11:17:12.000Z</time>
      </trkpt>
      <trkpt lat="43.72792" lon="7.02276">
        <ele>1259.5999755859</ele>
        <time>2022-02-11T11:17:17.000Z</time>
      </trkpt>
      <trkpt lat="43.72789" lon="7.02267">
        <ele>1260.8000488281</ele>
        <time>2022-02-11T11:17:25.000Z</time>
      </trkpt>
      <trkpt lat="43.72788" lon="7.02263">
        <ele>1261.8000488281</ele>
        <time>2022-02-11T11:17:33.000Z</time>
      </trkpt>
      <trkpt lat="43.7279" lon="7.02262">
        <ele>1261.5999755859</ele>
        <time>2022-02-11T11:17:39.000Z</time>
      </trkpt>
      <trkpt lat="43.72791" lon="7.02261">
        <ele>1262.1999511719</ele>
        <time>2022-02-11T11:17:44.000Z</time>
      </trkpt>
      <trkpt lat="43.72791" lon="7.02261">
        <ele>1262.4000244141</ele>
        <time>2022-02-11T11:17:52.000Z</time>
      </trkpt>
      <trkpt lat="43.72791" lon="7.02261">
        <ele>1262.4000244141</ele>
        <time>2022-02-11T11:17:59.000Z</time>
      </trkpt>
      <trkpt lat="43.7279" lon="7.02263">
        <ele>1262.1999511719</ele>
        <time>2022-02-11T11:18:06.000Z</time>
      </trkpt>
      <trkpt lat="43.72789" lon="7.02263">
        <ele>1261.5999755859</ele>
        <time>2022-02-11T11:18:13.000Z</time>
      </trkpt>
      <trkpt lat="43.7279" lon="7.02265">
        <ele>1261.5999755859</ele>
        <time>2022-02-11T11:18:22.000Z</time>
      </trkpt>
      <trkpt lat="43.7279" lon="7.02265">
        <ele>1261.4000244141</ele>
        <time>2022-02-11T11:18:31.000Z</time>
      </trkpt>
      <trkpt lat="43.72789" lon="7.02265">
        <ele>1261.8000488281</ele>
        <time>2022-02-11T11:18:41.000Z</time>
      </trkpt>
      <trkpt lat="43.72789" lon="7.02265">
        <ele>1261.5999755859</ele>
        <time>2022-02-11T11:18:54.000Z</time>
      </trkpt>
      <trkpt lat="43.72789" lon="7.02265">
        <ele>1262.1999511719</ele>
        <time>2022-02-11T11:19:06.000Z</time>
      </trkpt>
      <trkpt lat="43.72789" lon="7.02264">
        <ele>1261.5999755859</ele>
        <time>2022-02-11T11:19:14.000Z</time>
      </trkpt>
      <trkpt lat="43.72789" lon="7.02264">
        <ele>1261.1999511719</ele>
        <time>2022-02-11T11:19:26.000Z</time>
      </trkpt>
      <trkpt lat="43.72789" lon="7.02264">
        <ele>1261.5999755859</ele>
        <time>2022-02-11T11:19:40.000Z</time>
      </trkpt>
      <trkpt lat="43.72789" lon="7.02264">
        <ele>1261.8000488281</ele>
        <time>2022-02-11T11:20:04.000Z</time>
      </trkpt>
      <trkpt lat="43.72789" lon="7.02263">
        <ele>1262</ele>
        <time>2022-02-11T11:20:30.000Z</time>
      </trkpt>
      <trkpt lat="43.7279" lon="7.02263">
        <ele>1262</ele>
        <time>2022-02-11T11:21:00.000Z</time>
      </trkpt>
      <trkpt lat="43.72789" lon="7.02264">
        <ele>1262</ele>
        <time>2022-02-11T11:21:25.000Z</time>
      </trkpt>
      <trkpt lat="43.72789" lon="7.02263">
        <ele>1261.8000488281</ele>
        <time>2022-02-11T11:21:33.000Z</time>
      </trkpt>
      <trkpt lat="43.72789" lon="7.02263">
        <ele>1262.1999511719</ele>
        <time>2022-02-11T11:21:43.000Z</time>
      </trkpt>
      <trkpt lat="43.72789" lon="7.02263">
        <ele>1262.4000244141</ele>
        <time>2022-02-11T11:21:51.000Z</time>
      </trkpt>
      <trkpt lat="43.7279" lon="7.02262">
        <ele>1262.1999511719</ele>
        <time>2022-02-11T11:22:01.000Z</time>
      </trkpt>
      <trkpt lat="43.72789" lon="7.02263">
        <ele>1261.8000488281</ele>
        <time>2022-02-11T11:22:06.000Z</time>
      </trkpt>
      <trkpt lat="43.7279" lon="7.02262">
        <ele>1261.8000488281</ele>
        <time>2022-02-11T11:22:15.000Z</time>
      </trkpt>
      <trkpt lat="43.7279" lon="7.02263">
        <ele>1261.8000488281</ele>
        <time>2022-02-11T11:22:24.000Z</time>
      </trkpt>
      <trkpt lat="43.7279" lon="7.02263">
        <ele>1261.8000488281</ele>
        <time>2022-02-11T11:22:37.000Z</time>
      </trkpt>
      <trkpt lat="43.7279" lon="7.02263">
        <ele>1261.8000488281</ele>
        <time>2022-02-11T11:22:44.000Z</time>
      </trkpt>
      <trkpt lat="43.7279" lon="7.02263">
        <ele>1261.5999755859</ele>
        <time>2022-02-11T11:22:52.000Z</time>
      </trkpt>
      <trkpt lat="43.7279" lon="7.02263">
        <ele>1262</ele>
        <time>2022-02-11T11:23:02.000Z</time>
      </trkpt>
      <trkpt lat="43.7279" lon="7.02263">
        <ele>1261.8000488281</ele>
        <time>2022-02-11T11:23:19.000Z</time>
      </trkpt>
      <trkpt lat="43.7279" lon="7.02264">
        <ele>1261.8000488281</ele>
        <time>2022-02-11T11:23:30.000Z</time>
      </trkpt>
      <trkpt lat="43.7279" lon="7.02263">
        <ele>1261.5999755859</ele>
        <time>2022-02-11T11:23:40.000Z</time>
      </trkpt>
      <trkpt lat="43.7279" lon="7.02264">
        <ele>1261.1999511719</ele>
        <time>2022-02-11T11:23:53.000Z</time>
      </trkpt>
      <trkpt lat="43.7279" lon="7.02264">
        <ele>1261.8000488281</ele>
        <time>2022-02-11T11:24:06.000Z</time>
      </trkpt>
      <trkpt lat="43.7279" lon="7.02264">
        <ele>1261.8000488281</ele>
        <time>2022-02-11T11:24:25.000Z</time>
      </trkpt>
      <trkpt lat="43.7279" lon="7.02264">
        <ele>1261.8000488281</ele>
        <time>2022-02-11T11:24:43.000Z</time>
      </trkpt>
      <trkpt lat="43.7279" lon="7.02264">
        <ele>1261.4000244141</ele>
        <time>2022-02-11T11:24:56.000Z</time>
      </trkpt>
      <trkpt lat="43.72789" lon="7.02264">
        <ele>1261.5999755859</ele>
        <time>2022-02-11T11:25:18.000Z</time>
      </trkpt>
      <trkpt lat="43.72789" lon="7.02264">
        <ele>1261.8000488281</ele>
        <time>2022-02-11T11:25:40.000Z</time>
      </trkpt>
      <trkpt lat="43.72789" lon="7.02264">
        <ele>1262.4000244141</ele>
        <time>2022-02-11T11:26:10.000Z</time>
      </trkpt>
      <trkpt lat="43.72789" lon="7.02263">
        <ele>1262</ele>
        <time>2022-02-11T11:26:33.000Z</time>
      </trkpt>
      <trkpt lat="43.72789" lon="7.02263">
        <ele>1262</ele>
        <time>2022-02-11T11:26:59.000Z</time>
      </trkpt>
      <trkpt lat="43.72789" lon="7.02263">
        <ele>1262.4000244141</ele>
        <time>2022-02-11T11:27:15.000Z</time>
      </trkpt>
      <trkpt lat="43.72789" lon="7.02264">
        <ele>1262</ele>
        <time>2022-02-11T11:27:42.000Z</time>
      </trkpt>
      <trkpt lat="43.72789" lon="7.02264">
        <ele>1262.4000244141</ele>
        <time>2022-02-11T11:28:01.000Z</time>
      </trkpt>
      <trkpt lat="43.72789" lon="7.02264">
        <ele>1262.1999511719</ele>
        <time>2022-02-11T11:28:22.000Z</time>
      </trkpt>
      <trkpt lat="43.7279" lon="7.02264">
        <ele>1262.8000488281</ele>
        <time>2022-02-11T11:28:42.000Z</time>
      </trkpt>
      <trkpt lat="43.72789" lon="7.02264">
        <ele>1262.5999755859</ele>
        <time>2022-02-11T11:29:05.000Z</time>
      </trkpt>
      <trkpt lat="43.7279" lon="7.02264">
        <ele>1262.8000488281</ele>
        <time>2022-02-11T11:29:17.000Z</time>
      </trkpt>
      <trkpt lat="43.7279" lon="7.02264">
        <ele>1263</ele>
        <time>2022-02-11T11:29:18.000Z</time>
      </trkpt>
      <trkpt lat="43.72789" lon="7.02265">
        <ele>1263</ele>
        <time>2022-02-11T11:29:21.000Z</time>
      </trkpt>
      <trkpt lat="43.72789" lon="7.02265">
        <ele>1262.8000488281</ele>
        <time>2022-02-11T11:29:29.000Z</time>
      </trkpt>
      <trkpt lat="43.72789" lon="7.02264">
        <ele>1263</ele>
        <time>2022-02-11T11:29:40.000Z</time>
      </trkpt>
      <trkpt lat="43.72789" lon="7.02265">
        <ele>1263</ele>
        <time>2022-02-11T11:29:48.000Z</time>
      </trkpt>
      <trkpt lat="43.72789" lon="7.02265">
        <ele>1263.1999511719</ele>
        <time>2022-02-11T11:30:06.000Z</time>
      </trkpt>
      <trkpt lat="43.72789" lon="7.02265">
        <ele>1263.1999511719</ele>
        <time>2022-02-11T11:30:14.000Z</time>
      </trkpt>
      <trkpt lat="43.7279" lon="7.02265">
        <ele>1263.1999511719</ele>
        <time>2022-02-11T11:30:22.000Z</time>
      </trkpt>
      <trkpt lat="43.7279" lon="7.02265">
        <ele>1263.8000488281</ele>
        <time>2022-02-11T11:30:37.000Z</time>
      </trkpt>
      <trkpt lat="43.7279" lon="7.02265">
        <ele>1263.8000488281</ele>
        <time>2022-02-11T11:30:50.000Z</time>
      </trkpt>
      <trkpt lat="43.72789" lon="7.02264">
        <ele>1263.5999755859</ele>
        <time>2022-02-11T11:31:10.000Z</time>
      </trkpt>
      <trkpt lat="43.72789" lon="7.02264">
        <ele>1263.5999755859</ele>
        <time>2022-02-11T11:31:21.000Z</time>
      </trkpt>
      <trkpt lat="43.72789" lon="7.02264">
        <ele>1263.5999755859</ele>
        <time>2022-02-11T11:31:37.000Z</time>
      </trkpt>
      <trkpt lat="43.72789" lon="7.02264">
        <ele>1263.8000488281</ele>
        <time>2022-02-11T11:31:48.000Z</time>
      </trkpt>
      <trkpt lat="43.72789" lon="7.02264">
        <ele>1263.5999755859</ele>
        <time>2022-02-11T11:31:56.000Z</time>
      </trkpt>
      <trkpt lat="43.72789" lon="7.02264">
        <ele>1263.5999755859</ele>
        <time>2022-02-11T11:32:13.000Z</time>
      </trkpt>
      <trkpt lat="43.72789" lon="7.02264">
        <ele>1263.4000244141</ele>
        <time>2022-02-11T11:32:27.000Z</time>
      </trkpt>
      <trkpt lat="43.72789" lon="7.02264">
        <ele>1263.5999755859</ele>
        <time>2022-02-11T11:32:44.000Z</time>
      </trkpt>
      <trkpt lat="43.72789" lon="7.02264">
        <ele>1263.8000488281</ele>
        <time>2022-02-11T11:32:51.000Z</time>
      </trkpt>
      <trkpt lat="43.72789" lon="7.02264">
        <ele>1263.4000244141</ele>
        <time>2022-02-11T11:33:07.000Z</time>
      </trkpt>
      <trkpt lat="43.72789" lon="7.02263">
        <ele>1263.4000244141</ele>
        <time>2022-02-11T11:33:30.000Z</time>
      </trkpt>
      <trkpt lat="43.72789" lon="7.02263">
        <ele>1263.4000244141</ele>
        <time>2022-02-11T11:33:45.000Z</time>
      </trkpt>
      <trkpt lat="43.72789" lon="7.02263">
        <ele>1263.1999511719</ele>
        <time>2022-02-11T11:33:58.000Z</time>
      </trkpt>
      <trkpt lat="43.72789" lon="7.02263">
        <ele>1263.4000244141</ele>
        <time>2022-02-11T11:34:09.000Z</time>
      </trkpt>
      <trkpt lat="43.72789" lon="7.02263">
        <ele>1263.4000244141</ele>
        <time>2022-02-11T11:34:19.000Z</time>
      </trkpt>
      <trkpt lat="43.72789" lon="7.02263">
        <ele>1264</ele>
        <time>2022-02-11T11:34:39.000Z</time>
      </trkpt>
      <trkpt lat="43.72789" lon="7.02263">
        <ele>1264</ele>
        <time>2022-02-11T11:34:54.000Z</time>
      </trkpt>
      <trkpt lat="43.72789" lon="7.02263">
        <ele>1264.1999511719</ele>
        <time>2022-02-11T11:35:00.000Z</time>
      </trkpt>
      <trkpt lat="43.72789" lon="7.02263">
        <ele>1264.4000244141</ele>
        <time>2022-02-11T11:35:21.000Z</time>
      </trkpt>
      <trkpt lat="43.72789" lon="7.02264">
        <ele>1264.4000244141</ele>
        <time>2022-02-11T11:35:41.000Z</time>
      </trkpt>
      <trkpt lat="43.72789" lon="7.02264">
        <ele>1264.1999511719</ele>
        <time>2022-02-11T11:35:55.000Z</time>
      </trkpt>
      <trkpt lat="43.7279" lon="7.02265">
        <ele>1264.1999511719</ele>
        <time>2022-02-11T11:36:18.000Z</time>
      </trkpt>
      <trkpt lat="43.7279" lon="7.02266">
        <ele>1264</ele>
        <time>2022-02-11T11:36:37.000Z</time>
      </trkpt>
      <trkpt lat="43.7279" lon="7.02266">
        <ele>1264.4000244141</ele>
        <time>2022-02-11T11:36:53.000Z</time>
      </trkpt>
      <trkpt lat="43.7279" lon="7.02265">
        <ele>1263.8000488281</ele>
        <time>2022-02-11T11:37:02.000Z</time>
      </trkpt>
      <trkpt lat="43.7279" lon="7.02265">
        <ele>1263.8000488281</ele>
        <time>2022-02-11T11:37:18.000Z</time>
      </trkpt>
      <trkpt lat="43.7279" lon="7.02266">
        <ele>1264.1999511719</ele>
        <time>2022-02-11T11:37:25.000Z</time>
      </trkpt>
      <trkpt lat="43.7279" lon="7.02265">
        <ele>1264.4000244141</ele>
        <time>2022-02-11T11:37:45.000Z</time>
      </trkpt>
      <trkpt lat="43.7279" lon="7.02265">
        <ele>1264.5999755859</ele>
        <time>2022-02-11T11:38:08.000Z</time>
      </trkpt>
      <trkpt lat="43.7279" lon="7.02265">
        <ele>1264.4000244141</ele>
        <time>2022-02-11T11:38:22.000Z</time>
      </trkpt>
      <trkpt lat="43.72789" lon="7.02264">
        <ele>1264</ele>
        <time>2022-02-11T11:38:29.000Z</time>
      </trkpt>
      <trkpt lat="43.72789" lon="7.02264">
        <ele>1264.4000244141</ele>
        <time>2022-02-11T11:38:38.000Z</time>
      </trkpt>
      <trkpt lat="43.72789" lon="7.02264">
        <ele>1264.1999511719</ele>
        <time>2022-02-11T11:38:51.000Z</time>
      </trkpt>
      <trkpt lat="43.72789" lon="7.02264">
        <ele>1264.5999755859</ele>
        <time>2022-02-11T11:39:03.000Z</time>
      </trkpt>
      <trkpt lat="43.72789" lon="7.02264">
        <ele>1264.4000244141</ele>
        <time>2022-02-11T11:39:17.000Z</time>
      </trkpt>
      <trkpt lat="43.7279" lon="7.02264">
        <ele>1264</ele>
        <time>2022-02-11T11:39:29.000Z</time>
      </trkpt>
      <trkpt lat="43.72789" lon="7.02264">
        <ele>1264.8000488281</ele>
        <time>2022-02-11T11:39:46.000Z</time>
      </trkpt>
      <trkpt lat="43.72789" lon="7.02265">
        <ele>1264.4000244141</ele>
        <time>2022-02-11T11:39:54.000Z</time>
      </trkpt>
      <trkpt lat="43.72789" lon="7.02265">
        <ele>1264.8000488281</ele>
        <time>2022-02-11T11:40:06.000Z</time>
      </trkpt>
      <trkpt lat="43.72789" lon="7.02265">
        <ele>1264.8000488281</ele>
        <time>2022-02-11T11:40:22.000Z</time>
      </trkpt>
      <trkpt lat="43.7279" lon="7.02265">
        <ele>1265</ele>
        <time>2022-02-11T11:40:28.000Z</time>
      </trkpt>
      <trkpt lat="43.7279" lon="7.02265">
        <ele>1265</ele>
        <time>2022-02-11T11:40:29.000Z</time>
      </trkpt>
      <trkpt lat="43.72789" lon="7.02263">
        <ele>1265.1999511719</ele>
        <time>2022-02-11T11:40:46.000Z</time>
      </trkpt>
      <trkpt lat="43.72788" lon="7.02262">
        <ele>1265.1999511719</ele>
        <time>2022-02-11T11:41:05.000Z</time>
      </trkpt>
      <trkpt lat="43.72789" lon="7.02263">
        <ele>1264.8000488281</ele>
        <time>2022-02-11T11:41:19.000Z</time>
      </trkpt>
      <trkpt lat="43.72788" lon="7.02261">
        <ele>1264.8000488281</ele>
        <time>2022-02-11T11:41:20.000Z</time>
      </trkpt>
      <trkpt lat="43.72788" lon="7.02259">
        <ele>1265</ele>
        <time>2022-02-11T11:41:22.000Z</time>
      </trkpt>
      <trkpt lat="43.72788" lon="7.02259">
        <ele>1265</ele>
        <time>2022-02-11T11:41:37.000Z</time>
      </trkpt>
      <trkpt lat="43.72788" lon="7.0226">
        <ele>1265.4000244141</ele>
        <time>2022-02-11T11:41:51.000Z</time>
      </trkpt>
      <trkpt lat="43.72787" lon="7.0226">
        <ele>1265.1999511719</ele>
        <time>2022-02-11T11:42:09.000Z</time>
      </trkpt>
      <trkpt lat="43.72787" lon="7.02261">
        <ele>1265.1999511719</ele>
        <time>2022-02-11T11:42:30.000Z</time>
      </trkpt>
      <trkpt lat="43.72787" lon="7.02261">
        <ele>1265</ele>
        <time>2022-02-11T11:42:44.000Z</time>
      </trkpt>
      <trkpt lat="43.72788" lon="7.02263">
        <ele>1264.8000488281</ele>
        <time>2022-02-11T11:43:02.000Z</time>
      </trkpt>
      <trkpt lat="43.72788" lon="7.02263">
        <ele>1264.8000488281</ele>
        <time>2022-02-11T11:43:15.000Z</time>
      </trkpt>
      <trkpt lat="43.72788" lon="7.02262">
        <ele>1265</ele>
        <time>2022-02-11T11:43:29.000Z</time>
      </trkpt>
      <trkpt lat="43.72789" lon="7.02265">
        <ele>1265.1999511719</ele>
        <time>2022-02-11T11:43:35.000Z</time>
      </trkpt>
      <trkpt lat="43.7279" lon="7.02265">
        <ele>1265.5999755859</ele>
        <time>2022-02-11T11:43:42.000Z</time>
      </trkpt>
      <trkpt lat="43.7279" lon="7.02264">
        <ele>1265.4000244141</ele>
        <time>2022-02-11T11:43:54.000Z</time>
      </trkpt>
      <trkpt lat="43.72788" lon="7.02262">
        <ele>1265.4000244141</ele>
        <time>2022-02-11T11:44:06.000Z</time>
      </trkpt>
      <trkpt lat="43.72787" lon="7.02261">
        <ele>1265.1999511719</ele>
        <time>2022-02-11T11:44:19.000Z</time>
      </trkpt>
      <trkpt lat="43.72788" lon="7.02261">
        <ele>1265.1999511719</ele>
        <time>2022-02-11T11:44:24.000Z</time>
      </trkpt>
      <trkpt lat="43.72789" lon="7.02266">
        <ele>1265.1999511719</ele>
        <time>2022-02-11T11:44:31.000Z</time>
      </trkpt>
      <trkpt lat="43.72789" lon="7.02266">
        <ele>1265.1999511719</ele>
        <time>2022-02-11T11:44:38.000Z</time>
      </trkpt>
      <trkpt lat="43.7279" lon="7.02265">
        <ele>1265.4000244141</ele>
        <time>2022-02-11T11:44:44.000Z</time>
      </trkpt>
      <trkpt lat="43.72788" lon="7.02263">
        <ele>1265.5999755859</ele>
        <time>2022-02-11T11:44:52.000Z</time>
      </trkpt>
      <trkpt lat="43.72788" lon="7.02262">
        <ele>1265.5999755859</ele>
        <time>2022-02-11T11:45:06.000Z</time>
      </trkpt>
      <trkpt lat="43.72788" lon="7.02262">
        <ele>1265.5999755859</ele>
        <time>2022-02-11T11:45:26.000Z</time>
      </trkpt>
      <trkpt lat="43.72788" lon="7.02262">
        <ele>1266</ele>
        <time>2022-02-11T11:45:46.000Z</time>
      </trkpt>
      <trkpt lat="43.72788" lon="7.02262">
        <ele>1265.5999755859</ele>
        <time>2022-02-11T11:45:58.000Z</time>
      </trkpt>
      <trkpt lat="43.72788" lon="7.02262">
        <ele>1265.8000488281</ele>
        <time>2022-02-11T11:46:12.000Z</time>
      </trkpt>
      <trkpt lat="43.72788" lon="7.02262">
        <ele>1265.8000488281</ele>
        <time>2022-02-11T11:46:25.000Z</time>
      </trkpt>
      <trkpt lat="43.72788" lon="7.02261">
        <ele>1266</ele>
        <time>2022-02-11T11:46:35.000Z</time>
      </trkpt>
      <trkpt lat="43.72787" lon="7.02261">
        <ele>1266.4000244141</ele>
        <time>2022-02-11T11:46:45.000Z</time>
      </trkpt>
      <trkpt lat="43.72787" lon="7.02261">
        <ele>1266.4000244141</ele>
        <time>2022-02-11T11:46:51.000Z</time>
      </trkpt>
      <trkpt lat="43.72787" lon="7.02262">
        <ele>1266.1999511719</ele>
        <time>2022-02-11T11:46:58.000Z</time>
      </trkpt>
      <trkpt lat="43.72787" lon="7.02262">
        <ele>1266.4000244141</ele>
        <time>2022-02-11T11:47:07.000Z</time>
      </trkpt>
      <trkpt lat="43.72788" lon="7.02261">
        <ele>1266.5999755859</ele>
        <time>2022-02-11T11:47:13.000Z</time>
      </trkpt>
      <trkpt lat="43.72787" lon="7.0226">
        <ele>1266.4000244141</ele>
        <time>2022-02-11T11:47:20.000Z</time>
      </trkpt>
      <trkpt lat="43.72787" lon="7.02262">
        <ele>1266.4000244141</ele>
        <time>2022-02-11T11:47:33.000Z</time>
      </trkpt>
      <trkpt lat="43.72787" lon="7.02262">
        <ele>1266.4000244141</ele>
        <time>2022-02-11T11:47:43.000Z</time>
      </trkpt>
      <trkpt lat="43.72788" lon="7.02261">
        <ele>1266.4000244141</ele>
        <time>2022-02-11T11:47:49.000Z</time>
      </trkpt>
      <trkpt lat="43.72786" lon="7.02259">
        <ele>1266.5999755859</ele>
        <time>2022-02-11T11:47:54.000Z</time>
      </trkpt>
      <trkpt lat="43.72789" lon="7.02263">
        <ele>1266.4000244141</ele>
        <time>2022-02-11T11:48:00.000Z</time>
      </trkpt>
      <trkpt lat="43.72789" lon="7.02264">
        <ele>1266.1999511719</ele>
        <time>2022-02-11T11:48:12.000Z</time>
      </trkpt>
      <trkpt lat="43.7279" lon="7.02267">
        <ele>1266.4000244141</ele>
        <time>2022-02-11T11:48:18.000Z</time>
      </trkpt>
      <trkpt lat="43.72789" lon="7.02265">
        <ele>1266.4000244141</ele>
        <time>2022-02-11T11:48:23.000Z</time>
      </trkpt>
      <trkpt lat="43.72788" lon="7.02264">
        <ele>1266.5999755859</ele>
        <time>2022-02-11T11:48:34.000Z</time>
      </trkpt>
      <trkpt lat="43.72788" lon="7.02263">
        <ele>1266.4000244141</ele>
        <time>2022-02-11T11:48:43.000Z</time>
      </trkpt>
      <trkpt lat="43.72789" lon="7.02263">
        <ele>1266.5999755859</ele>
        <time>2022-02-11T11:48:52.000Z</time>
      </trkpt>
      <trkpt lat="43.72788" lon="7.02262">
        <ele>1266.1999511719</ele>
        <time>2022-02-11T11:49:08.000Z</time>
      </trkpt>
      <trkpt lat="43.72788" lon="7.02262">
        <ele>1265.5999755859</ele>
        <time>2022-02-11T11:49:18.000Z</time>
      </trkpt>
      <trkpt lat="43.72789" lon="7.02262">
        <ele>1265.5999755859</ele>
        <time>2022-02-11T11:49:33.000Z</time>
      </trkpt>
      <trkpt lat="43.72789" lon="7.02262">
        <ele>1265.1999511719</ele>
        <time>2022-02-11T11:49:52.000Z</time>
      </trkpt>
      <trkpt lat="43.72789" lon="7.02262">
        <ele>1265.1999511719</ele>
        <time>2022-02-11T11:50:12.000Z</time>
      </trkpt>
      <trkpt lat="43.72789" lon="7.02262">
        <ele>1265</ele>
        <time>2022-02-11T11:50:15.000Z</time>
      </trkpt>
      <trkpt lat="43.72789" lon="7.02262">
        <ele>1264.8000488281</ele>
        <time>2022-02-11T11:50:33.000Z</time>
      </trkpt>
      <trkpt lat="43.72789" lon="7.02262">
        <ele>1265</ele>
        <time>2022-02-11T11:50:54.000Z</time>
      </trkpt>
      <trkpt lat="43.72789" lon="7.02262">
        <ele>1265.1999511719</ele>
        <time>2022-02-11T11:51:02.000Z</time>
      </trkpt>
      <trkpt lat="43.72789" lon="7.02262">
        <ele>1266</ele>
        <time>2022-02-11T11:51:09.000Z</time>
      </trkpt>
      <trkpt lat="43.72789" lon="7.02262">
        <ele>1265.5999755859</ele>
        <time>2022-02-11T11:51:17.000Z</time>
      </trkpt>
      <trkpt lat="43.72788" lon="7.02262">
        <ele>1265.5999755859</ele>
        <time>2022-02-11T11:51:34.000Z</time>
      </trkpt>
      <trkpt lat="43.72788" lon="7.02262">
        <ele>1265.5999755859</ele>
        <time>2022-02-11T11:51:48.000Z</time>
      </trkpt>
      <trkpt lat="43.72788" lon="7.02262">
        <ele>1266</ele>
        <time>2022-02-11T11:52:00.000Z</time>
      </trkpt>
      <trkpt lat="43.72788" lon="7.02262">
        <ele>1266</ele>
        <time>2022-02-11T11:52:08.000Z</time>
      </trkpt>
      <trkpt lat="43.72788" lon="7.02262">
        <ele>1266</ele>
        <time>2022-02-11T11:52:11.000Z</time>
      </trkpt>
      <trkpt lat="43.72787" lon="7.0226">
        <ele>1265.8000488281</ele>
        <time>2022-02-11T11:52:19.000Z</time>
      </trkpt>
      <trkpt lat="43.72787" lon="7.02261">
        <ele>1265.8000488281</ele>
        <time>2022-02-11T11:52:20.000Z</time>
      </trkpt>
      <trkpt lat="43.72788" lon="7.02261">
        <ele>1266</ele>
        <time>2022-02-11T11:52:28.000Z</time>
      </trkpt>
      <trkpt lat="43.72788" lon="7.02262">
        <ele>1266</ele>
        <time>2022-02-11T11:52:46.000Z</time>
      </trkpt>
      <trkpt lat="43.72789" lon="7.02263">
        <ele>1266.1999511719</ele>
        <time>2022-02-11T11:53:02.000Z</time>
      </trkpt>
      <trkpt lat="43.72789" lon="7.02262">
        <ele>1266</ele>
        <time>2022-02-11T11:53:17.000Z</time>
      </trkpt>
      <trkpt lat="43.72788" lon="7.02262">
        <ele>1265.8000488281</ele>
        <time>2022-02-11T11:53:39.000Z</time>
      </trkpt>
      <trkpt lat="43.72788" lon="7.02262">
        <ele>1266</ele>
        <time>2022-02-11T11:54:00.000Z</time>
      </trkpt>
      <trkpt lat="43.72788" lon="7.02262">
        <ele>1265.8000488281</ele>
        <time>2022-02-11T11:54:08.000Z</time>
      </trkpt>
      <trkpt lat="43.72787" lon="7.02261">
        <ele>1266.4000244141</ele>
        <time>2022-02-11T11:54:19.000Z</time>
      </trkpt>
      <trkpt lat="43.72786" lon="7.02261">
        <ele>1266.1999511719</ele>
        <time>2022-02-11T11:54:27.000Z</time>
      </trkpt>
      <trkpt lat="43.72786" lon="7.02261">
        <ele>1266.5999755859</ele>
        <time>2022-02-11T11:54:36.000Z</time>
      </trkpt>
      <trkpt lat="43.72786" lon="7.02261">
        <ele>1265.5999755859</ele>
        <time>2022-02-11T11:54:44.000Z</time>
      </trkpt>
      <trkpt lat="43.72786" lon="7.02261">
        <ele>1265.8000488281</ele>
        <time>2022-02-11T11:54:51.000Z</time>
      </trkpt>
      <trkpt lat="43.72786" lon="7.02262">
        <ele>1266.4000244141</ele>
        <time>2022-02-11T11:55:01.000Z</time>
      </trkpt>
      <trkpt lat="43.72786" lon="7.02261">
        <ele>1266.5999755859</ele>
        <time>2022-02-11T11:55:06.000Z</time>
      </trkpt>
      <trkpt lat="43.72786" lon="7.02262">
        <ele>1266.4000244141</ele>
        <time>2022-02-11T11:55:16.000Z</time>
      </trkpt>
      <trkpt lat="43.72786" lon="7.02261">
        <ele>1266.4000244141</ele>
        <time>2022-02-11T11:55:23.000Z</time>
      </trkpt>
      <trkpt lat="43.72787" lon="7.02261">
        <ele>1266.1999511719</ele>
        <time>2022-02-11T11:55:35.000Z</time>
      </trkpt>
      <trkpt lat="43.72787" lon="7.02261">
        <ele>1266.4000244141</ele>
        <time>2022-02-11T11:55:43.000Z</time>
      </trkpt>
      <trkpt lat="43.72787" lon="7.02261">
        <ele>1266.4000244141</ele>
        <time>2022-02-11T11:55:53.000Z</time>
      </trkpt>
      <trkpt lat="43.72787" lon="7.02261">
        <ele>1266.1999511719</ele>
        <time>2022-02-11T11:56:00.000Z</time>
      </trkpt>
      <trkpt lat="43.72787" lon="7.02261">
        <ele>1266.1999511719</ele>
        <time>2022-02-11T11:56:13.000Z</time>
      </trkpt>
      <trkpt lat="43.72787" lon="7.02261">
        <ele>1266.5999755859</ele>
        <time>2022-02-11T11:56:24.000Z</time>
      </trkpt>
      <trkpt lat="43.72787" lon="7.02261">
        <ele>1266.1999511719</ele>
        <time>2022-02-11T11:56:36.000Z</time>
      </trkpt>
      <trkpt lat="43.72787" lon="7.02261">
        <ele>1265.8000488281</ele>
        <time>2022-02-11T11:56:46.000Z</time>
      </trkpt>
      <trkpt lat="43.72787" lon="7.02262">
        <ele>1265.5999755859</ele>
        <time>2022-02-11T11:56:59.000Z</time>
      </trkpt>
      <trkpt lat="43.72788" lon="7.02263">
        <ele>1265.5999755859</ele>
        <time>2022-02-11T11:57:13.000Z</time>
      </trkpt>
      <trkpt lat="43.72788" lon="7.02262">
        <ele>1265.8000488281</ele>
        <time>2022-02-11T11:57:25.000Z</time>
      </trkpt>
      <trkpt lat="43.72787" lon="7.02263">
        <ele>1265.5999755859</ele>
        <time>2022-02-11T11:57:31.000Z</time>
      </trkpt>
      <trkpt lat="43.72787" lon="7.02265">
        <ele>1265.4000244141</ele>
        <time>2022-02-11T11:57:39.000Z</time>
      </trkpt>
      <trkpt lat="43.72787" lon="7.02264">
        <ele>1265.8000488281</ele>
        <time>2022-02-11T11:57:44.000Z</time>
      </trkpt>
      <trkpt lat="43.72788" lon="7.02265">
        <ele>1266</ele>
        <time>2022-02-11T11:57:53.000Z</time>
      </trkpt>
      <trkpt lat="43.72787" lon="7.02265">
        <ele>1265.5999755859</ele>
        <time>2022-02-11T11:58:02.000Z</time>
      </trkpt>
      <trkpt lat="43.72788" lon="7.02266">
        <ele>1265.5999755859</ele>
        <time>2022-02-11T11:58:11.000Z</time>
      </trkpt>
      <trkpt lat="43.72788" lon="7.02268">
        <ele>1265.4000244141</ele>
        <time>2022-02-11T11:58:18.000Z</time>
      </trkpt>
      <trkpt lat="43.72788" lon="7.02267">
        <ele>1265.5999755859</ele>
        <time>2022-02-11T11:58:25.000Z</time>
      </trkpt>
      <trkpt lat="43.72789" lon="7.02269">
        <ele>1265.5999755859</ele>
        <time>2022-02-11T11:58:31.000Z</time>
      </trkpt>
      <trkpt lat="43.72791" lon="7.02274">
        <ele>1265.5999755859</ele>
        <time>2022-02-11T11:58:39.000Z</time>
      </trkpt>
      <trkpt lat="43.7279" lon="7.02286">
        <ele>1265.4000244141</ele>
        <time>2022-02-11T11:58:43.000Z</time>
      </trkpt>
      <trkpt lat="43.72789" lon="7.02293">
        <ele>1264.8000488281</ele>
        <time>2022-02-11T11:58:45.000Z</time>
      </trkpt>
      <trkpt lat="43.72787" lon="7.02298">
        <ele>1263.5999755859</ele>
        <time>2022-02-11T11:58:47.000Z</time>
      </trkpt>
      <trkpt lat="43.72786" lon="7.023">
        <ele>1262.8000488281</ele>
        <time>2022-02-11T11:58:48.000Z</time>
      </trkpt>
      <trkpt lat="43.72785" lon="7.02302">
        <ele>1262.1999511719</ele>
        <time>2022-02-11T11:58:49.000Z</time>
      </trkpt>
      <trkpt lat="43.72783" lon="7.02306">
        <ele>1260.5999755859</ele>
        <time>2022-02-11T11:58:51.000Z</time>
      </trkpt>
      <trkpt lat="43.72783" lon="7.02311">
        <ele>1259.5999755859</ele>
        <time>2022-02-11T11:58:53.000Z</time>
      </trkpt>
      <trkpt lat="43.72778" lon="7.02321">
        <ele>1258.4000244141</ele>
        <time>2022-02-11T11:58:56.000Z</time>
      </trkpt>
      <trkpt lat="43.72777" lon="7.02323">
        <ele>1258</ele>
        <time>2022-02-11T11:58:57.000Z</time>
      </trkpt>
      <trkpt lat="43.72774" lon="7.02327">
        <ele>1257</ele>
        <time>2022-02-11T11:58:59.000Z</time>
      </trkpt>
      <trkpt lat="43.72768" lon="7.02333">
        <ele>1255.8000488281</ele>
        <time>2022-02-11T11:59:02.000Z</time>
      </trkpt>
      <trkpt lat="43.72767" lon="7.02336">
        <ele>1255.1999511719</ele>
        <time>2022-02-11T11:59:03.000Z</time>
      </trkpt>
      <trkpt lat="43.72766" lon="7.02342">
        <ele>1253.8000488281</ele>
        <time>2022-02-11T11:59:05.000Z</time>
      </trkpt>
      <trkpt lat="43.72769" lon="7.02352">
        <ele>1252.5999755859</ele>
        <time>2022-02-11T11:59:07.000Z</time>
      </trkpt>
      <trkpt lat="43.7277" lon="7.02357">
        <ele>1251.5999755859</ele>
        <time>2022-02-11T11:59:08.000Z</time>
      </trkpt>
      <trkpt lat="43.72772" lon="7.02362">
        <ele>1251</ele>
        <time>2022-02-11T11:59:09.000Z</time>
      </trkpt>
      <trkpt lat="43.72776" lon="7.02368">
        <ele>1249.5999755859</ele>
        <time>2022-02-11T11:59:11.000Z</time>
      </trkpt>
      <trkpt lat="43.72779" lon="7.02371">
        <ele>1249.1999511719</ele>
        <time>2022-02-11T11:59:12.000Z</time>
      </trkpt>
      <trkpt lat="43.72781" lon="7.02377">
        <ele>1248.4000244141</ele>
        <time>2022-02-11T11:59:14.000Z</time>
      </trkpt>
      <trkpt lat="43.7278" lon="7.02379">
        <ele>1248.1999511719</ele>
        <time>2022-02-11T11:59:15.000Z</time>
      </trkpt>
      <trkpt lat="43.7278" lon="7.02381">
        <ele>1248.1999511719</ele>
        <time>2022-02-11T11:59:16.000Z</time>
      </trkpt>
      <trkpt lat="43.72781" lon="7.02381">
        <ele>1247.5999755859</ele>
        <time>2022-02-11T11:59:21.000Z</time>
      </trkpt>
      <trkpt lat="43.7278" lon="7.02383">
        <ele>1247.5999755859</ele>
        <time>2022-02-11T11:59:27.000Z</time>
      </trkpt>
      <trkpt lat="43.72778" lon="7.0239">
        <ele>1247.5999755859</ele>
        <time>2022-02-11T11:59:35.000Z</time>
      </trkpt>
      <trkpt lat="43.72779" lon="7.02396">
        <ele>1248.1999511719</ele>
        <time>2022-02-11T11:59:42.000Z</time>
      </trkpt>
      <trkpt lat="43.72779" lon="7.02403">
        <ele>1249</ele>
        <time>2022-02-11T11:59:49.000Z</time>
      </trkpt>
      <trkpt lat="43.72781" lon="7.02414">
        <ele>1248.8000488281</ele>
        <time>2022-02-11T11:59:54.000Z</time>
      </trkpt>
      <trkpt lat="43.72793" lon="7.02427">
        <ele>1249</ele>
        <time>2022-02-11T12:00:00.000Z</time>
      </trkpt>
      <trkpt lat="43.72806" lon="7.02434">
        <ele>1249</ele>
        <time>2022-02-11T12:00:05.000Z</time>
      </trkpt>
      <trkpt lat="43.72825" lon="7.02434">
        <ele>1248.5999755859</ele>
        <time>2022-02-11T12:00:11.000Z</time>
      </trkpt>
      <trkpt lat="43.7283" lon="7.02436">
        <ele>1248.4000244141</ele>
        <time>2022-02-11T12:00:14.000Z</time>
      </trkpt>
      <trkpt lat="43.7283" lon="7.02438">
        <ele>1248.4000244141</ele>
        <time>2022-02-11T12:00:15.000Z</time>
      </trkpt>
      <trkpt lat="43.72826" lon="7.0245">
        <ele>1247.4000244141</ele>
        <time>2022-02-11T12:00:19.000Z</time>
      </trkpt>
      <trkpt lat="43.72822" lon="7.02457">
        <ele>1246.1999511719</ele>
        <time>2022-02-11T12:00:21.000Z</time>
      </trkpt>
      <trkpt lat="43.72817" lon="7.02465">
        <ele>1244.5999755859</ele>
        <time>2022-02-11T12:00:23.000Z</time>
      </trkpt>
      <trkpt lat="43.72811" lon="7.02475">
        <ele>1244</ele>
        <time>2022-02-11T12:00:25.000Z</time>
      </trkpt>
      <trkpt lat="43.72808" lon="7.02478">
        <ele>1243.1999511719</ele>
        <time>2022-02-11T12:00:26.000Z</time>
      </trkpt>
      <trkpt lat="43.72803" lon="7.02486">
        <ele>1242.4000244141</ele>
        <time>2022-02-11T12:00:29.000Z</time>
      </trkpt>
      <trkpt lat="43.72801" lon="7.02488">
        <ele>1242</ele>
        <time>2022-02-11T12:00:30.000Z</time>
      </trkpt>
      <trkpt lat="43.72799" lon="7.02491">
        <ele>1241</ele>
        <time>2022-02-11T12:00:32.000Z</time>
      </trkpt>
      <trkpt lat="43.72796" lon="7.02493">
        <ele>1240.1999511719</ele>
        <time>2022-02-11T12:00:34.000Z</time>
      </trkpt>
      <trkpt lat="43.72794" lon="7.02495">
        <ele>1239.8000488281</ele>
        <time>2022-02-11T12:00:37.000Z</time>
      </trkpt>
      <trkpt lat="43.72793" lon="7.02495">
        <ele>1239</ele>
        <time>2022-02-11T12:00:39.000Z</time>
      </trkpt>
      <trkpt lat="43.72789" lon="7.02498">
        <ele>1238.8000488281</ele>
        <time>2022-02-11T12:00:41.000Z</time>
      </trkpt>
      <trkpt lat="43.72787" lon="7.02501">
        <ele>1238.5999755859</ele>
        <time>2022-02-11T12:00:42.000Z</time>
      </trkpt>
      <trkpt lat="43.72778" lon="7.02513">
        <ele>1238</ele>
        <time>2022-02-11T12:00:47.000Z</time>
      </trkpt>
      <trkpt lat="43.72776" lon="7.02516">
        <ele>1237.5999755859</ele>
        <time>2022-02-11T12:00:49.000Z</time>
      </trkpt>
      <trkpt lat="43.72776" lon="7.02516">
        <ele>1236.8000488281</ele>
        <time>2022-02-11T12:00:51.000Z</time>
      </trkpt>
      <trkpt lat="43.72776" lon="7.02516">
        <ele>1236.1999511719</ele>
        <time>2022-02-11T12:00:52.000Z</time>
      </trkpt>
      <trkpt lat="43.72774" lon="7.02518">
        <ele>1235.1999511719</ele>
        <time>2022-02-11T12:00:56.000Z</time>
      </trkpt>
      <trkpt lat="43.72774" lon="7.02519">
        <ele>1235.1999511719</ele>
        <time>2022-02-11T12:00:57.000Z</time>
      </trkpt>
      <trkpt lat="43.72767" lon="7.02525">
        <ele>1234.5999755859</ele>
        <time>2022-02-11T12:01:02.000Z</time>
      </trkpt>
      <trkpt lat="43.72764" lon="7.0253">
        <ele>1234.1999511719</ele>
        <time>2022-02-11T12:01:04.000Z</time>
      </trkpt>
      <trkpt lat="43.72763" lon="7.02533">
        <ele>1234.1999511719</ele>
        <time>2022-02-11T12:01:06.000Z</time>
      </trkpt>
      <trkpt lat="43.72761" lon="7.02536">
        <ele>1234.1999511719</ele>
        <time>2022-02-11T12:01:07.000Z</time>
      </trkpt>
      <trkpt lat="43.72756" lon="7.02539">
        <ele>1234</ele>
        <time>2022-02-11T12:01:08.000Z</time>
      </trkpt>
      <trkpt lat="43.7275" lon="7.02542">
        <ele>1233.1999511719</ele>
        <time>2022-02-11T12:01:10.000Z</time>
      </trkpt>
      <trkpt lat="43.72748" lon="7.02543">
        <ele>1232.8000488281</ele>
        <time>2022-02-11T12:01:11.000Z</time>
      </trkpt>
      <trkpt lat="43.72741" lon="7.02547">
        <ele>1231.4000244141</ele>
        <time>2022-02-11T12:01:13.000Z</time>
      </trkpt>
      <trkpt lat="43.7273" lon="7.02555">
        <ele>1230.8000488281</ele>
        <time>2022-02-11T12:01:17.000Z</time>
      </trkpt>
      <trkpt lat="43.72717" lon="7.02562">
        <ele>1230.1999511719</ele>
        <time>2022-02-11T12:01:20.000Z</time>
      </trkpt>
      <trkpt lat="43.72708" lon="7.02566">
        <ele>1229.8000488281</ele>
        <time>2022-02-11T12:01:22.000Z</time>
      </trkpt>
      <trkpt lat="43.72698" lon="7.02572">
        <ele>1228.8000488281</ele>
        <time>2022-02-11T12:01:25.000Z</time>
      </trkpt>
      <trkpt lat="43.72693" lon="7.02581">
        <ele>1228.1999511719</ele>
        <time>2022-02-11T12:01:27.000Z</time>
      </trkpt>
      <trkpt lat="43.7269" lon="7.02585">
        <ele>1227.4000244141</ele>
        <time>2022-02-11T12:01:28.000Z</time>
      </trkpt>
      <trkpt lat="43.72684" lon="7.02593">
        <ele>1226.4000244141</ele>
        <time>2022-02-11T12:01:30.000Z</time>
      </trkpt>
      <trkpt lat="43.72679" lon="7.026">
        <ele>1225.1999511719</ele>
        <time>2022-02-11T12:01:32.000Z</time>
      </trkpt>
      <trkpt lat="43.72675" lon="7.02608">
        <ele>1223.5999755859</ele>
        <time>2022-02-11T12:01:34.000Z</time>
      </trkpt>
      <trkpt lat="43.7267" lon="7.02615">
        <ele>1221.8000488281</ele>
        <time>2022-02-11T12:01:36.000Z</time>
      </trkpt>
      <trkpt lat="43.72669" lon="7.02618">
        <ele>1220.5999755859</ele>
        <time>2022-02-11T12:01:37.000Z</time>
      </trkpt>
      <trkpt lat="43.72667" lon="7.02624">
        <ele>1219.4000244141</ele>
        <time>2022-02-11T12:01:39.000Z</time>
      </trkpt>
      <trkpt lat="43.72667" lon="7.02638">
        <ele>1218</ele>
        <time>2022-02-11T12:01:42.000Z</time>
      </trkpt>
      <trkpt lat="43.72662" lon="7.02648">
        <ele>1216.1999511719</ele>
        <time>2022-02-11T12:01:45.000Z</time>
      </trkpt>
      <trkpt lat="43.7266" lon="7.02651">
        <ele>1215.5999755859</ele>
        <time>2022-02-11T12:01:46.000Z</time>
      </trkpt>
      <trkpt lat="43.72658" lon="7.02653">
        <ele>1215.1999511719</ele>
        <time>2022-02-11T12:01:47.000Z</time>
      </trkpt>
      <trkpt lat="43.72655" lon="7.02662">
        <ele>1214.1999511719</ele>
        <time>2022-02-11T12:01:49.000Z</time>
      </trkpt>
      <trkpt lat="43.72652" lon="7.02671">
        <ele>1212.8000488281</ele>
        <time>2022-02-11T12:01:51.000Z</time>
      </trkpt>
      <trkpt lat="43.72651" lon="7.02676">
        <ele>1212</ele>
        <time>2022-02-11T12:01:52.000Z</time>
      </trkpt>
      <trkpt lat="43.7265" lon="7.02681">
        <ele>1211</ele>
        <time>2022-02-11T12:01:53.000Z</time>
      </trkpt>
      <trkpt lat="43.72648" lon="7.02689">
        <ele>1209.1999511719</ele>
        <time>2022-02-11T12:01:55.000Z</time>
      </trkpt>
      <trkpt lat="43.72645" lon="7.02694">
        <ele>1208.1999511719</ele>
        <time>2022-02-11T12:01:57.000Z</time>
      </trkpt>
      <trkpt lat="43.72644" lon="7.02697">
        <ele>1207.4000244141</ele>
        <time>2022-02-11T12:01:58.000Z</time>
      </trkpt>
      <trkpt lat="43.72641" lon="7.02704">
        <ele>1205.8000488281</ele>
        <time>2022-02-11T12:02:01.000Z</time>
      </trkpt>
      <trkpt lat="43.72638" lon="7.0271">
        <ele>1203.8000488281</ele>
        <time>2022-02-11T12:02:03.000Z</time>
      </trkpt>
      <trkpt lat="43.72637" lon="7.02713">
        <ele>1202.8000488281</ele>
        <time>2022-02-11T12:02:04.000Z</time>
      </trkpt>
      <trkpt lat="43.72631" lon="7.02717">
        <ele>1200.8000488281</ele>
        <time>2022-02-11T12:02:06.000Z</time>
      </trkpt>
      <trkpt lat="43.72628" lon="7.02719">
        <ele>1199.8000488281</ele>
        <time>2022-02-11T12:02:07.000Z</time>
      </trkpt>
      <trkpt lat="43.72627" lon="7.0272">
        <ele>1199</ele>
        <time>2022-02-11T12:02:08.000Z</time>
      </trkpt>
      <trkpt lat="43.72625" lon="7.02721">
        <ele>1197.8000488281</ele>
        <time>2022-02-11T12:02:09.000Z</time>
      </trkpt>
      <trkpt lat="43.72623" lon="7.02722">
        <ele>1196.8000488281</ele>
        <time>2022-02-11T12:02:10.000Z</time>
      </trkpt>
      <trkpt lat="43.72623" lon="7.02722">
        <ele>1196.5999755859</ele>
        <time>2022-02-11T12:02:11.000Z</time>
      </trkpt>
      <trkpt lat="43.72621" lon="7.02722">
        <ele>1195.8000488281</ele>
        <time>2022-02-11T12:02:13.000Z</time>
      </trkpt>
      <trkpt lat="43.72621" lon="7.02723">
        <ele>1195.4000244141</ele>
        <time>2022-02-11T12:02:14.000Z</time>
      </trkpt>
      <trkpt lat="43.72619" lon="7.02728">
        <ele>1195.4000244141</ele>
        <time>2022-02-11T12:02:17.000Z</time>
      </trkpt>
      <trkpt lat="43.72614" lon="7.02733">
        <ele>1194.1999511719</ele>
        <time>2022-02-11T12:02:20.000Z</time>
      </trkpt>
      <trkpt lat="43.72613" lon="7.02734">
        <ele>1193.4000244141</ele>
        <time>2022-02-11T12:02:21.000Z</time>
      </trkpt>
      <trkpt lat="43.72611" lon="7.02734">
        <ele>1192.8000488281</ele>
        <time>2022-02-11T12:02:22.000Z</time>
      </trkpt>
      <trkpt lat="43.7261" lon="7.02736">
        <ele>1191.1999511719</ele>
        <time>2022-02-11T12:02:24.000Z</time>
      </trkpt>
      <trkpt lat="43.72609" lon="7.02738">
        <ele>1190.4000244141</ele>
        <time>2022-02-11T12:02:25.000Z</time>
      </trkpt>
      <trkpt lat="43.72609" lon="7.02741">
        <ele>1189.8000488281</ele>
        <time>2022-02-11T12:02:26.000Z</time>
      </trkpt>
      <trkpt lat="43.72607" lon="7.02748">
        <ele>1188.5999755859</ele>
        <time>2022-02-11T12:02:28.000Z</time>
      </trkpt>
      <trkpt lat="43.72607" lon="7.02751">
        <ele>1188.1999511719</ele>
        <time>2022-02-11T12:02:29.000Z</time>
      </trkpt>
      <trkpt lat="43.72606" lon="7.02755">
        <ele>1187.5999755859</ele>
        <time>2022-02-11T12:02:30.000Z</time>
      </trkpt>
      <trkpt lat="43.72604" lon="7.02762">
        <ele>1186.1999511719</ele>
        <time>2022-02-11T12:02:32.000Z</time>
      </trkpt>
      <trkpt lat="43.72602" lon="7.02763">
        <ele>1185.5999755859</ele>
        <time>2022-02-11T12:02:33.000Z</time>
      </trkpt>
      <trkpt lat="43.72601" lon="7.02765">
        <ele>1184.8000488281</ele>
        <time>2022-02-11T12:02:34.000Z</time>
      </trkpt>
      <trkpt lat="43.72599" lon="7.02769">
        <ele>1183.8000488281</ele>
        <time>2022-02-11T12:02:36.000Z</time>
      </trkpt>
      <trkpt lat="43.72597" lon="7.02772">
        <ele>1183</ele>
        <time>2022-02-11T12:02:38.000Z</time>
      </trkpt>
      <trkpt lat="43.72597" lon="7.02774">
        <ele>1182.8000488281</ele>
        <time>2022-02-11T12:02:39.000Z</time>
      </trkpt>
      <trkpt lat="43.72596" lon="7.02777">
        <ele>1181.5999755859</ele>
        <time>2022-02-11T12:02:41.000Z</time>
      </trkpt>
      <trkpt lat="43.72596" lon="7.02778">
        <ele>1180.8000488281</ele>
        <time>2022-02-11T12:02:42.000Z</time>
      </trkpt>
      <trkpt lat="43.72595" lon="7.02778">
        <ele>1180</ele>
        <time>2022-02-11T12:02:43.000Z</time>
      </trkpt>
      <trkpt lat="43.72594" lon="7.02779">
        <ele>1178.5999755859</ele>
        <time>2022-02-11T12:02:45.000Z</time>
      </trkpt>
      <trkpt lat="43.72594" lon="7.02781">
        <ele>1177.8000488281</ele>
        <time>2022-02-11T12:02:47.000Z</time>
      </trkpt>
      <trkpt lat="43.72592" lon="7.02781">
        <ele>1177.5999755859</ele>
        <time>2022-02-11T12:02:48.000Z</time>
      </trkpt>
      <trkpt lat="43.72592" lon="7.02781">
        <ele>1176.4000244141</ele>
        <time>2022-02-11T12:02:53.000Z</time>
      </trkpt>
      <trkpt lat="43.7259" lon="7.0278">
        <ele>1175.8000488281</ele>
        <time>2022-02-11T12:03:01.000Z</time>
      </trkpt>
      <trkpt lat="43.72588" lon="7.02781">
        <ele>1175.5999755859</ele>
        <time>2022-02-11T12:03:03.000Z</time>
      </trkpt>
      <trkpt lat="43.72588" lon="7.02782">
        <ele>1175.1999511719</ele>
        <time>2022-02-11T12:03:04.000Z</time>
      </trkpt>
      <trkpt lat="43.72587" lon="7.02786">
        <ele>1174.4000244141</ele>
        <time>2022-02-11T12:03:06.000Z</time>
      </trkpt>
      <trkpt lat="43.72586" lon="7.02789">
        <ele>1174</ele>
        <time>2022-02-11T12:03:07.000Z</time>
      </trkpt>
      <trkpt lat="43.72586" lon="7.02798">
        <ele>1173</ele>
        <time>2022-02-11T12:03:10.000Z</time>
      </trkpt>
      <trkpt lat="43.72586" lon="7.02802">
        <ele>1172.4000244141</ele>
        <time>2022-02-11T12:03:12.000Z</time>
      </trkpt>
      <trkpt lat="43.72584" lon="7.02808">
        <ele>1171.5999755859</ele>
        <time>2022-02-11T12:03:14.000Z</time>
      </trkpt>
      <trkpt lat="43.72583" lon="7.02818">
        <ele>1170.5999755859</ele>
        <time>2022-02-11T12:03:16.000Z</time>
      </trkpt>
      <trkpt lat="43.72585" lon="7.02828">
        <ele>1169.1999511719</ele>
        <time>2022-02-11T12:03:18.000Z</time>
      </trkpt>
      <trkpt lat="43.72587" lon="7.02834">
        <ele>1167.5999755859</ele>
        <time>2022-02-11T12:03:20.000Z</time>
      </trkpt>
      <trkpt lat="43.72588" lon="7.02835">
        <ele>1166.8000488281</ele>
        <time>2022-02-11T12:03:24.000Z</time>
      </trkpt>
      <trkpt lat="43.72588" lon="7.02835">
        <ele>1166.4000244141</ele>
        <time>2022-02-11T12:03:25.000Z</time>
      </trkpt>
      <trkpt lat="43.72587" lon="7.02834">
        <ele>1166.1999511719</ele>
        <time>2022-02-11T12:03:30.000Z</time>
      </trkpt>
      <trkpt lat="43.72586" lon="7.02828">
        <ele>1167</ele>
        <time>2022-02-11T12:03:37.000Z</time>
      </trkpt>
      <trkpt lat="43.72585" lon="7.02828">
        <ele>1167.1999511719</ele>
        <time>2022-02-11T12:03:43.000Z</time>
      </trkpt>
      <trkpt lat="43.72584" lon="7.02827">
        <ele>1167</ele>
        <time>2022-02-11T12:03:53.000Z</time>
      </trkpt>
      <trkpt lat="43.72581" lon="7.02828">
        <ele>1166.8000488281</ele>
        <time>2022-02-11T12:04:05.000Z</time>
      </trkpt>
      <trkpt lat="43.72578" lon="7.02829">
        <ele>1165.4000244141</ele>
        <time>2022-02-11T12:04:12.000Z</time>
      </trkpt>
      <trkpt lat="43.72577" lon="7.02829">
        <ele>1164.8000488281</ele>
        <time>2022-02-11T12:04:18.000Z</time>
      </trkpt>
      <trkpt lat="43.7257" lon="7.02833">
        <ele>1164.4000244141</ele>
        <time>2022-02-11T12:04:23.000Z</time>
      </trkpt>
      <trkpt lat="43.72569" lon="7.02833">
        <ele>1164.1999511719</ele>
        <time>2022-02-11T12:04:24.000Z</time>
      </trkpt>
      <trkpt lat="43.72567" lon="7.02834">
        <ele>1163.1999511719</ele>
        <time>2022-02-11T12:04:26.000Z</time>
      </trkpt>
      <trkpt lat="43.72566" lon="7.02835">
        <ele>1161.5999755859</ele>
        <time>2022-02-11T12:04:28.000Z</time>
      </trkpt>
      <trkpt lat="43.72566" lon="7.02836">
        <ele>1161.1999511719</ele>
        <time>2022-02-11T12:04:29.000Z</time>
      </trkpt>
      <trkpt lat="43.72564" lon="7.0284">
        <ele>1160.5999755859</ele>
        <time>2022-02-11T12:04:31.000Z</time>
      </trkpt>
      <trkpt lat="43.72561" lon="7.02842">
        <ele>1160</ele>
        <time>2022-02-11T12:04:33.000Z</time>
      </trkpt>
      <trkpt lat="43.72558" lon="7.02842">
        <ele>1159.4000244141</ele>
        <time>2022-02-11T12:04:35.000Z</time>
      </trkpt>
      <trkpt lat="43.72554" lon="7.02843">
        <ele>1158.5999755859</ele>
        <time>2022-02-11T12:04:37.000Z</time>
      </trkpt>
      <trkpt lat="43.72552" lon="7.02844">
        <ele>1158.1999511719</ele>
        <time>2022-02-11T12:04:38.000Z</time>
      </trkpt>
      <trkpt lat="43.72547" lon="7.02844">
        <ele>1156.4000244141</ele>
        <time>2022-02-11T12:04:41.000Z</time>
      </trkpt>
      <trkpt lat="43.72545" lon="7.02844">
        <ele>1155.8000488281</ele>
        <time>2022-02-11T12:04:42.000Z</time>
      </trkpt>
      <trkpt lat="43.72544" lon="7.02844">
        <ele>1154.5999755859</ele>
        <time>2022-02-11T12:04:43.000Z</time>
      </trkpt>
      <trkpt lat="43.72542" lon="7.02845">
        <ele>1154</ele>
        <time>2022-02-11T12:04:44.000Z</time>
      </trkpt>
      <trkpt lat="43.7254" lon="7.02846">
        <ele>1153.4000244141</ele>
        <time>2022-02-11T12:04:45.000Z</time>
      </trkpt>
      <trkpt lat="43.72536" lon="7.02846">
        <ele>1152</ele>
        <time>2022-02-11T12:04:47.000Z</time>
      </trkpt>
      <trkpt lat="43.72533" lon="7.02847">
        <ele>1150.8000488281</ele>
        <time>2022-02-11T12:04:49.000Z</time>
      </trkpt>
      <trkpt lat="43.72529" lon="7.02848">
        <ele>1149.1999511719</ele>
        <time>2022-02-11T12:04:51.000Z</time>
      </trkpt>
      <trkpt lat="43.72526" lon="7.02849">
        <ele>1148</ele>
        <time>2022-02-11T12:04:53.000Z</time>
      </trkpt>
      <trkpt lat="43.72523" lon="7.02848">
        <ele>1146.5999755859</ele>
        <time>2022-02-11T12:04:55.000Z</time>
      </trkpt>
      <trkpt lat="43.72519" lon="7.02847">
        <ele>1145</ele>
        <time>2022-02-11T12:04:58.000Z</time>
      </trkpt>
      <trkpt lat="43.72518" lon="7.02848">
        <ele>1144.4000244141</ele>
        <time>2022-02-11T12:04:59.000Z</time>
      </trkpt>
      <trkpt lat="43.72517" lon="7.0285">
        <ele>1144</ele>
        <time>2022-02-11T12:05:00.000Z</time>
      </trkpt>
      <trkpt lat="43.72514" lon="7.02856">
        <ele>1142.1999511719</ele>
        <time>2022-02-11T12:05:02.000Z</time>
      </trkpt>
      <trkpt lat="43.72512" lon="7.02858">
        <ele>1141.5999755859</ele>
        <time>2022-02-11T12:05:03.000Z</time>
      </trkpt>
      <trkpt lat="43.7251" lon="7.0286">
        <ele>1141</ele>
        <time>2022-02-11T12:05:04.000Z</time>
      </trkpt>
      <trkpt lat="43.72508" lon="7.02862">
        <ele>1140</ele>
        <time>2022-02-11T12:05:05.000Z</time>
      </trkpt>
      <trkpt lat="43.72506" lon="7.02864">
        <ele>1139.4000244141</ele>
        <time>2022-02-11T12:05:06.000Z</time>
      </trkpt>
      <trkpt lat="43.72502" lon="7.02865">
        <ele>1138</ele>
        <time>2022-02-11T12:05:08.000Z</time>
      </trkpt>
      <trkpt lat="43.725" lon="7.02867">
        <ele>1137</ele>
        <time>2022-02-11T12:05:09.000Z</time>
      </trkpt>
      <trkpt lat="43.72499" lon="7.02869">
        <ele>1136.1999511719</ele>
        <time>2022-02-11T12:05:10.000Z</time>
      </trkpt>
      <trkpt lat="43.72496" lon="7.02873">
        <ele>1135</ele>
        <time>2022-02-11T12:05:12.000Z</time>
      </trkpt>
      <trkpt lat="43.72491" lon="7.02875">
        <ele>1133.8000488281</ele>
        <time>2022-02-11T12:05:14.000Z</time>
      </trkpt>
      <trkpt lat="43.72488" lon="7.02876">
        <ele>1133.1999511719</ele>
        <time>2022-02-11T12:05:15.000Z</time>
      </trkpt>
      <trkpt lat="43.72485" lon="7.02877">
        <ele>1132.5999755859</ele>
        <time>2022-02-11T12:05:16.000Z</time>
      </trkpt>
      <trkpt lat="43.72481" lon="7.02874">
        <ele>1131</ele>
        <time>2022-02-11T12:05:18.000Z</time>
      </trkpt>
      <trkpt lat="43.72479" lon="7.02871">
        <ele>1129.8000488281</ele>
        <time>2022-02-11T12:05:19.000Z</time>
      </trkpt>
      <trkpt lat="43.72476" lon="7.02868">
        <ele>1128.8000488281</ele>
        <time>2022-02-11T12:05:20.000Z</time>
      </trkpt>
      <trkpt lat="43.72474" lon="7.02865">
        <ele>1127.5999755859</ele>
        <time>2022-02-11T12:05:21.000Z</time>
      </trkpt>
      <trkpt lat="43.72471" lon="7.02864">
        <ele>1126.1999511719</ele>
        <time>2022-02-11T12:05:22.000Z</time>
      </trkpt>
      <trkpt lat="43.72468" lon="7.02866">
        <ele>1125.4000244141</ele>
        <time>2022-02-11T12:05:24.000Z</time>
      </trkpt>
      <trkpt lat="43.72465" lon="7.02867">
        <ele>1124.8000488281</ele>
        <time>2022-02-11T12:05:25.000Z</time>
      </trkpt>
      <trkpt lat="43.72461" lon="7.02867">
        <ele>1123</ele>
        <time>2022-02-11T12:05:27.000Z</time>
      </trkpt>
      <trkpt lat="43.7246" lon="7.02869">
        <ele>1121.8000488281</ele>
        <time>2022-02-11T12:05:29.000Z</time>
      </trkpt>
      <trkpt lat="43.72456" lon="7.02872">
        <ele>1120.8000488281</ele>
        <time>2022-02-11T12:05:31.000Z</time>
      </trkpt>
      <trkpt lat="43.72454" lon="7.02873">
        <ele>1120.1999511719</ele>
        <time>2022-02-11T12:05:32.000Z</time>
      </trkpt>
      <trkpt lat="43.72452" lon="7.02874">
        <ele>1119.5999755859</ele>
        <time>2022-02-11T12:05:33.000Z</time>
      </trkpt>
      <trkpt lat="43.72451" lon="7.02874">
        <ele>1119.4000244141</ele>
        <time>2022-02-11T12:05:34.000Z</time>
      </trkpt>
      <trkpt lat="43.72446" lon="7.02874">
        <ele>1117.5999755859</ele>
        <time>2022-02-11T12:05:36.000Z</time>
      </trkpt>
      <trkpt lat="43.72444" lon="7.02874">
        <ele>1117.5999755859</ele>
        <time>2022-02-11T12:05:37.000Z</time>
      </trkpt>
      <trkpt lat="43.72443" lon="7.02875">
        <ele>1117</ele>
        <time>2022-02-11T12:05:38.000Z</time>
      </trkpt>
      <trkpt lat="43.72441" lon="7.02878">
        <ele>1116</ele>
        <time>2022-02-11T12:05:39.000Z</time>
      </trkpt>
      <trkpt lat="43.7244" lon="7.0288">
        <ele>1115.4000244141</ele>
        <time>2022-02-11T12:05:40.000Z</time>
      </trkpt>
      <trkpt lat="43.72438" lon="7.0288">
        <ele>1114.5999755859</ele>
        <time>2022-02-11T12:05:41.000Z</time>
      </trkpt>
      <trkpt lat="43.72436" lon="7.0288">
        <ele>1113.4000244141</ele>
        <time>2022-02-11T12:05:42.000Z</time>
      </trkpt>
      <trkpt lat="43.72433" lon="7.02882">
        <ele>1111.5999755859</ele>
        <time>2022-02-11T12:05:44.000Z</time>
      </trkpt>
      <trkpt lat="43.72429" lon="7.02889">
        <ele>1109.4000244141</ele>
        <time>2022-02-11T12:05:46.000Z</time>
      </trkpt>
      <trkpt lat="43.72425" lon="7.02896">
        <ele>1108</ele>
        <time>2022-02-11T12:05:48.000Z</time>
      </trkpt>
      <trkpt lat="43.72417" lon="7.02908">
        <ele>1106.8000488281</ele>
        <time>2022-02-11T12:05:51.000Z</time>
      </trkpt>
      <trkpt lat="43.72413" lon="7.02914">
        <ele>1105.1999511719</ele>
        <time>2022-02-11T12:05:53.000Z</time>
      </trkpt>
      <trkpt lat="43.72411" lon="7.02916">
        <ele>1104.4000244141</ele>
        <time>2022-02-11T12:05:54.000Z</time>
      </trkpt>
      <trkpt lat="43.72408" lon="7.02916">
        <ele>1103</ele>
        <time>2022-02-11T12:05:55.000Z</time>
      </trkpt>
      <trkpt lat="43.72406" lon="7.02915">
        <ele>1101.1999511719</ele>
        <time>2022-02-11T12:05:56.000Z</time>
      </trkpt>
      <trkpt lat="43.72405" lon="7.02913">
        <ele>1099.4000244141</ele>
        <time>2022-02-11T12:05:57.000Z</time>
      </trkpt>
      <trkpt lat="43.72404" lon="7.02911">
        <ele>1098.1999511719</ele>
        <time>2022-02-11T12:05:58.000Z</time>
      </trkpt>
      <trkpt lat="43.72404" lon="7.0291">
        <ele>1097.1999511719</ele>
        <time>2022-02-11T12:05:59.000Z</time>
      </trkpt>
      <trkpt lat="43.72404" lon="7.0291">
        <ele>1096</ele>
        <time>2022-02-11T12:06:01.000Z</time>
      </trkpt>
      <trkpt lat="43.72404" lon="7.0291">
        <ele>1095.8000488281</ele>
        <time>2022-02-11T12:06:02.000Z</time>
      </trkpt>
      <trkpt lat="43.72404" lon="7.0291">
        <ele>1095.5999755859</ele>
        <time>2022-02-11T12:06:19.000Z</time>
      </trkpt>
      <trkpt lat="43.72404" lon="7.0291">
        <ele>1095.5999755859</ele>
        <time>2022-02-11T12:06:29.000Z</time>
      </trkpt>
      <trkpt lat="43.72404" lon="7.0291">
        <ele>1095.5999755859</ele>
        <time>2022-02-11T12:06:40.000Z</time>
      </trkpt>
      <trkpt lat="43.72404" lon="7.0291">
        <ele>1095.8000488281</ele>
        <time>2022-02-11T12:06:56.000Z</time>
      </trkpt>
      <trkpt lat="43.72405" lon="7.0291">
        <ele>1095.5999755859</ele>
        <time>2022-02-11T12:07:06.000Z</time>
      </trkpt>
      <trkpt lat="43.72404" lon="7.0291">
        <ele>1095.5999755859</ele>
        <time>2022-02-11T12:07:20.000Z</time>
      </trkpt>
      <trkpt lat="43.72401" lon="7.02907">
        <ele>1095.1999511719</ele>
        <time>2022-02-11T12:07:25.000Z</time>
      </trkpt>
      <trkpt lat="43.72397" lon="7.02902">
        <ele>1094.8000488281</ele>
        <time>2022-02-11T12:07:28.000Z</time>
      </trkpt>
      <trkpt lat="43.72394" lon="7.02899">
        <ele>1093.8000488281</ele>
        <time>2022-02-11T12:07:30.000Z</time>
      </trkpt>
      <trkpt lat="43.72392" lon="7.02896">
        <ele>1093.1999511719</ele>
        <time>2022-02-11T12:07:31.000Z</time>
      </trkpt>
      <trkpt lat="43.72386" lon="7.02885">
        <ele>1091.4000244141</ele>
        <time>2022-02-11T12:07:34.000Z</time>
      </trkpt>
      <trkpt lat="43.72384" lon="7.02881">
        <ele>1090.4000244141</ele>
        <time>2022-02-11T12:07:35.000Z</time>
      </trkpt>
      <trkpt lat="43.72381" lon="7.02877">
        <ele>1090</ele>
        <time>2022-02-11T12:07:36.000Z</time>
      </trkpt>
      <trkpt lat="43.7238" lon="7.02876">
        <ele>1089.1999511719</ele>
        <time>2022-02-11T12:07:37.000Z</time>
      </trkpt>
      <trkpt lat="43.72379" lon="7.02877">
        <ele>1088.1999511719</ele>
        <time>2022-02-11T12:07:38.000Z</time>
      </trkpt>
      <trkpt lat="43.72375" lon="7.02886">
        <ele>1086.8000488281</ele>
        <time>2022-02-11T12:07:41.000Z</time>
      </trkpt>
      <trkpt lat="43.72372" lon="7.0289">
        <ele>1086</ele>
        <time>2022-02-11T12:07:42.000Z</time>
      </trkpt>
      <trkpt lat="43.7237" lon="7.02894">
        <ele>1085.4000244141</ele>
        <time>2022-02-11T12:07:43.000Z</time>
      </trkpt>
      <trkpt lat="43.72364" lon="7.029">
        <ele>1084.5999755859</ele>
        <time>2022-02-11T12:07:45.000Z</time>
      </trkpt>
      <trkpt lat="43.72362" lon="7.02902">
        <ele>1083.8000488281</ele>
        <time>2022-02-11T12:07:46.000Z</time>
      </trkpt>
      <trkpt lat="43.7236" lon="7.02904">
        <ele>1082.5999755859</ele>
        <time>2022-02-11T12:07:47.000Z</time>
      </trkpt>
      <trkpt lat="43.72358" lon="7.02904">
        <ele>1081.5999755859</ele>
        <time>2022-02-11T12:07:48.000Z</time>
      </trkpt>
      <trkpt lat="43.72354" lon="7.02899">
        <ele>1080</ele>
        <time>2022-02-11T12:07:50.000Z</time>
      </trkpt>
      <trkpt lat="43.7235" lon="7.02891">
        <ele>1078.1999511719</ele>
        <time>2022-02-11T12:07:52.000Z</time>
      </trkpt>
      <trkpt lat="43.72344" lon="7.02879">
        <ele>1076.4000244141</ele>
        <time>2022-02-11T12:07:55.000Z</time>
      </trkpt>
      <trkpt lat="43.72341" lon="7.02879">
        <ele>1076</ele>
        <time>2022-02-11T12:07:56.000Z</time>
      </trkpt>
      <trkpt lat="43.72337" lon="7.02885">
        <ele>1075</ele>
        <time>2022-02-11T12:07:58.000Z</time>
      </trkpt>
      <trkpt lat="43.72335" lon="7.02888">
        <ele>1074.1999511719</ele>
        <time>2022-02-11T12:07:59.000Z</time>
      </trkpt>
      <trkpt lat="43.72332" lon="7.02889">
        <ele>1073.1999511719</ele>
        <time>2022-02-11T12:08:00.000Z</time>
      </trkpt>
      <trkpt lat="43.72329" lon="7.02884">
        <ele>1072.5999755859</ele>
        <time>2022-02-11T12:08:02.000Z</time>
      </trkpt>
      <trkpt lat="43.72325" lon="7.02882">
        <ele>1072</ele>
        <time>2022-02-11T12:08:04.000Z</time>
      </trkpt>
      <trkpt lat="43.72322" lon="7.02881">
        <ele>1071.5999755859</ele>
        <time>2022-02-11T12:08:05.000Z</time>
      </trkpt>
      <trkpt lat="43.72321" lon="7.02879">
        <ele>1070.8000488281</ele>
        <time>2022-02-11T12:08:06.000Z</time>
      </trkpt>
      <trkpt lat="43.72321" lon="7.02876">
        <ele>1069.8000488281</ele>
        <time>2022-02-11T12:08:07.000Z</time>
      </trkpt>
      <trkpt lat="43.72321" lon="7.02873">
        <ele>1069.1999511719</ele>
        <time>2022-02-11T12:08:08.000Z</time>
      </trkpt>
      <trkpt lat="43.72322" lon="7.02869">
        <ele>1068.5999755859</ele>
        <time>2022-02-11T12:08:09.000Z</time>
      </trkpt>
      <trkpt lat="43.72322" lon="7.02858">
        <ele>1067.4000244141</ele>
        <time>2022-02-11T12:08:12.000Z</time>
      </trkpt>
      <trkpt lat="43.7232" lon="7.02852">
        <ele>1066.1999511719</ele>
        <time>2022-02-11T12:08:15.000Z</time>
      </trkpt>
      <trkpt lat="43.7232" lon="7.02853">
        <ele>1065.4000244141</ele>
        <time>2022-02-11T12:08:16.000Z</time>
      </trkpt>
      <trkpt lat="43.7232" lon="7.02852">
        <ele>1064.8000488281</ele>
        <time>2022-02-11T12:08:17.000Z</time>
      </trkpt>
      <trkpt lat="43.7232" lon="7.02852">
        <ele>1063.8000488281</ele>
        <time>2022-02-11T12:08:19.000Z</time>
      </trkpt>
      <trkpt lat="43.72319" lon="7.02851">
        <ele>1063.4000244141</ele>
        <time>2022-02-11T12:08:23.000Z</time>
      </trkpt>
      <trkpt lat="43.72316" lon="7.02853">
        <ele>1063.1999511719</ele>
        <time>2022-02-11T12:08:25.000Z</time>
      </trkpt>
      <trkpt lat="43.72313" lon="7.02852">
        <ele>1062.8000488281</ele>
        <time>2022-02-11T12:08:27.000Z</time>
      </trkpt>
      <trkpt lat="43.72314" lon="7.0285">
        <ele>1062.4000244141</ele>
        <time>2022-02-11T12:08:28.000Z</time>
      </trkpt>
      <trkpt lat="43.72314" lon="7.02846">
        <ele>1062</ele>
        <time>2022-02-11T12:08:29.000Z</time>
      </trkpt>
      <trkpt lat="43.72315" lon="7.02843">
        <ele>1061.5999755859</ele>
        <time>2022-02-11T12:08:30.000Z</time>
      </trkpt>
      <trkpt lat="43.72315" lon="7.0284">
        <ele>1061.1999511719</ele>
        <time>2022-02-11T12:08:31.000Z</time>
      </trkpt>
      <trkpt lat="43.72316" lon="7.02837">
        <ele>1061</ele>
        <time>2022-02-11T12:08:32.000Z</time>
      </trkpt>
      <trkpt lat="43.72316" lon="7.02835">
        <ele>1060.5999755859</ele>
        <time>2022-02-11T12:08:33.000Z</time>
      </trkpt>
      <trkpt lat="43.72315" lon="7.02833">
        <ele>1059.4000244141</ele>
        <time>2022-02-11T12:08:36.000Z</time>
      </trkpt>
      <trkpt lat="43.72315" lon="7.02833">
        <ele>1058.8000488281</ele>
        <time>2022-02-11T12:08:37.000Z</time>
      </trkpt>
      <trkpt lat="43.72312" lon="7.02836">
        <ele>1058</ele>
        <time>2022-02-11T12:08:39.000Z</time>
      </trkpt>
      <trkpt lat="43.7231" lon="7.02838">
        <ele>1057.8000488281</ele>
        <time>2022-02-11T12:08:40.000Z</time>
      </trkpt>
      <trkpt lat="43.72301" lon="7.02842">
        <ele>1056.4000244141</ele>
        <time>2022-02-11T12:08:43.000Z</time>
      </trkpt>
      <trkpt lat="43.72299" lon="7.02844">
        <ele>1055.5999755859</ele>
        <time>2022-02-11T12:08:44.000Z</time>
      </trkpt>
      <trkpt lat="43.72298" lon="7.02844">
        <ele>1055</ele>
        <time>2022-02-11T12:08:45.000Z</time>
      </trkpt>
      <trkpt lat="43.72297" lon="7.02843">
        <ele>1054</ele>
        <time>2022-02-11T12:08:47.000Z</time>
      </trkpt>
      <trkpt lat="43.72297" lon="7.02842">
        <ele>1053.4000244141</ele>
        <time>2022-02-11T12:08:48.000Z</time>
      </trkpt>
      <trkpt lat="43.72299" lon="7.02839">
        <ele>1052.5999755859</ele>
        <time>2022-02-11T12:08:50.000Z</time>
      </trkpt>
      <trkpt lat="43.72299" lon="7.02839">
        <ele>1052</ele>
        <time>2022-02-11T12:08:52.000Z</time>
      </trkpt>
      <trkpt lat="43.72299" lon="7.02836">
        <ele>1051.4000244141</ele>
        <time>2022-02-11T12:08:55.000Z</time>
      </trkpt>
      <trkpt lat="43.72299" lon="7.02835">
        <ele>1051</ele>
        <time>2022-02-11T12:08:56.000Z</time>
      </trkpt>
      <trkpt lat="43.72299" lon="7.02835">
        <ele>1050.4000244141</ele>
        <time>2022-02-11T12:08:59.000Z</time>
      </trkpt>
      <trkpt lat="43.72298" lon="7.02835">
        <ele>1050</ele>
        <time>2022-02-11T12:09:03.000Z</time>
      </trkpt>
      <trkpt lat="43.72297" lon="7.02833">
        <ele>1049.4000244141</ele>
        <time>2022-02-11T12:09:09.000Z</time>
      </trkpt>
      <trkpt lat="43.72293" lon="7.02835">
        <ele>1048.4000244141</ele>
        <time>2022-02-11T12:09:13.000Z</time>
      </trkpt>
      <trkpt lat="43.72292" lon="7.02834">
        <ele>1048.1999511719</ele>
        <time>2022-02-11T12:09:14.000Z</time>
      </trkpt>
      <trkpt lat="43.72291" lon="7.02831">
        <ele>1047.5999755859</ele>
        <time>2022-02-11T12:09:16.000Z</time>
      </trkpt>
      <trkpt lat="43.72292" lon="7.02829">
        <ele>1047.1999511719</ele>
        <time>2022-02-11T12:09:17.000Z</time>
      </trkpt>
      <trkpt lat="43.72291" lon="7.02828">
        <ele>1046</ele>
        <time>2022-02-11T12:09:20.000Z</time>
      </trkpt>
      <trkpt lat="43.72286" lon="7.02831">
        <ele>1044.8000488281</ele>
        <time>2022-02-11T12:09:23.000Z</time>
      </trkpt>
      <trkpt lat="43.72285" lon="7.02833">
        <ele>1044.1999511719</ele>
        <time>2022-02-11T12:09:24.000Z</time>
      </trkpt>
      <trkpt lat="43.72283" lon="7.02833">
        <ele>1043.5999755859</ele>
        <time>2022-02-11T12:09:25.000Z</time>
      </trkpt>
      <trkpt lat="43.72281" lon="7.02833">
        <ele>1042.1999511719</ele>
        <time>2022-02-11T12:09:27.000Z</time>
      </trkpt>
      <trkpt lat="43.7228" lon="7.02833">
        <ele>1041.5999755859</ele>
        <time>2022-02-11T12:09:28.000Z</time>
      </trkpt>
      <trkpt lat="43.72279" lon="7.02833">
        <ele>1041.1999511719</ele>
        <time>2022-02-11T12:09:29.000Z</time>
      </trkpt>
      <trkpt lat="43.7228" lon="7.02833">
        <ele>1040.8000488281</ele>
        <time>2022-02-11T12:09:30.000Z</time>
      </trkpt>
      <trkpt lat="43.72279" lon="7.02833">
        <ele>1039.8000488281</ele>
        <time>2022-02-11T12:09:32.000Z</time>
      </trkpt>
      <trkpt lat="43.72279" lon="7.02832">
        <ele>1039</ele>
        <time>2022-02-11T12:09:34.000Z</time>
      </trkpt>
      <trkpt lat="43.72281" lon="7.02829">
        <ele>1039.4000244141</ele>
        <time>2022-02-11T12:09:40.000Z</time>
      </trkpt>
      <trkpt lat="43.72278" lon="7.02827">
        <ele>1038.5999755859</ele>
        <time>2022-02-11T12:09:46.000Z</time>
      </trkpt>
      <trkpt lat="43.72278" lon="7.02828">
        <ele>1037.5999755859</ele>
        <time>2022-02-11T12:09:49.000Z</time>
      </trkpt>
      <trkpt lat="43.72277" lon="7.02829">
        <ele>1037.4000244141</ele>
        <time>2022-02-11T12:09:51.000Z</time>
      </trkpt>
      <trkpt lat="43.72276" lon="7.0283">
        <ele>1037.4000244141</ele>
        <time>2022-02-11T12:09:52.000Z</time>
      </trkpt>
      <trkpt lat="43.72268" lon="7.02836">
        <ele>1036.1999511719</ele>
        <time>2022-02-11T12:09:56.000Z</time>
      </trkpt>
      <trkpt lat="43.72266" lon="7.02838">
        <ele>1035</ele>
        <time>2022-02-11T12:09:58.000Z</time>
      </trkpt>
      <trkpt lat="43.72265" lon="7.02838">
        <ele>1034.4000244141</ele>
        <time>2022-02-11T12:09:59.000Z</time>
      </trkpt>
      <trkpt lat="43.72264" lon="7.02838">
        <ele>1033.8000488281</ele>
        <time>2022-02-11T12:10:00.000Z</time>
      </trkpt>
      <trkpt lat="43.72264" lon="7.02834">
        <ele>1033</ele>
        <time>2022-02-11T12:10:04.000Z</time>
      </trkpt>
      <trkpt lat="43.72264" lon="7.02832">
        <ele>1032.5999755859</ele>
        <time>2022-02-11T12:10:05.000Z</time>
      </trkpt>
      <trkpt lat="43.72262" lon="7.02827">
        <ele>1031.5999755859</ele>
        <time>2022-02-11T12:10:08.000Z</time>
      </trkpt>
      <trkpt lat="43.72261" lon="7.02824">
        <ele>1030.5999755859</ele>
        <time>2022-02-11T12:10:10.000Z</time>
      </trkpt>
      <trkpt lat="43.72259" lon="7.02825">
        <ele>1029</ele>
        <time>2022-02-11T12:10:12.000Z</time>
      </trkpt>
      <trkpt lat="43.72256" lon="7.02827">
        <ele>1027.5999755859</ele>
        <time>2022-02-11T12:10:14.000Z</time>
      </trkpt>
      <trkpt lat="43.72254" lon="7.02826">
        <ele>1026.4000244141</ele>
        <time>2022-02-11T12:10:17.000Z</time>
      </trkpt>
      <trkpt lat="43.72253" lon="7.02824">
        <ele>1026</ele>
        <time>2022-02-11T12:10:18.000Z</time>
      </trkpt>
      <trkpt lat="43.72253" lon="7.02821">
        <ele>1025.1999511719</ele>
        <time>2022-02-11T12:10:20.000Z</time>
      </trkpt>
      <trkpt lat="43.72253" lon="7.0282">
        <ele>1024</ele>
        <time>2022-02-11T12:10:22.000Z</time>
      </trkpt>
      <trkpt lat="43.72253" lon="7.0282">
        <ele>1023.5999755859</ele>
        <time>2022-02-11T12:10:23.000Z</time>
      </trkpt>
      <trkpt lat="43.72252" lon="7.0282">
        <ele>1023</ele>
        <time>2022-02-11T12:10:24.000Z</time>
      </trkpt>
      <trkpt lat="43.72251" lon="7.02821">
        <ele>1022.5999755859</ele>
        <time>2022-02-11T12:10:25.000Z</time>
      </trkpt>
      <trkpt lat="43.7225" lon="7.02822">
        <ele>1021.799987793</ele>
        <time>2022-02-11T12:10:27.000Z</time>
      </trkpt>
      <trkpt lat="43.7225" lon="7.02822">
        <ele>1021.5999755859</ele>
        <time>2022-02-11T12:10:28.000Z</time>
      </trkpt>
      <trkpt lat="43.72249" lon="7.0282">
        <ele>1021.4000244141</ele>
        <time>2022-02-11T12:10:29.000Z</time>
      </trkpt>
      <trkpt lat="43.72249" lon="7.02817">
        <ele>1020.4000244141</ele>
        <time>2022-02-11T12:10:31.000Z</time>
      </trkpt>
      <trkpt lat="43.72249" lon="7.02818">
        <ele>1020.200012207</ele>
        <time>2022-02-11T12:10:32.000Z</time>
      </trkpt>
      <trkpt lat="43.72249" lon="7.02817">
        <ele>1019.200012207</ele>
        <time>2022-02-11T12:10:35.000Z</time>
      </trkpt>
      <trkpt lat="43.72249" lon="7.02816">
        <ele>1018.5999755859</ele>
        <time>2022-02-11T12:10:40.000Z</time>
      </trkpt>
      <trkpt lat="43.7225" lon="7.02814">
        <ele>1018.4000244141</ele>
        <time>2022-02-11T12:10:44.000Z</time>
      </trkpt>
      <trkpt lat="43.7225" lon="7.02813">
        <ele>1018.200012207</ele>
        <time>2022-02-11T12:10:45.000Z</time>
      </trkpt>
      <trkpt lat="43.7225" lon="7.0281">
        <ele>1017.5999755859</ele>
        <time>2022-02-11T12:10:52.000Z</time>
      </trkpt>
      <trkpt lat="43.72249" lon="7.0281">
        <ele>1017</ele>
        <time>2022-02-11T12:10:57.000Z</time>
      </trkpt>
      <trkpt lat="43.72242" lon="7.02815">
        <ele>1016.799987793</ele>
        <time>2022-02-11T12:11:01.000Z</time>
      </trkpt>
      <trkpt lat="43.72237" lon="7.02822">
        <ele>1016</ele>
        <time>2022-02-11T12:11:04.000Z</time>
      </trkpt>
      <trkpt lat="43.72233" lon="7.02824">
        <ele>1014.5999755859</ele>
        <time>2022-02-11T12:11:06.000Z</time>
      </trkpt>
      <trkpt lat="43.7223" lon="7.02824">
        <ele>1012.799987793</ele>
        <time>2022-02-11T12:11:08.000Z</time>
      </trkpt>
      <trkpt lat="43.72228" lon="7.02819">
        <ele>1011.200012207</ele>
        <time>2022-02-11T12:11:10.000Z</time>
      </trkpt>
      <trkpt lat="43.72229" lon="7.02811">
        <ele>1010</ele>
        <time>2022-02-11T12:11:12.000Z</time>
      </trkpt>
      <trkpt lat="43.7223" lon="7.02804">
        <ele>1009.5999755859</ele>
        <time>2022-02-11T12:11:14.000Z</time>
      </trkpt>
      <trkpt lat="43.7223" lon="7.02801">
        <ele>1008.799987793</ele>
        <time>2022-02-11T12:11:15.000Z</time>
      </trkpt>
      <trkpt lat="43.72228" lon="7.02797">
        <ele>1007</ele>
        <time>2022-02-11T12:11:17.000Z</time>
      </trkpt>
      <trkpt lat="43.72228" lon="7.02798">
        <ele>1006.200012207</ele>
        <time>2022-02-11T12:11:18.000Z</time>
      </trkpt>
      <trkpt lat="43.72227" lon="7.02799">
        <ele>1005.4000244141</ele>
        <time>2022-02-11T12:11:19.000Z</time>
      </trkpt>
      <trkpt lat="43.72225" lon="7.02802">
        <ele>1004.200012207</ele>
        <time>2022-02-11T12:11:21.000Z</time>
      </trkpt>
      <trkpt lat="43.72223" lon="7.02804">
        <ele>1004</ele>
        <time>2022-02-11T12:11:22.000Z</time>
      </trkpt>
      <trkpt lat="43.7222" lon="7.02805">
        <ele>1003.4000244141</ele>
        <time>2022-02-11T12:11:24.000Z</time>
      </trkpt>
      <trkpt lat="43.72219" lon="7.02804">
        <ele>1002.799987793</ele>
        <time>2022-02-11T12:11:25.000Z</time>
      </trkpt>
      <trkpt lat="43.72218" lon="7.02803">
        <ele>1002.5999755859</ele>
        <time>2022-02-11T12:11:26.000Z</time>
      </trkpt>
      <trkpt lat="43.72217" lon="7.028">
        <ele>1001.799987793</ele>
        <time>2022-02-11T12:11:29.000Z</time>
      </trkpt>
      <trkpt lat="43.72216" lon="7.028">
        <ele>1001.5999755859</ele>
        <time>2022-02-11T12:11:30.000Z</time>
      </trkpt>
      <trkpt lat="43.72215" lon="7.02802">
        <ele>1000.5999755859</ele>
        <time>2022-02-11T12:11:33.000Z</time>
      </trkpt>
      <trkpt lat="43.72215" lon="7.02803">
        <ele>999.79998779297</ele>
        <time>2022-02-11T12:11:35.000Z</time>
      </trkpt>
      <trkpt lat="43.72215" lon="7.02805">
        <ele>999.40002441406</ele>
        <time>2022-02-11T12:11:37.000Z</time>
      </trkpt>
      <trkpt lat="43.72214" lon="7.02806">
        <ele>999.20001220703</ele>
        <time>2022-02-11T12:11:40.000Z</time>
      </trkpt>
      <trkpt lat="43.72212" lon="7.02806">
        <ele>999</ele>
        <time>2022-02-11T12:11:42.000Z</time>
      </trkpt>
      <trkpt lat="43.72211" lon="7.02803">
        <ele>998.40002441406</ele>
        <time>2022-02-11T12:11:45.000Z</time>
      </trkpt>
      <trkpt lat="43.72211" lon="7.02801">
        <ele>998.20001220703</ele>
        <time>2022-02-11T12:11:46.000Z</time>
      </trkpt>
      <trkpt lat="43.7221" lon="7.02793">
        <ele>997.20001220703</ele>
        <time>2022-02-11T12:11:49.000Z</time>
      </trkpt>
      <trkpt lat="43.72208" lon="7.02792">
        <ele>996.59997558594</ele>
        <time>2022-02-11T12:11:51.000Z</time>
      </trkpt>
      <trkpt lat="43.72207" lon="7.02792">
        <ele>996.20001220703</ele>
        <time>2022-02-11T12:11:52.000Z</time>
      </trkpt>
      <trkpt lat="43.72205" lon="7.02791">
        <ele>995.59997558594</ele>
        <time>2022-02-11T12:11:53.000Z</time>
      </trkpt>
      <trkpt lat="43.72203" lon="7.02792">
        <ele>995.20001220703</ele>
        <time>2022-02-11T12:11:54.000Z</time>
      </trkpt>
      <trkpt lat="43.72202" lon="7.02793">
        <ele>994.59997558594</ele>
        <time>2022-02-11T12:11:55.000Z</time>
      </trkpt>
      <trkpt lat="43.72203" lon="7.02793">
        <ele>994</ele>
        <time>2022-02-11T12:11:56.000Z</time>
      </trkpt>
      <trkpt lat="43.72202" lon="7.02793">
        <ele>993.20001220703</ele>
        <time>2022-02-11T12:11:57.000Z</time>
      </trkpt>
      <trkpt lat="43.72202" lon="7.02793">
        <ele>992</ele>
        <time>2022-02-11T12:11:59.000Z</time>
      </trkpt>
      <trkpt lat="43.72202" lon="7.02793">
        <ele>991.20001220703</ele>
        <time>2022-02-11T12:12:02.000Z</time>
      </trkpt>
      <trkpt lat="43.72201" lon="7.02793">
        <ele>991</ele>
        <time>2022-02-11T12:12:10.000Z</time>
      </trkpt>
      <trkpt lat="43.72201" lon="7.02794">
        <ele>990.79998779297</ele>
        <time>2022-02-11T12:12:11.000Z</time>
      </trkpt>
      <trkpt lat="43.72201" lon="7.02795">
        <ele>990.59997558594</ele>
        <time>2022-02-11T12:12:15.000Z</time>
      </trkpt>
      <trkpt lat="43.72198" lon="7.02796">
        <ele>990.59997558594</ele>
        <time>2022-02-11T12:12:22.000Z</time>
      </trkpt>
      <trkpt lat="43.72196" lon="7.02796">
        <ele>989.79998779297</ele>
        <time>2022-02-11T12:12:27.000Z</time>
      </trkpt>
      <trkpt lat="43.72197" lon="7.02796">
        <ele>989.40002441406</ele>
        <time>2022-02-11T12:12:28.000Z</time>
      </trkpt>
      <trkpt lat="43.72197" lon="7.02794">
        <ele>989</ele>
        <time>2022-02-11T12:12:33.000Z</time>
      </trkpt>
      <trkpt lat="43.72197" lon="7.02793">
        <ele>989</ele>
        <time>2022-02-11T12:12:34.000Z</time>
      </trkpt>
      <trkpt lat="43.72198" lon="7.02792">
        <ele>988.79998779297</ele>
        <time>2022-02-11T12:12:37.000Z</time>
      </trkpt>
      <trkpt lat="43.72198" lon="7.0279">
        <ele>988.59997558594</ele>
        <time>2022-02-11T12:12:38.000Z</time>
      </trkpt>
      <trkpt lat="43.72198" lon="7.02787">
        <ele>988.40002441406</ele>
        <time>2022-02-11T12:12:39.000Z</time>
      </trkpt>
      <trkpt lat="43.72198" lon="7.02784">
        <ele>987.40002441406</ele>
        <time>2022-02-11T12:12:43.000Z</time>
      </trkpt>
      <trkpt lat="43.72199" lon="7.02784">
        <ele>986.40002441406</ele>
        <time>2022-02-11T12:12:47.000Z</time>
      </trkpt>
      <trkpt lat="43.722" lon="7.02784">
        <ele>986.40002441406</ele>
        <time>2022-02-11T12:12:59.000Z</time>
      </trkpt>
      <trkpt lat="43.72201" lon="7.02784">
        <ele>986.40002441406</ele>
        <time>2022-02-11T12:13:13.000Z</time>
      </trkpt>
      <trkpt lat="43.72201" lon="7.02783">
        <ele>986.20001220703</ele>
        <time>2022-02-11T12:13:27.000Z</time>
      </trkpt>
      <trkpt lat="43.72196" lon="7.02783">
        <ele>985.40002441406</ele>
        <time>2022-02-11T12:13:31.000Z</time>
      </trkpt>
      <trkpt lat="43.72195" lon="7.02785">
        <ele>985</ele>
        <time>2022-02-11T12:13:32.000Z</time>
      </trkpt>
      <trkpt lat="43.72195" lon="7.02785">
        <ele>983.79998779297</ele>
        <time>2022-02-11T12:13:34.000Z</time>
      </trkpt>
      <trkpt lat="43.72194" lon="7.02786">
        <ele>982.79998779297</ele>
        <time>2022-02-11T12:13:36.000Z</time>
      </trkpt>
      <trkpt lat="43.72187" lon="7.02789">
        <ele>982</ele>
        <time>2022-02-11T12:13:39.000Z</time>
      </trkpt>
      <trkpt lat="43.72184" lon="7.02791">
        <ele>981.40002441406</ele>
        <time>2022-02-11T12:13:40.000Z</time>
      </trkpt>
      <trkpt lat="43.72178" lon="7.02793">
        <ele>980</ele>
        <time>2022-02-11T12:13:42.000Z</time>
      </trkpt>
      <trkpt lat="43.72176" lon="7.02796">
        <ele>979</ele>
        <time>2022-02-11T12:13:43.000Z</time>
      </trkpt>
      <trkpt lat="43.72174" lon="7.028">
        <ele>978.20001220703</ele>
        <time>2022-02-11T12:13:44.000Z</time>
      </trkpt>
      <trkpt lat="43.72172" lon="7.02809">
        <ele>977.20001220703</ele>
        <time>2022-02-11T12:13:46.000Z</time>
      </trkpt>
      <trkpt lat="43.72171" lon="7.0281">
        <ele>976.59997558594</ele>
        <time>2022-02-11T12:13:47.000Z</time>
      </trkpt>
      <trkpt lat="43.72166" lon="7.02807">
        <ele>975.40002441406</ele>
        <time>2022-02-11T12:13:50.000Z</time>
      </trkpt>
      <trkpt lat="43.72162" lon="7.02808">
        <ele>974</ele>
        <time>2022-02-11T12:13:53.000Z</time>
      </trkpt>
      <trkpt lat="43.72157" lon="7.02811">
        <ele>973</ele>
        <time>2022-02-11T12:13:55.000Z</time>
      </trkpt>
      <trkpt lat="43.72156" lon="7.02813">
        <ele>972.20001220703</ele>
        <time>2022-02-11T12:13:56.000Z</time>
      </trkpt>
      <trkpt lat="43.72156" lon="7.02812">
        <ele>971.40002441406</ele>
        <time>2022-02-11T12:13:57.000Z</time>
      </trkpt>
      <trkpt lat="43.72155" lon="7.02815">
        <ele>969.79998779297</ele>
        <time>2022-02-11T12:13:59.000Z</time>
      </trkpt>
      <trkpt lat="43.72154" lon="7.02817">
        <ele>968.59997558594</ele>
        <time>2022-02-11T12:14:01.000Z</time>
      </trkpt>
      <trkpt lat="43.72155" lon="7.02822">
        <ele>968.40002441406</ele>
        <time>2022-02-11T12:14:04.000Z</time>
      </trkpt>
      <trkpt lat="43.72151" lon="7.02829">
        <ele>967.79998779297</ele>
        <time>2022-02-11T12:14:08.000Z</time>
      </trkpt>
      <trkpt lat="43.72151" lon="7.02831">
        <ele>967.40002441406</ele>
        <time>2022-02-11T12:14:09.000Z</time>
      </trkpt>
      <trkpt lat="43.7215" lon="7.02834">
        <ele>966.20001220703</ele>
        <time>2022-02-11T12:14:12.000Z</time>
      </trkpt>
      <trkpt lat="43.72149" lon="7.02838">
        <ele>966.40002441406</ele>
        <time>2022-02-11T12:14:19.000Z</time>
      </trkpt>
      <trkpt lat="43.72148" lon="7.02844">
        <ele>966.59997558594</ele>
        <time>2022-02-11T12:14:26.000Z</time>
      </trkpt>
      <trkpt lat="43.72147" lon="7.0285">
        <ele>967</ele>
        <time>2022-02-11T12:14:34.000Z</time>
      </trkpt>
      <trkpt lat="43.72144" lon="7.02855">
        <ele>966.79998779297</ele>
        <time>2022-02-11T12:14:37.000Z</time>
      </trkpt>
      <trkpt lat="43.72141" lon="7.02855">
        <ele>966.59997558594</ele>
        <time>2022-02-11T12:14:39.000Z</time>
      </trkpt>
      <trkpt lat="43.72139" lon="7.02846">
        <ele>965.79998779297</ele>
        <time>2022-02-11T12:14:43.000Z</time>
      </trkpt>
      <trkpt lat="43.72137" lon="7.02844">
        <ele>965</ele>
        <time>2022-02-11T12:14:46.000Z</time>
      </trkpt>
      <trkpt lat="43.72136" lon="7.02844">
        <ele>964.40002441406</ele>
        <time>2022-02-11T12:14:47.000Z</time>
      </trkpt>
      <trkpt lat="43.72135" lon="7.02843">
        <ele>964</ele>
        <time>2022-02-11T12:14:48.000Z</time>
      </trkpt>
      <trkpt lat="43.72133" lon="7.0284">
        <ele>962.79998779297</ele>
        <time>2022-02-11T12:14:50.000Z</time>
      </trkpt>
      <trkpt lat="43.72132" lon="7.0284">
        <ele>962.20001220703</ele>
        <time>2022-02-11T12:14:51.000Z</time>
      </trkpt>
      <trkpt lat="43.72132" lon="7.0284">
        <ele>961.59997558594</ele>
        <time>2022-02-11T12:14:52.000Z</time>
      </trkpt>
      <trkpt lat="43.72131" lon="7.02841">
        <ele>960.40002441406</ele>
        <time>2022-02-11T12:14:54.000Z</time>
      </trkpt>
      <trkpt lat="43.7213" lon="7.02842">
        <ele>959.20001220703</ele>
        <time>2022-02-11T12:14:56.000Z</time>
      </trkpt>
      <trkpt lat="43.72129" lon="7.02843">
        <ele>959</ele>
        <time>2022-02-11T12:14:57.000Z</time>
      </trkpt>
      <trkpt lat="43.72129" lon="7.02846">
        <ele>958.20001220703</ele>
        <time>2022-02-11T12:15:01.000Z</time>
      </trkpt>
      <trkpt lat="43.72129" lon="7.0285">
        <ele>958</ele>
        <time>2022-02-11T12:15:03.000Z</time>
      </trkpt>
      <trkpt lat="43.72128" lon="7.02853">
        <ele>957.79998779297</ele>
        <time>2022-02-11T12:15:04.000Z</time>
      </trkpt>
      <trkpt lat="43.72124" lon="7.02858">
        <ele>957.20001220703</ele>
        <time>2022-02-11T12:15:06.000Z</time>
      </trkpt>
      <trkpt lat="43.72122" lon="7.0286">
        <ele>956.79998779297</ele>
        <time>2022-02-11T12:15:07.000Z</time>
      </trkpt>
      <trkpt lat="43.72119" lon="7.02866">
        <ele>955.79998779297</ele>
        <time>2022-02-11T12:15:09.000Z</time>
      </trkpt>
      <trkpt lat="43.72116" lon="7.02867">
        <ele>954.40002441406</ele>
        <time>2022-02-11T12:15:11.000Z</time>
      </trkpt>
      <trkpt lat="43.72114" lon="7.02863">
        <ele>953</ele>
        <time>2022-02-11T12:15:13.000Z</time>
      </trkpt>
      <trkpt lat="43.72111" lon="7.02854">
        <ele>951.79998779297</ele>
        <time>2022-02-11T12:15:15.000Z</time>
      </trkpt>
      <trkpt lat="43.72105" lon="7.02844">
        <ele>951.20001220703</ele>
        <time>2022-02-11T12:15:17.000Z</time>
      </trkpt>
      <trkpt lat="43.72102" lon="7.0284">
        <ele>950.79998779297</ele>
        <time>2022-02-11T12:15:18.000Z</time>
      </trkpt>
      <trkpt lat="43.72101" lon="7.02838">
        <ele>950</ele>
        <time>2022-02-11T12:15:19.000Z</time>
      </trkpt>
      <trkpt lat="43.72099" lon="7.02838">
        <ele>949</ele>
        <time>2022-02-11T12:15:20.000Z</time>
      </trkpt>
      <trkpt lat="43.72096" lon="7.02838">
        <ele>947.79998779297</ele>
        <time>2022-02-11T12:15:21.000Z</time>
      </trkpt>
      <trkpt lat="43.72094" lon="7.02837">
        <ele>946.79998779297</ele>
        <time>2022-02-11T12:15:22.000Z</time>
      </trkpt>
      <trkpt lat="43.72092" lon="7.02836">
        <ele>946.20001220703</ele>
        <time>2022-02-11T12:15:23.000Z</time>
      </trkpt>
      <trkpt lat="43.72086" lon="7.02837">
        <ele>944.59997558594</ele>
        <time>2022-02-11T12:15:25.000Z</time>
      </trkpt>
      <trkpt lat="43.72083" lon="7.02839">
        <ele>943.79998779297</ele>
        <time>2022-02-11T12:15:26.000Z</time>
      </trkpt>
      <trkpt lat="43.72081" lon="7.02842">
        <ele>942.79998779297</ele>
        <time>2022-02-11T12:15:27.000Z</time>
      </trkpt>
      <trkpt lat="43.72081" lon="7.02844">
        <ele>941.79998779297</ele>
        <time>2022-02-11T12:15:28.000Z</time>
      </trkpt>
      <trkpt lat="43.7208" lon="7.02846">
        <ele>940.79998779297</ele>
        <time>2022-02-11T12:15:29.000Z</time>
      </trkpt>
      <trkpt lat="43.72079" lon="7.02846">
        <ele>939.59997558594</ele>
        <time>2022-02-11T12:15:30.000Z</time>
      </trkpt>
      <trkpt lat="43.72077" lon="7.02851">
        <ele>938.40002441406</ele>
        <time>2022-02-11T12:15:34.000Z</time>
      </trkpt>
      <trkpt lat="43.72076" lon="7.02852">
        <ele>937.59997558594</ele>
        <time>2022-02-11T12:15:37.000Z</time>
      </trkpt>
      <trkpt lat="43.72076" lon="7.02851">
        <ele>937.20001220703</ele>
        <time>2022-02-11T12:15:38.000Z</time>
      </trkpt>
      <trkpt lat="43.72075" lon="7.02851">
        <ele>936.40002441406</ele>
        <time>2022-02-11T12:15:44.000Z</time>
      </trkpt>
      <trkpt lat="43.72075" lon="7.0285">
        <ele>936.20001220703</ele>
        <time>2022-02-11T12:15:46.000Z</time>
      </trkpt>
      <trkpt lat="43.72075" lon="7.02851">
        <ele>936</ele>
        <time>2022-02-11T12:15:57.000Z</time>
      </trkpt>
      <trkpt lat="43.72075" lon="7.02853">
        <ele>936</ele>
        <time>2022-02-11T12:16:11.000Z</time>
      </trkpt>
      <trkpt lat="43.72077" lon="7.02853">
        <ele>936.59997558594</ele>
        <time>2022-02-11T12:16:19.000Z</time>
      </trkpt>
      <trkpt lat="43.72078" lon="7.02852">
        <ele>936.40002441406</ele>
        <time>2022-02-11T12:16:26.000Z</time>
      </trkpt>
      <trkpt lat="43.72079" lon="7.0285">
        <ele>936.59997558594</ele>
        <time>2022-02-11T12:16:32.000Z</time>
      </trkpt>
      <trkpt lat="43.7208" lon="7.02848">
        <ele>937.40002441406</ele>
        <time>2022-02-11T12:16:40.000Z</time>
      </trkpt>
      <trkpt lat="43.7208" lon="7.02848">
        <ele>938</ele>
        <time>2022-02-11T12:16:51.000Z</time>
      </trkpt>
      <trkpt lat="43.7208" lon="7.02849">
        <ele>937.40002441406</ele>
        <time>2022-02-11T12:16:59.000Z</time>
      </trkpt>
      <trkpt lat="43.7208" lon="7.02849">
        <ele>937.20001220703</ele>
        <time>2022-02-11T12:17:04.000Z</time>
      </trkpt>
      <trkpt lat="43.7208" lon="7.0285">
        <ele>937.20001220703</ele>
        <time>2022-02-11T12:17:05.000Z</time>
      </trkpt>
      <trkpt lat="43.72079" lon="7.02853">
        <ele>937.20001220703</ele>
        <time>2022-02-11T12:17:09.000Z</time>
      </trkpt>
      <trkpt lat="43.7208" lon="7.02848">
        <ele>938</ele>
        <time>2022-02-11T12:17:16.000Z</time>
      </trkpt>
      <trkpt lat="43.72081" lon="7.02848">
        <ele>938</ele>
        <time>2022-02-11T12:17:24.000Z</time>
      </trkpt>
      <trkpt lat="43.72082" lon="7.02847">
        <ele>938</ele>
        <time>2022-02-11T12:17:35.000Z</time>
      </trkpt>
      <trkpt lat="43.72081" lon="7.02846">
        <ele>938</ele>
        <time>2022-02-11T12:17:37.000Z</time>
      </trkpt>
      <trkpt lat="43.7208" lon="7.02843">
        <ele>937.79998779297</ele>
        <time>2022-02-11T12:17:40.000Z</time>
      </trkpt>
      <trkpt lat="43.72079" lon="7.02841">
        <ele>937.20001220703</ele>
        <time>2022-02-11T12:17:47.000Z</time>
      </trkpt>
      <trkpt lat="43.72078" lon="7.02842">
        <ele>937</ele>
        <time>2022-02-11T12:18:03.000Z</time>
      </trkpt>
      <trkpt lat="43.72078" lon="7.02843">
        <ele>937</ele>
        <time>2022-02-11T12:18:21.000Z</time>
      </trkpt>
      <trkpt lat="43.7208" lon="7.02844">
        <ele>937</ele>
        <time>2022-02-11T12:18:43.000Z</time>
      </trkpt>
      <trkpt lat="43.72079" lon="7.02842">
        <ele>937</ele>
        <time>2022-02-11T12:18:45.000Z</time>
      </trkpt>
      <trkpt lat="43.72079" lon="7.02838">
        <ele>936.79998779297</ele>
        <time>2022-02-11T12:18:47.000Z</time>
      </trkpt>
      <trkpt lat="43.72076" lon="7.0283">
        <ele>936.40002441406</ele>
        <time>2022-02-11T12:18:50.000Z</time>
      </trkpt>
      <trkpt lat="43.72074" lon="7.02829">
        <ele>936.20001220703</ele>
        <time>2022-02-11T12:18:51.000Z</time>
      </trkpt>
      <trkpt lat="43.72067" lon="7.02825">
        <ele>935.40002441406</ele>
        <time>2022-02-11T12:18:54.000Z</time>
      </trkpt>
      <trkpt lat="43.72061" lon="7.0282">
        <ele>934.20001220703</ele>
        <time>2022-02-11T12:18:56.000Z</time>
      </trkpt>
      <trkpt lat="43.72054" lon="7.02814">
        <ele>932.59997558594</ele>
        <time>2022-02-11T12:18:58.000Z</time>
      </trkpt>
      <trkpt lat="43.72046" lon="7.02803">
        <ele>930.79998779297</ele>
        <time>2022-02-11T12:19:00.000Z</time>
      </trkpt>
      <trkpt lat="43.72041" lon="7.02797">
        <ele>929.59997558594</ele>
        <time>2022-02-11T12:19:01.000Z</time>
      </trkpt>
      <trkpt lat="43.72038" lon="7.02791">
        <ele>928.40002441406</ele>
        <time>2022-02-11T12:19:02.000Z</time>
      </trkpt>
      <trkpt lat="43.72034" lon="7.02787">
        <ele>927.20001220703</ele>
        <time>2022-02-11T12:19:03.000Z</time>
      </trkpt>
      <trkpt lat="43.7203" lon="7.02783">
        <ele>926</ele>
        <time>2022-02-11T12:19:04.000Z</time>
      </trkpt>
      <trkpt lat="43.72024" lon="7.02781">
        <ele>925</ele>
        <time>2022-02-11T12:19:05.000Z</time>
      </trkpt>
      <trkpt lat="43.72012" lon="7.02782">
        <ele>923.40002441406</ele>
        <time>2022-02-11T12:19:07.000Z</time>
      </trkpt>
      <trkpt lat="43.72003" lon="7.02787">
        <ele>921.79998779297</ele>
        <time>2022-02-11T12:19:09.000Z</time>
      </trkpt>
      <trkpt lat="43.71999" lon="7.0279">
        <ele>920.59997558594</ele>
        <time>2022-02-11T12:19:10.000Z</time>
      </trkpt>
      <trkpt lat="43.71995" lon="7.02791">
        <ele>919.59997558594</ele>
        <time>2022-02-11T12:19:11.000Z</time>
      </trkpt>
      <trkpt lat="43.71991" lon="7.02791">
        <ele>918.40002441406</ele>
        <time>2022-02-11T12:19:12.000Z</time>
      </trkpt>
      <trkpt lat="43.71986" lon="7.02792">
        <ele>917.40002441406</ele>
        <time>2022-02-11T12:19:13.000Z</time>
      </trkpt>
      <trkpt lat="43.7198" lon="7.02794">
        <ele>916.40002441406</ele>
        <time>2022-02-11T12:19:14.000Z</time>
      </trkpt>
      <trkpt lat="43.71974" lon="7.02795">
        <ele>915.20001220703</ele>
        <time>2022-02-11T12:19:15.000Z</time>
      </trkpt>
      <trkpt lat="43.71969" lon="7.02794">
        <ele>913.59997558594</ele>
        <time>2022-02-11T12:19:16.000Z</time>
      </trkpt>
      <trkpt lat="43.71963" lon="7.02792">
        <ele>912.59997558594</ele>
        <time>2022-02-11T12:19:17.000Z</time>
      </trkpt>
      <trkpt lat="43.71958" lon="7.02792">
        <ele>911.20001220703</ele>
        <time>2022-02-11T12:19:18.000Z</time>
      </trkpt>
      <trkpt lat="43.71953" lon="7.02794">
        <ele>909.79998779297</ele>
        <time>2022-02-11T12:19:19.000Z</time>
      </trkpt>
      <trkpt lat="43.71946" lon="7.028">
        <ele>908.20001220703</ele>
        <time>2022-02-11T12:19:21.000Z</time>
      </trkpt>
      <trkpt lat="43.71937" lon="7.02798">
        <ele>907.59997558594</ele>
        <time>2022-02-11T12:19:23.000Z</time>
      </trkpt>
      <trkpt lat="43.71932" lon="7.02797">
        <ele>907.20001220703</ele>
        <time>2022-02-11T12:19:24.000Z</time>
      </trkpt>
      <trkpt lat="43.71922" lon="7.02799">
        <ele>904.79998779297</ele>
        <time>2022-02-11T12:19:26.000Z</time>
      </trkpt>
      <trkpt lat="43.71918" lon="7.028">
        <ele>904.40002441406</ele>
        <time>2022-02-11T12:19:27.000Z</time>
      </trkpt>
      <trkpt lat="43.71914" lon="7.02801">
        <ele>903.20001220703</ele>
        <time>2022-02-11T12:19:28.000Z</time>
      </trkpt>
      <trkpt lat="43.7191" lon="7.02798">
        <ele>901.59997558594</ele>
        <time>2022-02-11T12:19:29.000Z</time>
      </trkpt>
      <trkpt lat="43.71905" lon="7.02794">
        <ele>900</ele>
        <time>2022-02-11T12:19:31.000Z</time>
      </trkpt>
      <trkpt lat="43.71898" lon="7.02786">
        <ele>898.79998779297</ele>
        <time>2022-02-11T12:19:34.000Z</time>
      </trkpt>
      <trkpt lat="43.71895" lon="7.02782">
        <ele>898.59997558594</ele>
        <time>2022-02-11T12:19:35.000Z</time>
      </trkpt>
      <trkpt lat="43.71893" lon="7.02777">
        <ele>898.40002441406</ele>
        <time>2022-02-11T12:19:36.000Z</time>
      </trkpt>
      <trkpt lat="43.71889" lon="7.02772">
        <ele>898</ele>
        <time>2022-02-11T12:19:38.000Z</time>
      </trkpt>
      <trkpt lat="43.71885" lon="7.02771">
        <ele>897.40002441406</ele>
        <time>2022-02-11T12:19:39.000Z</time>
      </trkpt>
      <trkpt lat="43.71874" lon="7.02769">
        <ele>896.59997558594</ele>
        <time>2022-02-11T12:19:42.000Z</time>
      </trkpt>
      <trkpt lat="43.71872" lon="7.02765">
        <ele>896.40002441406</ele>
        <time>2022-02-11T12:19:43.000Z</time>
      </trkpt>
      <trkpt lat="43.71866" lon="7.02762">
        <ele>895.20001220703</ele>
        <time>2022-02-11T12:19:45.000Z</time>
      </trkpt>
      <trkpt lat="43.71858" lon="7.02762">
        <ele>893.40002441406</ele>
        <time>2022-02-11T12:19:47.000Z</time>
      </trkpt>
      <trkpt lat="43.71854" lon="7.0276">
        <ele>892.40002441406</ele>
        <time>2022-02-11T12:19:48.000Z</time>
      </trkpt>
      <trkpt lat="43.71842" lon="7.02754">
        <ele>890.40002441406</ele>
        <time>2022-02-11T12:19:50.000Z</time>
      </trkpt>
      <trkpt lat="43.71836" lon="7.02752">
        <ele>889.59997558594</ele>
        <time>2022-02-11T12:19:51.000Z</time>
      </trkpt>
      <trkpt lat="43.71829" lon="7.02749">
        <ele>888.40002441406</ele>
        <time>2022-02-11T12:19:52.000Z</time>
      </trkpt>
      <trkpt lat="43.71823" lon="7.02748">
        <ele>886.40002441406</ele>
        <time>2022-02-11T12:19:53.000Z</time>
      </trkpt>
      <trkpt lat="43.71815" lon="7.02747">
        <ele>884.79998779297</ele>
        <time>2022-02-11T12:19:54.000Z</time>
      </trkpt>
      <trkpt lat="43.71807" lon="7.02747">
        <ele>883.20001220703</ele>
        <time>2022-02-11T12:19:55.000Z</time>
      </trkpt>
      <trkpt lat="43.71799" lon="7.02747">
        <ele>881</ele>
        <time>2022-02-11T12:19:56.000Z</time>
      </trkpt>
      <trkpt lat="43.71791" lon="7.02747">
        <ele>879.79998779297</ele>
        <time>2022-02-11T12:19:57.000Z</time>
      </trkpt>
      <trkpt lat="43.71776" lon="7.02747">
        <ele>878.59997558594</ele>
        <time>2022-02-11T12:19:59.000Z</time>
      </trkpt>
      <trkpt lat="43.71761" lon="7.02746">
        <ele>877.20001220703</ele>
        <time>2022-02-11T12:20:01.000Z</time>
      </trkpt>
      <trkpt lat="43.71754" lon="7.02745">
        <ele>877.20001220703</ele>
        <time>2022-02-11T12:20:02.000Z</time>
      </trkpt>
      <trkpt lat="43.71732" lon="7.02742">
        <ele>875.59997558594</ele>
        <time>2022-02-11T12:20:05.000Z</time>
      </trkpt>
      <trkpt lat="43.71725" lon="7.02742">
        <ele>874.40002441406</ele>
        <time>2022-02-11T12:20:06.000Z</time>
      </trkpt>
      <trkpt lat="43.71712" lon="7.02744">
        <ele>872.79998779297</ele>
        <time>2022-02-11T12:20:08.000Z</time>
      </trkpt>
      <trkpt lat="43.717" lon="7.02741">
        <ele>871.40002441406</ele>
        <time>2022-02-11T12:20:10.000Z</time>
      </trkpt>
      <trkpt lat="43.71691" lon="7.02737">
        <ele>869.79998779297</ele>
        <time>2022-02-11T12:20:12.000Z</time>
      </trkpt>
      <trkpt lat="43.71684" lon="7.02736">
        <ele>868.20001220703</ele>
        <time>2022-02-11T12:20:14.000Z</time>
      </trkpt>
      <trkpt lat="43.71682" lon="7.02735">
        <ele>867.40002441406</ele>
        <time>2022-02-11T12:20:15.000Z</time>
      </trkpt>
      <trkpt lat="43.7168" lon="7.02733">
        <ele>867</ele>
        <time>2022-02-11T12:20:16.000Z</time>
      </trkpt>
      <trkpt lat="43.7168" lon="7.02733">
        <ele>866.40002441406</ele>
        <time>2022-02-11T12:20:18.000Z</time>
      </trkpt>
      <trkpt lat="43.7168" lon="7.02733">
        <ele>866</ele>
        <time>2022-02-11T12:20:21.000Z</time>
      </trkpt>
      <trkpt lat="43.7168" lon="7.02732">
        <ele>866</ele>
        <time>2022-02-11T12:20:30.000Z</time>
      </trkpt>
      <trkpt lat="43.71676" lon="7.02732">
        <ele>865.59997558594</ele>
        <time>2022-02-11T12:20:36.000Z</time>
      </trkpt>
      <trkpt lat="43.71675" lon="7.02731">
        <ele>865.40002441406</ele>
        <time>2022-02-11T12:20:38.000Z</time>
      </trkpt>
      <trkpt lat="43.71674" lon="7.02732">
        <ele>865</ele>
        <time>2022-02-11T12:20:41.000Z</time>
      </trkpt>
      <trkpt lat="43.71674" lon="7.02733">
        <ele>864.79998779297</ele>
        <time>2022-02-11T12:20:42.000Z</time>
      </trkpt>
      <trkpt lat="43.71674" lon="7.02733">
        <ele>864.20001220703</ele>
        <time>2022-02-11T12:20:51.000Z</time>
      </trkpt>
      <trkpt lat="43.71674" lon="7.02734">
        <ele>863.79998779297</ele>
        <time>2022-02-11T12:20:54.000Z</time>
      </trkpt>
      <trkpt lat="43.71675" lon="7.02736">
        <ele>864</ele>
        <time>2022-02-11T12:20:58.000Z</time>
      </trkpt>
      <trkpt lat="43.71676" lon="7.02738">
        <ele>864.40002441406</ele>
        <time>2022-02-11T12:21:05.000Z</time>
      </trkpt>
      <trkpt lat="43.7168" lon="7.02748">
        <ele>864.40002441406</ele>
        <time>2022-02-11T12:21:10.000Z</time>
      </trkpt>
      <trkpt lat="43.71689" lon="7.02759">
        <ele>864.59997558594</ele>
        <time>2022-02-11T12:21:16.000Z</time>
      </trkpt>
      <trkpt lat="43.71698" lon="7.0277">
        <ele>865</ele>
        <time>2022-02-11T12:21:22.000Z</time>
      </trkpt>
      <trkpt lat="43.71707" lon="7.02782">
        <ele>865.20001220703</ele>
        <time>2022-02-11T12:21:27.000Z</time>
      </trkpt>
      <trkpt lat="43.71727" lon="7.02808">
        <ele>865.40002441406</ele>
        <time>2022-02-11T12:21:37.000Z</time>
      </trkpt>
      <trkpt lat="43.71738" lon="7.02822">
        <ele>866</ele>
        <time>2022-02-11T12:21:42.000Z</time>
      </trkpt>
      <trkpt lat="43.71743" lon="7.02828">
        <ele>866</ele>
        <time>2022-02-11T12:21:44.000Z</time>
      </trkpt>
      <trkpt lat="43.71758" lon="7.02851">
        <ele>866.20001220703</ele>
        <time>2022-02-11T12:21:51.000Z</time>
      </trkpt>
      <trkpt lat="43.71789" lon="7.02895">
        <ele>865.79998779297</ele>
        <time>2022-02-11T12:22:03.000Z</time>
      </trkpt>
      <trkpt lat="43.71808" lon="7.02922">
        <ele>865.59997558594</ele>
        <time>2022-02-11T12:22:10.000Z</time>
      </trkpt>
      <trkpt lat="43.71823" lon="7.02944">
        <ele>864.79998779297</ele>
        <time>2022-02-11T12:22:15.000Z</time>
      </trkpt>
      <trkpt lat="43.71831" lon="7.02954">
        <ele>864.40002441406</ele>
        <time>2022-02-11T12:22:17.000Z</time>
      </trkpt>
      <trkpt lat="43.7184" lon="7.02965">
        <ele>863.59997558594</ele>
        <time>2022-02-11T12:22:19.000Z</time>
      </trkpt>
      <trkpt lat="43.71851" lon="7.02978">
        <ele>862.59997558594</ele>
        <time>2022-02-11T12:22:21.000Z</time>
      </trkpt>
      <trkpt lat="43.71862" lon="7.02993">
        <ele>860.59997558594</ele>
        <time>2022-02-11T12:22:23.000Z</time>
      </trkpt>
      <trkpt lat="43.71868" lon="7.03002">
        <ele>859.40002441406</ele>
        <time>2022-02-11T12:22:24.000Z</time>
      </trkpt>
      <trkpt lat="43.71873" lon="7.03011">
        <ele>858</ele>
        <time>2022-02-11T12:22:25.000Z</time>
      </trkpt>
      <trkpt lat="43.71877" lon="7.03021">
        <ele>857.40002441406</ele>
        <time>2022-02-11T12:22:26.000Z</time>
      </trkpt>
      <trkpt lat="43.71882" lon="7.0303">
        <ele>856.79998779297</ele>
        <time>2022-02-11T12:22:27.000Z</time>
      </trkpt>
      <trkpt lat="43.71886" lon="7.03039">
        <ele>856.40002441406</ele>
        <time>2022-02-11T12:22:28.000Z</time>
      </trkpt>
      <trkpt lat="43.71897" lon="7.03061">
        <ele>855.40002441406</ele>
        <time>2022-02-11T12:22:30.000Z</time>
      </trkpt>
      <trkpt lat="43.71901" lon="7.0307">
        <ele>854.79998779297</ele>
        <time>2022-02-11T12:22:31.000Z</time>
      </trkpt>
      <trkpt lat="43.71905" lon="7.03081">
        <ele>853.79998779297</ele>
        <time>2022-02-11T12:22:32.000Z</time>
      </trkpt>
      <trkpt lat="43.7191" lon="7.03104">
        <ele>852.59997558594</ele>
        <time>2022-02-11T12:22:34.000Z</time>
      </trkpt>
      <trkpt lat="43.71914" lon="7.03126">
        <ele>851</ele>
        <time>2022-02-11T12:22:36.000Z</time>
      </trkpt>
      <trkpt lat="43.71916" lon="7.03145">
        <ele>849.59997558594</ele>
        <time>2022-02-11T12:22:38.000Z</time>
      </trkpt>
      <trkpt lat="43.71916" lon="7.03155">
        <ele>849.59997558594</ele>
        <time>2022-02-11T12:22:39.000Z</time>
      </trkpt>
      <trkpt lat="43.71916" lon="7.03171">
        <ele>850</ele>
        <time>2022-02-11T12:22:41.000Z</time>
      </trkpt>
      <trkpt lat="43.71915" lon="7.03187">
        <ele>850.40002441406</ele>
        <time>2022-02-11T12:22:43.000Z</time>
      </trkpt>
      <trkpt lat="43.71914" lon="7.03196">
        <ele>850.79998779297</ele>
        <time>2022-02-11T12:22:44.000Z</time>
      </trkpt>
      <trkpt lat="43.71915" lon="7.03211">
        <ele>851</ele>
        <time>2022-02-11T12:22:46.000Z</time>
      </trkpt>
      <trkpt lat="43.71917" lon="7.03222">
        <ele>851</ele>
        <time>2022-02-11T12:22:47.000Z</time>
      </trkpt>
      <trkpt lat="43.71928" lon="7.03247">
        <ele>850.40002441406</ele>
        <time>2022-02-11T12:22:51.000Z</time>
      </trkpt>
      <trkpt lat="43.71939" lon="7.03257">
        <ele>851.20001220703</ele>
        <time>2022-02-11T12:22:54.000Z</time>
      </trkpt>
      <trkpt lat="43.71942" lon="7.0326">
        <ele>851.79998779297</ele>
        <time>2022-02-11T12:22:55.000Z</time>
      </trkpt>
      <trkpt lat="43.7195" lon="7.0327">
        <ele>853</ele>
        <time>2022-02-11T12:22:58.000Z</time>
      </trkpt>
      <trkpt lat="43.71955" lon="7.03277">
        <ele>853.59997558594</ele>
        <time>2022-02-11T12:23:00.000Z</time>
      </trkpt>
      <trkpt lat="43.71963" lon="7.03287">
        <ele>854.20001220703</ele>
        <time>2022-02-11T12:23:03.000Z</time>
      </trkpt>
      <trkpt lat="43.71974" lon="7.03303">
        <ele>854.40002441406</ele>
        <time>2022-02-11T12:23:07.000Z</time>
      </trkpt>
      <trkpt lat="43.71988" lon="7.03331">
        <ele>853.59997558594</ele>
        <time>2022-02-11T12:23:11.000Z</time>
      </trkpt>
      <trkpt lat="43.71991" lon="7.0334">
        <ele>853</ele>
        <time>2022-02-11T12:23:12.000Z</time>
      </trkpt>
      <trkpt lat="43.72" lon="7.03359">
        <ele>851.20001220703</ele>
        <time>2022-02-11T12:23:14.000Z</time>
      </trkpt>
      <trkpt lat="43.72006" lon="7.03369">
        <ele>849.79998779297</ele>
        <time>2022-02-11T12:23:15.000Z</time>
      </trkpt>
      <trkpt lat="43.72017" lon="7.03389">
        <ele>847.59997558594</ele>
        <time>2022-02-11T12:23:17.000Z</time>
      </trkpt>
      <trkpt lat="43.72023" lon="7.034">
        <ele>846.40002441406</ele>
        <time>2022-02-11T12:23:18.000Z</time>
      </trkpt>
      <trkpt lat="43.72028" lon="7.03412">
        <ele>845</ele>
        <time>2022-02-11T12:23:19.000Z</time>
      </trkpt>
      <trkpt lat="43.72032" lon="7.03423">
        <ele>843.59997558594</ele>
        <time>2022-02-11T12:23:20.000Z</time>
      </trkpt>
      <trkpt lat="43.72036" lon="7.03435">
        <ele>842.40002441406</ele>
        <time>2022-02-11T12:23:21.000Z</time>
      </trkpt>
      <trkpt lat="43.72038" lon="7.03447">
        <ele>842</ele>
        <time>2022-02-11T12:23:22.000Z</time>
      </trkpt>
      <trkpt lat="43.72038" lon="7.0346">
        <ele>841</ele>
        <time>2022-02-11T12:23:23.000Z</time>
      </trkpt>
      <trkpt lat="43.72041" lon="7.03487">
        <ele>839.59997558594</ele>
        <time>2022-02-11T12:23:25.000Z</time>
      </trkpt>
      <trkpt lat="43.72044" lon="7.03498">
        <ele>838.40002441406</ele>
        <time>2022-02-11T12:23:26.000Z</time>
      </trkpt>
      <trkpt lat="43.72048" lon="7.03509">
        <ele>837.40002441406</ele>
        <time>2022-02-11T12:23:27.000Z</time>
      </trkpt>
      <trkpt lat="43.72053" lon="7.03517">
        <ele>836.79998779297</ele>
        <time>2022-02-11T12:23:28.000Z</time>
      </trkpt>
      <trkpt lat="43.72067" lon="7.03533">
        <ele>836</ele>
        <time>2022-02-11T12:23:30.000Z</time>
      </trkpt>
      <trkpt lat="43.72074" lon="7.0354">
        <ele>835.59997558594</ele>
        <time>2022-02-11T12:23:31.000Z</time>
      </trkpt>
      <trkpt lat="43.72091" lon="7.03559">
        <ele>834.59997558594</ele>
        <time>2022-02-11T12:23:34.000Z</time>
      </trkpt>
      <trkpt lat="43.72095" lon="7.03566">
        <ele>834.59997558594</ele>
        <time>2022-02-11T12:23:35.000Z</time>
      </trkpt>
      <trkpt lat="43.72116" lon="7.0359">
        <ele>835.40002441406</ele>
        <time>2022-02-11T12:23:39.000Z</time>
      </trkpt>
      <trkpt lat="43.72141" lon="7.03624">
        <ele>833.40002441406</ele>
        <time>2022-02-11T12:23:43.000Z</time>
      </trkpt>
      <trkpt lat="43.72147" lon="7.03635">
        <ele>832</ele>
        <time>2022-02-11T12:23:44.000Z</time>
      </trkpt>
      <trkpt lat="43.72152" lon="7.03645">
        <ele>830.40002441406</ele>
        <time>2022-02-11T12:23:45.000Z</time>
      </trkpt>
      <trkpt lat="43.72155" lon="7.03655">
        <ele>829.20001220703</ele>
        <time>2022-02-11T12:23:46.000Z</time>
      </trkpt>
      <trkpt lat="43.72156" lon="7.03666">
        <ele>828.40002441406</ele>
        <time>2022-02-11T12:23:47.000Z</time>
      </trkpt>
      <trkpt lat="43.72155" lon="7.03676">
        <ele>827.40002441406</ele>
        <time>2022-02-11T12:23:48.000Z</time>
      </trkpt>
      <trkpt lat="43.72151" lon="7.03695">
        <ele>826.59997558594</ele>
        <time>2022-02-11T12:23:50.000Z</time>
      </trkpt>
      <trkpt lat="43.72148" lon="7.03702">
        <ele>826.40002441406</ele>
        <time>2022-02-11T12:23:51.000Z</time>
      </trkpt>
      <trkpt lat="43.72141" lon="7.03717">
        <ele>826.20001220703</ele>
        <time>2022-02-11T12:23:53.000Z</time>
      </trkpt>
      <trkpt lat="43.72135" lon="7.03734">
        <ele>826.20001220703</ele>
        <time>2022-02-11T12:23:55.000Z</time>
      </trkpt>
      <trkpt lat="43.72129" lon="7.0377">
        <ele>825.20001220703</ele>
        <time>2022-02-11T12:23:59.000Z</time>
      </trkpt>
      <trkpt lat="43.72128" lon="7.03793">
        <ele>824</ele>
        <time>2022-02-11T12:24:02.000Z</time>
      </trkpt>
      <trkpt lat="43.72126" lon="7.03807">
        <ele>824.79998779297</ele>
        <time>2022-02-11T12:24:04.000Z</time>
      </trkpt>
      <trkpt lat="43.72126" lon="7.03812">
        <ele>825.20001220703</ele>
        <time>2022-02-11T12:24:05.000Z</time>
      </trkpt>
      <trkpt lat="43.72127" lon="7.03822">
        <ele>826.40002441406</ele>
        <time>2022-02-11T12:24:07.000Z</time>
      </trkpt>
      <trkpt lat="43.72127" lon="7.03826">
        <ele>826.79998779297</ele>
        <time>2022-02-11T12:24:08.000Z</time>
      </trkpt>
      <trkpt lat="43.72128" lon="7.03834">
        <ele>827.79998779297</ele>
        <time>2022-02-11T12:24:10.000Z</time>
      </trkpt>
      <trkpt lat="43.7213" lon="7.03846">
        <ele>828.40002441406</ele>
        <time>2022-02-11T12:24:13.000Z</time>
      </trkpt>
      <trkpt lat="43.7213" lon="7.03851">
        <ele>828.59997558594</ele>
        <time>2022-02-11T12:24:14.000Z</time>
      </trkpt>
      <trkpt lat="43.72134" lon="7.03868">
        <ele>828.79998779297</ele>
        <time>2022-02-11T12:24:18.000Z</time>
      </trkpt>
      <trkpt lat="43.72136" lon="7.03876">
        <ele>829</ele>
        <time>2022-02-11T12:24:20.000Z</time>
      </trkpt>
      <trkpt lat="43.72147" lon="7.03899">
        <ele>829.20001220703</ele>
        <time>2022-02-11T12:24:26.000Z</time>
      </trkpt>
      <trkpt lat="43.72153" lon="7.03911">
        <ele>830</ele>
        <time>2022-02-11T12:24:29.000Z</time>
      </trkpt>
      <trkpt lat="43.72165" lon="7.03928">
        <ele>830.20001220703</ele>
        <time>2022-02-11T12:24:34.000Z</time>
      </trkpt>
      <trkpt lat="43.72183" lon="7.03943">
        <ele>831.20001220703</ele>
        <time>2022-02-11T12:24:40.000Z</time>
      </trkpt>
      <trkpt lat="43.72207" lon="7.03962">
        <ele>832</ele>
        <time>2022-02-11T12:24:48.000Z</time>
      </trkpt>
      <trkpt lat="43.72211" lon="7.03964">
        <ele>832.20001220703</ele>
        <time>2022-02-11T12:24:49.000Z</time>
      </trkpt>
      <trkpt lat="43.72231" lon="7.03974">
        <ele>832.59997558594</ele>
        <time>2022-02-11T12:24:55.000Z</time>
      </trkpt>
      <trkpt lat="43.72244" lon="7.03978">
        <ele>833.40002441406</ele>
        <time>2022-02-11T12:24:59.000Z</time>
      </trkpt>
      <trkpt lat="43.72255" lon="7.03982">
        <ele>834</ele>
        <time>2022-02-11T12:25:02.000Z</time>
      </trkpt>
      <trkpt lat="43.72283" lon="7.03991">
        <ele>833</ele>
        <time>2022-02-11T12:25:09.000Z</time>
      </trkpt>
      <trkpt lat="43.72305" lon="7.03994">
        <ele>833.79998779297</ele>
        <time>2022-02-11T12:25:16.000Z</time>
      </trkpt>
      <trkpt lat="43.72332" lon="7.03995">
        <ele>834</ele>
        <time>2022-02-11T12:25:23.000Z</time>
      </trkpt>
      <trkpt lat="43.72337" lon="7.03995">
        <ele>833.59997558594</ele>
        <time>2022-02-11T12:25:24.000Z</time>
      </trkpt>
      <trkpt lat="43.72352" lon="7.03987">
        <ele>832.59997558594</ele>
        <time>2022-02-11T12:25:28.000Z</time>
      </trkpt>
      <trkpt lat="43.72361" lon="7.0398">
        <ele>832.40002441406</ele>
        <time>2022-02-11T12:25:30.000Z</time>
      </trkpt>
      <trkpt lat="43.72378" lon="7.03966">
        <ele>831.40002441406</ele>
        <time>2022-02-11T12:25:34.000Z</time>
      </trkpt>
      <trkpt lat="43.72383" lon="7.03962">
        <ele>831.20001220703</ele>
        <time>2022-02-11T12:25:35.000Z</time>
      </trkpt>
      <trkpt lat="43.72397" lon="7.0395">
        <ele>830</ele>
        <time>2022-02-11T12:25:38.000Z</time>
      </trkpt>
      <trkpt lat="43.72406" lon="7.03943">
        <ele>829.79998779297</ele>
        <time>2022-02-11T12:25:40.000Z</time>
      </trkpt>
      <trkpt lat="43.72411" lon="7.03941">
        <ele>829.59997558594</ele>
        <time>2022-02-11T12:25:41.000Z</time>
      </trkpt>
      <trkpt lat="43.72419" lon="7.03945">
        <ele>829.20001220703</ele>
        <time>2022-02-11T12:25:43.000Z</time>
      </trkpt>
      <trkpt lat="43.72422" lon="7.03949">
        <ele>829</ele>
        <time>2022-02-11T12:25:44.000Z</time>
      </trkpt>
      <trkpt lat="43.72425" lon="7.0396">
        <ele>829</ele>
        <time>2022-02-11T12:25:46.000Z</time>
      </trkpt>
      <trkpt lat="43.72431" lon="7.03981">
        <ele>829.20001220703</ele>
        <time>2022-02-11T12:25:49.000Z</time>
      </trkpt>
      <trkpt lat="43.72434" lon="7.03987">
        <ele>829.20001220703</ele>
        <time>2022-02-11T12:25:50.000Z</time>
      </trkpt>
      <trkpt lat="43.72452" lon="7.04014">
        <ele>829</ele>
        <time>2022-02-11T12:25:56.000Z</time>
      </trkpt>
      <trkpt lat="43.72475" lon="7.0403">
        <ele>829.59997558594</ele>
        <time>2022-02-11T12:26:03.000Z</time>
      </trkpt>
      <trkpt lat="43.72481" lon="7.04033">
        <ele>830.20001220703</ele>
        <time>2022-02-11T12:26:05.000Z</time>
      </trkpt>
      <trkpt lat="43.72491" lon="7.04036">
        <ele>831.40002441406</ele>
        <time>2022-02-11T12:26:08.000Z</time>
      </trkpt>
      <trkpt lat="43.72493" lon="7.04037">
        <ele>831.79998779297</ele>
        <time>2022-02-11T12:26:09.000Z</time>
      </trkpt>
      <trkpt lat="43.725" lon="7.04039">
        <ele>832.79998779297</ele>
        <time>2022-02-11T12:26:11.000Z</time>
      </trkpt>
      <trkpt lat="43.72517" lon="7.04048">
        <ele>833.59997558594</ele>
        <time>2022-02-11T12:26:16.000Z</time>
      </trkpt>
      <trkpt lat="43.72536" lon="7.04061">
        <ele>832.79998779297</ele>
        <time>2022-02-11T12:26:22.000Z</time>
      </trkpt>
      <trkpt lat="43.72562" lon="7.04074">
        <ele>832.59997558594</ele>
        <time>2022-02-11T12:26:29.000Z</time>
      </trkpt>
      <trkpt lat="43.72566" lon="7.04075">
        <ele>832.59997558594</ele>
        <time>2022-02-11T12:26:30.000Z</time>
      </trkpt>
      <trkpt lat="43.72582" lon="7.04075">
        <ele>831.59997558594</ele>
        <time>2022-02-11T12:26:33.000Z</time>
      </trkpt>
      <trkpt lat="43.72588" lon="7.04077">
        <ele>831.40002441406</ele>
        <time>2022-02-11T12:26:34.000Z</time>
      </trkpt>
      <trkpt lat="43.72597" lon="7.04088">
        <ele>830.40002441406</ele>
        <time>2022-02-11T12:26:36.000Z</time>
      </trkpt>
      <trkpt lat="43.72601" lon="7.04092">
        <ele>830</ele>
        <time>2022-02-11T12:26:37.000Z</time>
      </trkpt>
      <trkpt lat="43.72605" lon="7.04095">
        <ele>829.59997558594</ele>
        <time>2022-02-11T12:26:38.000Z</time>
      </trkpt>
      <trkpt lat="43.72609" lon="7.04098">
        <ele>829.40002441406</ele>
        <time>2022-02-11T12:26:39.000Z</time>
      </trkpt>
      <trkpt lat="43.72617" lon="7.04101">
        <ele>829.40002441406</ele>
        <time>2022-02-11T12:26:41.000Z</time>
      </trkpt>
      <trkpt lat="43.72632" lon="7.04102">
        <ele>830.79998779297</ele>
        <time>2022-02-11T12:26:45.000Z</time>
      </trkpt>
      <trkpt lat="43.72637" lon="7.04102">
        <ele>831.59997558594</ele>
        <time>2022-02-11T12:26:47.000Z</time>
      </trkpt>
      <trkpt lat="43.7264" lon="7.04103">
        <ele>831.79998779297</ele>
        <time>2022-02-11T12:26:48.000Z</time>
      </trkpt>
      <trkpt lat="43.7266" lon="7.04113">
        <ele>832.59997558594</ele>
        <time>2022-02-11T12:26:53.000Z</time>
      </trkpt>
      <trkpt lat="43.7269" lon="7.04132">
        <ele>832.20001220703</ele>
        <time>2022-02-11T12:27:00.000Z</time>
      </trkpt>
      <trkpt lat="43.727" lon="7.04138">
        <ele>833.20001220703</ele>
        <time>2022-02-11T12:27:03.000Z</time>
      </trkpt>
      <trkpt lat="43.72708" lon="7.0414">
        <ele>834.20001220703</ele>
        <time>2022-02-11T12:27:06.000Z</time>
      </trkpt>
      <trkpt lat="43.72711" lon="7.0414">
        <ele>834.40002441406</ele>
        <time>2022-02-11T12:27:07.000Z</time>
      </trkpt>
      <trkpt lat="43.72727" lon="7.0414">
        <ele>835.59997558594</ele>
        <time>2022-02-11T12:27:12.000Z</time>
      </trkpt>
      <trkpt lat="43.7273" lon="7.0414">
        <ele>835.59997558594</ele>
        <time>2022-02-11T12:27:13.000Z</time>
      </trkpt>
      <trkpt lat="43.72759" lon="7.04139">
        <ele>836.20001220703</ele>
        <time>2022-02-11T12:27:22.000Z</time>
      </trkpt>
      <trkpt lat="43.72766" lon="7.04135">
        <ele>836.59997558594</ele>
        <time>2022-02-11T12:27:25.000Z</time>
      </trkpt>
      <trkpt lat="43.72777" lon="7.0413">
        <ele>838</ele>
        <time>2022-02-11T12:27:29.000Z</time>
      </trkpt>
      <trkpt lat="43.72804" lon="7.04118">
        <ele>838.79998779297</ele>
        <time>2022-02-11T12:27:38.000Z</time>
      </trkpt>
      <trkpt lat="43.7281" lon="7.04118">
        <ele>839.20001220703</ele>
        <time>2022-02-11T12:27:40.000Z</time>
      </trkpt>
      <trkpt lat="43.72822" lon="7.04123">
        <ele>839.79998779297</ele>
        <time>2022-02-11T12:27:44.000Z</time>
      </trkpt>
      <trkpt lat="43.72834" lon="7.04128">
        <ele>840.40002441406</ele>
        <time>2022-02-11T12:27:48.000Z</time>
      </trkpt>
      <trkpt lat="43.72841" lon="7.0413">
        <ele>841.20001220703</ele>
        <time>2022-02-11T12:27:50.000Z</time>
      </trkpt>
      <trkpt lat="43.72844" lon="7.04131">
        <ele>841.79998779297</ele>
        <time>2022-02-11T12:27:51.000Z</time>
      </trkpt>
      <trkpt lat="43.72849" lon="7.04133">
        <ele>843</ele>
        <time>2022-02-11T12:27:53.000Z</time>
      </trkpt>
      <trkpt lat="43.72858" lon="7.04134">
        <ele>844.20001220703</ele>
        <time>2022-02-11T12:27:56.000Z</time>
      </trkpt>
      <trkpt lat="43.72862" lon="7.04135">
        <ele>845</ele>
        <time>2022-02-11T12:27:58.000Z</time>
      </trkpt>
      <trkpt lat="43.72864" lon="7.04135">
        <ele>845.40002441406</ele>
        <time>2022-02-11T12:27:59.000Z</time>
      </trkpt>
      <trkpt lat="43.72874" lon="7.04135">
        <ele>846.40002441406</ele>
        <time>2022-02-11T12:28:03.000Z</time>
      </trkpt>
      <trkpt lat="43.72881" lon="7.04136">
        <ele>846.79998779297</ele>
        <time>2022-02-11T12:28:06.000Z</time>
      </trkpt>
      <trkpt lat="43.72901" lon="7.04136">
        <ele>847</ele>
        <time>2022-02-11T12:28:13.000Z</time>
      </trkpt>
      <trkpt lat="43.72905" lon="7.04136">
        <ele>847</ele>
        <time>2022-02-11T12:28:14.000Z</time>
      </trkpt>
      <trkpt lat="43.7292" lon="7.04138">
        <ele>846.40002441406</ele>
        <time>2022-02-11T12:28:17.000Z</time>
      </trkpt>
      <trkpt lat="43.72937" lon="7.0414">
        <ele>845</ele>
        <time>2022-02-11T12:28:20.000Z</time>
      </trkpt>
      <trkpt lat="43.72943" lon="7.04142">
        <ele>844.59997558594</ele>
        <time>2022-02-11T12:28:21.000Z</time>
      </trkpt>
      <trkpt lat="43.72947" lon="7.04145">
        <ele>844</ele>
        <time>2022-02-11T12:28:22.000Z</time>
      </trkpt>
      <trkpt lat="43.72951" lon="7.04149">
        <ele>843.79998779297</ele>
        <time>2022-02-11T12:28:23.000Z</time>
      </trkpt>
      <trkpt lat="43.72953" lon="7.0416">
        <ele>844</ele>
        <time>2022-02-11T12:28:25.000Z</time>
      </trkpt>
      <trkpt lat="43.72953" lon="7.04168">
        <ele>844.59997558594</ele>
        <time>2022-02-11T12:28:27.000Z</time>
      </trkpt>
      <trkpt lat="43.72953" lon="7.04171">
        <ele>845</ele>
        <time>2022-02-11T12:28:28.000Z</time>
      </trkpt>
      <trkpt lat="43.72952" lon="7.04178">
        <ele>846</ele>
        <time>2022-02-11T12:28:30.000Z</time>
      </trkpt>
      <trkpt lat="43.72951" lon="7.04181">
        <ele>846.59997558594</ele>
        <time>2022-02-11T12:28:31.000Z</time>
      </trkpt>
      <trkpt lat="43.72949" lon="7.04189">
        <ele>848</ele>
        <time>2022-02-11T12:28:34.000Z</time>
      </trkpt>
      <trkpt lat="43.72947" lon="7.04196">
        <ele>849</ele>
        <time>2022-02-11T12:28:36.000Z</time>
      </trkpt>
      <trkpt lat="43.72947" lon="7.04199">
        <ele>849.20001220703</ele>
        <time>2022-02-11T12:28:37.000Z</time>
      </trkpt>
      <trkpt lat="43.72946" lon="7.04208">
        <ele>850.40002441406</ele>
        <time>2022-02-11T12:28:40.000Z</time>
      </trkpt>
      <trkpt lat="43.72945" lon="7.04216">
        <ele>851.59997558594</ele>
        <time>2022-02-11T12:28:43.000Z</time>
      </trkpt>
      <trkpt lat="43.72945" lon="7.04224">
        <ele>852.59997558594</ele>
        <time>2022-02-11T12:28:47.000Z</time>
      </trkpt>
      <trkpt lat="43.72942" lon="7.04231">
        <ele>852.79998779297</ele>
        <time>2022-02-11T12:28:50.000Z</time>
      </trkpt>
      <trkpt lat="43.72937" lon="7.04235">
        <ele>852.59997558594</ele>
        <time>2022-02-11T12:28:53.000Z</time>
      </trkpt>
      <trkpt lat="43.72932" lon="7.04234">
        <ele>852.40002441406</ele>
        <time>2022-02-11T12:28:55.000Z</time>
      </trkpt>
      <trkpt lat="43.72919" lon="7.04227">
        <ele>851.79998779297</ele>
        <time>2022-02-11T12:29:01.000Z</time>
      </trkpt>
      <trkpt lat="43.72918" lon="7.04228">
        <ele>851.79998779297</ele>
        <time>2022-02-11T12:29:02.000Z</time>
      </trkpt>
      <trkpt lat="43.72918" lon="7.04228">
        <ele>851.59997558594</ele>
        <time>2022-02-11T12:29:05.000Z</time>
      </trkpt>
      <trkpt lat="43.72918" lon="7.04228">
        <ele>851.59997558594</ele>
        <time>2022-02-11T12:29:07.000Z</time>
      </trkpt>
      <trkpt lat="43.72918" lon="7.04228">
        <ele>851.79998779297</ele>
        <time>2022-02-11T12:29:24.000Z</time>
      </trkpt>
      <trkpt lat="43.72918" lon="7.04227">
        <ele>851.59997558594</ele>
        <time>2022-02-11T12:29:40.000Z</time>
      </trkpt>
      <trkpt lat="43.72918" lon="7.04227">
        <ele>851.79998779297</ele>
        <time>2022-02-11T12:29:49.000Z</time>
      </trkpt>
      <trkpt lat="43.72913" lon="7.04225">
        <ele>851.79998779297</ele>
        <time>2022-02-11T12:30:02.000Z</time>
      </trkpt>
      <trkpt lat="43.72908" lon="7.04226">
        <ele>851.59997558594</ele>
        <time>2022-02-11T12:30:04.000Z</time>
      </trkpt>
      <trkpt lat="43.72907" lon="7.04228">
        <ele>851</ele>
        <time>2022-02-11T12:30:05.000Z</time>
      </trkpt>
      <trkpt lat="43.72907" lon="7.04232">
        <ele>850.40002441406</ele>
        <time>2022-02-11T12:30:06.000Z</time>
      </trkpt>
      <trkpt lat="43.72906" lon="7.04238">
        <ele>849.40002441406</ele>
        <time>2022-02-11T12:30:08.000Z</time>
      </trkpt>
      <trkpt lat="43.72902" lon="7.04243">
        <ele>848.79998779297</ele>
        <time>2022-02-11T12:30:11.000Z</time>
      </trkpt>
      <trkpt lat="43.72903" lon="7.04248">
        <ele>848.20001220703</ele>
        <time>2022-02-11T12:30:12.000Z</time>
      </trkpt>
      <trkpt lat="43.72903" lon="7.04253">
        <ele>847.59997558594</ele>
        <time>2022-02-11T12:30:13.000Z</time>
      </trkpt>
      <trkpt lat="43.72901" lon="7.04257">
        <ele>846.59997558594</ele>
        <time>2022-02-11T12:30:14.000Z</time>
      </trkpt>
      <trkpt lat="43.72899" lon="7.04256">
        <ele>845.40002441406</ele>
        <time>2022-02-11T12:30:15.000Z</time>
      </trkpt>
      <trkpt lat="43.72896" lon="7.04255">
        <ele>844</ele>
        <time>2022-02-11T12:30:16.000Z</time>
      </trkpt>
      <trkpt lat="43.72893" lon="7.0426">
        <ele>842</ele>
        <time>2022-02-11T12:30:18.000Z</time>
      </trkpt>
      <trkpt lat="43.72892" lon="7.04266">
        <ele>841</ele>
        <time>2022-02-11T12:30:19.000Z</time>
      </trkpt>
      <trkpt lat="43.72893" lon="7.04278">
        <ele>839.20001220703</ele>
        <time>2022-02-11T12:30:21.000Z</time>
      </trkpt>
      <trkpt lat="43.7289" lon="7.04283">
        <ele>838</ele>
        <time>2022-02-11T12:30:22.000Z</time>
      </trkpt>
      <trkpt lat="43.72888" lon="7.04293">
        <ele>836.40002441406</ele>
        <time>2022-02-11T12:30:24.000Z</time>
      </trkpt>
      <trkpt lat="43.72886" lon="7.04298">
        <ele>835.59997558594</ele>
        <time>2022-02-11T12:30:25.000Z</time>
      </trkpt>
      <trkpt lat="43.72885" lon="7.04304">
        <ele>834.59997558594</ele>
        <time>2022-02-11T12:30:26.000Z</time>
      </trkpt>
      <trkpt lat="43.7288" lon="7.04313">
        <ele>833.20001220703</ele>
        <time>2022-02-11T12:30:28.000Z</time>
      </trkpt>
      <trkpt lat="43.72876" lon="7.04318">
        <ele>832.79998779297</ele>
        <time>2022-02-11T12:30:29.000Z</time>
      </trkpt>
      <trkpt lat="43.72868" lon="7.04328">
        <ele>831.20001220703</ele>
        <time>2022-02-11T12:30:31.000Z</time>
      </trkpt>
      <trkpt lat="43.7286" lon="7.04332">
        <ele>829.79998779297</ele>
        <time>2022-02-11T12:30:33.000Z</time>
      </trkpt>
      <trkpt lat="43.72851" lon="7.04336">
        <ele>828.40002441406</ele>
        <time>2022-02-11T12:30:35.000Z</time>
      </trkpt>
      <trkpt lat="43.72846" lon="7.04338">
        <ele>827.40002441406</ele>
        <time>2022-02-11T12:30:36.000Z</time>
      </trkpt>
      <trkpt lat="43.72842" lon="7.04341">
        <ele>826.79998779297</ele>
        <time>2022-02-11T12:30:37.000Z</time>
      </trkpt>
      <trkpt lat="43.72834" lon="7.04348">
        <ele>826</ele>
        <time>2022-02-11T12:30:39.000Z</time>
      </trkpt>
      <trkpt lat="43.72829" lon="7.04366">
        <ele>825.40002441406</ele>
        <time>2022-02-11T12:30:42.000Z</time>
      </trkpt>
      <trkpt lat="43.72819" lon="7.04376">
        <ele>825.20001220703</ele>
        <time>2022-02-11T12:30:45.000Z</time>
      </trkpt>
      <trkpt lat="43.72814" lon="7.04379">
        <ele>825</ele>
        <time>2022-02-11T12:30:46.000Z</time>
      </trkpt>
      <trkpt lat="43.72795" lon="7.04392">
        <ele>824.79998779297</ele>
        <time>2022-02-11T12:30:50.000Z</time>
      </trkpt>
      <trkpt lat="43.72777" lon="7.04403">
        <ele>824.40002441406</ele>
        <time>2022-02-11T12:30:54.000Z</time>
      </trkpt>
      <trkpt lat="43.72773" lon="7.04403">
        <ele>824.20001220703</ele>
        <time>2022-02-11T12:30:55.000Z</time>
      </trkpt>
      <trkpt lat="43.72756" lon="7.04409">
        <ele>824</ele>
        <time>2022-02-11T12:30:59.000Z</time>
      </trkpt>
      <trkpt lat="43.72752" lon="7.04412">
        <ele>824</ele>
        <time>2022-02-11T12:31:00.000Z</time>
      </trkpt>
      <trkpt lat="43.72727" lon="7.04426">
        <ele>823</ele>
        <time>2022-02-11T12:31:06.000Z</time>
      </trkpt>
      <trkpt lat="43.72723" lon="7.04429">
        <ele>822.79998779297</ele>
        <time>2022-02-11T12:31:07.000Z</time>
      </trkpt>
      <trkpt lat="43.72706" lon="7.04444">
        <ele>822</ele>
        <time>2022-02-11T12:31:12.000Z</time>
      </trkpt>
      <trkpt lat="43.72704" lon="7.04448">
        <ele>822.20001220703</ele>
        <time>2022-02-11T12:31:13.000Z</time>
      </trkpt>
      <trkpt lat="43.72698" lon="7.04466">
        <ele>822.79998779297</ele>
        <time>2022-02-11T12:31:16.000Z</time>
      </trkpt>
      <trkpt lat="43.72691" lon="7.04482">
        <ele>822.79998779297</ele>
        <time>2022-02-11T12:31:19.000Z</time>
      </trkpt>
      <trkpt lat="43.72687" lon="7.04492">
        <ele>822.79998779297</ele>
        <time>2022-02-11T12:31:21.000Z</time>
      </trkpt>
      <trkpt lat="43.72677" lon="7.04509">
        <ele>823.59997558594</ele>
        <time>2022-02-11T12:31:25.000Z</time>
      </trkpt>
      <trkpt lat="43.72674" lon="7.04512">
        <ele>823.79998779297</ele>
        <time>2022-02-11T12:31:26.000Z</time>
      </trkpt>
      <trkpt lat="43.72662" lon="7.0453">
        <ele>823.79998779297</ele>
        <time>2022-02-11T12:31:30.000Z</time>
      </trkpt>
      <trkpt lat="43.7266" lon="7.04554">
        <ele>823.20001220703</ele>
        <time>2022-02-11T12:31:34.000Z</time>
      </trkpt>
      <trkpt lat="43.7266" lon="7.0456">
        <ele>823.40002441406</ele>
        <time>2022-02-11T12:31:35.000Z</time>
      </trkpt>
      <trkpt lat="43.72665" lon="7.04582">
        <ele>823</ele>
        <time>2022-02-11T12:31:39.000Z</time>
      </trkpt>
      <trkpt lat="43.72666" lon="7.04588">
        <ele>822.79998779297</ele>
        <time>2022-02-11T12:31:40.000Z</time>
      </trkpt>
      <trkpt lat="43.72661" lon="7.04605">
        <ele>822</ele>
        <time>2022-02-11T12:31:43.000Z</time>
      </trkpt>
      <trkpt lat="43.72656" lon="7.04609">
        <ele>821.40002441406</ele>
        <time>2022-02-11T12:31:45.000Z</time>
      </trkpt>
      <trkpt lat="43.72654" lon="7.04613">
        <ele>820.79998779297</ele>
        <time>2022-02-11T12:31:46.000Z</time>
      </trkpt>
      <trkpt lat="43.7265" lon="7.04618">
        <ele>820.40002441406</ele>
        <time>2022-02-11T12:31:48.000Z</time>
      </trkpt>
      <trkpt lat="43.72648" lon="7.04622">
        <ele>819.79998779297</ele>
        <time>2022-02-11T12:31:49.000Z</time>
      </trkpt>
      <trkpt lat="43.72641" lon="7.0463">
        <ele>818.59997558594</ele>
        <time>2022-02-11T12:31:51.000Z</time>
      </trkpt>
      <trkpt lat="43.72633" lon="7.04636">
        <ele>816.79998779297</ele>
        <time>2022-02-11T12:31:53.000Z</time>
      </trkpt>
      <trkpt lat="43.72628" lon="7.04639">
        <ele>815</ele>
        <time>2022-02-11T12:31:54.000Z</time>
      </trkpt>
      <trkpt lat="43.72623" lon="7.04641">
        <ele>813.59997558594</ele>
        <time>2022-02-11T12:31:55.000Z</time>
      </trkpt>
      <trkpt lat="43.72618" lon="7.04648">
        <ele>812.20001220703</ele>
        <time>2022-02-11T12:31:56.000Z</time>
      </trkpt>
      <trkpt lat="43.72614" lon="7.04652">
        <ele>811</ele>
        <time>2022-02-11T12:31:57.000Z</time>
      </trkpt>
      <trkpt lat="43.7261" lon="7.04657">
        <ele>809.59997558594</ele>
        <time>2022-02-11T12:31:58.000Z</time>
      </trkpt>
      <trkpt lat="43.72606" lon="7.04663">
        <ele>809</ele>
        <time>2022-02-11T12:31:59.000Z</time>
      </trkpt>
      <trkpt lat="43.72601" lon="7.0467">
        <ele>808.20001220703</ele>
        <time>2022-02-11T12:32:00.000Z</time>
      </trkpt>
      <trkpt lat="43.72594" lon="7.04678">
        <ele>806.20001220703</ele>
        <time>2022-02-11T12:32:02.000Z</time>
      </trkpt>
      <trkpt lat="43.72592" lon="7.04684">
        <ele>805</ele>
        <time>2022-02-11T12:32:03.000Z</time>
      </trkpt>
      <trkpt lat="43.72589" lon="7.0469">
        <ele>804</ele>
        <time>2022-02-11T12:32:04.000Z</time>
      </trkpt>
      <trkpt lat="43.72587" lon="7.04697">
        <ele>803.20001220703</ele>
        <time>2022-02-11T12:32:05.000Z</time>
      </trkpt>
      <trkpt lat="43.72579" lon="7.0472">
        <ele>803.59997558594</ele>
        <time>2022-02-11T12:32:09.000Z</time>
      </trkpt>
      <trkpt lat="43.72578" lon="7.04739">
        <ele>802.20001220703</ele>
        <time>2022-02-11T12:32:13.000Z</time>
      </trkpt>
      <trkpt lat="43.72578" lon="7.04743">
        <ele>801.59997558594</ele>
        <time>2022-02-11T12:32:14.000Z</time>
      </trkpt>
      <trkpt lat="43.72577" lon="7.04754">
        <ele>800.20001220703</ele>
        <time>2022-02-11T12:32:16.000Z</time>
      </trkpt>
      <trkpt lat="43.72577" lon="7.04762">
        <ele>799.40002441406</ele>
        <time>2022-02-11T12:32:18.000Z</time>
      </trkpt>
      <trkpt lat="43.72578" lon="7.04766">
        <ele>798.79998779297</ele>
        <time>2022-02-11T12:32:19.000Z</time>
      </trkpt>
      <trkpt lat="43.72578" lon="7.04777">
        <ele>797.20001220703</ele>
        <time>2022-02-11T12:32:21.000Z</time>
      </trkpt>
      <trkpt lat="43.72577" lon="7.04793">
        <ele>796.20001220703</ele>
        <time>2022-02-11T12:32:24.000Z</time>
      </trkpt>
      <trkpt lat="43.72576" lon="7.04797">
        <ele>795.59997558594</ele>
        <time>2022-02-11T12:32:25.000Z</time>
      </trkpt>
      <trkpt lat="43.72574" lon="7.048">
        <ele>795</ele>
        <time>2022-02-11T12:32:26.000Z</time>
      </trkpt>
      <trkpt lat="43.72573" lon="7.04809">
        <ele>793.79998779297</ele>
        <time>2022-02-11T12:32:28.000Z</time>
      </trkpt>
      <trkpt lat="43.7257" lon="7.04832">
        <ele>792.79998779297</ele>
        <time>2022-02-11T12:32:31.000Z</time>
      </trkpt>
      <trkpt lat="43.72569" lon="7.04839">
        <ele>792.20001220703</ele>
        <time>2022-02-11T12:32:32.000Z</time>
      </trkpt>
      <trkpt lat="43.72568" lon="7.04851">
        <ele>790</ele>
        <time>2022-02-11T12:32:34.000Z</time>
      </trkpt>
      <trkpt lat="43.72567" lon="7.04855">
        <ele>789</ele>
        <time>2022-02-11T12:32:35.000Z</time>
      </trkpt>
      <trkpt lat="43.72568" lon="7.04857">
        <ele>788.20001220703</ele>
        <time>2022-02-11T12:32:36.000Z</time>
      </trkpt>
      <trkpt lat="43.72569" lon="7.04859">
        <ele>786.40002441406</ele>
        <time>2022-02-11T12:32:38.000Z</time>
      </trkpt>
      <trkpt lat="43.72572" lon="7.04864">
        <ele>785.59997558594</ele>
        <time>2022-02-11T12:32:40.000Z</time>
      </trkpt>
      <trkpt lat="43.72572" lon="7.04868">
        <ele>784.79998779297</ele>
        <time>2022-02-11T12:32:41.000Z</time>
      </trkpt>
      <trkpt lat="43.72572" lon="7.04881">
        <ele>783.40002441406</ele>
        <time>2022-02-11T12:32:43.000Z</time>
      </trkpt>
      <trkpt lat="43.72571" lon="7.04885">
        <ele>783.40002441406</ele>
        <time>2022-02-11T12:32:44.000Z</time>
      </trkpt>
      <trkpt lat="43.72569" lon="7.04894">
        <ele>781.79998779297</ele>
        <time>2022-02-11T12:32:46.000Z</time>
      </trkpt>
      <trkpt lat="43.72569" lon="7.049">
        <ele>780.40002441406</ele>
        <time>2022-02-11T12:32:48.000Z</time>
      </trkpt>
      <trkpt lat="43.72574" lon="7.049">
        <ele>778</ele>
        <time>2022-02-11T12:32:51.000Z</time>
      </trkpt>
      <trkpt lat="43.72577" lon="7.049">
        <ele>777.20001220703</ele>
        <time>2022-02-11T12:32:52.000Z</time>
      </trkpt>
      <trkpt lat="43.7258" lon="7.04898">
        <ele>776</ele>
        <time>2022-02-11T12:32:53.000Z</time>
      </trkpt>
      <trkpt lat="43.7258" lon="7.04896">
        <ele>775</ele>
        <time>2022-02-11T12:32:54.000Z</time>
      </trkpt>
      <trkpt lat="43.72582" lon="7.04896">
        <ele>773.79998779297</ele>
        <time>2022-02-11T12:32:55.000Z</time>
      </trkpt>
      <trkpt lat="43.72585" lon="7.04894">
        <ele>772.20001220703</ele>
        <time>2022-02-11T12:32:57.000Z</time>
      </trkpt>
      <trkpt lat="43.72587" lon="7.04892">
        <ele>770.79998779297</ele>
        <time>2022-02-11T12:32:59.000Z</time>
      </trkpt>
      <trkpt lat="43.72592" lon="7.049">
        <ele>769.79998779297</ele>
        <time>2022-02-11T12:33:02.000Z</time>
      </trkpt>
      <trkpt lat="43.72595" lon="7.04905">
        <ele>768.40002441406</ele>
        <time>2022-02-11T12:33:04.000Z</time>
      </trkpt>
      <trkpt lat="43.72596" lon="7.04911">
        <ele>766.59997558594</ele>
        <time>2022-02-11T12:33:06.000Z</time>
      </trkpt>
      <trkpt lat="43.72597" lon="7.04913">
        <ele>765.59997558594</ele>
        <time>2022-02-11T12:33:07.000Z</time>
      </trkpt>
      <trkpt lat="43.72599" lon="7.04918">
        <ele>764.40002441406</ele>
        <time>2022-02-11T12:33:08.000Z</time>
      </trkpt>
      <trkpt lat="43.72601" lon="7.04924">
        <ele>763.20001220703</ele>
        <time>2022-02-11T12:33:10.000Z</time>
      </trkpt>
      <trkpt lat="43.72601" lon="7.04927">
        <ele>762</ele>
        <time>2022-02-11T12:33:11.000Z</time>
      </trkpt>
      <trkpt lat="43.72599" lon="7.04929">
        <ele>760.40002441406</ele>
        <time>2022-02-11T12:33:12.000Z</time>
      </trkpt>
      <trkpt lat="43.72597" lon="7.0493">
        <ele>759.20001220703</ele>
        <time>2022-02-11T12:33:13.000Z</time>
      </trkpt>
      <trkpt lat="43.72597" lon="7.0493">
        <ele>757.59997558594</ele>
        <time>2022-02-11T12:33:15.000Z</time>
      </trkpt>
      <trkpt lat="43.72595" lon="7.04931">
        <ele>756.79998779297</ele>
        <time>2022-02-11T12:33:17.000Z</time>
      </trkpt>
      <trkpt lat="43.72595" lon="7.04931">
        <ele>756.20001220703</ele>
        <time>2022-02-11T12:33:18.000Z</time>
      </trkpt>
      <trkpt lat="43.72596" lon="7.04933">
        <ele>755.40002441406</ele>
        <time>2022-02-11T12:33:19.000Z</time>
      </trkpt>
      <trkpt lat="43.72597" lon="7.04935">
        <ele>755</ele>
        <time>2022-02-11T12:33:20.000Z</time>
      </trkpt>
      <trkpt lat="43.72597" lon="7.04939">
        <ele>754.59997558594</ele>
        <time>2022-02-11T12:33:21.000Z</time>
      </trkpt>
      <trkpt lat="43.72602" lon="7.04946">
        <ele>753.59997558594</ele>
        <time>2022-02-11T12:33:23.000Z</time>
      </trkpt>
      <trkpt lat="43.72609" lon="7.04954">
        <ele>752</ele>
        <time>2022-02-11T12:33:25.000Z</time>
      </trkpt>
      <trkpt lat="43.72615" lon="7.04969">
        <ele>750.59997558594</ele>
        <time>2022-02-11T12:33:29.000Z</time>
      </trkpt>
      <trkpt lat="43.72615" lon="7.04974">
        <ele>749.40002441406</ele>
        <time>2022-02-11T12:33:31.000Z</time>
      </trkpt>
      <trkpt lat="43.72613" lon="7.04975">
        <ele>747.79998779297</ele>
        <time>2022-02-11T12:33:32.000Z</time>
      </trkpt>
      <trkpt lat="43.72605" lon="7.04975">
        <ele>746</ele>
        <time>2022-02-11T12:33:34.000Z</time>
      </trkpt>
      <trkpt lat="43.72601" lon="7.04975">
        <ele>745</ele>
        <time>2022-02-11T12:33:35.000Z</time>
      </trkpt>
      <trkpt lat="43.72598" lon="7.04977">
        <ele>744</ele>
        <time>2022-02-11T12:33:36.000Z</time>
      </trkpt>
      <trkpt lat="43.72597" lon="7.04984">
        <ele>742.79998779297</ele>
        <time>2022-02-11T12:33:37.000Z</time>
      </trkpt>
      <trkpt lat="43.72599" lon="7.0499">
        <ele>741.79998779297</ele>
        <time>2022-02-11T12:33:38.000Z</time>
      </trkpt>
      <trkpt lat="43.72602" lon="7.04995">
        <ele>740.59997558594</ele>
        <time>2022-02-11T12:33:39.000Z</time>
      </trkpt>
      <trkpt lat="43.72605" lon="7.05002">
        <ele>738.59997558594</ele>
        <time>2022-02-11T12:33:40.000Z</time>
      </trkpt>
      <trkpt lat="43.72604" lon="7.05009">
        <ele>737.20001220703</ele>
        <time>2022-02-11T12:33:41.000Z</time>
      </trkpt>
      <trkpt lat="43.72601" lon="7.05013">
        <ele>735.59997558594</ele>
        <time>2022-02-11T12:33:42.000Z</time>
      </trkpt>
      <trkpt lat="43.72601" lon="7.05018">
        <ele>734</ele>
        <time>2022-02-11T12:33:43.000Z</time>
      </trkpt>
      <trkpt lat="43.72601" lon="7.05023">
        <ele>733.59997558594</ele>
        <time>2022-02-11T12:33:44.000Z</time>
      </trkpt>
      <trkpt lat="43.72598" lon="7.05029">
        <ele>731.40002441406</ele>
        <time>2022-02-11T12:33:45.000Z</time>
      </trkpt>
      <trkpt lat="43.72597" lon="7.05032">
        <ele>730.20001220703</ele>
        <time>2022-02-11T12:33:46.000Z</time>
      </trkpt>
      <trkpt lat="43.72596" lon="7.05036">
        <ele>728.40002441406</ele>
        <time>2022-02-11T12:33:47.000Z</time>
      </trkpt>
      <trkpt lat="43.72597" lon="7.05045">
        <ele>726.59997558594</ele>
        <time>2022-02-11T12:33:49.000Z</time>
      </trkpt>
      <trkpt lat="43.72595" lon="7.05052">
        <ele>725.79998779297</ele>
        <time>2022-02-11T12:33:50.000Z</time>
      </trkpt>
      <trkpt lat="43.72592" lon="7.05058">
        <ele>725</ele>
        <time>2022-02-11T12:33:51.000Z</time>
      </trkpt>
      <trkpt lat="43.72592" lon="7.05063">
        <ele>723.20001220703</ele>
        <time>2022-02-11T12:33:52.000Z</time>
      </trkpt>
      <trkpt lat="43.72592" lon="7.05067">
        <ele>721.79998779297</ele>
        <time>2022-02-11T12:33:53.000Z</time>
      </trkpt>
      <trkpt lat="43.7259" lon="7.05071">
        <ele>720.79998779297</ele>
        <time>2022-02-11T12:33:54.000Z</time>
      </trkpt>
      <trkpt lat="43.72587" lon="7.05073">
        <ele>719.20001220703</ele>
        <time>2022-02-11T12:33:55.000Z</time>
      </trkpt>
      <trkpt lat="43.72588" lon="7.05074">
        <ele>718.20001220703</ele>
        <time>2022-02-11T12:33:56.000Z</time>
      </trkpt>
      <trkpt lat="43.72587" lon="7.05078">
        <ele>717</ele>
        <time>2022-02-11T12:33:57.000Z</time>
      </trkpt>
      <trkpt lat="43.72586" lon="7.05087">
        <ele>715.40002441406</ele>
        <time>2022-02-11T12:33:59.000Z</time>
      </trkpt>
      <trkpt lat="43.72589" lon="7.05089">
        <ele>714</ele>
        <time>2022-02-11T12:34:00.000Z</time>
      </trkpt>
      <trkpt lat="43.72592" lon="7.05089">
        <ele>712.79998779297</ele>
        <time>2022-02-11T12:34:01.000Z</time>
      </trkpt>
      <trkpt lat="43.72597" lon="7.05089">
        <ele>711</ele>
        <time>2022-02-11T12:34:03.000Z</time>
      </trkpt>
      <trkpt lat="43.72603" lon="7.0509">
        <ele>710.20001220703</ele>
        <time>2022-02-11T12:34:05.000Z</time>
      </trkpt>
      <trkpt lat="43.72604" lon="7.05089">
        <ele>709.20001220703</ele>
        <time>2022-02-11T12:34:06.000Z</time>
      </trkpt>
      <trkpt lat="43.72607" lon="7.05086">
        <ele>707.79998779297</ele>
        <time>2022-02-11T12:34:07.000Z</time>
      </trkpt>
      <trkpt lat="43.72611" lon="7.05094">
        <ele>706.40002441406</ele>
        <time>2022-02-11T12:34:10.000Z</time>
      </trkpt>
      <trkpt lat="43.72609" lon="7.05099">
        <ele>705.40002441406</ele>
        <time>2022-02-11T12:34:12.000Z</time>
      </trkpt>
      <trkpt lat="43.7261" lon="7.05104">
        <ele>703.79998779297</ele>
        <time>2022-02-11T12:34:14.000Z</time>
      </trkpt>
      <trkpt lat="43.72617" lon="7.05109">
        <ele>702</ele>
        <time>2022-02-11T12:34:16.000Z</time>
      </trkpt>
      <trkpt lat="43.72621" lon="7.05113">
        <ele>701.20001220703</ele>
        <time>2022-02-11T12:34:17.000Z</time>
      </trkpt>
      <trkpt lat="43.72624" lon="7.05116">
        <ele>700</ele>
        <time>2022-02-11T12:34:18.000Z</time>
      </trkpt>
      <trkpt lat="43.72624" lon="7.0512">
        <ele>698.79998779297</ele>
        <time>2022-02-11T12:34:19.000Z</time>
      </trkpt>
      <trkpt lat="43.72626" lon="7.05123">
        <ele>697.79998779297</ele>
        <time>2022-02-11T12:34:20.000Z</time>
      </trkpt>
      <trkpt lat="43.72626" lon="7.05126">
        <ele>696.79998779297</ele>
        <time>2022-02-11T12:34:21.000Z</time>
      </trkpt>
      <trkpt lat="43.72625" lon="7.05137">
        <ele>695.40002441406</ele>
        <time>2022-02-11T12:34:23.000Z</time>
      </trkpt>
      <trkpt lat="43.72624" lon="7.05142">
        <ele>695.20001220703</ele>
        <time>2022-02-11T12:34:24.000Z</time>
      </trkpt>
      <trkpt lat="43.72624" lon="7.05148">
        <ele>694.40002441406</ele>
        <time>2022-02-11T12:34:25.000Z</time>
      </trkpt>
      <trkpt lat="43.72622" lon="7.05157">
        <ele>693</ele>
        <time>2022-02-11T12:34:27.000Z</time>
      </trkpt>
      <trkpt lat="43.72623" lon="7.05163">
        <ele>692</ele>
        <time>2022-02-11T12:34:28.000Z</time>
      </trkpt>
      <trkpt lat="43.72625" lon="7.05168">
        <ele>690.79998779297</ele>
        <time>2022-02-11T12:34:29.000Z</time>
      </trkpt>
      <trkpt lat="43.72627" lon="7.0518">
        <ele>689</ele>
        <time>2022-02-11T12:34:31.000Z</time>
      </trkpt>
      <trkpt lat="43.72628" lon="7.05191">
        <ele>687</ele>
        <time>2022-02-11T12:34:33.000Z</time>
      </trkpt>
      <trkpt lat="43.72627" lon="7.05195">
        <ele>685.79998779297</ele>
        <time>2022-02-11T12:34:34.000Z</time>
      </trkpt>
      <trkpt lat="43.72627" lon="7.05204">
        <ele>684</ele>
        <time>2022-02-11T12:34:36.000Z</time>
      </trkpt>
      <trkpt lat="43.72626" lon="7.05207">
        <ele>682.79998779297</ele>
        <time>2022-02-11T12:34:37.000Z</time>
      </trkpt>
      <trkpt lat="43.72626" lon="7.05211">
        <ele>682.20001220703</ele>
        <time>2022-02-11T12:34:38.000Z</time>
      </trkpt>
      <trkpt lat="43.72624" lon="7.05214">
        <ele>681.59997558594</ele>
        <time>2022-02-11T12:34:39.000Z</time>
      </trkpt>
      <trkpt lat="43.72624" lon="7.05217">
        <ele>680.40002441406</ele>
        <time>2022-02-11T12:34:40.000Z</time>
      </trkpt>
      <trkpt lat="43.72623" lon="7.05226">
        <ele>679</ele>
        <time>2022-02-11T12:34:43.000Z</time>
      </trkpt>
      <trkpt lat="43.72623" lon="7.05226">
        <ele>677.59997558594</ele>
        <time>2022-02-11T12:34:45.000Z</time>
      </trkpt>
      <trkpt lat="43.72622" lon="7.05226">
        <ele>676.59997558594</ele>
        <time>2022-02-11T12:34:47.000Z</time>
      </trkpt>
      <trkpt lat="43.72622" lon="7.05227">
        <ele>675.59997558594</ele>
        <time>2022-02-11T12:34:51.000Z</time>
      </trkpt>
      <trkpt lat="43.72619" lon="7.05231">
        <ele>675.40002441406</ele>
        <time>2022-02-11T12:34:59.000Z</time>
      </trkpt>
      <trkpt lat="43.72612" lon="7.05229">
        <ele>674.79998779297</ele>
        <time>2022-02-11T12:35:03.000Z</time>
      </trkpt>
      <trkpt lat="43.72612" lon="7.0523">
        <ele>674.40002441406</ele>
        <time>2022-02-11T12:35:04.000Z</time>
      </trkpt>
      <trkpt lat="43.72611" lon="7.05239">
        <ele>673.59997558594</ele>
        <time>2022-02-11T12:35:06.000Z</time>
      </trkpt>
      <trkpt lat="43.72611" lon="7.05246">
        <ele>673</ele>
        <time>2022-02-11T12:35:07.000Z</time>
      </trkpt>
      <trkpt lat="43.72611" lon="7.05253">
        <ele>671.40002441406</ele>
        <time>2022-02-11T12:35:09.000Z</time>
      </trkpt>
      <trkpt lat="43.72612" lon="7.05259">
        <ele>669.79998779297</ele>
        <time>2022-02-11T12:35:11.000Z</time>
      </trkpt>
      <trkpt lat="43.72608" lon="7.05266">
        <ele>668.79998779297</ele>
        <time>2022-02-11T12:35:13.000Z</time>
      </trkpt>
      <trkpt lat="43.72606" lon="7.05269">
        <ele>668.59997558594</ele>
        <time>2022-02-11T12:35:14.000Z</time>
      </trkpt>
      <trkpt lat="43.72599" lon="7.05275">
        <ele>667.59997558594</ele>
        <time>2022-02-11T12:35:17.000Z</time>
      </trkpt>
      <trkpt lat="43.72599" lon="7.05279">
        <ele>666.79998779297</ele>
        <time>2022-02-11T12:35:18.000Z</time>
      </trkpt>
      <trkpt lat="43.726" lon="7.05282">
        <ele>666</ele>
        <time>2022-02-11T12:35:19.000Z</time>
      </trkpt>
      <trkpt lat="43.726" lon="7.05288">
        <ele>664.40002441406</ele>
        <time>2022-02-11T12:35:21.000Z</time>
      </trkpt>
      <trkpt lat="43.72599" lon="7.05292">
        <ele>664</ele>
        <time>2022-02-11T12:35:22.000Z</time>
      </trkpt>
      <trkpt lat="43.726" lon="7.05301">
        <ele>662.79998779297</ele>
        <time>2022-02-11T12:35:24.000Z</time>
      </trkpt>
      <trkpt lat="43.72602" lon="7.05317">
        <ele>662</ele>
        <time>2022-02-11T12:35:26.000Z</time>
      </trkpt>
      <trkpt lat="43.72604" lon="7.05324">
        <ele>660.59997558594</ele>
        <time>2022-02-11T12:35:27.000Z</time>
      </trkpt>
      <trkpt lat="43.72604" lon="7.05332">
        <ele>658.79998779297</ele>
        <time>2022-02-11T12:35:28.000Z</time>
      </trkpt>
      <trkpt lat="43.72603" lon="7.0534">
        <ele>657.20001220703</ele>
        <time>2022-02-11T12:35:29.000Z</time>
      </trkpt>
      <trkpt lat="43.72601" lon="7.0535">
        <ele>655.59997558594</ele>
        <time>2022-02-11T12:35:30.000Z</time>
      </trkpt>
      <trkpt lat="43.72599" lon="7.05358">
        <ele>654</ele>
        <time>2022-02-11T12:35:31.000Z</time>
      </trkpt>
      <trkpt lat="43.72598" lon="7.05367">
        <ele>652.40002441406</ele>
        <time>2022-02-11T12:35:32.000Z</time>
      </trkpt>
      <trkpt lat="43.72599" lon="7.05376">
        <ele>651.40002441406</ele>
        <time>2022-02-11T12:35:33.000Z</time>
      </trkpt>
      <trkpt lat="43.72601" lon="7.05385">
        <ele>650.59997558594</ele>
        <time>2022-02-11T12:35:34.000Z</time>
      </trkpt>
      <trkpt lat="43.72604" lon="7.05394">
        <ele>649.79998779297</ele>
        <time>2022-02-11T12:35:35.000Z</time>
      </trkpt>
      <trkpt lat="43.72606" lon="7.05401">
        <ele>648.59997558594</ele>
        <time>2022-02-11T12:35:36.000Z</time>
      </trkpt>
      <trkpt lat="43.72615" lon="7.05412">
        <ele>647.59997558594</ele>
        <time>2022-02-11T12:35:38.000Z</time>
      </trkpt>
      <trkpt lat="43.72626" lon="7.05423">
        <ele>645.79998779297</ele>
        <time>2022-02-11T12:35:40.000Z</time>
      </trkpt>
      <trkpt lat="43.72637" lon="7.05434">
        <ele>645</ele>
        <time>2022-02-11T12:35:42.000Z</time>
      </trkpt>
      <trkpt lat="43.72643" lon="7.0545">
        <ele>644.79998779297</ele>
        <time>2022-02-11T12:35:44.000Z</time>
      </trkpt>
      <trkpt lat="43.72647" lon="7.05462">
        <ele>644</ele>
        <time>2022-02-11T12:35:45.000Z</time>
      </trkpt>
      <trkpt lat="43.72652" lon="7.05471">
        <ele>642.40002441406</ele>
        <time>2022-02-11T12:35:46.000Z</time>
      </trkpt>
      <trkpt lat="43.72656" lon="7.05478">
        <ele>640.79998779297</ele>
        <time>2022-02-11T12:35:47.000Z</time>
      </trkpt>
      <trkpt lat="43.72661" lon="7.05486">
        <ele>639.59997558594</ele>
        <time>2022-02-11T12:35:48.000Z</time>
      </trkpt>
      <trkpt lat="43.72664" lon="7.05494">
        <ele>637</ele>
        <time>2022-02-11T12:35:49.000Z</time>
      </trkpt>
      <trkpt lat="43.72667" lon="7.05503">
        <ele>634.59997558594</ele>
        <time>2022-02-11T12:35:50.000Z</time>
      </trkpt>
      <trkpt lat="43.7267" lon="7.05511">
        <ele>633.40002441406</ele>
        <time>2022-02-11T12:35:51.000Z</time>
      </trkpt>
      <trkpt lat="43.72672" lon="7.0552">
        <ele>632</ele>
        <time>2022-02-11T12:35:52.000Z</time>
      </trkpt>
      <trkpt lat="43.72675" lon="7.05527">
        <ele>629.79998779297</ele>
        <time>2022-02-11T12:35:53.000Z</time>
      </trkpt>
      <trkpt lat="43.72677" lon="7.05533">
        <ele>628.40002441406</ele>
        <time>2022-02-11T12:35:54.000Z</time>
      </trkpt>
      <trkpt lat="43.72679" lon="7.05547">
        <ele>627</ele>
        <time>2022-02-11T12:35:56.000Z</time>
      </trkpt>
      <trkpt lat="43.72677" lon="7.0555">
        <ele>626.40002441406</ele>
        <time>2022-02-11T12:35:57.000Z</time>
      </trkpt>
      <trkpt lat="43.7267" lon="7.0555">
        <ele>626</ele>
        <time>2022-02-11T12:36:00.000Z</time>
      </trkpt>
      <trkpt lat="43.72658" lon="7.05554">
        <ele>624.79998779297</ele>
        <time>2022-02-11T12:36:07.000Z</time>
      </trkpt>
      <trkpt lat="43.72643" lon="7.05562">
        <ele>624.20001220703</ele>
        <time>2022-02-11T12:36:12.000Z</time>
      </trkpt>
      <trkpt lat="43.72636" lon="7.05567">
        <ele>623.59997558594</ele>
        <time>2022-02-11T12:36:14.000Z</time>
      </trkpt>
      <trkpt lat="43.72627" lon="7.05574">
        <ele>622.59997558594</ele>
        <time>2022-02-11T12:36:17.000Z</time>
      </trkpt>
      <trkpt lat="43.72624" lon="7.05576">
        <ele>622.20001220703</ele>
        <time>2022-02-11T12:36:18.000Z</time>
      </trkpt>
      <trkpt lat="43.72616" lon="7.05582">
        <ele>621.40002441406</ele>
        <time>2022-02-11T12:36:21.000Z</time>
      </trkpt>
      <trkpt lat="43.72614" lon="7.05584">
        <ele>621.20001220703</ele>
        <time>2022-02-11T12:36:22.000Z</time>
      </trkpt>
      <trkpt lat="43.72614" lon="7.05587">
        <ele>621</ele>
        <time>2022-02-11T12:36:23.000Z</time>
      </trkpt>
      <trkpt lat="43.72618" lon="7.05593">
        <ele>620.40002441406</ele>
        <time>2022-02-11T12:36:25.000Z</time>
      </trkpt>
      <trkpt lat="43.72632" lon="7.05613">
        <ele>620</ele>
        <time>2022-02-11T12:36:31.000Z</time>
      </trkpt>
      <trkpt lat="43.72639" lon="7.05629">
        <ele>619.40002441406</ele>
        <time>2022-02-11T12:36:35.000Z</time>
      </trkpt>
      <trkpt lat="43.7264" lon="7.05635">
        <ele>619</ele>
        <time>2022-02-11T12:36:36.000Z</time>
      </trkpt>
      <trkpt lat="43.72637" lon="7.05644">
        <ele>618.20001220703</ele>
        <time>2022-02-11T12:36:38.000Z</time>
      </trkpt>
      <trkpt lat="43.72636" lon="7.05648">
        <ele>617.79998779297</ele>
        <time>2022-02-11T12:36:39.000Z</time>
      </trkpt>
      <trkpt lat="43.72636" lon="7.05662">
        <ele>616.79998779297</ele>
        <time>2022-02-11T12:36:42.000Z</time>
      </trkpt>
      <trkpt lat="43.72638" lon="7.05667">
        <ele>616.40002441406</ele>
        <time>2022-02-11T12:36:43.000Z</time>
      </trkpt>
      <trkpt lat="43.72639" lon="7.05671">
        <ele>616.59997558594</ele>
        <time>2022-02-11T12:36:44.000Z</time>
      </trkpt>
      <trkpt lat="43.72641" lon="7.0569">
        <ele>617.20001220703</ele>
        <time>2022-02-11T12:36:48.000Z</time>
      </trkpt>
      <trkpt lat="43.72643" lon="7.05704">
        <ele>617.79998779297</ele>
        <time>2022-02-11T12:36:51.000Z</time>
      </trkpt>
      <trkpt lat="43.72644" lon="7.05713">
        <ele>617.79998779297</ele>
        <time>2022-02-11T12:36:53.000Z</time>
      </trkpt>
      <trkpt lat="43.72643" lon="7.05726">
        <ele>617.79998779297</ele>
        <time>2022-02-11T12:36:55.000Z</time>
      </trkpt>
      <trkpt lat="43.72645" lon="7.05736">
        <ele>617.79998779297</ele>
        <time>2022-02-11T12:36:57.000Z</time>
      </trkpt>
      <trkpt lat="43.72649" lon="7.05758">
        <ele>617.79998779297</ele>
        <time>2022-02-11T12:37:01.000Z</time>
      </trkpt>
      <trkpt lat="43.72649" lon="7.05764">
        <ele>617.79998779297</ele>
        <time>2022-02-11T12:37:02.000Z</time>
      </trkpt>
      <trkpt lat="43.7265" lon="7.05772">
        <ele>617.79998779297</ele>
        <time>2022-02-11T12:37:03.000Z</time>
      </trkpt>
      <trkpt lat="43.72656" lon="7.05793">
        <ele>617.59997558594</ele>
        <time>2022-02-11T12:37:06.000Z</time>
      </trkpt>
      <trkpt lat="43.72668" lon="7.05811">
        <ele>616.20001220703</ele>
        <time>2022-02-11T12:37:09.000Z</time>
      </trkpt>
      <trkpt lat="43.72672" lon="7.05816">
        <ele>615.79998779297</ele>
        <time>2022-02-11T12:37:10.000Z</time>
      </trkpt>
      <trkpt lat="43.72675" lon="7.05824">
        <ele>615.59997558594</ele>
        <time>2022-02-11T12:37:11.000Z</time>
      </trkpt>
      <trkpt lat="43.72678" lon="7.05831">
        <ele>615</ele>
        <time>2022-02-11T12:37:12.000Z</time>
      </trkpt>
      <trkpt lat="43.72681" lon="7.05838">
        <ele>614.20001220703</ele>
        <time>2022-02-11T12:37:13.000Z</time>
      </trkpt>
      <trkpt lat="43.72683" lon="7.05845">
        <ele>613.79998779297</ele>
        <time>2022-02-11T12:37:14.000Z</time>
      </trkpt>
      <trkpt lat="43.72688" lon="7.05861">
        <ele>612.59997558594</ele>
        <time>2022-02-11T12:37:16.000Z</time>
      </trkpt>
      <trkpt lat="43.72691" lon="7.05869">
        <ele>611.79998779297</ele>
        <time>2022-02-11T12:37:17.000Z</time>
      </trkpt>
      <trkpt lat="43.72694" lon="7.05878">
        <ele>611.40002441406</ele>
        <time>2022-02-11T12:37:18.000Z</time>
      </trkpt>
      <trkpt lat="43.72696" lon="7.05887">
        <ele>611.40002441406</ele>
        <time>2022-02-11T12:37:19.000Z</time>
      </trkpt>
      <trkpt lat="43.72705" lon="7.05912">
        <ele>610</ele>
        <time>2022-02-11T12:37:22.000Z</time>
      </trkpt>
      <trkpt lat="43.72708" lon="7.0592">
        <ele>609.59997558594</ele>
        <time>2022-02-11T12:37:23.000Z</time>
      </trkpt>
      <trkpt lat="43.72711" lon="7.05928">
        <ele>609.20001220703</ele>
        <time>2022-02-11T12:37:24.000Z</time>
      </trkpt>
      <trkpt lat="43.72711" lon="7.05937">
        <ele>608.59997558594</ele>
        <time>2022-02-11T12:37:25.000Z</time>
      </trkpt>
      <trkpt lat="43.7271" lon="7.05946">
        <ele>608.40002441406</ele>
        <time>2022-02-11T12:37:26.000Z</time>
      </trkpt>
      <trkpt lat="43.72709" lon="7.05974">
        <ele>607.59997558594</ele>
        <time>2022-02-11T12:37:30.000Z</time>
      </trkpt>
      <trkpt lat="43.72708" lon="7.0598">
        <ele>607</ele>
        <time>2022-02-11T12:37:31.000Z</time>
      </trkpt>
      <trkpt lat="43.72706" lon="7.05995">
        <ele>606.59997558594</ele>
        <time>2022-02-11T12:37:33.000Z</time>
      </trkpt>
      <trkpt lat="43.72703" lon="7.06007">
        <ele>605.59997558594</ele>
        <time>2022-02-11T12:37:35.000Z</time>
      </trkpt>
      <trkpt lat="43.72703" lon="7.06014">
        <ele>605.40002441406</ele>
        <time>2022-02-11T12:37:36.000Z</time>
      </trkpt>
      <trkpt lat="43.72698" lon="7.06034">
        <ele>603.79998779297</ele>
        <time>2022-02-11T12:37:39.000Z</time>
      </trkpt>
      <trkpt lat="43.72696" lon="7.06048">
        <ele>602.40002441406</ele>
        <time>2022-02-11T12:37:41.000Z</time>
      </trkpt>
      <trkpt lat="43.72696" lon="7.06056">
        <ele>601.40002441406</ele>
        <time>2022-02-11T12:37:42.000Z</time>
      </trkpt>
      <trkpt lat="43.72696" lon="7.06062">
        <ele>600.40002441406</ele>
        <time>2022-02-11T12:37:43.000Z</time>
      </trkpt>
      <trkpt lat="43.72698" lon="7.06077">
        <ele>598.59997558594</ele>
        <time>2022-02-11T12:37:45.000Z</time>
      </trkpt>
      <trkpt lat="43.72699" lon="7.06084">
        <ele>598</ele>
        <time>2022-02-11T12:37:46.000Z</time>
      </trkpt>
      <trkpt lat="43.72704" lon="7.06091">
        <ele>596.79998779297</ele>
        <time>2022-02-11T12:37:48.000Z</time>
      </trkpt>
      <trkpt lat="43.72709" lon="7.06094">
        <ele>596.40002441406</ele>
        <time>2022-02-11T12:37:49.000Z</time>
      </trkpt>
      <trkpt lat="43.72713" lon="7.061">
        <ele>595.40002441406</ele>
        <time>2022-02-11T12:37:50.000Z</time>
      </trkpt>
      <trkpt lat="43.72722" lon="7.06112">
        <ele>593.79998779297</ele>
        <time>2022-02-11T12:37:52.000Z</time>
      </trkpt>
      <trkpt lat="43.72725" lon="7.06116">
        <ele>593.40002441406</ele>
        <time>2022-02-11T12:37:53.000Z</time>
      </trkpt>
      <trkpt lat="43.72727" lon="7.06125">
        <ele>592.79998779297</ele>
        <time>2022-02-11T12:37:55.000Z</time>
      </trkpt>
      <trkpt lat="43.72728" lon="7.06129">
        <ele>592.40002441406</ele>
        <time>2022-02-11T12:37:56.000Z</time>
      </trkpt>
      <trkpt lat="43.72736" lon="7.06135">
        <ele>591.59997558594</ele>
        <time>2022-02-11T12:37:59.000Z</time>
      </trkpt>
      <trkpt lat="43.72739" lon="7.06137">
        <ele>590.79998779297</ele>
        <time>2022-02-11T12:38:00.000Z</time>
      </trkpt>
      <trkpt lat="43.7274" lon="7.06138">
        <ele>590</ele>
        <time>2022-02-11T12:38:01.000Z</time>
      </trkpt>
      <trkpt lat="43.72744" lon="7.0614">
        <ele>588.20001220703</ele>
        <time>2022-02-11T12:38:03.000Z</time>
      </trkpt>
      <trkpt lat="43.72747" lon="7.0614">
        <ele>587.40002441406</ele>
        <time>2022-02-11T12:38:04.000Z</time>
      </trkpt>
      <trkpt lat="43.72751" lon="7.06141">
        <ele>586.59997558594</ele>
        <time>2022-02-11T12:38:05.000Z</time>
      </trkpt>
      <trkpt lat="43.72754" lon="7.06142">
        <ele>584.79998779297</ele>
        <time>2022-02-11T12:38:07.000Z</time>
      </trkpt>
      <trkpt lat="43.72753" lon="7.06142">
        <ele>584.20001220703</ele>
        <time>2022-02-11T12:38:08.000Z</time>
      </trkpt>
      <trkpt lat="43.72754" lon="7.06142">
        <ele>583.59997558594</ele>
        <time>2022-02-11T12:38:09.000Z</time>
      </trkpt>
      <trkpt lat="43.72757" lon="7.06147">
        <ele>583</ele>
        <time>2022-02-11T12:38:14.000Z</time>
      </trkpt>
      <trkpt lat="43.72757" lon="7.06148">
        <ele>583.20001220703</ele>
        <time>2022-02-11T12:38:15.000Z</time>
      </trkpt>
      <trkpt lat="43.72757" lon="7.0615">
        <ele>583.79998779297</ele>
        <time>2022-02-11T12:38:19.000Z</time>
      </trkpt>
      <trkpt lat="43.72757" lon="7.06152">
        <ele>583.79998779297</ele>
        <time>2022-02-11T12:38:20.000Z</time>
      </trkpt>
      <trkpt lat="43.72758" lon="7.06151">
        <ele>584.40002441406</ele>
        <time>2022-02-11T12:38:26.000Z</time>
      </trkpt>
      <trkpt lat="43.72758" lon="7.06154">
        <ele>584.40002441406</ele>
        <time>2022-02-11T12:38:29.000Z</time>
      </trkpt>
      <trkpt lat="43.72758" lon="7.06157">
        <ele>584.59997558594</ele>
        <time>2022-02-11T12:38:31.000Z</time>
      </trkpt>
      <trkpt lat="43.72758" lon="7.06159">
        <ele>584.79998779297</ele>
        <time>2022-02-11T12:38:32.000Z</time>
      </trkpt>
      <trkpt lat="43.72757" lon="7.06165">
        <ele>585.20001220703</ele>
        <time>2022-02-11T12:38:36.000Z</time>
      </trkpt>
      <trkpt lat="43.72758" lon="7.06166">
        <ele>586</ele>
        <time>2022-02-11T12:38:39.000Z</time>
      </trkpt>
      <trkpt lat="43.72759" lon="7.06166">
        <ele>586.79998779297</ele>
        <time>2022-02-11T12:38:43.000Z</time>
      </trkpt>
      <trkpt lat="43.72759" lon="7.06166">
        <ele>587</ele>
        <time>2022-02-11T12:38:44.000Z</time>
      </trkpt>
      <trkpt lat="43.72761" lon="7.06166">
        <ele>587.59997558594</ele>
        <time>2022-02-11T12:38:50.000Z</time>
      </trkpt>
      <trkpt lat="43.72762" lon="7.06167">
        <ele>588.20001220703</ele>
        <time>2022-02-11T12:38:52.000Z</time>
      </trkpt>
      <trkpt lat="43.72764" lon="7.06171">
        <ele>588.79998779297</ele>
        <time>2022-02-11T12:38:57.000Z</time>
      </trkpt>
      <trkpt lat="43.72764" lon="7.06173">
        <ele>589.20001220703</ele>
        <time>2022-02-11T12:38:59.000Z</time>
      </trkpt>
      <trkpt lat="43.72764" lon="7.06173">
        <ele>589.59997558594</ele>
        <time>2022-02-11T12:39:04.000Z</time>
      </trkpt>
      <trkpt lat="43.72763" lon="7.06172">
        <ele>589.59997558594</ele>
        <time>2022-02-11T12:39:22.000Z</time>
      </trkpt>
      <trkpt lat="43.72763" lon="7.06174">
        <ele>589.59997558594</ele>
        <time>2022-02-11T12:39:26.000Z</time>
      </trkpt>
      <trkpt lat="43.72762" lon="7.0618">
        <ele>589.59997558594</ele>
        <time>2022-02-11T12:39:29.000Z</time>
      </trkpt>
      <trkpt lat="43.72759" lon="7.06188">
        <ele>589.59997558594</ele>
        <time>2022-02-11T12:39:32.000Z</time>
      </trkpt>
      <trkpt lat="43.72759" lon="7.06192">
        <ele>589.40002441406</ele>
        <time>2022-02-11T12:39:33.000Z</time>
      </trkpt>
      <trkpt lat="43.72761" lon="7.06206">
        <ele>588.40002441406</ele>
        <time>2022-02-11T12:39:36.000Z</time>
      </trkpt>
      <trkpt lat="43.72761" lon="7.06211">
        <ele>588</ele>
        <time>2022-02-11T12:39:37.000Z</time>
      </trkpt>
      <trkpt lat="43.7276" lon="7.06224">
        <ele>588.79998779297</ele>
        <time>2022-02-11T12:39:41.000Z</time>
      </trkpt>
      <trkpt lat="43.72759" lon="7.06225">
        <ele>588.79998779297</ele>
        <time>2022-02-11T12:39:42.000Z</time>
      </trkpt>
      <trkpt lat="43.72758" lon="7.06222">
        <ele>588.20001220703</ele>
        <time>2022-02-11T12:39:45.000Z</time>
      </trkpt>
      <trkpt lat="43.72757" lon="7.06225">
        <ele>587.59997558594</ele>
        <time>2022-02-11T12:39:48.000Z</time>
      </trkpt>
      <trkpt lat="43.72756" lon="7.06231">
        <ele>587</ele>
        <time>2022-02-11T12:39:50.000Z</time>
      </trkpt>
      <trkpt lat="43.72753" lon="7.06246">
        <ele>586</ele>
        <time>2022-02-11T12:39:54.000Z</time>
      </trkpt>
      <trkpt lat="43.72753" lon="7.0625">
        <ele>585.79998779297</ele>
        <time>2022-02-11T12:39:55.000Z</time>
      </trkpt>
      <trkpt lat="43.72752" lon="7.06266">
        <ele>585.79998779297</ele>
        <time>2022-02-11T12:39:59.000Z</time>
      </trkpt>
      <trkpt lat="43.72751" lon="7.06293">
        <ele>586.20001220703</ele>
        <time>2022-02-11T12:40:04.000Z</time>
      </trkpt>
      <trkpt lat="43.72751" lon="7.06304">
        <ele>586.40002441406</ele>
        <time>2022-02-11T12:40:06.000Z</time>
      </trkpt>
      <trkpt lat="43.72761" lon="7.06324">
        <ele>586.59997558594</ele>
        <time>2022-02-11T12:40:11.000Z</time>
      </trkpt>
      <trkpt lat="43.72763" lon="7.0633">
        <ele>587</ele>
        <time>2022-02-11T12:40:13.000Z</time>
      </trkpt>
      <trkpt lat="43.72761" lon="7.06335">
        <ele>587.40002441406</ele>
        <time>2022-02-11T12:40:15.000Z</time>
      </trkpt>
      <trkpt lat="43.7276" lon="7.06337">
        <ele>588</ele>
        <time>2022-02-11T12:40:18.000Z</time>
      </trkpt>
      <trkpt lat="43.7276" lon="7.06337">
        <ele>587.79998779297</ele>
        <time>2022-02-11T12:40:19.000Z</time>
      </trkpt>
      <trkpt lat="43.72759" lon="7.06337">
        <ele>587.79998779297</ele>
        <time>2022-02-11T12:40:33.000Z</time>
      </trkpt>
      <trkpt lat="43.72759" lon="7.06337">
        <ele>587.79998779297</ele>
        <time>2022-02-11T12:40:38.000Z</time>
      </trkpt>
      <trkpt lat="43.72759" lon="7.06338">
        <ele>587.59997558594</ele>
        <time>2022-02-11T12:40:48.000Z</time>
      </trkpt>
      <trkpt lat="43.72759" lon="7.06339">
        <ele>588</ele>
        <time>2022-02-11T12:41:03.000Z</time>
      </trkpt>
      <trkpt lat="43.7276" lon="7.0634">
        <ele>587.79998779297</ele>
        <time>2022-02-11T12:41:22.000Z</time>
      </trkpt>
      <trkpt lat="43.7276" lon="7.0634">
        <ele>588</ele>
        <time>2022-02-11T12:41:31.000Z</time>
      </trkpt>
      <trkpt lat="43.7276" lon="7.06342">
        <ele>588</ele>
        <time>2022-02-11T12:41:37.000Z</time>
      </trkpt>
      <trkpt lat="43.72761" lon="7.06351">
        <ele>587.79998779297</ele>
        <time>2022-02-11T12:41:39.000Z</time>
      </trkpt>
      <trkpt lat="43.72762" lon="7.0637">
        <ele>587.20001220703</ele>
        <time>2022-02-11T12:41:43.000Z</time>
      </trkpt>
      <trkpt lat="43.72762" lon="7.0639">
        <ele>588.20001220703</ele>
        <time>2022-02-11T12:41:47.000Z</time>
      </trkpt>
      <trkpt lat="43.72762" lon="7.06398">
        <ele>589</ele>
        <time>2022-02-11T12:41:49.000Z</time>
      </trkpt>
      <trkpt lat="43.72762" lon="7.06408">
        <ele>589.59997558594</ele>
        <time>2022-02-11T12:41:51.000Z</time>
      </trkpt>
      <trkpt lat="43.72759" lon="7.06431">
        <ele>589.20001220703</ele>
        <time>2022-02-11T12:41:57.000Z</time>
      </trkpt>
      <trkpt lat="43.72749" lon="7.0645">
        <ele>588.79998779297</ele>
        <time>2022-02-11T12:42:02.000Z</time>
      </trkpt>
      <trkpt lat="43.72745" lon="7.06466">
        <ele>590</ele>
        <time>2022-02-11T12:42:06.000Z</time>
      </trkpt>
      <trkpt lat="43.72744" lon="7.06471">
        <ele>590.40002441406</ele>
        <time>2022-02-11T12:42:07.000Z</time>
      </trkpt>
      <trkpt lat="43.72739" lon="7.06484">
        <ele>590.79998779297</ele>
        <time>2022-02-11T12:42:11.000Z</time>
      </trkpt>
      <trkpt lat="43.72735" lon="7.065">
        <ele>590.40002441406</ele>
        <time>2022-02-11T12:42:15.000Z</time>
      </trkpt>
      <trkpt lat="43.72729" lon="7.06509">
        <ele>590.40002441406</ele>
        <time>2022-02-11T12:42:17.000Z</time>
      </trkpt>
      <trkpt lat="43.72726" lon="7.06516">
        <ele>590.40002441406</ele>
        <time>2022-02-11T12:42:18.000Z</time>
      </trkpt>
      <trkpt lat="43.72717" lon="7.06539">
        <ele>589.59997558594</ele>
        <time>2022-02-11T12:42:21.000Z</time>
      </trkpt>
      <trkpt lat="43.72715" lon="7.06548">
        <ele>589</ele>
        <time>2022-02-11T12:42:22.000Z</time>
      </trkpt>
      <trkpt lat="43.72714" lon="7.06573">
        <ele>587.40002441406</ele>
        <time>2022-02-11T12:42:24.000Z</time>
      </trkpt>
      <trkpt lat="43.72713" lon="7.0659">
        <ele>586.20001220703</ele>
        <time>2022-02-11T12:42:25.000Z</time>
      </trkpt>
      <trkpt lat="43.72712" lon="7.06604">
        <ele>584.40002441406</ele>
        <time>2022-02-11T12:42:26.000Z</time>
      </trkpt>
      <trkpt lat="43.72711" lon="7.0662">
        <ele>582</ele>
        <time>2022-02-11T12:42:27.000Z</time>
      </trkpt>
      <trkpt lat="43.7271" lon="7.06635">
        <ele>579.20001220703</ele>
        <time>2022-02-11T12:42:28.000Z</time>
      </trkpt>
      <trkpt lat="43.72709" lon="7.06648">
        <ele>577.40002441406</ele>
        <time>2022-02-11T12:42:29.000Z</time>
      </trkpt>
      <trkpt lat="43.72708" lon="7.06663">
        <ele>576.20001220703</ele>
        <time>2022-02-11T12:42:30.000Z</time>
      </trkpt>
      <trkpt lat="43.72707" lon="7.06677">
        <ele>574.20001220703</ele>
        <time>2022-02-11T12:42:31.000Z</time>
      </trkpt>
      <trkpt lat="43.72704" lon="7.06716">
        <ele>572.79998779297</ele>
        <time>2022-02-11T12:42:34.000Z</time>
      </trkpt>
      <trkpt lat="43.72706" lon="7.06731">
        <ele>571</ele>
        <time>2022-02-11T12:42:35.000Z</time>
      </trkpt>
      <trkpt lat="43.72709" lon="7.06745">
        <ele>568.79998779297</ele>
        <time>2022-02-11T12:42:36.000Z</time>
      </trkpt>
      <trkpt lat="43.72714" lon="7.06757">
        <ele>566.79998779297</ele>
        <time>2022-02-11T12:42:37.000Z</time>
      </trkpt>
      <trkpt lat="43.72718" lon="7.06769">
        <ele>565.20001220703</ele>
        <time>2022-02-11T12:42:38.000Z</time>
      </trkpt>
      <trkpt lat="43.72718" lon="7.06781">
        <ele>564</ele>
        <time>2022-02-11T12:42:39.000Z</time>
      </trkpt>
      <trkpt lat="43.72717" lon="7.06795">
        <ele>563.20001220703</ele>
        <time>2022-02-11T12:42:40.000Z</time>
      </trkpt>
      <trkpt lat="43.72715" lon="7.06807">
        <ele>562.20001220703</ele>
        <time>2022-02-11T12:42:41.000Z</time>
      </trkpt>
      <trkpt lat="43.72711" lon="7.06816">
        <ele>561</ele>
        <time>2022-02-11T12:42:42.000Z</time>
      </trkpt>
      <trkpt lat="43.72704" lon="7.06821">
        <ele>559.79998779297</ele>
        <time>2022-02-11T12:42:43.000Z</time>
      </trkpt>
      <trkpt lat="43.72697" lon="7.06825">
        <ele>558.59997558594</ele>
        <time>2022-02-11T12:42:44.000Z</time>
      </trkpt>
      <trkpt lat="43.7269" lon="7.06829">
        <ele>557.20001220703</ele>
        <time>2022-02-11T12:42:45.000Z</time>
      </trkpt>
      <trkpt lat="43.72684" lon="7.06831">
        <ele>555.40002441406</ele>
        <time>2022-02-11T12:42:46.000Z</time>
      </trkpt>
      <trkpt lat="43.72676" lon="7.06836">
        <ele>552.59997558594</ele>
        <time>2022-02-11T12:42:48.000Z</time>
      </trkpt>
      <trkpt lat="43.72676" lon="7.06838">
        <ele>551.20001220703</ele>
        <time>2022-02-11T12:42:49.000Z</time>
      </trkpt>
      <trkpt lat="43.72676" lon="7.06841">
        <ele>549.20001220703</ele>
        <time>2022-02-11T12:42:50.000Z</time>
      </trkpt>
      <trkpt lat="43.72677" lon="7.06843">
        <ele>548</ele>
        <time>2022-02-11T12:42:51.000Z</time>
      </trkpt>
      <trkpt lat="43.72679" lon="7.06846">
        <ele>547.79998779297</ele>
        <time>2022-02-11T12:42:52.000Z</time>
      </trkpt>
      <trkpt lat="43.72681" lon="7.06863">
        <ele>548.59997558594</ele>
        <time>2022-02-11T12:42:56.000Z</time>
      </trkpt>
      <trkpt lat="43.72683" lon="7.06871">
        <ele>549.20001220703</ele>
        <time>2022-02-11T12:42:58.000Z</time>
      </trkpt>
      <trkpt lat="43.72683" lon="7.06877">
        <ele>549.59997558594</ele>
        <time>2022-02-11T12:43:00.000Z</time>
      </trkpt>
      <trkpt lat="43.72684" lon="7.06883">
        <ele>550.20001220703</ele>
        <time>2022-02-11T12:43:02.000Z</time>
      </trkpt>
      <trkpt lat="43.72685" lon="7.06887">
        <ele>550.59997558594</ele>
        <time>2022-02-11T12:43:04.000Z</time>
      </trkpt>
      <trkpt lat="43.72686" lon="7.06892">
        <ele>550.79998779297</ele>
        <time>2022-02-11T12:43:06.000Z</time>
      </trkpt>
      <trkpt lat="43.72687" lon="7.06894">
        <ele>550.59997558594</ele>
        <time>2022-02-11T12:43:09.000Z</time>
      </trkpt>
      <trkpt lat="43.72687" lon="7.06894">
        <ele>551.40002441406</ele>
        <time>2022-02-11T12:43:14.000Z</time>
      </trkpt>
      <trkpt lat="43.72687" lon="7.06894">
        <ele>551.79998779297</ele>
        <time>2022-02-11T12:43:18.000Z</time>
      </trkpt>
      <trkpt lat="43.72688" lon="7.06894">
        <ele>552.40002441406</ele>
        <time>2022-02-11T12:43:21.000Z</time>
      </trkpt>
      <trkpt lat="43.72693" lon="7.06898">
        <ele>552.79998779297</ele>
        <time>2022-02-11T12:43:25.000Z</time>
      </trkpt>
      <trkpt lat="43.72701" lon="7.06908">
        <ele>553</ele>
        <time>2022-02-11T12:43:29.000Z</time>
      </trkpt>
      <trkpt lat="43.72708" lon="7.06915">
        <ele>553.59997558594</ele>
        <time>2022-02-11T12:43:32.000Z</time>
      </trkpt>
      <trkpt lat="43.72713" lon="7.0692">
        <ele>554.40002441406</ele>
        <time>2022-02-11T12:43:35.000Z</time>
      </trkpt>
      <trkpt lat="43.72714" lon="7.0692">
        <ele>554.79998779297</ele>
        <time>2022-02-11T12:43:36.000Z</time>
      </trkpt>
      <trkpt lat="43.72721" lon="7.06925">
        <ele>555.40002441406</ele>
        <time>2022-02-11T12:43:39.000Z</time>
      </trkpt>
      <trkpt lat="43.72723" lon="7.06927">
        <ele>555.79998779297</ele>
        <time>2022-02-11T12:43:40.000Z</time>
      </trkpt>
      <trkpt lat="43.72733" lon="7.06932">
        <ele>556.79998779297</ele>
        <time>2022-02-11T12:43:45.000Z</time>
      </trkpt>
      <trkpt lat="43.72738" lon="7.06932">
        <ele>558</ele>
        <time>2022-02-11T12:43:48.000Z</time>
      </trkpt>
      <trkpt lat="43.72744" lon="7.06932">
        <ele>558.79998779297</ele>
        <time>2022-02-11T12:43:51.000Z</time>
      </trkpt>
      <trkpt lat="43.72746" lon="7.06935">
        <ele>559.20001220703</ele>
        <time>2022-02-11T12:43:52.000Z</time>
      </trkpt>
      <trkpt lat="43.72746" lon="7.06941">
        <ele>560.40002441406</ele>
        <time>2022-02-11T12:43:54.000Z</time>
      </trkpt>
      <trkpt lat="43.72746" lon="7.06946">
        <ele>561.40002441406</ele>
        <time>2022-02-11T12:43:56.000Z</time>
      </trkpt>
      <trkpt lat="43.72746" lon="7.0695">
        <ele>562.59997558594</ele>
        <time>2022-02-11T12:43:58.000Z</time>
      </trkpt>
      <trkpt lat="43.72745" lon="7.06954">
        <ele>563.79998779297</ele>
        <time>2022-02-11T12:44:00.000Z</time>
      </trkpt>
      <trkpt lat="43.72744" lon="7.06959">
        <ele>565</ele>
        <time>2022-02-11T12:44:02.000Z</time>
      </trkpt>
      <trkpt lat="43.72744" lon="7.06962">
        <ele>565.59997558594</ele>
        <time>2022-02-11T12:44:03.000Z</time>
      </trkpt>
      <trkpt lat="43.72742" lon="7.06966">
        <ele>566.40002441406</ele>
        <time>2022-02-11T12:44:05.000Z</time>
      </trkpt>
      <trkpt lat="43.72742" lon="7.06969">
        <ele>567</ele>
        <time>2022-02-11T12:44:06.000Z</time>
      </trkpt>
      <trkpt lat="43.72741" lon="7.06971">
        <ele>567.59997558594</ele>
        <time>2022-02-11T12:44:07.000Z</time>
      </trkpt>
      <trkpt lat="43.72738" lon="7.06977">
        <ele>569</ele>
        <time>2022-02-11T12:44:10.000Z</time>
      </trkpt>
      <trkpt lat="43.72737" lon="7.06978">
        <ele>569.59997558594</ele>
        <time>2022-02-11T12:44:11.000Z</time>
      </trkpt>
      <trkpt lat="43.72736" lon="7.06981">
        <ele>570</ele>
        <time>2022-02-11T12:44:12.000Z</time>
      </trkpt>
      <trkpt lat="43.72736" lon="7.06986">
        <ele>571.20001220703</ele>
        <time>2022-02-11T12:44:14.000Z</time>
      </trkpt>
      <trkpt lat="43.72736" lon="7.06989">
        <ele>571.79998779297</ele>
        <time>2022-02-11T12:44:15.000Z</time>
      </trkpt>
      <trkpt lat="43.72735" lon="7.06991">
        <ele>572.20001220703</ele>
        <time>2022-02-11T12:44:16.000Z</time>
      </trkpt>
      <trkpt lat="43.72736" lon="7.06995">
        <ele>573.40002441406</ele>
        <time>2022-02-11T12:44:18.000Z</time>
      </trkpt>
      <trkpt lat="43.72737" lon="7.06999">
        <ele>574.40002441406</ele>
        <time>2022-02-11T12:44:20.000Z</time>
      </trkpt>
      <trkpt lat="43.72739" lon="7.07004">
        <ele>575.79998779297</ele>
        <time>2022-02-11T12:44:22.000Z</time>
      </trkpt>
      <trkpt lat="43.7274" lon="7.07008">
        <ele>576.79998779297</ele>
        <time>2022-02-11T12:44:24.000Z</time>
      </trkpt>
      <trkpt lat="43.72742" lon="7.07011">
        <ele>578.20001220703</ele>
        <time>2022-02-11T12:44:26.000Z</time>
      </trkpt>
      <trkpt lat="43.72744" lon="7.07015">
        <ele>579.40002441406</ele>
        <time>2022-02-11T12:44:28.000Z</time>
      </trkpt>
      <trkpt lat="43.72745" lon="7.0702">
        <ele>580.79998779297</ele>
        <time>2022-02-11T12:44:30.000Z</time>
      </trkpt>
      <trkpt lat="43.72746" lon="7.07025">
        <ele>582.20001220703</ele>
        <time>2022-02-11T12:44:32.000Z</time>
      </trkpt>
      <trkpt lat="43.72747" lon="7.07028">
        <ele>582.79998779297</ele>
        <time>2022-02-11T12:44:33.000Z</time>
      </trkpt>
      <trkpt lat="43.72747" lon="7.0703">
        <ele>583.40002441406</ele>
        <time>2022-02-11T12:44:34.000Z</time>
      </trkpt>
      <trkpt lat="43.72745" lon="7.07034">
        <ele>584.79998779297</ele>
        <time>2022-02-11T12:44:36.000Z</time>
      </trkpt>
      <trkpt lat="43.72744" lon="7.07035">
        <ele>585.59997558594</ele>
        <time>2022-02-11T12:44:37.000Z</time>
      </trkpt>
      <trkpt lat="43.72743" lon="7.07037">
        <ele>586</ele>
        <time>2022-02-11T12:44:38.000Z</time>
      </trkpt>
      <trkpt lat="43.72742" lon="7.0704">
        <ele>586.79998779297</ele>
        <time>2022-02-11T12:44:40.000Z</time>
      </trkpt>
      <trkpt lat="43.72741" lon="7.07042">
        <ele>587.40002441406</ele>
        <time>2022-02-11T12:44:41.000Z</time>
      </trkpt>
      <trkpt lat="43.7274" lon="7.07045">
        <ele>587.79998779297</ele>
        <time>2022-02-11T12:44:42.000Z</time>
      </trkpt>
      <trkpt lat="43.72739" lon="7.07049">
        <ele>588.59997558594</ele>
        <time>2022-02-11T12:44:44.000Z</time>
      </trkpt>
      <trkpt lat="43.72738" lon="7.0705">
        <ele>589</ele>
        <time>2022-02-11T12:44:45.000Z</time>
      </trkpt>
      <trkpt lat="43.72738" lon="7.07053">
        <ele>589.59997558594</ele>
        <time>2022-02-11T12:44:46.000Z</time>
      </trkpt>
      <trkpt lat="43.72737" lon="7.07055">
        <ele>590.20001220703</ele>
        <time>2022-02-11T12:44:47.000Z</time>
      </trkpt>
      <trkpt lat="43.72737" lon="7.07062">
        <ele>591</ele>
        <time>2022-02-11T12:44:49.000Z</time>
      </trkpt>
      <trkpt lat="43.72737" lon="7.07069">
        <ele>592</ele>
        <time>2022-02-11T12:44:51.000Z</time>
      </trkpt>
      <trkpt lat="43.72737" lon="7.07073">
        <ele>592.40002441406</ele>
        <time>2022-02-11T12:44:52.000Z</time>
      </trkpt>
      <trkpt lat="43.72738" lon="7.07082">
        <ele>593.40002441406</ele>
        <time>2022-02-11T12:44:54.000Z</time>
      </trkpt>
      <trkpt lat="43.72739" lon="7.0709">
        <ele>594.59997558594</ele>
        <time>2022-02-11T12:44:56.000Z</time>
      </trkpt>
      <trkpt lat="43.7274" lon="7.07098">
        <ele>595.79998779297</ele>
        <time>2022-02-11T12:44:58.000Z</time>
      </trkpt>
      <trkpt lat="43.72742" lon="7.07106">
        <ele>597</ele>
        <time>2022-02-11T12:45:00.000Z</time>
      </trkpt>
      <trkpt lat="43.72743" lon="7.07113">
        <ele>598.20001220703</ele>
        <time>2022-02-11T12:45:02.000Z</time>
      </trkpt>
      <trkpt lat="43.72743" lon="7.07118">
        <ele>599.40002441406</ele>
        <time>2022-02-11T12:45:04.000Z</time>
      </trkpt>
      <trkpt lat="43.72746" lon="7.07125">
        <ele>601</ele>
        <time>2022-02-11T12:45:06.000Z</time>
      </trkpt>
      <trkpt lat="43.72747" lon="7.07128">
        <ele>601.59997558594</ele>
        <time>2022-02-11T12:45:07.000Z</time>
      </trkpt>
      <trkpt lat="43.72748" lon="7.07131">
        <ele>602.40002441406</ele>
        <time>2022-02-11T12:45:08.000Z</time>
      </trkpt>
      <trkpt lat="43.7275" lon="7.07136">
        <ele>603.79998779297</ele>
        <time>2022-02-11T12:45:10.000Z</time>
      </trkpt>
      <trkpt lat="43.72752" lon="7.07141">
        <ele>605</ele>
        <time>2022-02-11T12:45:12.000Z</time>
      </trkpt>
      <trkpt lat="43.72752" lon="7.07142">
        <ele>605.40002441406</ele>
        <time>2022-02-11T12:45:13.000Z</time>
      </trkpt>
      <trkpt lat="43.72754" lon="7.07145">
        <ele>606.20001220703</ele>
        <time>2022-02-11T12:45:15.000Z</time>
      </trkpt>
      <trkpt lat="43.72756" lon="7.07144">
        <ele>607</ele>
        <time>2022-02-11T12:45:18.000Z</time>
      </trkpt>
      <trkpt lat="43.72756" lon="7.07143">
        <ele>607.20001220703</ele>
        <time>2022-02-11T12:45:19.000Z</time>
      </trkpt>
      <trkpt lat="43.72754" lon="7.07142">
        <ele>607.40002441406</ele>
        <time>2022-02-11T12:45:21.000Z</time>
      </trkpt>
      <trkpt lat="43.72753" lon="7.07142">
        <ele>607.40002441406</ele>
        <time>2022-02-11T12:45:22.000Z</time>
      </trkpt>
      <trkpt lat="43.72751" lon="7.07153">
        <ele>606.59997558594</ele>
        <time>2022-02-11T12:45:27.000Z</time>
      </trkpt>
      <trkpt lat="43.72754" lon="7.07158">
        <ele>606</ele>
        <time>2022-02-11T12:45:29.000Z</time>
      </trkpt>
      <trkpt lat="43.72754" lon="7.07163">
        <ele>605.79998779297</ele>
        <time>2022-02-11T12:45:30.000Z</time>
      </trkpt>
      <trkpt lat="43.72753" lon="7.0717">
        <ele>604.79998779297</ele>
        <time>2022-02-11T12:45:32.000Z</time>
      </trkpt>
      <trkpt lat="43.72748" lon="7.07181">
        <ele>603.40002441406</ele>
        <time>2022-02-11T12:45:34.000Z</time>
      </trkpt>
      <trkpt lat="43.7275" lon="7.07189">
        <ele>601.59997558594</ele>
        <time>2022-02-11T12:45:36.000Z</time>
      </trkpt>
      <trkpt lat="43.72753" lon="7.07192">
        <ele>600.79998779297</ele>
        <time>2022-02-11T12:45:37.000Z</time>
      </trkpt>
      <trkpt lat="43.72756" lon="7.07197">
        <ele>600</ele>
        <time>2022-02-11T12:45:38.000Z</time>
      </trkpt>
      <trkpt lat="43.72759" lon="7.07209">
        <ele>598.40002441406</ele>
        <time>2022-02-11T12:45:40.000Z</time>
      </trkpt>
      <trkpt lat="43.72758" lon="7.07215">
        <ele>597.59997558594</ele>
        <time>2022-02-11T12:45:41.000Z</time>
      </trkpt>
      <trkpt lat="43.72757" lon="7.07221">
        <ele>596.20001220703</ele>
        <time>2022-02-11T12:45:42.000Z</time>
      </trkpt>
      <trkpt lat="43.72755" lon="7.07225">
        <ele>595</ele>
        <time>2022-02-11T12:45:43.000Z</time>
      </trkpt>
      <trkpt lat="43.72756" lon="7.07229">
        <ele>593.40002441406</ele>
        <time>2022-02-11T12:45:44.000Z</time>
      </trkpt>
      <trkpt lat="43.72757" lon="7.07231">
        <ele>592.20001220703</ele>
        <time>2022-02-11T12:45:45.000Z</time>
      </trkpt>
      <trkpt lat="43.72759" lon="7.07233">
        <ele>591.20001220703</ele>
        <time>2022-02-11T12:45:46.000Z</time>
      </trkpt>
      <trkpt lat="43.72759" lon="7.07238">
        <ele>590.40002441406</ele>
        <time>2022-02-11T12:45:47.000Z</time>
      </trkpt>
      <trkpt lat="43.72759" lon="7.07242">
        <ele>589.59997558594</ele>
        <time>2022-02-11T12:45:48.000Z</time>
      </trkpt>
      <trkpt lat="43.72764" lon="7.07255">
        <ele>588.40002441406</ele>
        <time>2022-02-11T12:45:50.000Z</time>
      </trkpt>
      <trkpt lat="43.72764" lon="7.0726">
        <ele>587.79998779297</ele>
        <time>2022-02-11T12:45:51.000Z</time>
      </trkpt>
      <trkpt lat="43.72762" lon="7.07262">
        <ele>587.20001220703</ele>
        <time>2022-02-11T12:45:52.000Z</time>
      </trkpt>
      <trkpt lat="43.72761" lon="7.07265">
        <ele>586.59997558594</ele>
        <time>2022-02-11T12:45:53.000Z</time>
      </trkpt>
      <trkpt lat="43.72762" lon="7.07268">
        <ele>585.79998779297</ele>
        <time>2022-02-11T12:45:54.000Z</time>
      </trkpt>
      <trkpt lat="43.72771" lon="7.07279">
        <ele>584.59997558594</ele>
        <time>2022-02-11T12:45:57.000Z</time>
      </trkpt>
      <trkpt lat="43.72786" lon="7.07296">
        <ele>583.20001220703</ele>
        <time>2022-02-11T12:46:01.000Z</time>
      </trkpt>
      <trkpt lat="43.728" lon="7.07309">
        <ele>582.59997558594</ele>
        <time>2022-02-11T12:46:06.000Z</time>
      </trkpt>
      <trkpt lat="43.72813" lon="7.07318">
        <ele>583.79998779297</ele>
        <time>2022-02-11T12:46:11.000Z</time>
      </trkpt>
      <trkpt lat="43.72826" lon="7.07321">
        <ele>583.20001220703</ele>
        <time>2022-02-11T12:46:14.000Z</time>
      </trkpt>
      <trkpt lat="43.7283" lon="7.07321">
        <ele>582.79998779297</ele>
        <time>2022-02-11T12:46:15.000Z</time>
      </trkpt>
      <trkpt lat="43.72835" lon="7.07323">
        <ele>582</ele>
        <time>2022-02-11T12:46:17.000Z</time>
      </trkpt>
      <trkpt lat="43.72837" lon="7.07326">
        <ele>582</ele>
        <time>2022-02-11T12:46:18.000Z</time>
      </trkpt>
      <trkpt lat="43.72843" lon="7.07326">
        <ele>581.40002441406</ele>
        <time>2022-02-11T12:46:21.000Z</time>
      </trkpt>
      <trkpt lat="43.72847" lon="7.0733">
        <ele>580.59997558594</ele>
        <time>2022-02-11T12:46:23.000Z</time>
      </trkpt>
      <trkpt lat="43.72851" lon="7.07332">
        <ele>580</ele>
        <time>2022-02-11T12:46:25.000Z</time>
      </trkpt>
      <trkpt lat="43.72861" lon="7.07336">
        <ele>579.20001220703</ele>
        <time>2022-02-11T12:46:27.000Z</time>
      </trkpt>
      <trkpt lat="43.72866" lon="7.07338">
        <ele>578.20001220703</ele>
        <time>2022-02-11T12:46:28.000Z</time>
      </trkpt>
      <trkpt lat="43.7287" lon="7.07338">
        <ele>577</ele>
        <time>2022-02-11T12:46:29.000Z</time>
      </trkpt>
      <trkpt lat="43.72872" lon="7.07338">
        <ele>575.40002441406</ele>
        <time>2022-02-11T12:46:30.000Z</time>
      </trkpt>
      <trkpt lat="43.72874" lon="7.0734">
        <ele>574</ele>
        <time>2022-02-11T12:46:31.000Z</time>
      </trkpt>
      <trkpt lat="43.72874" lon="7.07342">
        <ele>572.59997558594</ele>
        <time>2022-02-11T12:46:32.000Z</time>
      </trkpt>
      <trkpt lat="43.72872" lon="7.07345">
        <ele>571.40002441406</ele>
        <time>2022-02-11T12:46:34.000Z</time>
      </trkpt>
      <trkpt lat="43.72873" lon="7.0735">
        <ele>570</ele>
        <time>2022-02-11T12:46:37.000Z</time>
      </trkpt>
      <trkpt lat="43.72877" lon="7.07354">
        <ele>568.79998779297</ele>
        <time>2022-02-11T12:46:39.000Z</time>
      </trkpt>
      <trkpt lat="43.72878" lon="7.07356">
        <ele>567.59997558594</ele>
        <time>2022-02-11T12:46:40.000Z</time>
      </trkpt>
      <trkpt lat="43.72883" lon="7.07359">
        <ele>565.59997558594</ele>
        <time>2022-02-11T12:46:42.000Z</time>
      </trkpt>
      <trkpt lat="43.72885" lon="7.07361">
        <ele>564.79998779297</ele>
        <time>2022-02-11T12:46:43.000Z</time>
      </trkpt>
      <trkpt lat="43.72887" lon="7.07364">
        <ele>563.59997558594</ele>
        <time>2022-02-11T12:46:44.000Z</time>
      </trkpt>
      <trkpt lat="43.72886" lon="7.07366">
        <ele>562.40002441406</ele>
        <time>2022-02-11T12:46:45.000Z</time>
      </trkpt>
      <trkpt lat="43.72886" lon="7.07369">
        <ele>561.20001220703</ele>
        <time>2022-02-11T12:46:46.000Z</time>
      </trkpt>
      <trkpt lat="43.72884" lon="7.07373">
        <ele>560</ele>
        <time>2022-02-11T12:46:47.000Z</time>
      </trkpt>
      <trkpt lat="43.72883" lon="7.0738">
        <ele>559</ele>
        <time>2022-02-11T12:46:48.000Z</time>
      </trkpt>
      <trkpt lat="43.72879" lon="7.07386">
        <ele>557.79998779297</ele>
        <time>2022-02-11T12:46:49.000Z</time>
      </trkpt>
      <trkpt lat="43.72875" lon="7.07393">
        <ele>556.40002441406</ele>
        <time>2022-02-11T12:46:50.000Z</time>
      </trkpt>
      <trkpt lat="43.7287" lon="7.07397">
        <ele>554.79998779297</ele>
        <time>2022-02-11T12:46:51.000Z</time>
      </trkpt>
      <trkpt lat="43.72866" lon="7.07401">
        <ele>553.20001220703</ele>
        <time>2022-02-11T12:46:52.000Z</time>
      </trkpt>
      <trkpt lat="43.72859" lon="7.07405">
        <ele>551.20001220703</ele>
        <time>2022-02-11T12:46:53.000Z</time>
      </trkpt>
      <trkpt lat="43.72852" lon="7.07409">
        <ele>549.20001220703</ele>
        <time>2022-02-11T12:46:54.000Z</time>
      </trkpt>
      <trkpt lat="43.72844" lon="7.07414">
        <ele>547</ele>
        <time>2022-02-11T12:46:55.000Z</time>
      </trkpt>
      <trkpt lat="43.72838" lon="7.07419">
        <ele>544.40002441406</ele>
        <time>2022-02-11T12:46:56.000Z</time>
      </trkpt>
      <trkpt lat="43.72832" lon="7.07426">
        <ele>542</ele>
        <time>2022-02-11T12:46:57.000Z</time>
      </trkpt>
      <trkpt lat="43.72826" lon="7.07434">
        <ele>539.40002441406</ele>
        <time>2022-02-11T12:46:58.000Z</time>
      </trkpt>
      <trkpt lat="43.7282" lon="7.0744">
        <ele>537.40002441406</ele>
        <time>2022-02-11T12:46:59.000Z</time>
      </trkpt>
      <trkpt lat="43.72812" lon="7.07448">
        <ele>534.59997558594</ele>
        <time>2022-02-11T12:47:00.000Z</time>
      </trkpt>
      <trkpt lat="43.72796" lon="7.0746">
        <ele>534.79998779297</ele>
        <time>2022-02-11T12:47:02.000Z</time>
      </trkpt>
      <trkpt lat="43.72789" lon="7.07467">
        <ele>532.59997558594</ele>
        <time>2022-02-11T12:47:03.000Z</time>
      </trkpt>
      <trkpt lat="43.72782" lon="7.07474">
        <ele>530.59997558594</ele>
        <time>2022-02-11T12:47:04.000Z</time>
      </trkpt>
      <trkpt lat="43.72776" lon="7.0748">
        <ele>528.59997558594</ele>
        <time>2022-02-11T12:47:05.000Z</time>
      </trkpt>
      <trkpt lat="43.72769" lon="7.07485">
        <ele>526.40002441406</ele>
        <time>2022-02-11T12:47:06.000Z</time>
      </trkpt>
      <trkpt lat="43.72762" lon="7.07489">
        <ele>524</ele>
        <time>2022-02-11T12:47:07.000Z</time>
      </trkpt>
      <trkpt lat="43.72758" lon="7.07492">
        <ele>521.79998779297</ele>
        <time>2022-02-11T12:47:08.000Z</time>
      </trkpt>
      <trkpt lat="43.72754" lon="7.07495">
        <ele>520</ele>
        <time>2022-02-11T12:47:09.000Z</time>
      </trkpt>
      <trkpt lat="43.72754" lon="7.07497">
        <ele>518.40002441406</ele>
        <time>2022-02-11T12:47:10.000Z</time>
      </trkpt>
      <trkpt lat="43.72756" lon="7.07498">
        <ele>516.79998779297</ele>
        <time>2022-02-11T12:47:11.000Z</time>
      </trkpt>
      <trkpt lat="43.72758" lon="7.075">
        <ele>515.59997558594</ele>
        <time>2022-02-11T12:47:12.000Z</time>
      </trkpt>
      <trkpt lat="43.72761" lon="7.07497">
        <ele>514.79998779297</ele>
        <time>2022-02-11T12:47:13.000Z</time>
      </trkpt>
      <trkpt lat="43.72767" lon="7.07492">
        <ele>514.20001220703</ele>
        <time>2022-02-11T12:47:15.000Z</time>
      </trkpt>
      <trkpt lat="43.72775" lon="7.07487">
        <ele>513.20001220703</ele>
        <time>2022-02-11T12:47:17.000Z</time>
      </trkpt>
      <trkpt lat="43.72779" lon="7.07486">
        <ele>513</ele>
        <time>2022-02-11T12:47:18.000Z</time>
      </trkpt>
      <trkpt lat="43.72781" lon="7.07487">
        <ele>512.40002441406</ele>
        <time>2022-02-11T12:47:19.000Z</time>
      </trkpt>
      <trkpt lat="43.72782" lon="7.0749">
        <ele>511.79998779297</ele>
        <time>2022-02-11T12:47:20.000Z</time>
      </trkpt>
      <trkpt lat="43.72782" lon="7.07493">
        <ele>511.60000610352</ele>
        <time>2022-02-11T12:47:21.000Z</time>
      </trkpt>
      <trkpt lat="43.72781" lon="7.07497">
        <ele>510.39999389648</ele>
        <time>2022-02-11T12:47:22.000Z</time>
      </trkpt>
      <trkpt lat="43.72777" lon="7.07504">
        <ele>509.79998779297</ele>
        <time>2022-02-11T12:47:24.000Z</time>
      </trkpt>
      <trkpt lat="43.72777" lon="7.07519">
        <ele>510.20001220703</ele>
        <time>2022-02-11T12:47:27.000Z</time>
      </trkpt>
      <trkpt lat="43.72778" lon="7.07523">
        <ele>510.20001220703</ele>
        <time>2022-02-11T12:47:28.000Z</time>
      </trkpt>
      <trkpt lat="43.7278" lon="7.07527">
        <ele>510.60000610352</ele>
        <time>2022-02-11T12:47:29.000Z</time>
      </trkpt>
      <trkpt lat="43.72786" lon="7.07534">
        <ele>510.79998779297</ele>
        <time>2022-02-11T12:47:31.000Z</time>
      </trkpt>
      <trkpt lat="43.72795" lon="7.07541">
        <ele>511.60000610352</ele>
        <time>2022-02-11T12:47:34.000Z</time>
      </trkpt>
      <trkpt lat="43.72802" lon="7.0755">
        <ele>512.79998779297</ele>
        <time>2022-02-11T12:47:37.000Z</time>
      </trkpt>
      <trkpt lat="43.72819" lon="7.07563">
        <ele>513.79998779297</ele>
        <time>2022-02-11T12:47:43.000Z</time>
      </trkpt>
      <trkpt lat="43.72821" lon="7.07566">
        <ele>514.20001220703</ele>
        <time>2022-02-11T12:47:44.000Z</time>
      </trkpt>
      <trkpt lat="43.72824" lon="7.07568">
        <ele>515</ele>
        <time>2022-02-11T12:47:45.000Z</time>
      </trkpt>
      <trkpt lat="43.72826" lon="7.07572">
        <ele>516.40002441406</ele>
        <time>2022-02-11T12:47:47.000Z</time>
      </trkpt>
      <trkpt lat="43.72828" lon="7.07574">
        <ele>516.79998779297</ele>
        <time>2022-02-11T12:47:48.000Z</time>
      </trkpt>
      <trkpt lat="43.7283" lon="7.07577">
        <ele>517.40002441406</ele>
        <time>2022-02-11T12:47:49.000Z</time>
      </trkpt>
      <trkpt lat="43.72834" lon="7.07582">
        <ele>518.59997558594</ele>
        <time>2022-02-11T12:47:51.000Z</time>
      </trkpt>
      <trkpt lat="43.72834" lon="7.07584">
        <ele>519.20001220703</ele>
        <time>2022-02-11T12:47:52.000Z</time>
      </trkpt>
      <trkpt lat="43.72835" lon="7.07587">
        <ele>519.79998779297</ele>
        <time>2022-02-11T12:47:53.000Z</time>
      </trkpt>
      <trkpt lat="43.7284" lon="7.07597">
        <ele>521.20001220703</ele>
        <time>2022-02-11T12:47:56.000Z</time>
      </trkpt>
      <trkpt lat="43.72842" lon="7.07601">
        <ele>521.79998779297</ele>
        <time>2022-02-11T12:47:57.000Z</time>
      </trkpt>
      <trkpt lat="43.72843" lon="7.07605">
        <ele>522.40002441406</ele>
        <time>2022-02-11T12:47:58.000Z</time>
      </trkpt>
      <trkpt lat="43.72846" lon="7.07612">
        <ele>523.40002441406</ele>
        <time>2022-02-11T12:48:00.000Z</time>
      </trkpt>
      <trkpt lat="43.72849" lon="7.07619">
        <ele>524.40002441406</ele>
        <time>2022-02-11T12:48:02.000Z</time>
      </trkpt>
      <trkpt lat="43.72851" lon="7.07623">
        <ele>525</ele>
        <time>2022-02-11T12:48:03.000Z</time>
      </trkpt>
      <trkpt lat="43.72853" lon="7.07627">
        <ele>525.40002441406</ele>
        <time>2022-02-11T12:48:04.000Z</time>
      </trkpt>
      <trkpt lat="43.72855" lon="7.07633">
        <ele>526.59997558594</ele>
        <time>2022-02-11T12:48:06.000Z</time>
      </trkpt>
      <trkpt lat="43.72859" lon="7.0764">
        <ele>527.59997558594</ele>
        <time>2022-02-11T12:48:08.000Z</time>
      </trkpt>
      <trkpt lat="43.72861" lon="7.07642">
        <ele>528.20001220703</ele>
        <time>2022-02-11T12:48:09.000Z</time>
      </trkpt>
      <trkpt lat="43.72869" lon="7.07651">
        <ele>529.59997558594</ele>
        <time>2022-02-11T12:48:12.000Z</time>
      </trkpt>
      <trkpt lat="43.72873" lon="7.07655">
        <ele>530.20001220703</ele>
        <time>2022-02-11T12:48:14.000Z</time>
      </trkpt>
      <trkpt lat="43.72877" lon="7.07662">
        <ele>530.79998779297</ele>
        <time>2022-02-11T12:48:16.000Z</time>
      </trkpt>
      <trkpt lat="43.72882" lon="7.07673">
        <ele>531.20001220703</ele>
        <time>2022-02-11T12:48:19.000Z</time>
      </trkpt>
      <trkpt lat="43.72892" lon="7.07706">
        <ele>531.40002441406</ele>
        <time>2022-02-11T12:48:26.000Z</time>
      </trkpt>
      <trkpt lat="43.72896" lon="7.0773">
        <ele>531.20001220703</ele>
        <time>2022-02-11T12:48:31.000Z</time>
      </trkpt>
      <trkpt lat="43.72905" lon="7.07752">
        <ele>531.59997558594</ele>
        <time>2022-02-11T12:48:36.000Z</time>
      </trkpt>
      <trkpt lat="43.72909" lon="7.07761">
        <ele>531.79998779297</ele>
        <time>2022-02-11T12:48:38.000Z</time>
      </trkpt>
      <trkpt lat="43.72918" lon="7.07774">
        <ele>532.59997558594</ele>
        <time>2022-02-11T12:48:42.000Z</time>
      </trkpt>
      <trkpt lat="43.72923" lon="7.0778">
        <ele>533</ele>
        <time>2022-02-11T12:48:44.000Z</time>
      </trkpt>
      <trkpt lat="43.72927" lon="7.07791">
        <ele>533.20001220703</ele>
        <time>2022-02-11T12:48:47.000Z</time>
      </trkpt>
      <trkpt lat="43.72933" lon="7.07818">
        <ele>532.79998779297</ele>
        <time>2022-02-11T12:48:53.000Z</time>
      </trkpt>
      <trkpt lat="43.72936" lon="7.07823">
        <ele>532.79998779297</ele>
        <time>2022-02-11T12:48:54.000Z</time>
      </trkpt>
      <trkpt lat="43.72946" lon="7.07841">
        <ele>531.79998779297</ele>
        <time>2022-02-11T12:48:57.000Z</time>
      </trkpt>
      <trkpt lat="43.72949" lon="7.07848">
        <ele>531.59997558594</ele>
        <time>2022-02-11T12:48:58.000Z</time>
      </trkpt>
      <trkpt lat="43.72956" lon="7.07859">
        <ele>530.59997558594</ele>
        <time>2022-02-11T12:49:00.000Z</time>
      </trkpt>
      <trkpt lat="43.72965" lon="7.07875">
        <ele>530</ele>
        <time>2022-02-11T12:49:03.000Z</time>
      </trkpt>
      <trkpt lat="43.72972" lon="7.07887">
        <ele>530.59997558594</ele>
        <time>2022-02-11T12:49:07.000Z</time>
      </trkpt>
      <trkpt lat="43.72975" lon="7.07893">
        <ele>531.59997558594</ele>
        <time>2022-02-11T12:49:11.000Z</time>
      </trkpt>
      <trkpt lat="43.72975" lon="7.07892">
        <ele>531.79998779297</ele>
        <time>2022-02-11T12:49:12.000Z</time>
      </trkpt>
      <trkpt lat="43.72975" lon="7.07898">
        <ele>532</ele>
        <time>2022-02-11T12:49:15.000Z</time>
      </trkpt>
      <trkpt lat="43.72975" lon="7.07904">
        <ele>531.79998779297</ele>
        <time>2022-02-11T12:49:17.000Z</time>
      </trkpt>
      <trkpt lat="43.72984" lon="7.07917">
        <ele>530.79998779297</ele>
        <time>2022-02-11T12:49:20.000Z</time>
      </trkpt>
      <trkpt lat="43.72988" lon="7.0792">
        <ele>530.40002441406</ele>
        <time>2022-02-11T12:49:21.000Z</time>
      </trkpt>
      <trkpt lat="43.73" lon="7.07929">
        <ele>529.59997558594</ele>
        <time>2022-02-11T12:49:24.000Z</time>
      </trkpt>
      <trkpt lat="43.73014" lon="7.07937">
        <ele>530</ele>
        <time>2022-02-11T12:49:28.000Z</time>
      </trkpt>
      <trkpt lat="43.73017" lon="7.07938">
        <ele>530.20001220703</ele>
        <time>2022-02-11T12:49:29.000Z</time>
      </trkpt>
      <trkpt lat="43.73025" lon="7.07949">
        <ele>531.40002441406</ele>
        <time>2022-02-11T12:49:33.000Z</time>
      </trkpt>
      <trkpt lat="43.73027" lon="7.07951">
        <ele>531.59997558594</ele>
        <time>2022-02-11T12:49:34.000Z</time>
      </trkpt>
      <trkpt lat="43.73039" lon="7.07963">
        <ele>531</ele>
        <time>2022-02-11T12:49:38.000Z</time>
      </trkpt>
      <trkpt lat="43.73046" lon="7.07967">
        <ele>530.40002441406</ele>
        <time>2022-02-11T12:49:41.000Z</time>
      </trkpt>
      <trkpt lat="43.73047" lon="7.0797">
        <ele>530.20001220703</ele>
        <time>2022-02-11T12:49:42.000Z</time>
      </trkpt>
      <trkpt lat="43.73048" lon="7.07971">
        <ele>529.79998779297</ele>
        <time>2022-02-11T12:49:45.000Z</time>
      </trkpt>
      <trkpt lat="43.73051" lon="7.07974">
        <ele>529.40002441406</ele>
        <time>2022-02-11T12:49:50.000Z</time>
      </trkpt>
      <trkpt lat="43.73051" lon="7.07979">
        <ele>529.40002441406</ele>
        <time>2022-02-11T12:49:53.000Z</time>
      </trkpt>
      <trkpt lat="43.73052" lon="7.07978">
        <ele>529.20001220703</ele>
        <time>2022-02-11T12:49:54.000Z</time>
      </trkpt>
      <trkpt lat="43.73047" lon="7.07978">
        <ele>528.79998779297</ele>
        <time>2022-02-11T12:49:57.000Z</time>
      </trkpt>
      <trkpt lat="43.73037" lon="7.07974">
        <ele>528</ele>
        <time>2022-02-11T12:50:00.000Z</time>
      </trkpt>
      <trkpt lat="43.73033" lon="7.07974">
        <ele>527.20001220703</ele>
        <time>2022-02-11T12:50:01.000Z</time>
      </trkpt>
      <trkpt lat="43.73029" lon="7.07973">
        <ele>526.79998779297</ele>
        <time>2022-02-11T12:50:02.000Z</time>
      </trkpt>
      <trkpt lat="43.73023" lon="7.07972">
        <ele>525.40002441406</ele>
        <time>2022-02-11T12:50:04.000Z</time>
      </trkpt>
      <trkpt lat="43.73017" lon="7.0797">
        <ele>524.40002441406</ele>
        <time>2022-02-11T12:50:06.000Z</time>
      </trkpt>
      <trkpt lat="43.73015" lon="7.07968">
        <ele>523.79998779297</ele>
        <time>2022-02-11T12:50:07.000Z</time>
      </trkpt>
      <trkpt lat="43.73011" lon="7.07971">
        <ele>523</ele>
        <time>2022-02-11T12:50:09.000Z</time>
      </trkpt>
      <trkpt lat="43.73005" lon="7.07973">
        <ele>522.79998779297</ele>
        <time>2022-02-11T12:50:10.000Z</time>
      </trkpt>
      <trkpt lat="43.72994" lon="7.07975">
        <ele>522.20001220703</ele>
        <time>2022-02-11T12:50:12.000Z</time>
      </trkpt>
      <trkpt lat="43.7299" lon="7.07978">
        <ele>521.59997558594</ele>
        <time>2022-02-11T12:50:13.000Z</time>
      </trkpt>
      <trkpt lat="43.72984" lon="7.07987">
        <ele>519.59997558594</ele>
        <time>2022-02-11T12:50:15.000Z</time>
      </trkpt>
      <trkpt lat="43.72976" lon="7.07992">
        <ele>517.59997558594</ele>
        <time>2022-02-11T12:50:17.000Z</time>
      </trkpt>
      <trkpt lat="43.72972" lon="7.07993">
        <ele>516.20001220703</ele>
        <time>2022-02-11T12:50:18.000Z</time>
      </trkpt>
      <trkpt lat="43.72966" lon="7.07998">
        <ele>514.59997558594</ele>
        <time>2022-02-11T12:50:20.000Z</time>
      </trkpt>
      <trkpt lat="43.72962" lon="7.08004">
        <ele>513.40002441406</ele>
        <time>2022-02-11T12:50:21.000Z</time>
      </trkpt>
      <trkpt lat="43.72958" lon="7.08008">
        <ele>511.79998779297</ele>
        <time>2022-02-11T12:50:22.000Z</time>
      </trkpt>
      <trkpt lat="43.7295" lon="7.0801">
        <ele>509.20001220703</ele>
        <time>2022-02-11T12:50:24.000Z</time>
      </trkpt>
      <trkpt lat="43.72946" lon="7.08007">
        <ele>508.39999389648</ele>
        <time>2022-02-11T12:50:25.000Z</time>
      </trkpt>
      <trkpt lat="43.72941" lon="7.08004">
        <ele>507</ele>
        <time>2022-02-11T12:50:26.000Z</time>
      </trkpt>
      <trkpt lat="43.72937" lon="7.08">
        <ele>506.79998779297</ele>
        <time>2022-02-11T12:50:27.000Z</time>
      </trkpt>
      <trkpt lat="43.72934" lon="7.07998">
        <ele>506</ele>
        <time>2022-02-11T12:50:28.000Z</time>
      </trkpt>
      <trkpt lat="43.72932" lon="7.07998">
        <ele>505.60000610352</ele>
        <time>2022-02-11T12:50:29.000Z</time>
      </trkpt>
      <trkpt lat="43.72931" lon="7.08002">
        <ele>504.79998779297</ele>
        <time>2022-02-11T12:50:30.000Z</time>
      </trkpt>
      <trkpt lat="43.72936" lon="7.08011">
        <ele>503.79998779297</ele>
        <time>2022-02-11T12:50:32.000Z</time>
      </trkpt>
      <trkpt lat="43.72947" lon="7.08021">
        <ele>502.39999389648</ele>
        <time>2022-02-11T12:50:35.000Z</time>
      </trkpt>
      <trkpt lat="43.72949" lon="7.08021">
        <ele>501.79998779297</ele>
        <time>2022-02-11T12:50:36.000Z</time>
      </trkpt>
      <trkpt lat="43.72951" lon="7.08022">
        <ele>501.20001220703</ele>
        <time>2022-02-11T12:50:37.000Z</time>
      </trkpt>
      <trkpt lat="43.72952" lon="7.08027">
        <ele>499.79998779297</ele>
        <time>2022-02-11T12:50:39.000Z</time>
      </trkpt>
      <trkpt lat="43.72951" lon="7.08028">
        <ele>499.20001220703</ele>
        <time>2022-02-11T12:50:40.000Z</time>
      </trkpt>
      <trkpt lat="43.72952" lon="7.08028">
        <ele>498.79998779297</ele>
        <time>2022-02-11T12:50:41.000Z</time>
      </trkpt>
      <trkpt lat="43.72952" lon="7.08031">
        <ele>498</ele>
        <time>2022-02-11T12:50:46.000Z</time>
      </trkpt>
      <trkpt lat="43.72956" lon="7.08036">
        <ele>497.79998779297</ele>
        <time>2022-02-11T12:50:48.000Z</time>
      </trkpt>
      <trkpt lat="43.72963" lon="7.08044">
        <ele>497.60000610352</ele>
        <time>2022-02-11T12:50:50.000Z</time>
      </trkpt>
      <trkpt lat="43.72965" lon="7.08052">
        <ele>496.60000610352</ele>
        <time>2022-02-11T12:50:52.000Z</time>
      </trkpt>
      <trkpt lat="43.72964" lon="7.08054">
        <ele>496</ele>
        <time>2022-02-11T12:50:53.000Z</time>
      </trkpt>
      <trkpt lat="43.72961" lon="7.08054">
        <ele>495.20001220703</ele>
        <time>2022-02-11T12:50:54.000Z</time>
      </trkpt>
      <trkpt lat="43.72956" lon="7.08048">
        <ele>494.60000610352</ele>
        <time>2022-02-11T12:50:55.000Z</time>
      </trkpt>
      <trkpt lat="43.72952" lon="7.08044">
        <ele>494</ele>
        <time>2022-02-11T12:50:56.000Z</time>
      </trkpt>
      <trkpt lat="43.72946" lon="7.08042">
        <ele>493.20001220703</ele>
        <time>2022-02-11T12:50:57.000Z</time>
      </trkpt>
      <trkpt lat="43.7294" lon="7.08041">
        <ele>492.39999389648</ele>
        <time>2022-02-11T12:50:58.000Z</time>
      </trkpt>
      <trkpt lat="43.72934" lon="7.0804">
        <ele>491.60000610352</ele>
        <time>2022-02-11T12:50:59.000Z</time>
      </trkpt>
      <trkpt lat="43.72928" lon="7.08037">
        <ele>490.79998779297</ele>
        <time>2022-02-11T12:51:00.000Z</time>
      </trkpt>
      <trkpt lat="43.7292" lon="7.08035">
        <ele>489.20001220703</ele>
        <time>2022-02-11T12:51:02.000Z</time>
      </trkpt>
      <trkpt lat="43.72919" lon="7.08037">
        <ele>488.60000610352</ele>
        <time>2022-02-11T12:51:03.000Z</time>
      </trkpt>
      <trkpt lat="43.72918" lon="7.08039">
        <ele>488</ele>
        <time>2022-02-11T12:51:04.000Z</time>
      </trkpt>
      <trkpt lat="43.72917" lon="7.08043">
        <ele>487.60000610352</ele>
        <time>2022-02-11T12:51:05.000Z</time>
      </trkpt>
      <trkpt lat="43.72913" lon="7.08053">
        <ele>486.60000610352</ele>
        <time>2022-02-11T12:51:07.000Z</time>
      </trkpt>
      <trkpt lat="43.72908" lon="7.08059">
        <ele>485.20001220703</ele>
        <time>2022-02-11T12:51:09.000Z</time>
      </trkpt>
      <trkpt lat="43.72904" lon="7.08063">
        <ele>484</ele>
        <time>2022-02-11T12:51:10.000Z</time>
      </trkpt>
      <trkpt lat="43.72899" lon="7.08069">
        <ele>482.60000610352</ele>
        <time>2022-02-11T12:51:11.000Z</time>
      </trkpt>
      <trkpt lat="43.72891" lon="7.08077">
        <ele>481.39999389648</ele>
        <time>2022-02-11T12:51:12.000Z</time>
      </trkpt>
      <trkpt lat="43.72883" lon="7.08086">
        <ele>480.20001220703</ele>
        <time>2022-02-11T12:51:13.000Z</time>
      </trkpt>
      <trkpt lat="43.72876" lon="7.08094">
        <ele>478</ele>
        <time>2022-02-11T12:51:14.000Z</time>
      </trkpt>
      <trkpt lat="43.72867" lon="7.08106">
        <ele>475.60000610352</ele>
        <time>2022-02-11T12:51:15.000Z</time>
      </trkpt>
      <trkpt lat="43.72859" lon="7.0812">
        <ele>473</ele>
        <time>2022-02-11T12:51:16.000Z</time>
      </trkpt>
      <trkpt lat="43.72852" lon="7.08133">
        <ele>470</ele>
        <time>2022-02-11T12:51:17.000Z</time>
      </trkpt>
      <trkpt lat="43.72844" lon="7.08147">
        <ele>467</ele>
        <time>2022-02-11T12:51:18.000Z</time>
      </trkpt>
      <trkpt lat="43.72837" lon="7.08158">
        <ele>464.20001220703</ele>
        <time>2022-02-11T12:51:19.000Z</time>
      </trkpt>
      <trkpt lat="43.72831" lon="7.0817">
        <ele>461.60000610352</ele>
        <time>2022-02-11T12:51:20.000Z</time>
      </trkpt>
      <trkpt lat="43.72825" lon="7.08179">
        <ele>459.39999389648</ele>
        <time>2022-02-11T12:51:21.000Z</time>
      </trkpt>
      <trkpt lat="43.72822" lon="7.08186">
        <ele>457.60000610352</ele>
        <time>2022-02-11T12:51:22.000Z</time>
      </trkpt>
      <trkpt lat="43.72819" lon="7.08192">
        <ele>456</ele>
        <time>2022-02-11T12:51:23.000Z</time>
      </trkpt>
      <trkpt lat="43.7282" lon="7.08206">
        <ele>454.20001220703</ele>
        <time>2022-02-11T12:51:25.000Z</time>
      </trkpt>
      <trkpt lat="43.72827" lon="7.0822">
        <ele>452.79998779297</ele>
        <time>2022-02-11T12:51:27.000Z</time>
      </trkpt>
      <trkpt lat="43.7283" lon="7.08227">
        <ele>452.60000610352</ele>
        <time>2022-02-11T12:51:28.000Z</time>
      </trkpt>
      <trkpt lat="43.72833" lon="7.08233">
        <ele>452.20001220703</ele>
        <time>2022-02-11T12:51:29.000Z</time>
      </trkpt>
      <trkpt lat="43.72837" lon="7.0824">
        <ele>451.79998779297</ele>
        <time>2022-02-11T12:51:30.000Z</time>
      </trkpt>
      <trkpt lat="43.72846" lon="7.08258">
        <ele>450.39999389648</ele>
        <time>2022-02-11T12:51:33.000Z</time>
      </trkpt>
      <trkpt lat="43.72848" lon="7.08261">
        <ele>449.79998779297</ele>
        <time>2022-02-11T12:51:34.000Z</time>
      </trkpt>
      <trkpt lat="43.72848" lon="7.08263">
        <ele>449.39999389648</ele>
        <time>2022-02-11T12:51:35.000Z</time>
      </trkpt>
      <trkpt lat="43.72847" lon="7.08265">
        <ele>449.20001220703</ele>
        <time>2022-02-11T12:51:36.000Z</time>
      </trkpt>
      <trkpt lat="43.72846" lon="7.08267">
        <ele>449</ele>
        <time>2022-02-11T12:51:37.000Z</time>
      </trkpt>
      <trkpt lat="43.7284" lon="7.08274">
        <ele>449</ele>
        <time>2022-02-11T12:51:40.000Z</time>
      </trkpt>
      <trkpt lat="43.72834" lon="7.08279">
        <ele>448.79998779297</ele>
        <time>2022-02-11T12:51:42.000Z</time>
      </trkpt>
      <trkpt lat="43.7283" lon="7.08281">
        <ele>448.60000610352</ele>
        <time>2022-02-11T12:51:43.000Z</time>
      </trkpt>
      <trkpt lat="43.72823" lon="7.08286">
        <ele>448</ele>
        <time>2022-02-11T12:51:45.000Z</time>
      </trkpt>
      <trkpt lat="43.7282" lon="7.08289">
        <ele>447.60000610352</ele>
        <time>2022-02-11T12:51:46.000Z</time>
      </trkpt>
      <trkpt lat="43.72812" lon="7.08295">
        <ele>446.79998779297</ele>
        <time>2022-02-11T12:51:49.000Z</time>
      </trkpt>
      <trkpt lat="43.72802" lon="7.08299">
        <ele>446.20001220703</ele>
        <time>2022-02-11T12:51:52.000Z</time>
      </trkpt>
      <trkpt lat="43.72799" lon="7.08299">
        <ele>445.60000610352</ele>
        <time>2022-02-11T12:51:53.000Z</time>
      </trkpt>
      <trkpt lat="43.72794" lon="7.08301">
        <ele>444</ele>
        <time>2022-02-11T12:51:55.000Z</time>
      </trkpt>
      <trkpt lat="43.7279" lon="7.08303">
        <ele>443</ele>
        <time>2022-02-11T12:51:56.000Z</time>
      </trkpt>
      <trkpt lat="43.72786" lon="7.08306">
        <ele>442</ele>
        <time>2022-02-11T12:51:57.000Z</time>
      </trkpt>
      <trkpt lat="43.72782" lon="7.08308">
        <ele>440.60000610352</ele>
        <time>2022-02-11T12:51:58.000Z</time>
      </trkpt>
      <trkpt lat="43.72779" lon="7.0831">
        <ele>439.39999389648</ele>
        <time>2022-02-11T12:51:59.000Z</time>
      </trkpt>
      <trkpt lat="43.72774" lon="7.08314">
        <ele>438.20001220703</ele>
        <time>2022-02-11T12:52:00.000Z</time>
      </trkpt>
      <trkpt lat="43.72769" lon="7.08319">
        <ele>436.79998779297</ele>
        <time>2022-02-11T12:52:01.000Z</time>
      </trkpt>
      <trkpt lat="43.72763" lon="7.08323">
        <ele>435.20001220703</ele>
        <time>2022-02-11T12:52:02.000Z</time>
      </trkpt>
      <trkpt lat="43.72758" lon="7.08328">
        <ele>433.39999389648</ele>
        <time>2022-02-11T12:52:03.000Z</time>
      </trkpt>
      <trkpt lat="43.72754" lon="7.0833">
        <ele>432</ele>
        <time>2022-02-11T12:52:04.000Z</time>
      </trkpt>
      <trkpt lat="43.7275" lon="7.08334">
        <ele>430.39999389648</ele>
        <time>2022-02-11T12:52:05.000Z</time>
      </trkpt>
      <trkpt lat="43.72746" lon="7.08337">
        <ele>428.79998779297</ele>
        <time>2022-02-11T12:52:06.000Z</time>
      </trkpt>
      <trkpt lat="43.72743" lon="7.0834">
        <ele>427.39999389648</ele>
        <time>2022-02-11T12:52:07.000Z</time>
      </trkpt>
      <trkpt lat="43.72741" lon="7.08342">
        <ele>426.39999389648</ele>
        <time>2022-02-11T12:52:08.000Z</time>
      </trkpt>
      <trkpt lat="43.72741" lon="7.08343">
        <ele>424.39999389648</ele>
        <time>2022-02-11T12:52:10.000Z</time>
      </trkpt>
      <trkpt lat="43.72741" lon="7.08343">
        <ele>423.20001220703</ele>
        <time>2022-02-11T12:52:11.000Z</time>
      </trkpt>
      <trkpt lat="43.7274" lon="7.08345">
        <ele>422</ele>
        <time>2022-02-11T12:52:14.000Z</time>
      </trkpt>
      <trkpt lat="43.7274" lon="7.08346">
        <ele>421.79998779297</ele>
        <time>2022-02-11T12:52:16.000Z</time>
      </trkpt>
      <trkpt lat="43.72739" lon="7.08346">
        <ele>421</ele>
        <time>2022-02-11T12:52:23.000Z</time>
      </trkpt>
      <trkpt lat="43.72739" lon="7.08347">
        <ele>421</ele>
        <time>2022-02-11T12:52:24.000Z</time>
      </trkpt>
      <trkpt lat="43.72734" lon="7.08354">
        <ele>420.60000610352</ele>
        <time>2022-02-11T12:52:29.000Z</time>
      </trkpt>
      <trkpt lat="43.72728" lon="7.0836">
        <ele>419.79998779297</ele>
        <time>2022-02-11T12:52:31.000Z</time>
      </trkpt>
      <trkpt lat="43.7272" lon="7.08369">
        <ele>418.60000610352</ele>
        <time>2022-02-11T12:52:33.000Z</time>
      </trkpt>
      <trkpt lat="43.72716" lon="7.08374">
        <ele>417.60000610352</ele>
        <time>2022-02-11T12:52:34.000Z</time>
      </trkpt>
      <trkpt lat="43.72712" lon="7.0838">
        <ele>416.20001220703</ele>
        <time>2022-02-11T12:52:35.000Z</time>
      </trkpt>
      <trkpt lat="43.72704" lon="7.08393">
        <ele>413.60000610352</ele>
        <time>2022-02-11T12:52:37.000Z</time>
      </trkpt>
      <trkpt lat="43.72698" lon="7.084">
        <ele>412</ele>
        <time>2022-02-11T12:52:38.000Z</time>
      </trkpt>
      <trkpt lat="43.72692" lon="7.08406">
        <ele>410.39999389648</ele>
        <time>2022-02-11T12:52:39.000Z</time>
      </trkpt>
      <trkpt lat="43.72684" lon="7.08414">
        <ele>408.79998779297</ele>
        <time>2022-02-11T12:52:40.000Z</time>
      </trkpt>
      <trkpt lat="43.72678" lon="7.08423">
        <ele>407</ele>
        <time>2022-02-11T12:52:41.000Z</time>
      </trkpt>
      <trkpt lat="43.72672" lon="7.08431">
        <ele>405.20001220703</ele>
        <time>2022-02-11T12:52:42.000Z</time>
      </trkpt>
      <trkpt lat="43.72666" lon="7.08439">
        <ele>403.39999389648</ele>
        <time>2022-02-11T12:52:43.000Z</time>
      </trkpt>
      <trkpt lat="43.72661" lon="7.08445">
        <ele>402.20001220703</ele>
        <time>2022-02-11T12:52:44.000Z</time>
      </trkpt>
      <trkpt lat="43.72656" lon="7.08452">
        <ele>400</ele>
        <time>2022-02-11T12:52:45.000Z</time>
      </trkpt>
      <trkpt lat="43.72652" lon="7.0846">
        <ele>398.39999389648</ele>
        <time>2022-02-11T12:52:46.000Z</time>
      </trkpt>
      <trkpt lat="43.72647" lon="7.08468">
        <ele>396.39999389648</ele>
        <time>2022-02-11T12:52:47.000Z</time>
      </trkpt>
      <trkpt lat="43.7264" lon="7.08477">
        <ele>394.39999389648</ele>
        <time>2022-02-11T12:52:48.000Z</time>
      </trkpt>
      <trkpt lat="43.72634" lon="7.08485">
        <ele>393</ele>
        <time>2022-02-11T12:52:49.000Z</time>
      </trkpt>
      <trkpt lat="43.72626" lon="7.08494">
        <ele>391.79998779297</ele>
        <time>2022-02-11T12:52:50.000Z</time>
      </trkpt>
      <trkpt lat="43.72619" lon="7.08503">
        <ele>390.39999389648</ele>
        <time>2022-02-11T12:52:51.000Z</time>
      </trkpt>
      <trkpt lat="43.72611" lon="7.0851">
        <ele>389.39999389648</ele>
        <time>2022-02-11T12:52:52.000Z</time>
      </trkpt>
      <trkpt lat="43.72606" lon="7.08518">
        <ele>388.20001220703</ele>
        <time>2022-02-11T12:52:53.000Z</time>
      </trkpt>
      <trkpt lat="43.726" lon="7.08523">
        <ele>387.20001220703</ele>
        <time>2022-02-11T12:52:54.000Z</time>
      </trkpt>
      <trkpt lat="43.72596" lon="7.08527">
        <ele>386</ele>
        <time>2022-02-11T12:52:55.000Z</time>
      </trkpt>
      <trkpt lat="43.72591" lon="7.0853">
        <ele>385.39999389648</ele>
        <time>2022-02-11T12:52:56.000Z</time>
      </trkpt>
      <trkpt lat="43.72587" lon="7.08531">
        <ele>384.79998779297</ele>
        <time>2022-02-11T12:52:57.000Z</time>
      </trkpt>
      <trkpt lat="43.72573" lon="7.08528">
        <ele>384.20001220703</ele>
        <time>2022-02-11T12:53:00.000Z</time>
      </trkpt>
      <trkpt lat="43.72569" lon="7.08525">
        <ele>383.79998779297</ele>
        <time>2022-02-11T12:53:01.000Z</time>
      </trkpt>
      <trkpt lat="43.72565" lon="7.08522">
        <ele>383.60000610352</ele>
        <time>2022-02-11T12:53:02.000Z</time>
      </trkpt>
      <trkpt lat="43.72554" lon="7.08517">
        <ele>382.79998779297</ele>
        <time>2022-02-11T12:53:04.000Z</time>
      </trkpt>
      <trkpt lat="43.72548" lon="7.08517">
        <ele>382.39999389648</ele>
        <time>2022-02-11T12:53:05.000Z</time>
      </trkpt>
      <trkpt lat="43.72527" lon="7.08526">
        <ele>380.39999389648</ele>
        <time>2022-02-11T12:53:08.000Z</time>
      </trkpt>
      <trkpt lat="43.72522" lon="7.08534">
        <ele>380.39999389648</ele>
        <time>2022-02-11T12:53:09.000Z</time>
      </trkpt>
      <trkpt lat="43.7251" lon="7.08565">
        <ele>379</ele>
        <time>2022-02-11T12:53:12.000Z</time>
      </trkpt>
      <trkpt lat="43.72495" lon="7.08577">
        <ele>378</ele>
        <time>2022-02-11T12:53:14.000Z</time>
      </trkpt>
      <trkpt lat="43.72485" lon="7.08581">
        <ele>377.39999389648</ele>
        <time>2022-02-11T12:53:15.000Z</time>
      </trkpt>
      <trkpt lat="43.72467" lon="7.08583">
        <ele>375</ele>
        <time>2022-02-11T12:53:17.000Z</time>
      </trkpt>
      <trkpt lat="43.7246" lon="7.08584">
        <ele>373.60000610352</ele>
        <time>2022-02-11T12:53:18.000Z</time>
      </trkpt>
      <trkpt lat="43.72455" lon="7.08585">
        <ele>372</ele>
        <time>2022-02-11T12:53:19.000Z</time>
      </trkpt>
      <trkpt lat="43.7245" lon="7.08585">
        <ele>370.79998779297</ele>
        <time>2022-02-11T12:53:20.000Z</time>
      </trkpt>
      <trkpt lat="43.72447" lon="7.08584">
        <ele>369.79998779297</ele>
        <time>2022-02-11T12:53:21.000Z</time>
      </trkpt>
      <trkpt lat="43.72442" lon="7.08585">
        <ele>368.60000610352</ele>
        <time>2022-02-11T12:53:23.000Z</time>
      </trkpt>
      <trkpt lat="43.72435" lon="7.08578">
        <ele>367</ele>
        <time>2022-02-11T12:53:27.000Z</time>
      </trkpt>
      <trkpt lat="43.72435" lon="7.08572">
        <ele>365.79998779297</ele>
        <time>2022-02-11T12:53:29.000Z</time>
      </trkpt>
      <trkpt lat="43.72437" lon="7.08563">
        <ele>365.60000610352</ele>
        <time>2022-02-11T12:53:31.000Z</time>
      </trkpt>
      <trkpt lat="43.72442" lon="7.08535">
        <ele>365.20001220703</ele>
        <time>2022-02-11T12:53:37.000Z</time>
      </trkpt>
      <trkpt lat="43.72445" lon="7.08509">
        <ele>365.39999389648</ele>
        <time>2022-02-11T12:53:42.000Z</time>
      </trkpt>
      <trkpt lat="43.72451" lon="7.08482">
        <ele>365.60000610352</ele>
        <time>2022-02-11T12:53:47.000Z</time>
      </trkpt>
      <trkpt lat="43.72454" lon="7.0846">
        <ele>365.79998779297</ele>
        <time>2022-02-11T12:53:51.000Z</time>
      </trkpt>
      <trkpt lat="43.72457" lon="7.0845">
        <ele>365.60000610352</ele>
        <time>2022-02-11T12:53:53.000Z</time>
      </trkpt>
      <trkpt lat="43.72462" lon="7.08419">
        <ele>364.79998779297</ele>
        <time>2022-02-11T12:53:59.000Z</time>
      </trkpt>
      <trkpt lat="43.72464" lon="7.08408">
        <ele>364.79998779297</ele>
        <time>2022-02-11T12:54:01.000Z</time>
      </trkpt>
      <trkpt lat="43.72469" lon="7.08377">
        <ele>364.60000610352</ele>
        <time>2022-02-11T12:54:07.000Z</time>
      </trkpt>
      <trkpt lat="43.72464" lon="7.08347">
        <ele>365</ele>
        <time>2022-02-11T12:54:13.000Z</time>
      </trkpt>
      <trkpt lat="43.72449" lon="7.08333">
        <ele>365.39999389648</ele>
        <time>2022-02-11T12:54:18.000Z</time>
      </trkpt>
      <trkpt lat="43.72439" lon="7.08332">
        <ele>365.79998779297</ele>
        <time>2022-02-11T12:54:21.000Z</time>
      </trkpt>
      <trkpt lat="43.72432" lon="7.08334">
        <ele>366.20001220703</ele>
        <time>2022-02-11T12:54:23.000Z</time>
      </trkpt>
      <trkpt lat="43.72413" lon="7.08347">
        <ele>366.79998779297</ele>
        <time>2022-02-11T12:54:29.000Z</time>
      </trkpt>
      <trkpt lat="43.72409" lon="7.08349">
        <ele>366.79998779297</ele>
        <time>2022-02-11T12:54:30.000Z</time>
      </trkpt>
      <trkpt lat="43.72376" lon="7.08361">
        <ele>367.60000610352</ele>
        <time>2022-02-11T12:54:39.000Z</time>
      </trkpt>
      <trkpt lat="43.72364" lon="7.08358">
        <ele>368</ele>
        <time>2022-02-11T12:54:42.000Z</time>
      </trkpt>
      <trkpt lat="43.72354" lon="7.0835">
        <ele>368.20001220703</ele>
        <time>2022-02-11T12:54:45.000Z</time>
      </trkpt>
      <trkpt lat="43.72337" lon="7.08327">
        <ele>369.20001220703</ele>
        <time>2022-02-11T12:54:51.000Z</time>
      </trkpt>
      <trkpt lat="43.72335" lon="7.08322">
        <ele>369.20001220703</ele>
        <time>2022-02-11T12:54:52.000Z</time>
      </trkpt>
      <trkpt lat="43.72329" lon="7.0829">
        <ele>369.60000610352</ele>
        <time>2022-02-11T12:54:58.000Z</time>
      </trkpt>
      <trkpt lat="43.72328" lon="7.08285">
        <ele>369.79998779297</ele>
        <time>2022-02-11T12:54:59.000Z</time>
      </trkpt>
      <trkpt lat="43.72325" lon="7.08274">
        <ele>369.79998779297</ele>
        <time>2022-02-11T12:55:01.000Z</time>
      </trkpt>
      <trkpt lat="43.7232" lon="7.08266">
        <ele>370</ele>
        <time>2022-02-11T12:55:03.000Z</time>
      </trkpt>
      <trkpt lat="43.72316" lon="7.08256">
        <ele>370.20001220703</ele>
        <time>2022-02-11T12:55:05.000Z</time>
      </trkpt>
      <trkpt lat="43.72308" lon="7.08237">
        <ele>370.39999389648</ele>
        <time>2022-02-11T12:55:09.000Z</time>
      </trkpt>
      <trkpt lat="43.72301" lon="7.08206">
        <ele>371.20001220703</ele>
        <time>2022-02-11T12:55:15.000Z</time>
      </trkpt>
      <trkpt lat="43.72301" lon="7.08183">
        <ele>372</ele>
        <time>2022-02-11T12:55:20.000Z</time>
      </trkpt>
      <trkpt lat="43.72298" lon="7.08173">
        <ele>372.20001220703</ele>
        <time>2022-02-11T12:55:24.000Z</time>
      </trkpt>
      <trkpt lat="43.72296" lon="7.08173">
        <ele>372.20001220703</ele>
        <time>2022-02-11T12:55:25.000Z</time>
      </trkpt>
      <trkpt lat="43.72293" lon="7.08175">
        <ele>373</ele>
        <time>2022-02-11T12:55:29.000Z</time>
      </trkpt>
      <trkpt lat="43.72293" lon="7.08175">
        <ele>373.20001220703</ele>
        <time>2022-02-11T12:55:31.000Z</time>
      </trkpt>
      <trkpt lat="43.72294" lon="7.08178">
        <ele>373.39999389648</ele>
        <time>2022-02-11T12:55:36.000Z</time>
      </trkpt>
      <trkpt lat="43.72294" lon="7.08179">
        <ele>373.39999389648</ele>
        <time>2022-02-11T12:55:41.000Z</time>
      </trkpt>
      <trkpt lat="43.72294" lon="7.0818">
        <ele>373.39999389648</ele>
        <time>2022-02-11T12:55:48.000Z</time>
      </trkpt>
      <trkpt lat="43.72288" lon="7.08179">
        <ele>373</ele>
        <time>2022-02-11T12:55:55.000Z</time>
      </trkpt>
      <trkpt lat="43.72284" lon="7.08181">
        <ele>373</ele>
        <time>2022-02-11T12:56:02.000Z</time>
      </trkpt>
      <trkpt lat="43.72283" lon="7.08181">
        <ele>373</ele>
        <time>2022-02-11T12:56:03.000Z</time>
      </trkpt>
    </trkseg>
  </trk>
</gpx>